ECMWFFLT2_sfc_thetae_000.txt.gz
Theta_e
311 310 312 310 313 303 309 309 305 309 315 313 308 309 310 310 307 303 312 311 313 317 318 321 323 323 323 324 324 324 327 331 338 336 338 341 343 345 345 346 345 348 348 350 351 352 351 351 353 354 357 361 361 360 362 367 369 367 366 368 369 370 371
311 313 313 312 312 314 312 305 309 315 317 315 310 303 306 304 301 303 308 308 309 309 306 319 318 317 318 320 322 322 324 330 334 336 338 341 342 344 347 349 349 349 349 351 350 349 350 350 352 355 358 362 364 363 364 366 367 366 365 368 370 371 371
310 313 312 310 312 314 311 311 317 309 304 304 309 307 299 299 299 301 306 309 310 310 310 314 315 316 317 320 322 321 321 326 333 335 338 342 343 343 345 347 348 349 349 350 351 347 347 351 355 357 359 361 363 365 365 361 363 365 366 365 369 373 373
310 310 309 302 306 311 313 315 313 315 312 307 306 306 308 307 300 300 301 306 305 313 313 315 316 319 319 319 320 320 321 325 334 336 337 340 342 342 343 345 348 349 349 348 347 345 345 347 353 355 358 358 357 361 364 362 360 366 367 365 369 371 371
309 302 306 304 307 305 306 307 308 310 309 315 313 311 307 304 302 301 301 300 306 314 317 316 318 319 321 320 320 322 323 323 325 337 338 340 343 343 344 345 347 349 349 346 344 346 346 347 353 355 353 355 355 356 359 361 361 362 363 365 368 371 371
303 305 309 308 308 309 308 307 306 308 308 306 302 302 312 309 304 299 300 299 310 316 319 319 318 320 320 321 322 321 322 323 327 327 340 342 343 346 346 346 346 346 349 348 345 347 348 347 350 353 352 353 353 354 355 359 359 360 360 364 367 371 372
304 306 310 311 311 310 310 310 308 310 310 310 305 297 304 308 308 309 307 303 307 318 321 321 321 321 320 321 321 321 322 325 325 329 337 343 347 347 346 347 346 346 348 350 348 348 350 350 352 354 354 352 353 354 354 358 359 359 359 361 367 373 371
310 310 311 311 311 309 307 309 311 310 307 309 308 308 309 306 307 305 305 303 307 318 324 323 321 324 322 324 323 323 322 324 326 329 341 345 348 350 349 348 346 348 347 351 355 353 354 354 355 355 356 356 354 355 356 358 360 360 360 359 364 370 370
303 306 309 307 310 309 306 305 308 310 311 310 310 311 312 305 306 307 304 299 305 317 323 325 326 323 320 320 322 324 327 332 332 339 347 345 349 349 347 348 348 348 346 349 354 356 359 358 356 357 357 358 356 357 359 358 359 361 362 361 360 367 369
294 294 295 298 301 304 307 308 307 308 308 309 308 304 307 300 308 310 304 304 310 316 320 319 319 319 320 323 323 324 326 331 333 334 349 351 349 350 350 349 348 348 352 355 358 359 361 359 357 360 361 360 359 360 362 361 361 362 362 362 360 363 367
301 303 307 310 310 308 303 305 306 306 308 309 309 309 305 301 306 307 307 310 311 312 315 317 318 319 318 318 321 321 322 334 340 350 351 349 349 350 348 350 351 355 357 357 360 362 362 359 360 360 360 361 360 363 364 362 363 364 365 365 365 361 364
308 308 308 309 310 306 307 305 304 306 306 307 306 304 303 311 306 300 307 315 310 311 315 316 318 318 320 320 321 321 322 323 329 343 352 350 347 349 350 351 352 353 357 361 363 364 362 361 362 363 362 361 362 364 363 363 363 363 364 366 366 366 368
308 309 309 309 308 308 308 307 306 305 306 306 305 306 307 309 304 302 311 316 311 312 314 316 319 320 321 319 320 321 322 322 326 342 349 345 344 347 347 352 354 356 358 360 362 362 362 362 362 363 363 363 365 366 366 365 363 364 366 367 368 367 369
308 308 308 309 308 308 307 307 308 307 307 306 307 306 307 307 308 309 310 315 312 314 315 317 319 321 320 321 323 323 323 321 330 341 348 343 344 344 345 349 352 356 357 361 363 364 364 363 364 362 363 365 364 364 364 364 365 364 366 367 369 367 365
307 309 310 310 309 307 306 307 307 307 307 307 307 307 307 309 308 308 308 309 311 317 319 319 321 322 321 321 318 320 325 323 322 331 342 343 343 344 346 350 351 355 357 359 362 363 364 364 364 363 365 366 365 363 363 364 367 366 366 368 368 366 364
305 309 308 308 309 308 306 306 307 307 306 305 306 306 308 308 307 308 307 306 307 313 319 319 320 321 320 319 319 322 322 322 325 338 343 344 347 346 346 349 351 354 354 357 360 362 362 363 365 366 367 366 365 363 364 364 365 366 366 367 366 367 365
304 308 308 307 307 306 303 303 306 307 308 308 309 309 310 310 310 307 304 305 311 315 318 316 317 317 318 318 320 321 323 340 345 343 344 345 348 349 350 351 352 352 352 357 361 361 361 363 365 366 368 365 366 366 367 367 368 366 365 365 366 366 364
304 307 307 307 303 296 298 310 311 310 307 308 306 306 308 311 312 310 312 313 316 316 315 314 316 317 318 319 327 337 341 340 339 340 340 342 346 349 350 351 350 352 354 356 357 359 362 363 362 365 367 366 368 367 367 368 367 368 368 367 365 364 361
303 307 307 301 296 297 310 313 313 313 311 311 309 309 310 311 313 313 313 315 316 318 317 321 323 325 340 339 338 334 335 338 336 336 337 343 345 346 349 352 351 352 352 354 357 357 357 357 362 364 364 366 366 365 367 365 367 368 368 367 365 362 358
308 305 302 294 296 309 310 312 314 315 313 311 310 308 311 312 312 313 312 314 315 318 319 320 330 336 332 333 336 337 335 336 335 333 333 338 342 343 347 350 352 352 351 354 353 356 358 360 359 360 361 362 361 362 365 366 366 368 367 366 362 361 357
301 304 302 301 309 307 309 310 312 312 310 310 308 303 308 313 314 314 313 315 315 315 317 327 329 330 326 326 327 332 331 335 336 333 335 338 342 344 347 347 351 354 354 354 354 355 356 357 357 356 357 357 357 358 361 364 367 367 366 364 361 359 356
307 302 300 301 300 297 304 312 320 322 321 321 322 320 308 315 314 316 315 315 317 316 322 329 328 328 323 317 318 333 335 335 336 336 338 340 346 347 348 354 353 353 351 350 353 351 355 354 353 353 354 356 358 360 362 364 364 364 365 361 359 357 354
304 303 299 298 296 302 316 317 318 320 322 320 323 313 304 314 317 317 317 316 317 318 325 328 327 321 312 313 321 338 338 337 337 336 336 337 342 346 349 348 346 347 350 353 352 355 356 350 355 357 359 360 360 361 362 363 363 362 361 360 358 356 354
304 303 300 298 303 303 315 317 317 320 321 320 316 302 301 315 323 325 324 318 322 327 328 328 325 319 312 313 328 335 339 340 343 342 341 342 344 345 348 348 351 356 357 355 355 355 353 359 362 363 363 363 362 362 361 361 359 359 359 359 360 358 355
302 301 300 303 306 316 316 317 318 320 321 319 306 297 306 327 328 329 328 325 328 330 328 328 320 328 334 338 338 339 340 343 344 345 345 346 347 348 349 351 353 356 356 353 348 348 362 364 363 365 365 363 362 361 361 358 357 357 359 360 358 356 354
301 303 299 300 306 313 316 321 318 322 315 305 304 322 328 330 329 329 329 326 329 330 331 325 334 335 338 340 340 341 342 343 345 346 346 347 349 351 354 354 350 345 343 349 352 357 365 364 365 365 365 363 362 360 358 355 356 359 359 359 357 355 353
306 305 302 298 293 312 319 318 318 321 311 315 323 327 330 329 329 329 330 330 331 333 333 335 336 336 336 338 340 342 343 342 341 342 343 343 342 344 346 347 345 342 345 349 353 358 360 361 361 363 362 362 360 359 357 357 358 360 359 358 356 353 352
300 301 299 297 310 316 320 318 314 321 323 325 326 327 326 330 332 332 331 332 333 333 332 331 331 332 333 335 337 336 334 335 337 340 339 338 338 335 335 335 338 343 356 358 357 356 354 354 356 358 363 361 360 359 360 361 360 359 359 357 355 352 349
307 305 308 316 318 318 319 321 321 322 324 326 326 327 326 326 325 330 329 331 333 333 333 332 331 330 332 331 333 333 333 335 337 336 334 334 334 333 334 333 337 340 350 355 352 350 350 355 360 364 364 360 358 360 360 359 359 358 357 355 352 349 349
317 317 318 317 317 318 319 321 321 321 322 325 327 326 325 328 330 331 329 329 329 331 333 330 331 332 335 336 336 335 335 337 341 344 345 342 338 336 339 346 343 338 340 342 345 347 349 352 353 358 358 357 358 354 355 355 357 357 356 353 350 348 348
307 301 314 314 315 318 319 319 320 322 323 324 327 328 328 329 330 332 335 336 335 334 338 336 333 333 335 336 338 340 341 341 343 343 344 345 346 345 343 348 347 339 337 338 342 344 344 346 346 346 351 355 356 355 355 356 355 354 353 351 348 348 346
308 310 314 315 316 318 320 321 320 320 322 323 325 327 329 329 329 330 331 334 334 335 334 336 336 334 333 333 334 335 338 339 341 344 345 345 346 346 348 349 349 344 339 339 341 344 347 348 349 348 348 351 353 353 353 353 353 351 349 348 346 346 345
315 316 314 313 314 315 317 317 320 321 321 321 322 323 323 324 324 325 325 326 327 327 328 330 330 330 330 330 331 331 334 338 341 343 343 345 347 347 346 347 347 344 343 342 343 345 346 348 349 351 352 352 352 353 352 351 350 348 346 344 346 345 344
307 307 309 313 307 306 312 314 317 319 321 321 320 322 322 322 321 321 321 322 323 323 324 324 323 322 323 324 325 324 327 330 335 339 340 340 341 343 345 346 347 347 346 346 345 345 347 348 349 349 349 349 350 350 351 351 349 347 345 344 345 344 343
305 313 314 319 317 314 315 316 318 318 320 320 319 318 319 319 321 321 320 320 321 322 323 323 323 323 323 322 322 320 321 324 328 331 335 336 336 337 341 342 343 345 348 347 347 347 347 348 347 347 347 347 348 348 351 350 348 346 347 345 343 343 341
316 317 318 319 316 312 313 316 317 317 319 320 317 319 320 320 320 320 321 321 320 320 322 323 325 324 324 323 322 321 322 322 323 323 325 329 334 335 336 338 343 346 346 346 346 346 347 347 346 347 345 347 348 347 349 349 349 348 346 343 341 339 339
315 320 321 320 318 317 318 316 317 317 319 320 318 318 318 318 319 321 320 320 321 320 319 319 321 323 323 322 323 323 323 322 322 320 321 323 324 331 333 335 336 339 343 344 344 345 346 347 347 346 347 347 348 346 348 347 346 347 346 344 342 341 341

ECMWFFLT2_sfc_thetae_003.txt.gz
Theta_e
313 312 313 312 313 302 309 310 305 309 316 313 308 310 311 310 306 304 312 310 314 319 319 320 322 322 323 324 324 324 325 326 329 327 328 339 340 338 337 341 344 348 348 351 351 352 351 352 352 353 357 356 357 358 359 361 362 364 365 366 365 365 366
313 315 314 313 313 313 311 305 309 315 318 316 311 303 306 304 300 303 308 306 309 309 306 319 319 320 320 323 323 323 325 325 324 326 327 331 339 340 341 344 348 350 348 349 350 351 352 352 352 353 357 357 357 358 359 360 361 363 365 366 366 366 366
313 315 314 310 313 314 310 310 317 308 304 304 309 308 299 298 299 302 306 309 309 310 310 316 317 318 319 322 324 323 323 324 325 326 327 330 332 336 339 341 346 350 348 348 351 350 350 352 355 356 356 355 357 358 358 358 361 361 363 363 365 366 366
313 313 311 303 306 311 313 314 312 315 312 308 305 307 308 306 300 301 302 306 304 313 314 317 317 320 321 321 322 322 322 323 323 326 327 328 331 339 339 345 346 350 349 348 348 349 349 350 351 353 355 355 356 357 359 358 360 363 364 364 365 364 364
312 305 308 305 307 304 305 306 306 311 310 314 312 311 307 305 303 301 301 300 306 314 318 318 319 321 322 321 321 323 324 324 324 326 327 329 334 338 341 344 346 351 351 349 348 350 350 350 353 355 354 352 352 355 356 355 358 361 362 361 362 364 364
305 306 312 311 310 310 307 306 304 308 308 306 303 302 311 309 305 300 301 300 310 316 319 320 320 321 321 322 322 322 322 322 327 325 327 331 334 339 341 342 346 350 352 349 348 349 350 350 353 353 351 349 350 353 354 354 354 360 353 359 362 365 366
306 309 312 314 313 312 311 309 306 309 310 311 306 299 304 308 308 310 308 305 307 319 321 322 321 322 321 323 322 323 323 325 325 327 326 330 336 340 338 341 341 349 351 351 349 350 350 348 350 349 349 348 349 351 353 354 352 355 355 354 358 366 366
311 312 313 314 313 312 309 310 310 308 306 309 309 308 310 306 308 305 305 303 306 318 325 324 322 326 324 325 324 324 323 324 326 327 327 340 340 341 340 341 340 347 350 352 353 351 350 349 351 349 349 348 348 349 350 350 350 351 352 352 353 360 364
304 307 310 309 312 311 307 307 309 310 310 310 312 312 313 307 307 308 304 300 306 316 324 324 323 322 321 322 323 325 324 325 325 326 340 339 347 347 344 346 345 349 349 353 356 353 351 350 345 350 349 348 349 348 347 346 349 350 349 349 347 353 360
295 295 296 298 302 305 307 308 308 310 309 308 307 305 308 302 309 311 305 305 312 318 324 321 322 323 323 323 323 323 325 328 325 326 328 343 342 346 351 353 350 350 355 359 366 362 354 351 344 352 354 348 345 346 348 347 347 349 348 349 347 349 358
302 305 309 311 310 307 304 305 306 307 309 310 309 309 305 302 306 307 308 311 311 314 316 318 319 321 321 321 323 323 324 326 326 335 334 334 346 346 346 354 353 359 363 361 362 365 354 347 346 348 349 348 346 352 350 347 347 349 353 353 353 348 352
310 310 310 311 310 307 307 306 306 307 307 308 308 305 303 311 305 301 309 316 310 312 316 317 319 320 322 322 323 323 324 324 325 327 340 342 338 350 356 355 355 355 360 362 362 362 355 349 349 347 349 350 350 351 349 349 347 349 354 352 350 352 357
310 311 311 312 310 310 309 308 307 306 307 307 306 307 309 311 305 303 312 317 312 313 315 316 319 321 322 320 322 324 325 324 328 334 331 335 338 345 352 356 357 357 355 359 361 357 356 353 351 349 350 353 356 355 351 355 349 352 354 355 355 352 357
310 310 310 311 310 309 309 309 308 308 308 307 307 307 309 309 311 311 312 316 313 314 316 318 319 322 322 322 325 325 325 323 329 327 327 324 336 345 347 354 353 357 357 358 360 361 363 357 356 353 355 359 355 354 352 352 354 354 354 361 361 356 352
308 310 311 311 310 309 307 309 310 310 310 309 308 307 308 309 309 310 311 313 312 317 320 319 322 323 322 323 322 322 325 325 324 324 324 325 327 328 332 342 352 357 359 359 360 361 363 362 361 361 360 358 356 355 357 358 360 355 354 366 366 363 362
305 309 310 310 310 309 308 307 308 309 308 307 308 307 308 307 307 309 308 308 308 315 320 320 321 322 321 321 323 324 324 324 325 325 325 326 329 329 329 339 353 358 358 361 363 363 363 363 363 362 364 362 361 359 360 360 360 357 361 361 360 365 364
305 309 310 309 309 307 303 305 307 309 310 310 311 312 312 311 310 306 305 306 312 316 319 316 319 319 320 321 321 322 325 332 326 326 327 326 326 328 345 346 351 354 357 360 366 365 365 363 362 363 365 363 363 362 365 365 366 361 358 361 366 364 370
305 308 309 310 306 298 299 310 313 312 309 309 308 309 311 313 313 310 311 311 315 316 316 315 316 318 319 322 326 328 328 328 332 327 327 326 326 327 339 345 343 353 359 360 365 367 367 365 363 365 368 365 366 365 366 367 366 367 367 367 369 369 369
305 310 310 304 299 300 313 315 316 315 314 313 311 311 312 313 314 314 313 314 315 316 316 317 319 322 323 324 325 324 325 329 327 329 326 331 329 344 344 343 342 354 360 361 365 367 366 365 365 368 368 368 369 365 366 365 370 372 371 371 369 367 366
310 307 305 296 298 312 313 314 315 317 315 314 312 309 313 314 313 314 313 314 315 318 318 319 320 320 319 320 326 327 325 329 326 324 322 328 339 343 343 352 356 359 357 359 358 363 364 364 365 366 367 368 366 360 363 367 369 370 370 371 367 367 364
303 304 304 303 311 309 311 311 313 314 312 311 310 307 314 317 317 315 314 315 316 316 317 318 321 321 319 319 319 324 331 330 335 331 328 331 331 335 346 347 352 358 361 360 361 368 365 363 363 366 367 365 362 362 366 367 370 369 369 368 366 368 365
308 304 302 303 302 299 305 314 319 319 319 320 320 316 311 318 318 319 316 314 315 316 317 319 320 321 318 314 318 328 328 326 330 333 334 333 332 332 340 349 351 363 363 362 365 365 364 365 367 366 366 368 368 369 368 368 369 369 368 367 368 368 365
306 305 301 301 300 303 314 317 317 320 321 320 321 313 305 314 317 318 317 315 316 317 317 317 319 315 312 313 320 326 327 325 326 331 334 331 329 336 343 347 352 357 358 360 360 363 363 360 366 370 371 369 368 366 367 369 370 367 365 365 365 363 363
305 305 302 301 307 306 314 318 317 319 321 320 316 301 302 316 320 320 319 316 317 317 319 318 317 314 310 313 320 324 325 322 333 338 338 335 335 339 341 346 353 360 363 363 361 360 362 366 366 368 367 367 367 367 368 368 365 365 365 366 365 364 361
304 302 304 306 308 315 318 319 318 319 321 317 306 299 310 325 329 329 328 329 330 319 318 318 314 320 321 322 328 337 340 337 340 341 341 340 339 340 344 350 355 359 359 359 358 359 360 365 363 366 367 365 365 367 367 366 365 365 366 365 363 362 360
302 303 302 302 307 316 320 321 319 321 314 305 304 320 327 327 326 329 328 325 329 327 320 320 320 321 325 325 328 332 338 342 345 344 342 341 342 346 349 354 354 355 354 356 355 357 363 362 363 363 365 365 366 367 365 365 366 366 365 364 363 361 359
306 304 301 298 295 317 320 320 317 322 311 314 322 326 328 327 328 329 331 330 329 327 323 322 323 324 322 325 331 330 336 343 345 345 344 344 343 346 353 354 355 353 353 353 355 359 358 361 363 364 366 366 366 363 362 362 364 367 365 364 362 359 358
300 300 298 298 309 318 321 318 312 321 323 325 328 326 324 328 329 331 331 332 332 328 325 323 323 324 327 332 333 339 343 344 345 346 348 350 352 355 354 353 352 352 355 360 360 359 357 358 356 360 363 360 358 359 361 364 364 364 363 361 359 356 354
306 304 306 319 321 321 324 324 322 324 327 328 327 327 327 328 330 333 334 333 332 334 333 333 333 334 334 337 339 339 342 344 346 348 350 349 348 347 348 349 357 356 355 354 354 351 348 350 350 353 357 359 359 358 361 364 363 361 360 358 356 354 352
320 321 321 321 322 321 322 323 325 324 325 326 327 327 328 330 332 333 331 336 335 335 338 334 335 339 336 336 335 335 338 337 340 341 341 343 345 345 348 351 352 354 355 356 356 356 359 362 364 366 362 360 359 361 364 364 363 362 359 356 353 351 351
310 305 322 321 320 321 321 321 324 325 326 327 330 330 331 330 330 332 333 330 332 336 337 338 337 337 339 339 340 340 340 340 341 342 344 342 341 341 341 342 345 345 346 345 346 346 348 354 357 359 362 364 365 365 363 363 361 358 354 352 350 351 352
310 311 319 320 322 323 324 323 322 322 324 325 328 328 329 333 332 330 330 331 331 333 334 334 335 334 335 337 338 340 342 343 343 344 346 347 343 342 344 345 345 344 342 344 346 347 345 346 349 354 359 359 360 360 358 356 355 355 352 351 350 350 350
316 319 319 318 319 319 320 320 322 323 324 324 323 326 326 325 324 324 324 326 328 331 326 326 326 325 327 330 334 334 338 340 342 344 346 350 350 346 342 343 345 346 348 348 350 351 352 355 356 356 357 358 358 359 358 357 356 353 349 348 349 348 348
309 310 313 316 311 310 315 316 319 321 322 322 322 323 323 323 322 323 321 322 324 324 325 325 325 324 325 326 328 327 329 334 340 342 342 343 345 346 345 344 347 349 351 352 352 352 352 355 355 355 355 356 356 354 355 354 353 351 349 346 347 345 344
309 316 318 322 319 317 317 318 319 320 321 319 318 318 319 321 321 322 321 321 323 321 322 325 325 325 325 325 325 324 324 326 330 336 339 340 342 343 346 345 346 347 348 349 350 350 351 353 353 353 354 353 353 352 353 353 351 351 349 346 344 343 342
319 320 320 319 318 314 316 317 319 320 320 318 316 317 318 319 319 321 322 321 320 320 321 321 323 323 324 325 325 324 324 325 327 328 333 337 338 340 344 346 347 346 346 348 349 348 350 350 350 351 350 351 352 351 352 351 351 351 349 347 344 343 343
316 321 322 321 318 318 319 319 318 318 318 317 315 315 315 317 318 319 318 318 319 319 318 317 320 321 322 322 324 324 323 324 326 325 327 330 331 335 336 338 342 345 346 346 348 350 350 350 349 347 347 349 350 350 352 351 350 351 351 348 346 344 345

ECMWFFLT2_sfc_thetae_006.txt.gz
Theta_e
313 312 313 312 313 300 307 308 303 306 312 310 306 307 307 308 305 302 311 308 311 317 317 319 321 321 323 324 324 324 326 328 330 329 329 331 338 340 341 341 342 343 344 349 347 348 350 351 352 353 354 357 358 359 362 363 365 366 366 366 365 364 364
313 316 314 313 313 312 309 303 306 312 313 312 308 300 304 302 299 302 307 305 307 308 305 318 317 318 320 322 323 324 326 327 327 326 329 333 339 339 339 340 343 344 345 348 350 350 351 350 350 352 356 357 358 360 361 362 364 364 365 365 364 364 364
313 315 314 310 313 314 308 307 314 305 300 300 307 306 297 297 297 300 305 307 307 309 309 314 315 315 318 321 323 322 323 325 326 326 332 337 336 335 336 338 342 345 346 347 349 349 349 350 351 354 356 357 357 361 360 360 362 363 364 362 363 364 365
313 312 310 302 306 311 312 312 309 312 308 305 302 304 305 304 299 300 301 304 303 312 312 315 316 318 319 320 322 321 322 324 325 325 336 334 333 336 337 339 342 344 343 342 342 342 346 350 351 352 353 353 352 354 358 359 360 364 364 363 363 363 363
312 304 308 305 306 304 305 305 304 306 307 310 309 307 304 302 301 300 300 299 305 312 317 316 317 321 322 321 322 328 323 324 324 326 332 332 334 336 336 337 339 344 345 343 343 345 350 352 351 351 352 352 352 352 354 355 358 359 361 362 362 363 362
306 307 311 311 310 309 307 305 303 305 304 303 299 299 308 306 303 298 300 298 308 314 319 320 319 323 321 322 323 324 324 323 327 326 327 338 338 339 339 337 337 340 345 345 344 346 352 352 351 350 351 351 351 351 352 353 356 357 359 361 362 364 364
307 310 313 314 313 312 310 308 305 307 307 307 303 296 301 305 306 308 306 302 306 318 322 323 320 322 321 322 323 323 324 325 325 328 326 333 337 338 335 333 334 339 343 344 346 349 351 351 352 350 350 350 351 351 351 353 356 357 358 360 361 365 364
311 314 315 315 314 313 310 310 309 307 304 306 306 305 307 303 305 303 303 301 305 317 328 328 322 338 323 325 324 327 323 324 325 328 327 347 333 334 334 334 336 344 348 351 351 348 349 351 353 352 352 353 352 351 351 353 355 357 358 359 361 364 363
304 307 310 310 313 312 308 307 309 309 308 308 308 309 312 304 304 305 302 298 304 315 324 332 323 321 320 321 322 324 324 332 326 326 339 342 343 342 340 342 344 347 346 350 350 350 352 352 351 353 352 352 351 351 350 351 353 355 356 357 358 360 360
294 295 297 299 302 305 308 309 308 309 307 306 304 301 305 300 309 309 304 304 311 317 321 324 323 321 327 324 322 323 326 332 326 338 340 343 342 342 342 345 345 342 346 347 349 350 352 353 351 352 353 352 351 352 352 353 352 353 355 358 357 358 359
302 304 309 310 310 308 304 306 307 307 309 309 307 306 302 299 306 307 306 312 312 313 315 318 318 322 321 321 325 325 329 327 341 346 346 340 343 341 341 345 347 348 350 349 349 350 349 350 353 353 353 352 352 354 354 354 353 352 356 358 360 357 357
308 310 309 310 310 306 307 306 306 307 307 308 306 303 301 308 306 300 308 314 312 312 315 319 323 321 327 325 329 325 327 340 330 339 344 351 345 347 347 348 348 349 350 350 349 350 352 353 353 354 354 354 353 352 351 352 352 351 353 356 354 354 356
308 310 311 311 310 309 308 308 307 306 307 307 305 306 307 310 303 300 311 318 315 315 314 317 321 325 328 320 323 324 326 330 332 340 337 337 338 344 345 351 349 348 348 350 351 351 354 354 352 352 352 352 352 353 351 352 351 351 353 353 353 354 357
307 308 308 311 310 309 308 308 308 308 307 306 306 306 308 307 310 311 310 320 315 314 315 317 318 325 321 322 325 326 326 324 336 331 341 325 328 335 348 354 358 360 357 358 359 360 359 354 352 349 350 351 350 351 350 350 350 351 352 352 352 352 353
306 308 309 309 309 309 308 308 309 308 308 307 307 307 307 310 308 308 308 311 314 316 321 320 321 323 324 326 324 321 325 326 324 328 324 327 329 327 345 353 353 359 363 366 370 367 361 355 351 349 350 351 352 348 347 347 349 349 353 352 351 350 350
305 309 309 308 308 308 308 308 308 307 307 305 306 305 307 306 308 309 307 307 309 314 319 318 320 322 325 322 325 328 330 326 326 326 326 329 333 335 345 348 350 359 360 362 364 367 363 358 353 349 350 351 351 347 347 346 346 347 354 354 353 352 353
303 307 309 308 308 307 303 305 307 309 309 309 310 310 310 309 309 306 305 306 312 317 320 317 318 317 320 321 321 322 325 333 328 328 328 328 328 344 338 345 355 354 354 357 362 362 361 358 354 352 351 351 351 349 348 348 348 346 355 354 353 353 353
303 307 307 308 303 296 298 310 313 312 309 309 307 308 310 310 310 308 310 311 316 318 316 317 318 319 321 323 325 325 325 328 336 332 331 329 328 330 337 338 344 353 357 354 357 361 361 361 357 355 352 351 352 352 352 352 351 349 355 355 355 353 354
301 306 306 301 296 298 310 314 315 314 313 312 310 311 311 312 313 312 311 312 313 315 316 316 320 329 330 329 328 325 326 327 327 336 334 333 332 338 344 350 346 356 363 363 361 361 357 356 358 358 356 354 355 355 355 354 353 353 354 360 358 357 357
305 303 302 293 295 310 312 314 315 317 315 313 312 310 312 313 313 315 314 317 318 321 318 316 320 321 319 319 324 335 326 324 326 323 324 328 331 332 332 347 350 360 360 362 358 363 360 363 361 358 356 353 351 351 352 356 356 356 357 366 368 363 361
300 301 301 300 310 308 310 310 312 314 311 312 309 304 309 314 315 315 318 319 319 318 324 318 317 319 316 317 318 319 319 323 323 322 324 324 326 328 334 338 355 366 361 364 359 369 369 363 362 360 359 358 356 355 354 355 363 362 362 367 367 369 373
305 301 300 301 300 298 305 314 317 319 318 319 319 314 312 320 318 319 318 318 321 325 323 326 322 322 318 313 315 319 319 320 321 323 324 324 328 330 331 333 350 363 363 365 364 365 367 365 362 363 362 363 362 361 359 362 363 363 366 374 371 370 370
303 301 298 299 297 302 311 314 316 318 320 319 318 313 307 318 319 322 324 320 322 323 320 323 326 321 311 311 317 322 321 320 321 320 321 322 325 327 330 332 343 355 360 359 356 360 362 361 364 367 367 365 365 363 362 363 365 365 369 371 369 369 368
305 303 300 299 305 304 315 317 317 319 321 320 316 301 303 327 326 326 327 325 326 326 327 325 325 323 317 316 318 320 320 322 323 324 327 332 328 328 331 330 332 360 366 366 358 356 359 364 369 370 368 368 367 365 364 366 364 365 368 369 369 369 368
303 302 302 304 306 317 317 318 320 320 321 316 304 298 307 325 327 325 329 326 328 330 328 330 323 327 327 326 326 326 321 321 324 329 334 336 335 334 329 331 341 362 366 363 360 352 357 368 368 370 371 369 367 366 368 367 364 364 370 371 369 367 365
300 302 300 301 306 315 320 321 320 320 314 304 302 321 327 329 326 328 328 329 331 334 334 333 334 333 332 329 325 323 324 323 340 337 339 338 336 337 343 352 353 363 358 362 362 359 369 372 370 371 372 369 369 369 368 367 368 369 372 370 369 367 364
302 303 300 298 293 312 318 320 318 319 309 309 323 327 328 327 327 327 330 333 331 331 332 335 337 338 341 342 334 330 328 328 338 341 338 340 335 337 338 351 357 357 357 356 356 360 365 366 366 371 370 370 370 369 369 368 368 368 367 366 364 362 361
298 298 297 297 307 317 321 319 312 317 318 327 328 325 324 328 331 333 332 331 332 332 331 331 332 334 335 338 340 339 335 339 336 339 342 341 339 334 335 336 355 357 360 361 362 363 361 365 367 368 369 367 367 366 366 369 366 364 363 362 361 358 356
303 301 305 321 321 322 322 322 323 324 326 327 326 328 330 331 330 333 331 331 333 332 331 331 331 333 335 337 339 340 340 342 343 344 347 344 342 341 342 339 350 353 361 362 362 362 363 367 370 370 371 366 363 363 366 365 363 362 362 361 359 357 356
319 319 320 321 320 321 321 322 324 323 324 329 328 328 328 329 330 330 328 330 331 331 333 331 331 333 335 336 338 339 339 339 342 348 347 345 345 346 344 341 342 348 354 357 357 359 363 367 368 367 366 364 361 364 365 362 364 362 360 358 356 355 355
311 305 321 318 319 321 320 320 322 324 326 326 329 328 327 326 326 325 325 326 327 327 327 328 330 330 331 334 337 338 338 339 339 339 342 342 342 343 340 342 351 352 347 344 346 352 355 356 358 360 362 364 364 363 362 361 360 359 356 355 352 353 353
308 313 318 320 322 322 323 322 320 321 323 325 325 325 326 326 327 326 325 325 324 325 324 327 326 324 326 327 329 333 337 340 340 339 337 338 339 340 338 341 340 339 340 341 340 342 343 349 352 354 356 360 360 361 360 360 358 356 353 352 350 350 349
312 320 320 320 320 320 320 320 321 322 323 323 322 323 323 323 322 322 323 325 325 325 324 326 326 325 326 327 328 328 328 331 337 339 340 340 342 342 341 342 347 349 349 350 351 349 349 352 356 356 359 362 361 360 359 357 355 352 349 347 349 348 348
309 309 314 319 311 310 315 318 319 319 321 321 320 321 321 321 321 321 320 319 320 321 323 327 326 324 324 326 328 327 328 329 332 333 334 336 337 340 343 342 344 341 341 343 345 347 349 356 357 359 359 359 358 357 355 354 353 351 350 349 348 347 347
307 314 320 322 318 316 317 317 318 318 318 318 317 317 318 318 319 319 319 318 318 318 318 319 321 324 324 324 326 326 327 327 329 333 337 339 338 341 342 343 344 346 350 351 353 353 354 355 354 354 354 354 356 355 356 353 351 352 351 349 346 345 345
315 320 320 321 318 314 316 318 318 318 319 318 317 317 318 318 318 318 317 317 316 317 319 320 320 320 321 321 323 323 324 325 329 328 330 336 339 341 342 343 346 347 347 349 349 351 353 353 353 352 348 349 354 353 354 352 352 353 351 348 346 344 344
315 322 322 321 318 318 319 319 319 318 320 319 318 318 318 319 319 321 320 319 319 319 319 318 319 320 320 322 322 322 324 327 327 328 329 331 334 338 339 341 344 346 347 347 348 350 351 352 352 351 351 351 353 352 354 352 351 352 351 348 344 344 345

ECMWFFLT2_sfc_thetae_009.txt.gz
Theta_e
309 308 311 310 309 296 300 303 299 302 306 304 300 303 304 305 298 295 305 303 306 307 310 312 315 317 318 320 321 322 323 325 325 326 328 330 332 333 333 336 336 338 341 342 343 344 344 346 347 347 347 348 350 353 355 356 357 359 359 358 358 358 358
309 311 312 311 311 309 302 298 301 308 308 307 302 294 296 295 291 295 300 298 298 301 297 310 311 313 315 317 318 321 321 324 324 325 328 331 332 333 335 337 338 339 341 342 343 344 345 345 347 347 347 348 350 353 355 356 357 358 358 358 358 357 357
309 311 310 308 311 312 305 300 308 301 294 296 300 301 291 291 291 292 296 300 300 302 303 307 308 311 313 315 317 319 319 324 324 325 328 330 332 333 334 336 337 338 339 342 342 343 344 345 347 347 347 349 351 353 356 357 357 359 359 360 359 359 358
309 308 306 299 303 308 310 309 304 307 301 298 296 299 299 299 291 293 294 298 294 307 304 309 309 311 312 315 316 318 319 322 325 326 327 328 329 331 334 335 336 338 339 340 342 343 343 344 346 347 348 349 351 352 355 357 358 359 359 359 359 358 358
308 301 304 301 302 300 301 302 301 301 302 305 303 302 299 296 292 290 291 291 297 305 311 310 310 313 313 314 317 318 319 322 325 326 327 328 328 330 333 334 335 337 338 339 341 342 344 345 349 349 349 349 350 352 354 357 357 358 359 359 359 358 358
302 304 308 307 306 305 303 301 300 301 298 295 294 293 302 300 295 290 292 292 301 308 314 314 312 314 316 315 317 318 319 320 324 326 326 327 328 331 333 334 336 336 337 338 340 342 343 344 347 349 350 350 350 351 353 356 358 358 358 359 358 358 358
301 306 310 311 310 309 307 304 302 304 301 299 296 287 292 298 299 302 301 295 296 310 313 313 315 316 317 317 319 319 320 320 322 325 325 326 330 333 334 335 336 337 338 338 339 341 342 342 345 348 349 350 350 351 353 355 356 357 359 359 359 359 358
306 309 310 311 311 309 306 305 306 304 300 301 298 297 299 296 298 296 295 295 297 310 313 314 318 316 317 318 320 320 321 321 320 321 325 328 331 333 335 336 336 336 338 339 339 341 343 343 344 346 348 349 350 350 352 354 355 357 358 359 359 358 358
295 301 305 305 308 308 304 303 304 305 305 304 303 302 305 298 298 298 294 291 295 310 313 314 321 324 317 315 318 318 318 318 320 319 326 329 331 332 333 333 333 334 336 338 339 341 342 342 345 345 347 348 348 349 350 352 354 357 358 359 358 358 357
289 290 291 294 297 301 304 305 304 305 304 302 300 296 297 291 298 300 295 295 299 307 311 312 313 313 316 320 320 319 318 318 319 320 328 329 330 331 331 331 331 333 337 338 338 339 341 343 345 345 346 347 348 348 349 351 352 354 356 358 358 357 357
295 297 300 313 308 303 300 303 304 304 305 305 302 299 295 292 295 299 297 301 305 308 308 310 311 312 313 317 317 323 319 326 331 321 329 329 330 330 330 332 333 335 337 338 339 340 341 344 346 346 346 347 348 348 348 349 351 352 354 356 357 357 357
302 306 305 308 308 303 303 303 303 305 304 304 302 298 296 300 297 288 296 303 302 303 306 310 311 311 313 317 323 323 327 333 336 332 329 337 330 331 332 333 334 335 337 338 339 341 342 344 347 347 347 347 347 347 347 348 350 351 354 355 356 357 356
304 305 306 308 307 307 305 305 304 304 305 304 301 301 302 303 296 294 298 306 305 305 307 309 311 317 320 315 315 316 330 333 333 331 330 329 330 332 335 335 336 337 338 339 340 341 343 345 346 347 347 347 347 348 348 348 349 350 353 354 354 356 356
304 304 305 306 306 306 305 305 305 305 304 304 304 303 303 303 301 302 302 305 309 310 309 311 312 322 320 320 319 316 320 329 331 331 330 330 331 333 334 335 336 337 339 340 341 342 342 344 345 347 347 347 347 348 348 348 348 350 353 353 353 354 355
302 304 305 305 304 304 303 304 305 305 305 304 304 304 304 305 303 304 303 302 305 314 313 312 314 317 322 321 319 315 316 323 332 332 330 329 330 330 332 333 334 336 338 340 341 342 342 343 346 347 347 348 348 348 348 348 348 349 351 352 352 353 354
301 304 304 304 305 304 303 303 304 304 304 302 303 302 304 302 301 304 303 300 301 306 313 316 315 316 319 315 319 318 317 317 325 330 329 328 331 331 334 335 335 336 337 338 340 341 343 344 346 347 347 347 348 348 348 348 348 350 350 351 352 352 353
298 304 305 304 303 302 299 300 303 305 304 305 305 305 307 306 305 301 299 299 303 307 315 311 311 313 313 318 321 322 322 326 323 322 326 328 331 332 334 336 336 335 337 339 341 342 344 345 346 347 348 348 347 348 349 349 350 350 349 350 351 352 353
298 303 304 304 299 293 295 305 308 307 305 305 304 303 305 305 306 303 304 305 310 314 317 310 309 310 311 312 317 317 317 317 322 324 324 322 327 335 339 339 338 338 339 340 342 343 344 346 348 348 349 349 349 349 349 349 349 349 348 348 350 351 352
297 302 306 298 293 295 306 308 310 310 309 308 307 306 306 308 309 306 306 306 306 307 307 309 313 315 318 321 317 318 318 317 317 318 320 324 324 335 338 341 343 342 343 344 345 345 346 347 348 348 348 349 349 349 348 347 347 347 347 347 347 349 350
302 299 298 291 294 309 312 310 311 316 311 308 310 306 308 311 312 313 312 311 316 317 317 318 318 317 317 318 327 322 320 320 317 318 319 323 327 325 337 341 344 346 348 350 352 353 355 353 350 348 347 348 348 347 348 346 346 346 345 346 346 347 347
296 297 296 297 306 304 309 308 310 308 309 311 307 299 308 317 315 313 314 319 319 317 319 320 321 320 318 313 311 317 322 324 323 320 319 320 325 326 326 335 340 345 350 350 353 356 357 356 352 349 347 347 347 346 345 345 344 344 344 344 345 345 346
304 297 295 297 295 293 299 310 315 315 316 315 316 313 308 320 318 319 320 319 320 321 321 320 321 320 315 310 312 318 322 318 316 316 316 315 316 320 321 329 335 343 350 352 352 353 355 355 354 352 348 346 345 345 344 344 343 343 342 343 346 346 345
301 297 293 293 293 297 306 313 314 317 315 316 316 308 303 320 320 322 323 323 325 325 323 321 321 316 311 312 318 326 329 327 323 320 322 318 315 316 319 320 328 339 347 351 352 352 353 352 353 353 350 346 344 344 344 343 343 342 342 343 346 347 346
300 299 295 293 300 300 313 315 311 313 316 317 312 298 299 320 323 326 327 326 326 327 327 327 326 321 316 319 326 335 335 332 329 325 330 327 328 326 326 322 330 338 346 351 351 352 351 351 353 353 352 349 345 344 344 344 343 342 342 343 348 349 348
298 301 298 301 302 316 316 315 316 315 317 315 300 292 308 324 326 328 327 327 328 328 328 329 325 327 330 331 335 339 338 336 335 333 332 332 330 328 331 343 346 345 352 353 353 354 355 354 354 355 354 351 347 345 344 344 343 344 345 345 348 352 353
295 298 297 298 304 316 319 316 317 318 313 298 298 316 326 327 327 328 328 326 328 328 327 327 327 330 334 336 338 338 338 338 338 341 337 336 336 338 337 343 353 350 351 353 353 356 357 358 358 357 356 353 351 348 347 345 345 347 348 349 354 359 359
299 301 298 292 286 308 318 316 317 320 310 309 322 325 327 329 328 327 327 327 327 328 327 330 331 332 334 335 335 336 337 337 338 340 340 338 338 337 338 340 343 352 351 350 349 348 351 358 359 359 358 354 353 352 350 349 350 352 358 361 361 361 360
296 294 293 292 303 315 321 320 310 321 322 325 328 326 322 326 327 326 325 326 327 330 329 328 328 329 331 332 334 335 336 337 337 338 339 340 340 340 342 343 343 345 343 341 340 338 339 343 346 349 356 355 354 354 354 356 358 363 363 363 362 360 357
304 300 303 310 314 317 321 321 321 324 327 329 327 325 324 322 323 327 323 322 325 327 326 324 325 325 327 328 329 330 331 334 336 336 336 336 336 336 335 338 342 339 337 337 338 339 340 342 343 343 342 342 348 355 359 361 363 363 362 360 358 356 356
313 312 314 315 317 317 319 325 327 326 325 326 325 322 319 321 322 322 321 322 323 324 324 322 322 323 324 325 326 327 329 331 334 336 337 336 336 336 335 334 337 336 336 336 337 338 338 342 345 346 345 342 338 341 347 345 343 342 341 341 340 342 343
302 295 313 315 315 316 317 324 325 325 324 322 323 321 321 321 321 321 322 322 323 323 322 321 320 321 322 322 323 326 327 328 330 333 333 335 336 336 336 334 334 335 334 334 336 336 334 339 343 346 345 343 341 342 343 345 346 344 342 341 341 343 345
306 306 314 317 318 318 318 323 319 319 320 320 321 320 320 320 320 320 320 321 321 322 320 320 319 320 321 321 321 323 324 326 328 330 332 333 335 336 336 338 338 335 334 334 336 336 335 338 342 344 342 342 342 343 343 342 342 341 340 340 340 341 342
309 313 317 318 318 318 317 318 319 319 319 318 318 318 317 317 316 316 317 318 317 318 319 321 320 319 319 320 321 322 322 323 323 325 328 332 332 333 334 333 336 337 339 338 338 338 337 340 342 344 344 343 343 343 344 346 345 341 339 337 340 344 345
303 306 310 314 307 307 312 315 316 316 317 316 315 315 315 315 314 315 315 317 318 317 317 318 318 318 319 320 321 321 322 322 323 325 327 333 332 333 337 336 334 335 337 336 338 338 338 340 342 343 343 343 345 346 344 343 343 342 341 344 347 347 347
303 311 314 316 316 316 316 316 316 316 316 315 314 313 313 314 315 316 316 315 315 315 316 318 317 317 318 319 320 321 321 322 324 325 327 332 336 336 338 337 336 337 337 340 339 338 339 339 341 344 343 342 342 342 340 340 342 341 343 343 344 345 345
312 314 315 318 317 315 317 318 317 317 318 316 315 316 316 316 316 317 316 315 314 314 315 317 318 318 318 319 320 320 321 322 323 325 327 330 334 336 336 335 336 336 335 335 337 338 341 342 343 343 346 346 345 346 347 347 346 345 344 343 342 342 343
309 316 317 320 319 319 319 321 320 320 320 319 317 317 317 316 317 317 315 315 316 316 315 316 318 319 319 320 320 320 321 323 324 326 327 328 331 332 333 335 336 338 338 337 337 337 339 342 344 347 344 345 346 347 348 348 347 345 344 343 342 341 341

ECMWFFLT2_sfc_thetae_012.txt.gz
Theta_e
306 305 308 306 305 294 297 300 296 297 303 302 296 300 301 301 297 292 295 300 298 303 305 308 314 315 318 320 321 321 322 323 324 323 325 326 328 328 330 332 334 337 338 339 340 341 342 343 343 344 344 345 346 347 348 349 349 351 351 352 353 354 353
307 309 307 308 307 302 297 296 297 302 306 304 298 290 294 293 288 292 296 296 293 298 294 306 308 311 314 317 320 321 322 323 322 323 325 326 327 329 330 332 334 336 338 339 340 341 343 343 344 344 345 346 347 348 349 349 350 350 351 352 353 354 353
306 309 307 304 307 307 302 298 303 300 292 293 295 295 290 289 289 288 293 296 296 297 298 303 304 309 312 314 318 320 320 321 322 323 324 326 327 329 330 331 332 334 336 339 340 341 343 344 345 345 346 347 348 349 350 350 350 351 352 353 354 354 355
306 306 304 297 300 305 305 303 300 303 297 297 292 295 293 293 290 291 289 294 292 300 299 303 304 307 312 314 315 318 320 321 322 323 324 326 326 328 330 331 332 333 335 338 340 341 342 343 344 345 346 347 348 349 351 351 352 353 353 353 354 353 355
304 299 300 300 301 299 300 300 298 299 300 301 300 299 297 292 287 285 289 289 292 298 304 307 307 307 308 314 315 317 320 322 323 323 325 326 327 327 329 331 332 333 334 337 339 341 342 344 345 346 346 346 348 349 351 352 351 352 353 354 354 354 355
298 300 304 304 304 304 302 301 299 299 296 293 292 291 299 297 293 286 288 291 293 301 310 310 309 310 310 312 316 317 319 321 323 324 325 326 327 328 329 331 333 334 335 336 338 340 342 342 344 345 346 346 347 348 351 352 353 353 354 354 355 355 355
298 301 304 307 308 307 306 304 301 302 296 294 292 286 289 296 295 298 295 292 296 304 308 311 311 311 311 312 314 316 318 320 322 324 325 326 328 329 330 331 333 334 335 336 338 339 340 341 343 345 345 346 346 348 350 352 352 353 355 355 356 356 355
302 304 305 305 307 307 304 304 305 302 299 298 294 291 292 294 293 294 292 293 295 305 309 309 309 309 310 310 312 315 318 318 321 323 324 325 326 329 330 332 333 334 335 336 338 339 340 341 342 344 345 346 346 347 350 352 352 354 355 356 356 356 355
293 298 301 300 303 304 302 302 303 304 303 301 298 298 298 294 294 294 291 290 293 305 308 310 310 309 312 313 313 315 316 317 320 323 324 325 326 328 329 330 332 333 334 335 337 339 339 340 342 343 344 345 345 346 349 351 352 354 356 357 356 356 355
287 287 289 291 294 298 301 303 303 303 302 299 296 295 294 288 292 295 291 293 291 300 307 308 309 309 308 312 312 314 315 317 319 323 324 325 325 326 327 329 330 331 333 335 336 338 339 340 341 343 344 345 345 346 348 351 352 354 355 357 357 356 356
293 295 296 299 302 300 298 300 301 301 303 302 300 296 292 292 289 294 292 296 297 302 304 304 306 308 307 307 307 319 315 314 316 318 323 324 325 326 327 328 330 331 332 333 335 336 339 340 341 343 344 344 345 346 347 350 352 354 355 356 356 356 355
300 300 299 302 303 300 301 300 300 301 301 301 299 296 295 295 293 292 293 296 300 300 302 304 304 306 307 307 311 320 323 319 322 318 320 331 325 326 327 328 329 330 331 333 334 335 337 339 340 343 345 345 345 345 346 348 351 353 355 355 355 355 355
302 302 302 303 303 301 301 302 301 300 301 301 299 298 298 298 296 294 295 297 299 299 302 304 306 306 307 308 317 320 322 327 325 319 320 322 323 325 326 327 329 330 331 332 334 335 337 338 339 340 343 345 346 346 347 348 350 352 354 355 355 355 354
301 301 302 303 302 302 301 301 301 302 301 300 301 300 300 299 298 299 299 300 301 302 304 305 306 307 308 312 312 319 326 325 326 322 320 322 324 324 325 327 329 330 332 333 334 335 337 338 338 340 342 344 345 346 346 348 349 352 354 354 354 354 354
298 301 302 303 302 301 300 301 301 302 301 301 301 301 301 301 299 299 298 299 300 303 305 307 307 307 312 315 314 321 325 324 325 323 323 323 324 324 325 327 329 330 332 333 334 335 336 338 339 340 341 343 345 346 347 348 349 351 353 353 353 353 353
294 300 301 301 302 302 301 300 300 301 301 299 300 299 301 300 297 298 298 296 297 300 304 309 309 310 314 312 311 318 322 325 324 323 323 324 324 326 327 328 328 328 331 333 334 335 337 338 340 341 342 343 344 345 346 347 348 350 351 352 352 353 354
292 298 301 300 301 299 297 298 300 300 301 302 304 304 305 304 302 298 296 296 299 302 307 308 308 307 310 309 312 314 317 322 324 324 324 325 326 328 330 330 331 331 332 334 335 337 338 339 341 343 344 343 344 345 346 347 348 348 349 350 351 352 353
292 298 299 301 297 291 293 303 303 303 301 300 301 301 303 304 304 301 302 303 302 303 304 307 307 307 306 310 313 315 317 322 324 324 325 326 328 329 331 332 332 333 335 336 337 338 339 340 342 345 346 345 345 346 347 347 347 347 347 348 350 351 352
293 297 298 294 290 292 302 303 304 305 305 304 301 305 305 305 305 307 306 306 306 307 307 308 307 308 313 320 321 323 321 317 319 324 325 326 328 329 330 331 333 333 334 335 336 338 340 341 342 344 345 346 346 346 347 346 346 346 346 347 348 349 350
296 294 293 288 289 301 309 304 306 306 305 304 304 306 312 315 312 312 310 311 312 312 312 309 310 311 315 320 325 327 328 321 316 314 318 318 322 328 330 332 333 333 334 335 336 338 342 342 343 344 345 347 346 346 347 346 346 346 346 346 347 349 349
291 293 294 294 301 302 303 304 304 303 301 301 301 300 308 315 317 314 312 312 314 316 316 316 316 312 315 317 322 329 332 329 323 317 316 316 317 322 329 333 333 334 335 335 337 339 340 342 343 344 345 347 347 346 346 346 346 346 345 345 346 347 349
299 292 291 297 294 292 295 305 309 312 310 307 308 312 306 316 320 321 317 315 316 316 317 316 315 314 311 313 317 327 333 334 330 326 323 322 317 320 325 329 332 335 334 335 338 338 339 341 343 344 345 346 346 346 345 346 345 345 345 345 345 346 348
296 293 290 293 292 294 302 307 310 312 315 317 317 311 303 313 322 323 322 321 321 319 319 318 314 308 305 311 318 328 334 334 336 334 331 327 327 325 317 323 330 334 336 335 335 337 337 339 342 344 344 345 345 345 345 345 346 345 345 345 345 346 347
296 293 293 293 300 300 305 311 313 314 316 311 309 298 300 312 323 324 324 322 322 322 321 323 322 316 312 315 323 332 335 336 337 336 335 334 332 332 335 341 338 329 338 341 341 340 340 341 343 344 344 344 344 344 345 345 344 344 345 346 347 347 347
296 295 293 298 302 310 311 313 314 317 318 309 296 289 304 320 323 324 324 323 322 322 322 321 320 321 323 326 330 335 335 334 335 336 337 337 337 335 338 340 347 338 331 339 343 344 346 348 348 346 345 343 343 343 344 344 343 345 346 347 347 347 347
292 295 294 296 301 310 313 315 315 318 313 298 293 310 322 323 322 324 325 325 326 327 326 326 326 327 331 334 333 333 334 333 333 334 335 334 335 336 337 342 342 342 342 339 341 341 342 345 348 349 349 343 342 342 342 343 344 346 346 347 347 347 346
300 297 294 290 285 302 314 314 314 318 306 306 321 323 324 326 323 323 323 325 326 327 325 326 326 327 327 327 328 329 331 333 332 333 333 332 332 332 333 335 337 340 338 339 339 341 343 344 346 348 348 347 345 343 341 343 345 343 345 346 345 345 345
295 294 290 291 303 309 315 314 306 314 319 321 324 323 320 323 323 321 322 322 324 325 324 323 323 323 323 324 326 327 329 331 332 333 333 334 334 334 333 334 335 337 336 338 339 341 344 344 343 344 343 340 341 342 342 348 351 350 348 345 342 341 341
302 298 304 310 312 315 317 317 317 318 320 321 323 323 321 319 319 321 320 320 322 323 323 321 321 321 322 323 325 325 326 327 329 331 333 334 335 334 332 333 334 334 334 335 338 341 342 342 342 342 342 340 338 339 340 345 351 352 352 351 349 349 350
313 315 312 315 316 316 316 319 320 318 319 320 320 319 318 318 320 320 319 319 320 320 320 320 319 319 319 321 321 322 323 324 325 328 331 333 335 334 334 334 333 332 333 335 338 340 341 341 340 341 342 342 339 339 342 343 345 349 349 348 348 348 348
299 294 313 314 314 314 314 315 317 318 318 316 316 317 318 319 319 319 319 319 318 319 319 319 318 318 319 319 319 320 321 321 322 324 326 328 330 330 331 333 334 333 333 335 337 338 337 339 340 339 337 339 340 340 340 341 340 340 342 345 345 346 346
303 304 311 313 316 314 314 314 313 314 315 315 314 314 315 315 316 317 317 318 317 318 316 316 316 316 317 317 317 318 319 320 321 323 325 327 328 331 330 332 334 334 335 336 337 337 336 338 339 339 339 339 340 341 341 342 343 343 342 342 343 344 345
308 313 313 312 315 313 312 313 315 316 316 314 313 314 314 316 314 314 315 316 316 316 315 316 316 315 316 317 317 318 318 320 322 324 328 329 329 331 332 332 333 335 336 337 338 339 338 339 338 337 337 338 339 340 341 342 342 341 340 339 340 340 340
300 303 307 310 305 305 309 312 314 316 318 318 315 315 315 314 313 313 313 314 316 316 316 316 316 315 315 316 317 317 318 319 320 324 327 329 330 331 333 335 335 336 338 337 337 338 337 336 336 337 337 338 339 340 340 340 340 339 339 340 340 340 341
300 310 311 313 314 313 312 313 316 317 318 319 317 315 314 314 314 314 313 313 314 314 316 317 317 316 316 316 317 318 318 319 320 322 324 326 328 330 332 333 334 335 336 339 339 338 338 337 334 336 335 337 337 339 339 339 339 339 339 339 340 340 339
310 313 313 317 314 311 313 315 316 317 318 319 318 318 317 315 314 315 315 314 313 313 314 316 317 317 317 318 318 317 318 320 321 323 324 325 327 330 331 331 332 333 334 335 335 336 338 340 337 335 335 336 334 338 338 339 338 338 339 338 338 338 337
307 315 316 317 317 314 315 316 317 318 320 319 318 318 318 317 316 316 315 315 316 315 314 314 315 317 317 318 319 318 318 320 323 325 325 326 328 328 331 332 331 332 333 334 334 334 333 333 335 338 335 336 336 334 336 339 339 338 338 339 338 338 337

ECMWFFLT2_sfc_thetae_018.txt.gz
Theta_e
302 303 303 302 302 292 293 296 293 295 297 297 291 293 293 292 288 286 290 293 295 297 299 303 304 305 308 313 316 317 317 318 319 318 320 322 325 327 329 330 331 333 334 335 335 336 337 337 337 338 340 342 343 343 343 343 344 345 345 346 346 347 348
300 302 305 303 304 298 294 292 296 298 300 298 294 286 288 287 283 285 290 291 290 294 292 302 303 304 306 310 313 316 317 318 317 318 318 321 323 325 328 330 332 333 334 335 335 336 337 338 338 338 340 341 343 344 344 343 344 344 345 346 346 347 348
299 301 302 298 302 301 299 296 299 298 288 290 291 292 285 283 284 282 284 289 292 293 295 299 302 303 305 307 312 314 315 317 317 318 319 320 322 324 325 328 330 331 333 334 335 335 337 338 340 340 340 341 342 343 345 345 344 345 345 346 347 348 349
297 299 299 293 296 299 301 298 298 298 294 293 288 291 286 288 283 285 281 286 290 296 296 299 302 305 306 306 308 312 315 317 318 319 320 320 320 321 324 326 328 331 332 334 335 335 336 337 338 339 340 340 341 343 344 345 346 346 346 346 347 347 348
297 292 295 295 296 295 296 294 293 294 297 295 297 292 292 288 284 282 283 284 292 297 299 302 303 305 307 308 308 311 314 316 318 319 320 321 321 321 323 325 327 329 332 333 335 336 337 338 339 340 340 340 341 342 343 344 344 345 345 346 347 347 348
291 292 298 300 299 300 298 296 295 295 293 290 289 287 294 290 289 283 282 287 292 294 302 305 304 306 307 308 309 311 313 315 317 319 320 321 321 322 322 323 326 328 331 333 334 336 337 337 337 338 339 340 340 341 342 343 344 345 345 346 347 347 348
293 295 299 302 303 302 301 299 297 298 293 290 289 284 287 291 291 292 289 286 292 298 303 305 306 305 306 308 309 310 312 314 316 318 320 321 323 323 323 323 324 327 330 332 334 335 335 336 337 338 339 339 339 340 342 343 343 344 346 346 347 348 348
296 298 297 299 299 300 298 298 299 297 295 295 294 293 289 290 289 290 288 289 291 298 304 305 305 306 306 306 308 310 312 313 315 316 318 320 321 322 324 325 324 326 328 331 333 334 335 335 336 337 338 339 339 340 341 342 343 344 345 346 347 348 348
291 293 296 295 297 299 296 295 298 298 298 297 297 295 290 292 290 291 288 287 290 301 307 306 305 305 305 305 304 308 310 311 312 315 317 319 321 322 322 324 325 325 326 328 331 333 334 335 336 337 338 338 339 340 341 342 343 344 345 346 347 347 348
283 283 284 286 288 291 294 296 296 298 297 295 293 293 291 289 290 292 288 291 287 294 299 304 305 305 304 305 305 307 307 309 310 313 317 319 320 321 322 323 324 324 325 327 330 332 334 335 336 336 337 338 339 340 341 342 342 344 344 346 346 347 347
287 289 289 295 297 294 292 295 296 296 298 298 297 295 291 290 287 291 292 294 291 298 301 301 304 304 304 305 305 305 307 308 310 312 315 318 320 321 321 323 324 326 326 326 328 331 333 334 336 336 337 338 339 340 341 342 343 344 345 345 346 346 347
293 294 292 294 296 292 294 294 296 298 297 297 296 294 293 293 290 290 294 294 295 295 298 300 301 303 304 304 304 304 305 308 309 311 315 326 320 319 322 324 324 324 326 327 327 329 331 333 336 336 337 338 339 340 340 342 343 344 345 345 346 346 347
292 292 293 295 295 295 295 296 296 296 298 296 295 296 295 296 295 293 295 294 295 296 297 300 302 303 305 305 306 306 305 306 308 310 311 311 313 316 318 321 323 324 325 327 328 328 330 333 335 336 337 338 339 340 341 342 343 343 345 345 345 346 346
291 292 293 294 294 294 294 294 295 297 297 297 297 297 297 297 297 297 297 295 297 298 300 301 303 304 304 304 306 310 310 310 311 310 309 309 311 313 316 319 322 324 325 327 328 329 330 332 334 335 337 338 339 340 340 342 343 344 345 345 345 345 346
289 291 294 294 293 292 291 293 295 296 297 298 298 297 298 298 297 298 297 296 296 299 300 303 304 304 304 306 308 306 306 307 310 314 313 313 312 312 314 317 320 323 325 326 328 329 330 331 333 335 337 338 339 340 341 342 343 344 345 345 345 345 346
285 290 291 291 292 292 292 293 295 296 297 296 298 296 298 297 296 296 296 296 295 299 301 301 302 302 305 303 303 303 304 306 309 312 315 317 317 315 314 315 319 321 324 325 326 328 330 331 333 335 337 338 339 340 341 342 343 345 345 345 345 346 347
283 289 290 290 291 292 291 294 296 297 298 299 300 299 300 301 300 297 295 296 300 301 304 302 303 303 304 303 303 303 306 308 308 311 314 316 318 318 317 318 320 320 322 324 327 328 330 331 333 335 337 338 339 340 341 343 344 345 345 345 346 346 347
283 288 289 291 289 283 288 298 299 300 299 299 297 299 300 298 300 300 302 302 303 301 302 302 303 303 304 305 310 309 314 315 314 313 315 317 320 321 321 320 320 321 323 325 327 328 331 333 334 336 338 338 340 341 343 344 344 345 345 345 346 347 348
282 287 289 287 282 285 297 298 303 309 309 307 304 299 300 301 299 300 299 300 302 301 303 304 305 306 314 322 324 326 327 322 319 317 315 316 319 321 322 322 322 322 323 324 326 328 329 332 335 336 337 339 340 341 343 343 344 344 345 346 346 347 348
288 285 284 280 282 293 296 299 303 311 308 309 308 303 300 300 299 298 299 300 300 301 301 302 305 319 321 321 324 326 328 328 327 325 323 324 324 324 325 323 323 324 324 324 325 327 334 335 335 336 337 338 339 340 342 343 343 344 345 346 346 347 348
281 283 283 284 291 292 295 300 303 306 303 305 306 300 303 305 308 305 302 301 301 300 300 301 311 319 317 315 318 324 330 328 330 331 330 331 330 330 332 334 332 328 327 326 327 332 332 333 335 336 337 339 339 340 341 342 343 344 344 345 346 347 348
288 283 281 283 284 283 289 302 307 310 312 311 310 306 303 306 309 313 309 304 302 303 306 310 317 315 313 309 313 319 329 332 331 331 331 332 332 332 332 334 336 337 334 331 332 332 332 333 335 337 338 339 340 340 341 342 342 343 343 344 346 347 348
286 285 281 281 282 286 293 300 306 310 313 313 312 303 297 304 315 319 317 313 308 304 308 313 313 310 306 305 311 315 328 331 332 330 330 331 331 332 332 334 335 336 336 336 332 334 334 333 336 338 339 339 340 340 341 341 342 342 342 344 345 346 348
288 285 283 282 288 290 297 305 309 312 315 315 305 293 291 307 316 319 319 316 312 307 311 315 312 309 304 306 311 323 331 331 331 330 330 330 331 332 334 337 338 338 337 332 332 334 333 335 336 338 338 339 339 339 341 341 341 341 342 344 346 347 348
288 290 285 289 291 298 305 307 311 314 315 306 295 290 297 311 315 320 321 320 320 315 311 313 310 311 315 317 325 330 330 330 330 332 332 332 332 332 334 335 339 338 339 338 336 337 336 336 340 338 338 338 338 339 340 340 341 342 344 345 346 347 348
285 287 285 285 291 297 308 311 313 314 308 294 292 304 313 315 317 319 321 320 321 320 315 318 322 324 327 329 329 328 328 328 329 330 331 331 332 333 335 337 337 338 339 338 339 339 340 339 341 342 339 338 338 338 338 338 341 344 346 348 348 348 347
291 292 287 287 282 294 312 311 311 314 304 305 312 312 314 316 315 315 318 320 319 323 323 325 325 325 325 326 326 326 327 328 328 329 330 330 330 331 332 333 335 336 336 337 338 338 338 338 339 340 341 339 339 339 339 340 342 344 344 345 346 346 346
288 288 286 286 295 304 312 311 303 311 314 316 316 314 311 315 314 313 316 317 319 321 321 321 322 322 321 321 322 323 324 326 328 330 331 331 332 332 333 334 334 335 335 336 337 337 337 337 338 338 339 338 339 339 340 343 344 345 344 345 345 344 344
295 293 296 302 308 311 313 314 314 316 317 319 317 315 313 314 314 316 314 314 316 317 318 318 317 318 318 318 321 323 324 326 327 329 329 331 332 332 332 333 334 335 335 335 335 336 336 337 338 337 337 337 338 337 339 342 343 344 344 344 344 344 344
302 305 306 311 310 311 312 315 317 316 317 319 318 315 312 314 315 315 314 314 314 314 316 316 316 317 318 320 323 324 326 327 328 330 331 332 334 334 334 334 335 336 336 336 335 335 336 337 337 338 337 337 335 336 339 342 344 345 344 343 343 343 344
294 290 309 309 308 311 312 314 318 319 318 318 318 316 315 314 314 315 316 315 314 315 315 316 317 318 319 321 321 323 325 326 327 328 328 330 332 333 334 335 336 336 336 335 335 335 334 336 338 338 338 338 338 338 339 340 341 342 343 342 342 343 344
294 295 305 310 312 311 313 313 313 315 317 318 318 319 318 316 316 316 317 317 315 316 315 315 317 317 317 318 319 321 322 324 326 327 328 328 330 332 334 336 337 337 337 335 335 335 335 336 337 338 338 338 339 339 340 341 341 341 341 340 341 341 342
294 297 302 309 310 310 312 314 314 317 318 318 317 317 318 318 316 315 316 317 317 317 316 316 316 316 317 317 319 321 322 323 325 326 327 329 329 331 332 334 336 337 337 336 336 336 335 337 337 337 337 338 339 339 340 340 341 341 340 340 341 341 342
289 291 297 308 300 300 307 312 315 316 318 318 316 317 316 316 316 316 315 316 318 318 318 317 317 316 316 318 319 321 321 322 324 326 328 329 330 330 332 334 335 335 336 335 335 334 334 334 335 335 335 337 337 339 340 341 341 340 340 341 341 341 341
291 299 305 307 307 307 309 312 316 318 318 317 315 315 315 316 317 318 316 314 315 316 318 319 318 317 316 317 319 320 321 321 322 324 327 328 329 330 332 332 333 333 334 335 335 334 333 334 334 335 334 336 336 337 339 341 341 340 340 340 338 337 336
301 303 302 304 308 307 310 314 316 316 317 317 316 317 318 317 317 318 317 316 315 315 316 319 320 318 318 318 319 318 319 320 321 323 325 327 329 331 332 332 332 332 333 333 333 333 334 335 335 335 335 336 337 338 340 341 341 340 340 338 335 335 334
299 306 309 311 311 311 313 316 316 316 318 317 316 317 317 317 318 319 317 316 317 317 316 316 319 319 319 320 319 318 318 319 321 323 325 327 329 329 330 331 331 331 332 334 335 335 335 335 335 335 335 335 336 337 339 341 341 340 339 338 336 335 333

ECMWFFLT2_sfc_thetae_024.txt.gz
Theta_e
310 309 311 310 312 300 306 306 301 304 310 307 302 304 304 304 302 300 308 305 307 312 313 315 316 316 317 319 319 320 322 323 326 326 331 335 338 341 343 345 347 350 351 354 354 355 354 355 356 356 358 359 360 360 360 362 363 365 364 365 363 362 362
310 313 312 311 312 312 308 302 305 310 312 310 304 297 301 298 295 298 303 301 304 304 301 313 313 313 315 316 318 319 322 324 325 328 333 336 337 340 344 347 350 350 351 352 353 353 355 355 356 357 359 361 361 360 361 362 363 363 363 364 363 363 363
309 312 311 308 311 313 309 306 313 304 299 298 303 302 294 294 294 296 300 302 303 305 306 312 311 311 312 316 319 319 319 321 324 328 332 336 338 339 342 345 347 348 350 351 353 352 353 355 357 358 359 359 360 361 361 360 361 362 362 362 363 364 364
309 310 308 301 304 310 312 313 309 311 308 303 300 301 303 301 296 298 298 301 299 308 308 311 312 315 315 315 316 317 318 321 322 326 327 332 336 338 341 343 345 347 348 349 351 352 352 354 356 357 358 358 358 358 359 359 361 363 363 363 363 363 362
309 302 306 303 305 303 304 305 305 306 306 310 307 306 301 299 298 298 298 297 303 310 313 311 312 315 317 317 317 319 319 320 322 324 325 329 336 338 340 342 344 347 348 348 349 352 351 353 355 356 356 356 356 357 357 358 360 359 360 360 361 362 362
303 305 309 309 309 308 306 305 304 305 303 301 298 298 306 303 299 295 297 297 307 309 312 314 313 315 315 317 317 318 321 320 324 324 326 329 335 340 341 341 342 344 348 348 349 351 352 351 351 353 353 354 354 355 356 357 357 358 358 358 361 362 363
304 307 310 312 312 311 309 308 305 308 307 306 302 295 301 304 303 304 303 300 304 315 316 316 315 315 315 317 318 318 319 322 322 323 323 329 339 341 340 340 340 343 347 349 349 350 351 351 351 352 353 352 353 354 355 356 355 355 356 357 359 362 362
308 310 312 312 312 311 308 308 309 308 304 306 304 304 307 303 303 300 300 298 304 314 318 316 314 317 316 319 317 319 318 319 322 324 325 332 342 344 341 341 339 342 344 348 351 349 350 351 352 351 351 352 352 353 353 354 354 354 355 356 358 360 361
302 303 306 307 310 310 307 306 308 309 309 308 308 308 309 303 304 303 300 296 303 313 319 321 320 317 316 317 318 319 320 321 322 325 331 337 343 344 340 340 340 342 342 346 350 351 354 353 350 352 351 352 351 352 353 352 353 354 355 357 357 358 359
293 292 293 296 300 303 306 309 308 308 307 307 305 301 304 298 306 307 302 302 309 313 318 316 316 315 317 318 319 319 321 324 324 326 331 343 340 343 343 343 341 340 344 347 352 353 354 352 350 353 353 352 351 351 352 352 352 354 355 355 356 357 358
301 303 305 305 308 306 302 305 307 307 308 309 308 307 303 300 304 303 305 307 309 309 311 313 314 316 316 316 319 318 319 322 328 340 339 337 340 342 340 344 343 345 346 346 350 354 352 350 351 351 351 351 351 352 353 352 353 353 355 356 357 356 357
302 301 302 303 305 304 305 304 304 307 307 307 306 303 302 310 304 299 306 310 306 309 311 313 315 316 317 317 319 319 320 332 326 326 333 339 332 339 342 342 346 347 347 349 351 354 352 350 351 351 352 351 351 352 352 352 352 352 354 356 356 357 357
300 300 301 303 303 304 304 305 306 305 306 307 305 306 307 309 304 302 309 311 308 310 312 314 316 317 318 316 318 319 320 322 324 330 331 327 325 327 340 345 348 350 349 351 351 351 351 349 349 350 350 351 352 353 354 354 351 352 354 355 356 355 357
299 300 300 301 302 302 303 303 304 305 305 306 306 306 307 307 309 311 311 312 311 312 313 314 315 317 317 317 319 319 320 318 323 321 322 320 321 321 324 341 350 352 351 353 353 352 353 349 349 348 349 352 351 351 351 352 353 352 354 355 357 356 356
299 300 300 300 302 301 300 302 303 304 304 305 306 306 307 308 307 308 308 309 309 314 317 317 318 319 318 319 318 318 320 320 319 320 319 321 321 322 325 340 345 351 355 354 355 353 354 353 350 349 350 351 351 350 351 351 353 353 353 356 356 357 358
297 299 299 299 299 300 300 301 302 302 302 302 304 304 306 306 305 307 307 305 306 312 316 316 317 317 317 316 317 317 318 318 320 320 320 322 325 324 324 331 343 347 348 352 354 353 351 352 353 351 352 351 351 349 350 351 351 353 353 354 355 358 358
296 299 298 298 298 298 297 299 302 304 305 306 307 307 308 308 308 306 304 305 312 314 316 315 316 316 317 316 316 318 320 323 321 321 321 322 323 324 328 334 348 341 338 342 352 349 349 348 348 351 353 350 351 351 352 353 355 353 351 352 356 360 360
296 297 296 298 296 291 294 307 308 307 304 305 304 305 307 309 310 308 311 312 315 316 316 315 316 316 317 319 321 322 322 323 325 323 325 325 325 324 325 331 336 342 347 344 343 347 350 349 346 349 353 351 351 353 352 354 353 355 354 354 357 360 362
293 297 296 293 289 292 307 308 311 309 309 308 307 308 309 311 312 312 311 312 314 316 316 316 318 320 320 321 321 320 322 325 327 327 324 326 327 333 336 337 335 342 353 355 354 349 345 345 348 349 348 350 352 352 352 351 353 359 357 357 358 361 362
296 294 294 287 291 301 304 308 311 315 314 313 312 310 312 313 313 316 316 317 317 319 320 322 323 322 320 321 324 325 327 327 325 327 326 325 327 328 334 345 356 359 355 355 353 352 352 349 346 346 347 348 348 348 351 350 352 355 358 357 356 359 362
290 293 293 293 302 299 301 301 307 310 309 310 307 302 306 314 322 321 321 324 324 323 325 328 330 333 331 324 322 323 322 324 327 326 327 328 335 346 350 348 349 356 359 357 356 359 358 352 347 345 345 346 347 347 349 349 354 354 356 357 357 359 362
296 292 291 293 292 290 297 304 312 315 316 316 316 311 310 321 323 322 325 324 326 326 327 330 333 333 324 318 317 321 322 322 327 333 339 342 343 344 348 353 354 357 358 359 359 358 357 356 351 348 346 347 349 350 350 350 352 354 355 356 358 361 362
293 292 289 290 290 295 306 307 310 314 317 313 319 307 302 322 324 323 324 323 327 327 328 329 331 326 317 315 319 345 342 345 346 344 345 345 346 349 351 351 351 353 357 359 357 358 358 351 351 350 350 349 349 349 350 351 353 354 355 356 358 359 361
292 292 290 289 295 295 303 309 312 314 318 313 314 299 300 320 324 323 326 324 325 326 329 329 328 326 318 316 331 336 339 337 342 343 345 347 348 349 349 351 353 356 359 360 357 352 349 354 355 353 350 349 350 349 350 349 349 352 355 357 359 360 361
291 290 291 294 296 302 306 308 311 317 315 310 300 295 311 319 322 323 326 325 326 328 327 328 324 330 333 335 336 337 337 339 342 345 345 346 347 347 348 349 351 355 356 356 354 354 359 359 354 355 352 349 350 353 353 352 350 352 357 360 360 361 362
289 291 289 290 296 304 305 307 306 308 304 296 296 314 321 326 324 327 326 326 328 328 327 327 327 329 331 332 334 335 337 339 341 342 343 344 346 348 350 351 351 354 352 354 355 353 357 357 354 355 355 353 353 355 354 353 354 354 357 361 362 363 364
293 293 290 288 284 300 307 310 306 312 301 306 317 321 326 324 325 326 327 327 329 328 327 327 328 329 330 331 332 334 335 337 338 341 342 343 344 345 346 350 351 350 352 350 351 353 353 356 354 353 353 355 355 357 355 357 357 357 357 360 363 364 365
289 289 287 288 297 305 309 310 302 313 314 319 322 321 319 324 325 327 328 329 329 327 326 326 327 329 329 330 332 333 334 335 338 339 341 343 344 344 345 345 346 347 348 348 350 353 353 357 360 359 354 357 358 358 364 365 364 363 364 364 366 364 365
293 293 295 302 304 307 309 308 309 313 316 320 322 322 323 323 324 328 326 328 327 327 327 327 328 327 329 329 330 331 333 334 336 338 340 341 341 342 343 342 345 347 347 348 348 349 351 354 357 360 362 362 362 361 361 363 362 360 361 362 363 362 362
301 302 303 305 305 306 307 309 313 313 312 314 314 318 321 324 327 328 326 328 327 327 327 326 328 329 329 330 331 332 333 335 337 339 340 341 342 343 344 344 346 348 348 347 347 347 349 351 351 354 356 357 356 357 360 362 364 363 361 361 361 361 362
294 290 303 303 304 307 308 308 310 311 312 312 315 318 321 322 324 327 328 329 329 328 328 327 326 329 330 331 332 334 335 336 337 338 339 341 341 343 343 344 346 347 347 345 345 345 346 348 350 351 353 353 354 356 358 361 363 365 362 360 360 361 362
293 293 299 301 303 305 306 306 306 307 309 311 315 318 321 324 325 325 328 331 330 330 328 327 326 329 329 329 330 331 332 332 335 337 339 339 341 344 345 345 345 345 345 344 345 345 344 347 350 351 353 354 357 358 359 361 361 361 361 362 361 362 363
296 300 300 301 303 303 304 305 307 308 309 312 316 319 321 322 324 327 328 330 331 330 328 328 327 326 326 327 329 331 331 332 333 336 338 339 341 343 343 344 344 342 341 342 343 343 343 346 347 349 349 351 353 355 356 359 361 360 358 357 361 360 358
291 293 297 303 297 297 303 307 309 310 311 312 312 314 317 318 319 324 326 327 331 330 330 329 327 325 326 328 329 329 330 331 333 336 338 339 340 341 342 343 343 342 341 341 342 342 344 345 346 346 347 347 350 352 353 355 356 356 357 360 360 360 360
292 299 303 304 303 302 303 305 307 308 309 310 310 312 315 317 317 322 326 325 329 330 329 329 328 327 327 328 330 330 330 331 332 334 336 337 339 340 341 341 342 342 342 343 343 342 342 342 342 344 345 347 349 350 351 353 355 355 357 355 355 355 356
300 302 302 303 301 299 303 306 308 309 311 311 310 312 314 315 315 319 323 325 326 329 330 330 331 331 332 332 332 331 332 332 333 334 335 336 337 338 340 342 342 343 344 344 344 343 344 344 344 345 344 347 348 347 351 351 353 355 355 352 351 349 349
299 304 304 305 304 305 306 307 307 308 310 311 309 310 313 315 316 319 322 324 326 330 329 329 331 333 333 333 333 332 332 332 334 334 334 333 333 335 337 339 339 340 341 343 344 345 345 345 344 344 344 346 348 347 349 349 351 352 353 351 346 346 349

ECMWFFLT2_sfc_thetae_027.txt.gz
Theta_e
313 312 314 313 315 302 308 309 303 306 313 309 306 308 308 307 305 302 309 307 308 315 315 317 318 319 319 320 321 322 324 325 328 327 331 332 331 335 337 338 347 350 352 355 355 356 356 358 357 357 359 360 362 363 364 366 368 369 368 369 367 367 366
313 315 314 314 314 315 310 303 307 313 315 312 307 300 305 302 299 302 306 304 306 306 304 316 316 315 317 318 319 320 324 325 324 325 329 330 328 331 335 340 350 351 352 355 356 356 356 357 358 359 361 362 363 364 365 366 367 368 368 368 366 365 366
312 315 314 310 313 316 311 308 314 306 301 300 306 304 298 298 297 300 304 306 307 308 308 313 313 313 315 318 320 320 320 321 322 324 326 331 332 332 334 338 347 350 351 353 356 356 357 358 361 361 361 361 362 364 365 366 366 367 367 365 365 366 366
311 312 310 302 306 312 314 315 310 312 309 305 302 304 306 305 300 299 300 304 302 311 312 314 315 315 317 317 319 319 320 321 322 324 325 327 330 332 332 334 341 350 351 353 354 355 355 357 359 359 360 360 360 362 364 365 366 368 368 366 366 366 366
311 304 308 305 306 304 306 307 307 308 307 311 309 308 304 302 301 301 301 299 304 310 314 314 317 318 318 318 318 320 320 323 324 325 325 327 330 331 333 334 336 347 352 352 354 356 355 357 360 360 359 359 359 360 361 363 364 365 365 365 366 367 366
304 306 311 310 310 309 307 307 306 308 305 303 300 300 308 305 302 298 300 301 310 313 317 316 316 319 319 319 320 320 321 322 326 327 328 330 331 333 334 336 340 348 352 352 353 355 356 356 357 358 358 359 359 359 360 361 362 363 362 363 366 367 367
306 309 312 314 313 312 311 309 307 311 309 308 304 296 302 305 305 306 306 303 307 315 318 318 317 318 319 320 320 320 321 323 325 327 327 330 333 333 333 335 337 339 349 352 352 355 356 355 356 358 359 358 358 358 359 360 358 360 361 362 364 368 367
311 313 314 313 313 312 309 310 311 310 307 308 307 306 309 305 305 302 303 302 307 315 320 319 316 319 318 321 320 321 321 322 323 326 328 331 332 335 333 335 335 338 346 352 355 354 355 356 357 357 358 359 359 358 358 359 358 359 359 359 362 366 366
305 306 309 309 311 311 308 307 309 310 311 311 311 311 313 306 306 305 302 297 304 314 319 318 318 316 316 318 319 320 321 323 324 325 328 333 341 340 336 339 342 343 343 351 356 356 361 359 354 357 357 357 358 358 358 357 358 358 359 360 360 364 365
296 295 296 299 302 304 308 310 309 310 309 310 308 304 307 300 310 310 304 303 311 316 319 317 317 317 319 318 318 320 323 324 323 325 331 336 340 343 340 341 340 341 350 355 360 361 362 356 354 358 361 357 357 357 358 358 358 358 358 359 359 361 364
303 306 312 311 311 307 304 307 309 308 309 311 310 309 306 301 307 308 309 310 310 313 314 316 316 317 317 318 320 320 321 325 327 332 331 331 338 342 341 344 344 349 354 355 358 360 355 353 354 354 355 356 356 358 359 358 357 358 359 359 360 360 362
311 308 309 308 310 307 307 307 307 309 308 309 308 305 304 312 306 301 310 315 311 311 313 315 316 317 320 320 322 321 324 325 326 325 329 338 337 341 343 345 346 348 351 353 357 359 355 352 354 354 354 354 356 357 356 357 357 357 358 360 360 361 363
310 310 306 308 308 309 309 308 308 308 309 308 307 308 309 311 306 304 312 315 312 313 314 315 317 320 319 318 320 322 324 323 325 329 326 325 326 334 339 346 350 350 349 354 355 356 355 354 354 354 353 354 357 358 357 358 356 356 359 360 360 360 362
309 308 308 308 307 308 308 309 309 309 309 308 308 309 310 310 311 312 314 314 312 315 315 317 318 320 319 320 322 322 322 320 325 324 324 322 323 325 333 344 349 352 353 355 356 358 360 356 356 353 353 356 354 354 355 355 357 355 358 360 361 360 360
306 308 307 307 306 305 306 308 309 309 309 310 310 309 310 311 311 311 312 314 312 316 321 320 322 323 322 321 319 319 322 321 320 321 321 322 323 324 327 339 348 352 352 355 359 360 362 360 356 355 355 355 354 353 353 354 356 356 355 362 359 359 361
301 305 305 305 307 306 305 306 307 308 308 307 308 308 311 310 309 311 311 312 312 318 320 321 321 321 321 319 320 320 320 320 321 322 322 323 325 326 326 328 331 353 349 352 357 358 357 359 358 356 358 355 354 352 353 353 354 354 354 356 357 362 361
299 304 305 304 305 304 301 303 306 309 309 310 311 312 312 312 312 310 308 310 317 320 321 318 318 318 318 319 319 321 322 324 323 324 324 324 325 327 330 330 330 328 337 353 355 351 350 352 353 354 356 353 355 355 356 355 356 354 353 353 357 364 362
299 304 304 305 301 295 297 309 311 310 308 309 308 308 310 312 312 311 315 315 318 318 317 316 317 317 319 322 324 325 325 325 325 324 326 326 328 328 328 329 329 333 335 336 341 340 347 349 343 349 358 352 354 355 354 356 355 358 357 355 358 362 366
298 302 301 297 293 295 309 312 313 312 311 311 309 310 311 311 312 312 312 313 315 317 318 320 320 322 323 323 323 322 323 326 326 326 326 329 330 330 331 332 337 356 355 355 352 352 347 340 342 346 346 353 354 353 354 354 356 365 364 363 364 365 365
301 300 297 290 293 305 307 309 312 314 313 312 310 308 310 312 313 313 312 314 315 317 318 320 322 324 323 324 328 328 326 325 323 322 323 325 326 326 329 339 347 349 350 353 348 348 356 352 345 344 343 345 350 352 353 353 354 359 364 365 362 365 365
295 298 298 297 305 303 306 307 309 312 309 309 308 303 308 312 314 315 315 316 317 318 320 321 323 326 328 328 327 326 323 322 322 322 322 322 325 331 341 341 344 355 357 354 354 358 356 354 347 343 342 343 345 349 352 352 359 356 358 361 360 365 365
300 297 295 296 297 294 301 308 312 314 314 314 314 311 309 316 316 318 319 321 323 322 322 322 325 332 324 317 316 321 325 336 339 344 346 346 345 345 349 352 351 354 356 361 361 361 360 359 357 354 349 347 351 356 354 353 353 354 356 356 359 362 361
298 296 293 294 294 299 308 308 310 315 318 316 316 310 304 316 318 321 321 319 320 320 321 323 331 325 314 312 318 342 341 339 342 343 347 345 347 348 347 348 348 354 359 361 359 357 356 350 357 361 360 355 351 354 357 355 355 355 355 357 358 358 360
296 296 293 293 299 300 306 310 311 314 316 315 313 299 301 319 321 322 322 320 322 325 330 332 329 321 312 312 324 338 339 338 342 345 347 346 346 345 345 346 356 356 357 360 361 359 357 362 362 361 358 356 355 354 354 353 352 353 356 358 361 361 362
295 294 295 298 301 306 308 311 313 314 315 311 302 296 312 322 322 324 323 323 324 327 327 329 323 328 329 331 336 336 336 337 340 344 345 346 346 346 347 351 356 354 356 359 358 356 361 364 363 363 361 355 354 357 356 356 353 354 358 361 363 366 366
293 295 293 294 300 306 309 314 314 314 307 299 299 314 322 325 324 326 325 325 327 329 330 330 330 331 332 333 334 335 337 337 339 341 342 344 346 346 351 354 356 355 354 359 358 357 361 359 361 358 359 358 356 357 355 354 356 357 361 364 364 366 366
295 296 294 291 288 305 311 308 308 311 303 309 316 318 321 322 323 322 324 325 328 330 329 330 331 332 332 333 334 335 337 338 339 340 342 343 344 346 348 351 353 350 352 354 355 357 357 360 363 365 357 358 358 357 357 359 358 360 360 363 365 366 367
289 290 290 291 299 306 311 311 303 310 314 316 317 316 318 321 323 325 325 325 329 331 330 330 330 331 331 333 335 336 336 338 340 341 343 345 347 347 348 349 350 349 352 355 356 358 356 359 362 366 365 359 359 359 360 364 363 363 363 364 368 365 366
298 293 296 305 306 309 310 311 310 312 314 316 316 316 319 322 322 326 326 326 328 331 330 330 330 329 332 332 334 334 335 336 337 339 341 343 344 344 346 347 350 350 351 352 353 354 355 358 361 364 367 364 362 364 369 369 369 367 363 363 365 365 366
304 305 304 306 307 309 311 311 312 312 312 314 315 315 315 320 321 323 325 327 329 330 332 329 329 331 333 333 333 334 336 336 338 341 342 343 345 346 347 348 350 351 350 350 351 350 352 356 357 358 360 362 362 362 364 365 369 367 367 367 367 367 369
296 292 304 305 306 308 308 309 310 312 313 313 314 315 315 319 322 323 325 327 328 330 331 331 330 330 333 333 334 336 337 338 339 339 342 343 344 345 346 347 348 350 351 348 349 349 350 353 355 356 357 357 358 361 362 364 367 368 366 366 364 365 367
295 296 303 305 307 308 308 307 308 309 311 312 315 317 318 319 320 322 324 325 326 329 330 332 331 331 332 332 333 334 336 336 338 340 341 343 344 346 347 347 348 349 349 348 348 349 349 352 355 356 357 358 360 360 362 364 365 366 364 363 363 364 365
298 302 303 303 305 305 306 307 309 310 311 315 315 316 316 316 316 319 323 324 324 326 328 333 333 331 332 333 333 333 335 335 337 340 342 343 344 345 346 346 346 346 346 346 347 347 348 350 351 353 355 357 358 359 361 362 364 363 363 362 365 366 366
293 295 298 303 296 297 303 306 308 311 314 313 313 314 315 316 316 316 316 320 323 322 325 331 333 331 332 334 334 333 334 335 336 338 341 343 344 345 344 345 345 344 344 345 346 346 347 348 349 351 351 353 355 356 358 360 364 363 362 363 362 361 363
293 300 302 304 304 304 305 307 309 310 312 312 311 312 313 314 315 315 315 317 319 320 323 326 331 333 333 334 335 334 334 335 337 337 339 340 342 343 344 343 344 344 344 345 344 344 345 345 346 348 351 352 354 353 355 357 358 358 360 360 361 360 361
302 303 304 305 304 302 305 308 310 310 312 311 311 312 313 313 314 315 314 315 318 320 321 324 329 334 335 335 335 334 334 336 337 337 338 340 342 344 345 346 346 346 346 345 345 345 347 347 348 349 347 348 350 350 352 353 355 357 356 355 354 353 355
300 305 305 306 305 306 308 309 310 311 312 312 310 311 312 313 314 315 314 315 319 321 320 323 327 334 336 336 337 337 336 336 337 338 338 338 340 341 342 343 344 344 346 347 347 347 347 347 348 346 345 347 348 348 352 351 353 354 354 352 350 351 352

ECMWFFLT2_sfc_thetae_030.txt.gz
Theta_e
313 312 314 313 314 301 306 307 301 304 311 308 304 305 305 304 301 298 306 303 305 311 312 315 316 316 317 318 319 321 322 327 333 331 328 326 329 340 339 340 341 343 342 345 348 350 351 355 355 355 357 358 358 359 360 362 363 362 362 363 363 363 364
314 316 315 315 315 314 308 302 305 311 313 310 305 299 303 300 296 299 303 301 303 302 300 313 313 313 315 316 317 319 322 324 325 329 331 330 328 330 339 341 342 343 343 343 346 349 351 356 355 356 359 360 360 361 360 360 362 363 362 362 361 363 363
313 316 315 312 314 316 310 307 313 304 300 299 305 303 296 297 296 299 302 304 304 305 305 310 310 312 313 316 318 318 318 321 323 330 330 331 330 330 339 341 342 342 343 346 351 347 353 357 359 358 360 358 359 361 360 361 362 363 363 361 362 364 364
312 313 311 303 307 313 315 315 310 312 308 304 301 303 305 305 300 299 300 304 301 309 309 311 312 314 316 315 317 317 317 320 323 326 330 332 330 330 337 336 337 339 341 342 348 352 353 355 357 356 356 356 356 360 362 362 363 365 364 363 364 363 364
311 304 308 305 307 305 306 307 307 307 307 311 308 307 303 302 301 301 300 298 304 312 315 314 315 316 317 317 317 320 319 320 323 329 330 330 329 331 337 337 337 336 338 342 348 354 355 353 358 357 355 355 356 358 362 363 364 364 363 363 362 364 365
305 306 311 311 310 309 307 306 306 307 304 302 299 298 307 304 302 297 300 299 308 312 316 317 316 318 318 318 319 320 320 320 325 326 330 331 331 333 334 335 335 338 346 346 344 348 355 351 355 356 356 356 355 357 361 363 363 364 363 364 364 365 366
306 309 312 314 314 312 310 309 307 310 308 306 302 295 300 304 304 306 306 302 306 315 318 320 319 319 319 319 319 320 320 321 322 325 326 335 334 332 331 333 334 335 339 339 342 345 345 347 352 357 356 355 356 358 360 361 362 363 364 364 364 366 366
312 312 313 313 314 312 309 309 310 309 306 306 305 304 307 303 303 301 302 301 306 315 332 325 318 325 320 321 320 321 320 321 324 325 325 332 332 332 332 337 335 342 343 346 345 345 346 348 356 357 356 357 356 357 358 360 361 363 364 364 364 364 364
305 306 309 309 311 311 308 306 308 310 310 309 309 309 310 304 304 303 301 296 304 313 320 320 318 317 318 318 319 320 319 322 323 326 328 335 335 336 334 338 342 344 345 345 346 346 350 357 356 358 359 357 356 357 358 359 360 363 364 364 363 363 362
295 294 295 298 301 304 307 309 308 309 308 309 306 302 307 299 309 309 302 302 309 314 320 317 317 316 321 319 319 321 322 325 323 335 340 338 336 335 336 337 341 340 343 345 346 347 355 358 356 359 360 357 357 357 357 359 360 361 362 363 362 363 363
303 304 309 310 310 307 303 306 307 307 309 310 310 308 306 301 307 305 309 310 309 312 313 314 313 314 316 317 319 319 324 326 328 336 338 342 343 339 339 342 345 347 348 348 347 352 358 356 355 357 358 357 357 360 359 359 359 359 362 362 363 361 363
308 310 310 310 311 306 306 306 306 308 307 308 308 305 303 317 308 301 311 323 309 310 313 313 316 316 320 317 320 325 327 327 328 335 342 341 334 339 342 344 343 346 347 357 360 356 357 355 356 356 357 358 359 361 359 359 358 358 359 361 362 362 364
308 310 310 311 310 309 308 308 307 306 307 307 306 307 309 313 307 305 315 321 313 312 313 314 316 320 319 317 320 323 323 323 329 333 328 329 331 336 338 350 353 345 343 351 362 362 360 356 355 355 355 357 360 362 360 360 358 358 360 360 361 360 363
307 308 309 311 309 309 308 308 308 308 308 307 307 308 310 310 314 315 313 317 312 314 313 314 316 320 320 321 323 323 322 321 337 327 329 325 326 328 334 343 345 361 359 368 364 364 362 357 358 353 356 359 359 359 359 358 361 359 361 361 361 359 361
304 307 309 309 309 308 307 308 309 309 308 308 308 308 310 311 310 311 312 316 315 315 320 318 321 324 321 322 320 319 325 322 321 323 322 324 327 330 336 350 344 355 358 362 367 367 365 363 361 357 357 359 358 356 356 357 360 360 360 363 361 360 360
301 306 307 308 309 308 306 306 307 309 308 306 307 306 309 309 309 311 311 312 311 316 319 320 320 321 321 319 320 321 321 320 324 322 322 324 333 332 335 344 348 353 353 359 359 361 358 358 362 359 361 359 354 354 355 355 356 358 358 361 361 362 362
299 305 307 307 307 304 302 303 307 309 310 310 310 310 311 311 312 309 308 309 317 321 322 318 319 318 318 319 319 319 322 332 324 325 324 324 324 326 337 339 350 345 347 355 358 354 355 355 354 355 361 355 356 357 357 358 358 356 355 355 362 364 363
299 303 304 306 303 295 297 310 312 311 309 310 308 308 309 312 312 311 314 316 321 320 319 318 318 318 320 323 328 327 329 328 332 323 326 324 325 327 328 330 331 346 356 353 356 353 359 358 352 353 356 355 358 357 356 361 358 358 358 357 360 365 364
297 302 303 299 295 297 309 313 314 314 313 312 309 312 311 311 312 314 314 317 319 320 319 319 321 324 322 323 323 322 324 330 327 327 324 327 329 329 335 340 336 354 358 358 358 353 342 341 351 356 354 352 357 356 357 356 359 363 362 360 360 367 364
301 299 299 292 294 307 310 311 313 315 313 312 310 309 313 314 314 315 315 317 319 321 320 320 323 324 322 323 325 327 325 325 325 322 321 322 324 327 331 353 357 357 350 350 342 357 358 347 344 341 342 351 351 350 352 353 356 361 365 363 360 368 366
295 298 297 298 306 305 307 307 309 311 309 310 309 305 309 314 315 315 315 317 317 317 318 320 321 323 322 323 327 327 326 325 323 322 325 345 344 345 346 347 350 360 360 359 360 363 358 355 348 343 342 339 343 349 350 350 358 359 362 363 360 363 367
300 297 296 296 296 294 301 309 312 314 314 314 314 311 307 315 315 316 315 316 316 315 316 318 324 327 324 321 322 323 330 338 341 344 344 345 344 344 344 351 355 359 357 356 354 352 349 348 348 351 351 353 361 376 356 355 357 356 358 360 363 363 367
296 296 292 294 293 298 307 308 311 314 315 315 315 308 304 319 325 317 315 315 322 322 320 321 323 323 318 317 325 334 336 337 341 341 342 344 344 344 346 352 350 350 353 353 356 361 361 360 365 362 360 363 365 364 371 359 356 356 356 358 362 363 366
295 295 293 292 300 299 303 309 311 314 316 315 311 298 301 317 323 323 323 318 321 321 324 328 327 322 317 317 326 333 335 336 339 340 339 342 343 344 344 351 349 353 359 359 360 355 357 360 364 366 365 367 364 367 367 357 352 356 358 360 364 365 367
295 295 295 298 300 303 306 308 313 313 315 312 301 296 311 320 323 324 323 323 326 327 327 327 323 326 328 329 332 335 336 336 337 340 341 342 343 342 343 346 356 353 353 358 357 356 361 364 361 362 362 359 364 367 367 365 360 356 361 365 368 367 367
292 295 293 295 299 305 307 311 314 317 311 300 297 312 320 322 322 324 326 324 327 327 328 328 327 328 330 331 333 335 335 336 338 339 341 343 344 346 347 351 354 350 350 354 355 354 358 359 361 365 368 363 365 368 365 363 366 363 377 369 370 370 370
293 295 293 291 288 304 308 312 312 314 307 306 314 316 319 322 322 323 325 326 327 328 326 328 328 329 329 332 333 334 336 336 337 339 341 343 344 345 346 349 351 348 349 352 353 356 357 357 357 361 365 368 364 365 365 365 368 376 377 377 372 372 372
289 290 289 290 300 303 310 309 303 308 311 314 314 314 313 319 321 321 323 325 326 328 328 326 327 328 330 330 332 333 335 336 338 340 341 342 343 343 345 345 348 347 350 354 353 356 355 356 359 361 365 367 361 360 361 372 369 373 375 376 375 373 371
295 292 296 301 304 307 309 308 308 310 312 313 314 314 314 314 318 322 322 323 324 326 328 328 327 327 329 330 331 332 333 335 336 338 340 341 343 344 344 346 350 349 349 351 351 351 353 356 358 361 363 366 366 364 367 373 373 373 373 369 378 373 371
303 303 303 306 305 308 308 309 310 311 311 313 313 314 315 316 317 318 320 323 324 325 327 327 329 329 330 331 331 333 333 334 337 339 339 341 343 344 344 347 347 347 349 351 349 349 351 354 356 358 360 360 363 363 366 367 371 371 372 372 375 375 374
295 291 303 304 305 307 309 307 309 311 313 313 313 315 315 315 316 317 319 319 321 324 326 325 325 329 331 331 332 333 334 335 336 337 338 341 343 344 344 347 348 348 349 348 348 349 351 353 355 355 358 360 361 361 364 365 366 369 369 369 372 373 374
295 296 302 303 305 305 307 308 306 307 309 311 315 316 316 315 316 318 318 319 318 320 322 324 324 326 329 331 332 332 333 334 336 338 339 342 343 345 347 348 348 348 348 348 348 349 349 351 354 355 357 359 361 363 361 363 364 364 364 364 368 366 368
298 301 303 303 303 304 305 306 308 309 309 311 314 314 314 314 314 315 316 317 317 318 319 322 324 324 326 330 333 333 333 334 336 337 338 342 343 344 346 347 346 346 346 347 348 347 348 350 352 353 355 357 357 360 361 362 365 365 365 363 367 364 363
293 295 299 303 297 297 303 306 307 309 312 312 311 312 312 313 313 314 313 315 317 318 318 319 321 324 326 328 331 334 334 335 337 338 340 342 344 345 346 346 345 344 344 346 346 346 347 351 352 352 353 354 356 357 360 364 364 365 364 364 364 366 367
293 300 303 305 304 303 304 305 307 308 310 310 310 310 311 312 314 314 313 313 315 316 317 318 319 322 324 326 328 331 334 336 338 339 340 341 343 344 344 343 344 344 343 344 344 344 347 350 351 353 353 355 357 353 359 362 362 366 367 364 364 362 362
301 303 303 304 303 302 305 307 308 309 310 310 309 311 311 312 313 313 313 313 313 314 315 317 319 321 323 324 327 328 334 337 338 339 340 341 342 343 345 346 345 344 344 344 344 344 347 349 348 351 346 348 353 349 357 357 356 356 357 365 362 360 357
299 304 305 306 306 306 307 308 309 310 311 311 310 310 311 312 312 313 312 313 314 315 314 315 318 321 321 322 326 329 332 336 338 339 340 341 342 342 343 344 346 346 346 346 347 348 348 348 348 348 346 347 350 349 353 352 354 354 354 356 351 351 355

ECMWFFLT2_sfc_thetae_033.txt.gz
Theta_e
309 309 311 310 311 297 303 304 299 301 305 302 300 304 302 303 299 292 302 298 299 303 304 308 311 310 311 312 314 318 321 328 328 327 330 332 334 335 336 338 340 341 342 342 343 343 347 349 349 349 349 349 350 350 351 350 351 352 353 353 353 354 354
310 312 312 311 311 309 304 299 301 307 307 305 301 292 295 292 289 292 298 295 295 296 293 305 307 308 309 311 313 314 320 325 326 327 330 331 333 334 336 338 340 342 342 343 343 344 346 349 349 349 350 350 351 352 352 351 351 351 353 354 353 354 354
309 312 311 308 311 312 305 303 309 301 294 294 298 300 290 289 289 290 295 298 297 297 298 303 303 305 308 309 312 313 316 321 324 326 330 331 333 334 335 336 337 341 343 343 343 344 346 348 349 350 351 352 353 353 354 353 352 353 354 355 355 355 355
308 309 308 299 303 310 311 310 305 308 301 297 294 297 298 296 291 292 292 296 292 301 301 304 304 306 308 308 310 312 313 322 324 325 328 330 332 333 334 335 336 338 341 343 344 344 345 347 349 351 352 353 353 354 355 354 354 354 355 355 356 354 355
307 301 305 302 303 302 303 303 300 302 301 304 302 302 297 295 294 291 292 292 298 304 307 307 306 307 309 309 310 312 313 324 326 326 325 330 332 333 334 336 337 337 339 342 344 345 346 347 349 351 353 352 353 355 355 355 354 354 354 355 356 356 356
301 303 308 308 307 307 304 303 300 301 299 296 293 292 301 299 294 289 294 292 300 307 313 309 309 310 311 311 312 313 313 324 326 327 326 329 332 332 334 336 337 338 338 340 343 345 346 348 351 351 352 353 353 353 355 356 356 355 355 355 355 356 356
302 306 309 311 311 310 308 306 303 304 302 300 295 287 293 298 298 302 299 296 298 311 312 311 311 312 312 313 313 315 314 315 327 328 327 326 332 332 334 336 337 338 339 339 341 343 344 345 349 352 353 353 353 353 354 356 356 356 356 356 356 356 356
306 309 311 311 311 310 307 307 307 305 301 302 299 297 300 296 298 294 296 296 300 307 313 315 314 313 314 314 314 313 314 314 327 327 326 325 328 333 334 335 337 338 339 340 341 342 343 344 345 349 352 353 353 354 354 355 355 356 357 358 357 356 356
298 302 309 306 309 309 305 304 305 306 305 305 304 304 305 297 297 298 294 289 296 308 317 311 313 314 314 313 314 317 315 316 327 327 326 326 328 333 333 334 335 337 338 339 340 342 343 344 346 349 352 353 353 353 354 355 356 357 358 359 358 357 356
289 290 292 295 299 302 305 306 305 306 305 304 302 297 299 290 300 300 295 296 303 308 313 312 312 312 312 313 313 315 315 316 326 326 327 326 326 332 333 334 334 334 336 339 342 344 346 346 346 349 351 353 353 352 353 356 358 358 359 360 359 357 357
297 302 304 307 307 304 301 303 304 304 306 306 304 301 299 293 298 298 298 302 302 307 309 307 311 312 311 316 319 321 326 329 328 324 326 326 326 331 332 333 334 335 336 337 341 344 346 346 344 347 350 352 353 352 352 355 359 360 361 360 360 358 357
304 305 308 308 308 303 303 303 303 304 304 304 302 299 297 304 299 290 301 306 304 306 309 311 311 311 315 319 321 323 326 327 329 323 327 335 326 329 330 331 333 334 336 337 340 342 343 344 344 345 349 352 353 352 352 354 358 360 362 361 361 360 358
304 306 307 308 308 306 304 304 304 303 304 303 301 302 305 307 299 295 304 306 307 306 308 309 309 313 316 318 320 321 323 327 328 326 326 326 327 330 329 331 332 334 335 337 338 340 341 343 343 344 349 352 354 354 354 355 356 358 361 361 360 360 359
303 306 306 308 307 306 306 305 304 304 304 303 303 304 305 308 306 309 311 309 310 308 309 312 315 314 315 316 319 321 322 324 325 326 326 330 332 332 331 333 334 335 337 339 339 340 341 342 344 347 350 352 354 354 354 355 355 357 359 360 360 359 359
303 305 306 306 307 309 307 306 306 306 304 304 304 304 305 308 307 309 313 312 307 311 312 313 314 314 315 316 317 319 321 321 323 324 327 330 332 332 334 335 335 336 339 341 340 341 343 345 348 350 353 354 354 355 355 355 355 356 357 358 359 359 358
303 304 304 304 306 305 304 304 305 307 304 301 303 302 304 305 305 307 309 305 304 311 314 314 314 313 313 313 315 317 316 317 318 320 325 326 330 334 337 341 342 341 344 348 345 343 345 349 350 350 351 354 354 354 355 356 356 356 356 356 357 358 358
296 305 304 303 303 302 299 301 304 306 308 306 305 305 307 307 309 306 303 305 309 312 315 311 312 316 316 317 316 314 315 316 316 316 319 329 338 341 344 345 347 349 352 353 354 352 351 352 352 351 352 353 353 354 355 356 357 356 355 355 355 357 357
293 298 302 303 298 292 294 309 311 313 306 305 307 303 305 307 310 306 311 312 315 313 312 312 312 313 313 315 318 319 317 316 319 322 322 322 326 338 341 342 343 344 347 350 353 352 352 352 354 353 354 352 353 355 355 355 355 355 355 354 355 355 356
291 296 301 296 291 292 309 311 313 311 310 308 306 310 312 307 308 313 313 313 313 314 315 316 316 316 318 319 318 322 326 322 322 333 336 339 339 338 342 342 342 343 345 347 348 347 349 349 350 350 351 352 353 352 352 353 353 353 353 354 353 355 355
295 296 297 289 291 305 313 309 310 312 310 309 309 310 314 316 316 317 312 312 315 317 317 318 318 319 320 324 331 336 338 338 337 335 335 339 346 348 350 350 350 351 351 350 353 353 352 349 344 346 349 350 350 351 352 351 352 353 352 352 352 356 355
289 291 293 295 306 303 307 306 305 303 303 306 307 303 308 315 318 319 318 316 314 315 316 318 320 322 325 325 327 334 336 337 339 339 338 342 346 346 346 346 346 347 347 348 351 349 346 344 342 343 344 345 349 349 350 349 349 352 353 352 351 354 357
293 289 291 296 295 293 297 302 307 311 311 311 313 313 307 316 319 323 321 316 315 316 317 318 321 325 323 319 322 329 334 336 336 339 339 340 343 345 343 344 345 346 348 349 353 355 353 355 356 356 356 352 352 358 357 347 347 349 351 352 353 353 358
291 292 290 291 292 298 300 301 307 311 314 314 317 312 305 314 318 322 322 321 322 320 321 322 322 321 316 316 321 329 332 334 336 336 338 339 339 341 342 343 345 348 352 354 355 356 353 353 355 355 357 357 357 356 359 359 347 346 348 351 353 353 358
292 291 290 291 294 293 300 304 308 312 314 314 310 298 300 313 317 322 322 321 321 322 323 322 321 318 314 317 323 331 334 335 336 337 338 338 339 339 340 346 348 349 353 352 352 350 351 351 358 359 361 358 356 360 362 358 356 348 347 349 354 355 358
290 292 291 296 298 302 303 305 310 310 315 311 301 294 306 314 318 320 321 321 322 322 322 322 319 322 324 326 330 333 335 335 336 339 340 341 341 340 342 347 352 346 349 351 349 348 351 355 355 355 358 361 360 355 357 355 354 356 352 351 354 357 357
287 289 289 289 298 301 305 308 310 311 310 299 298 310 318 316 318 320 320 319 321 323 322 322 322 324 327 330 331 332 333 334 335 337 338 339 340 342 345 354 348 344 348 349 348 351 351 353 353 353 355 358 361 360 354 354 356 358 362 354 355 357 358
293 292 288 287 285 299 305 306 308 308 302 305 313 314 314 315 315 318 318 319 320 322 322 324 325 325 327 328 329 330 331 332 334 335 336 337 339 340 341 343 346 345 346 347 348 350 351 352 352 354 357 356 358 361 355 360 365 365 366 362 356 357 358
287 288 286 289 302 301 306 305 299 304 306 316 315 316 310 313 313 314 315 316 319 321 321 322 324 326 326 327 328 329 329 331 334 335 335 337 338 339 341 345 345 347 344 350 348 348 350 353 353 354 356 354 363 359 356 362 364 365 363 365 360 358 356
293 292 295 299 303 303 307 307 307 308 309 310 315 314 312 310 311 314 313 313 315 319 320 321 322 322 324 327 329 328 328 330 332 333 334 336 338 340 340 344 345 345 344 348 345 347 348 350 350 354 356 355 356 355 356 361 363 363 363 364 362 359 358
303 302 300 303 306 304 304 305 311 311 309 311 314 313 311 312 311 313 312 313 314 315 319 319 320 321 323 325 327 330 330 331 332 334 336 337 339 340 342 343 344 345 345 345 345 345 347 349 349 352 356 355 351 352 359 360 360 360 362 363 363 361 360
292 289 304 303 300 302 304 305 307 309 315 311 313 311 312 312 312 314 313 313 314 314 316 316 318 320 323 323 325 327 330 331 332 334 335 335 337 338 340 344 346 344 344 344 345 346 345 346 348 352 351 354 355 357 358 359 360 360 361 365 363 363 363
293 293 298 300 303 304 305 304 306 305 309 312 314 312 312 316 318 313 312 313 313 314 313 314 314 316 321 322 322 324 326 330 332 333 333 333 336 339 341 344 345 342 342 342 344 343 343 345 347 350 351 351 352 354 355 357 359 358 363 360 361 361 364
295 298 300 302 303 304 306 307 306 308 309 309 310 311 312 311 311 312 312 313 313 314 314 314 313 314 319 320 322 322 324 327 331 334 334 335 336 338 340 342 344 340 340 342 342 343 342 345 347 347 347 348 353 359 358 357 357 357 359 366 362 358 361
289 291 295 299 293 293 298 301 305 305 306 309 308 309 310 310 310 312 311 311 312 313 314 313 313 314 316 318 320 320 323 325 329 333 335 335 336 338 341 343 342 340 342 341 340 339 341 344 345 345 347 350 353 353 355 356 356 358 356 355 358 357 359
290 297 299 301 300 299 301 302 305 306 308 308 306 308 309 309 310 311 313 310 309 310 312 314 314 313 315 316 318 318 320 324 329 332 335 336 336 337 339 342 342 340 339 342 342 341 341 344 345 347 349 350 348 351 351 352 352 351 350 358 355 354 353
298 300 300 301 300 299 301 304 304 305 307 306 306 307 309 310 310 310 310 312 310 310 312 314 315 315 314 315 317 316 320 325 329 331 333 337 337 338 340 341 343 342 341 341 340 342 343 343 342 342 342 344 346 348 350 349 349 350 350 355 353 351 351
296 301 302 302 302 302 303 304 305 306 307 308 306 306 307 309 309 311 309 310 313 314 312 313 314 314 313 314 316 318 320 324 329 333 334 336 338 338 338 341 342 342 342 342 341 341 340 341 341 341 340 341 342 346 348 349 348 349 350 350 350 350 351

ECMWFFLT2_sfc_thetae_039.txt.gz
Theta_e
306 308 310 308 308 296 302 303 299 301 301 300 295 297 297 294 290 291 291 293 293 295 299 300 303 305 311 317 319 321 321 323 324 325 326 328 330 333 334 335 336 337 337 337 338 338 339 340 340 341 342 343 344 345 345 345 346 347 348 349 349 350 349
307 309 310 309 308 303 300 298 302 302 305 304 297 289 290 288 286 287 289 291 290 292 291 301 300 302 305 310 316 319 320 321 322 324 326 328 330 332 335 336 337 338 338 338 338 339 339 340 340 341 342 344 345 345 345 345 346 345 347 348 349 349 349
302 309 306 305 308 309 304 302 305 301 293 294 296 293 288 285 284 284 287 291 292 292 293 297 298 299 300 305 311 315 318 320 321 323 325 328 330 332 334 335 336 337 338 338 338 338 339 340 342 341 343 344 344 345 345 346 345 346 347 348 349 349 350
300 301 304 296 299 306 308 304 304 303 297 297 293 295 291 290 284 287 286 289 290 295 296 297 300 300 301 301 309 313 315 318 321 323 325 327 329 331 333 335 336 337 338 339 339 339 339 339 340 341 342 343 343 344 345 345 346 346 347 347 348 348 349
299 293 299 299 300 297 299 299 298 300 300 298 300 295 292 291 284 282 284 286 289 293 298 300 301 301 302 301 309 314 316 317 321 323 325 327 329 331 332 334 336 337 338 339 339 340 340 341 341 342 342 342 343 344 344 345 345 345 345 346 347 347 348
290 294 300 302 303 302 299 299 298 300 297 292 292 291 294 291 289 283 283 286 289 295 303 302 302 303 304 303 308 315 318 318 320 323 325 327 328 331 333 334 336 337 338 339 339 340 341 341 341 341 342 342 343 343 343 344 345 345 345 345 346 347 348
291 296 300 302 302 303 302 301 299 301 299 294 293 288 290 293 292 294 289 287 293 301 302 304 304 304 305 305 305 313 319 320 321 323 325 327 329 331 333 334 336 337 338 339 339 339 340 340 341 341 342 342 342 343 343 344 344 345 346 346 347 347 347
294 298 301 302 304 304 300 300 302 301 298 299 298 296 291 293 291 292 289 289 294 300 306 305 305 305 305 305 304 309 317 321 322 323 325 326 328 330 333 335 336 337 338 339 339 338 339 340 340 341 342 342 343 343 344 344 344 345 346 346 346 347 347
289 294 298 298 302 302 299 297 300 302 303 301 297 296 294 294 292 294 289 288 293 303 310 307 308 308 305 304 304 309 313 320 323 324 325 327 328 330 332 333 335 336 337 337 338 338 339 340 341 342 342 343 343 343 344 344 345 346 346 347 346 346 347
280 283 284 285 289 292 294 298 300 301 301 300 295 294 292 292 293 293 290 291 295 300 302 303 302 304 304 306 304 309 314 318 322 324 326 327 329 330 332 333 334 335 336 338 338 338 339 340 341 342 342 343 344 344 345 346 345 346 346 347 347 347 347
282 285 287 292 294 292 289 295 296 298 301 302 299 294 290 292 289 292 293 296 298 300 302 302 302 302 305 305 303 307 313 318 323 324 326 328 329 330 332 334 335 336 336 337 337 338 339 340 341 342 343 343 344 345 345 346 347 347 347 347 347 347 347
288 290 290 292 293 289 290 291 292 297 299 300 298 296 294 294 291 288 293 296 297 300 302 302 301 302 306 304 302 308 315 319 322 324 326 334 329 331 332 334 334 335 336 337 337 338 339 339 341 342 343 344 345 345 345 347 347 348 348 348 347 347 347
291 292 292 293 292 292 292 294 296 297 301 299 297 298 296 296 296 293 294 296 296 300 303 303 301 301 306 307 304 309 316 321 323 324 325 327 328 329 331 332 334 335 335 336 337 338 339 339 340 342 343 344 345 346 347 347 348 348 349 348 347 347 347
289 290 291 292 293 293 294 296 298 300 301 299 299 299 298 298 296 298 298 297 298 301 300 303 306 307 307 310 313 311 315 319 322 323 324 326 327 329 330 332 334 335 336 337 337 338 338 339 340 341 343 344 345 345 346 347 348 349 349 348 348 348 347
287 290 293 294 292 294 296 300 301 304 300 299 299 299 299 301 299 301 299 297 298 301 303 306 308 311 313 314 313 311 314 319 322 323 324 326 327 328 330 331 333 335 336 337 338 338 338 339 339 341 343 344 345 346 347 348 348 350 350 349 348 348 348
284 289 291 290 293 295 297 297 297 300 306 299 298 299 309 300 298 299 302 298 297 302 310 318 324 328 328 326 322 316 314 317 321 322 323 325 326 328 329 331 332 333 334 336 337 338 338 339 340 341 342 344 345 345 347 348 349 351 350 350 349 349 349
282 288 291 290 292 295 294 293 296 299 309 308 309 310 311 310 309 297 297 296 302 307 317 321 324 326 327 327 329 325 319 317 319 321 323 325 326 328 329 330 332 332 333 335 337 339 339 340 340 341 343 343 344 345 347 348 350 350 350 350 350 350 350
283 288 289 293 293 287 290 302 302 301 306 308 306 305 307 309 312 308 308 309 318 321 322 322 322 324 325 327 329 331 329 323 321 324 322 325 326 327 329 330 331 332 333 335 337 339 340 341 342 343 344 344 345 347 348 349 349 349 350 351 351 351 351
283 287 290 293 285 290 302 304 303 302 304 303 306 309 308 308 310 312 314 316 316 318 321 324 325 327 329 330 330 332 334 333 332 330 327 326 325 325 326 328 329 330 331 333 334 335 338 340 340 341 343 345 346 347 348 348 349 349 350 350 351 351 351
287 288 284 284 287 302 301 303 302 303 304 303 304 309 308 308 308 310 312 315 318 321 321 321 323 328 330 331 331 331 334 337 337 335 334 334 335 334 333 333 333 333 333 334 335 336 341 342 341 341 342 344 345 346 349 349 349 349 350 351 351 351 352
284 285 282 286 297 299 299 296 297 297 296 298 298 301 305 309 309 310 311 316 319 321 323 324 324 323 327 328 328 332 333 335 339 341 342 343 342 343 342 341 340 339 339 340 343 346 343 343 342 341 342 344 344 345 346 348 348 349 350 350 351 352 353
290 282 282 283 289 286 292 296 299 301 303 304 304 302 305 309 309 311 310 313 317 320 323 323 324 325 325 320 323 329 332 335 337 340 340 342 343 344 345 346 347 347 348 349 351 350 351 352 353 352 345 345 344 344 345 347 348 348 348 349 351 353 353
285 284 282 281 280 287 293 294 298 302 304 304 305 305 301 308 309 311 311 311 314 319 321 322 324 324 318 318 323 328 332 333 335 337 339 341 342 344 345 345 345 345 345 346 348 349 349 349 350 354 353 346 346 345 347 346 347 347 348 349 350 351 354
285 286 283 282 287 285 292 297 300 302 306 307 301 297 295 306 310 312 311 309 310 316 321 323 321 319 316 318 323 329 331 333 335 335 336 339 341 342 344 345 345 345 347 347 346 346 346 347 350 353 356 357 357 353 352 348 346 347 348 350 351 351 353
287 287 286 290 289 296 298 299 302 305 308 306 295 289 297 309 310 312 312 310 309 313 317 319 316 320 323 325 328 330 331 331 332 335 338 338 340 342 343 343 348 344 345 345 344 345 346 348 350 353 356 356 355 356 352 352 352 353 351 349 348 350 351
285 287 284 286 290 296 300 303 305 308 305 294 292 303 311 311 309 311 311 309 309 310 312 315 316 318 320 323 325 327 329 330 331 333 335 337 339 341 345 348 346 342 342 342 342 343 344 347 349 351 352 353 351 349 349 350 352 358 358 357 355 349 349
290 289 287 285 281 292 303 304 303 306 297 297 307 311 311 312 310 309 308 308 308 309 308 312 313 314 315 317 320 322 325 328 330 331 332 333 335 336 339 340 344 342 340 340 340 340 342 344 346 347 349 349 349 347 346 347 350 352 354 354 354 351 348
285 285 282 283 292 298 305 302 292 300 303 307 308 311 307 311 310 309 307 308 308 309 309 309 311 312 312 313 316 319 322 325 328 330 332 333 334 336 339 340 341 342 339 339 338 339 340 342 343 344 344 346 348 345 341 345 347 351 350 351 351 348 347
289 287 291 296 300 305 306 305 303 304 305 306 306 307 310 308 309 311 307 307 308 309 310 310 309 310 311 311 314 316 319 323 325 326 328 331 332 334 335 338 341 340 338 336 337 337 338 339 340 341 341 342 343 341 341 345 348 347 348 351 350 351 345
297 301 299 303 300 302 304 306 307 305 304 305 306 305 304 308 312 312 309 307 307 308 311 309 308 308 309 310 311 313 316 320 324 326 326 328 331 333 335 337 338 336 337 337 336 336 336 338 339 341 340 341 341 338 342 346 345 345 348 349 351 351 348
290 287 300 297 296 298 303 304 306 307 306 305 305 303 304 305 309 313 311 310 308 308 310 310 309 308 308 308 310 312 314 317 321 325 325 325 328 330 331 336 338 333 335 335 335 336 335 336 338 340 340 341 342 342 345 345 345 346 349 352 352 350 349
291 290 295 296 296 297 304 304 303 303 303 303 304 305 305 305 308 310 312 310 308 309 308 311 311 309 309 308 308 309 312 314 317 322 325 324 326 329 332 334 338 334 333 333 334 334 334 334 336 338 339 339 340 342 343 344 344 345 350 352 350 346 347
292 295 296 294 295 296 303 304 304 303 303 302 303 303 304 304 306 306 310 311 309 309 308 311 312 309 309 308 308 310 310 312 314 317 324 324 324 327 330 332 337 335 331 334 333 334 333 333 335 336 336 338 340 341 342 343 343 345 349 354 349 345 346
286 288 290 293 287 288 294 298 300 300 301 302 302 302 303 303 303 306 307 310 309 310 311 312 313 309 307 308 308 309 310 311 313 315 323 324 324 326 329 332 333 335 336 333 333 333 333 334 335 336 336 337 339 340 342 344 344 345 346 347 345 345 346
285 291 293 294 294 294 295 296 298 299 301 301 300 300 302 303 303 306 307 309 308 308 311 314 311 310 309 308 308 309 310 311 312 315 323 323 323 326 329 330 332 335 335 337 335 334 333 335 335 335 336 336 337 339 340 343 344 343 343 343 343 344 345
292 294 294 295 294 292 294 297 298 298 299 299 299 301 303 304 304 305 308 310 310 309 310 311 311 310 310 310 309 309 310 311 313 317 324 324 324 326 328 329 330 334 333 333 332 331 331 333 333 333 335 336 336 338 340 342 344 344 343 342 341 341 343
291 295 296 296 296 296 297 298 298 299 300 301 299 300 301 303 305 307 308 310 313 312 309 308 311 311 310 310 311 310 309 310 316 324 326 326 326 326 326 329 329 331 329 329 330 330 332 332 332 333 333 334 335 336 337 340 341 342 342 344 343 342 341

ECMWFFLT2_sfc_thetae_042.txt.gz
Theta_e
298 303 306 305 305 293 298 301 297 299 302 301 295 296 297 292 288 290 290 291 292 294 299 300 301 303 306 310 314 317 319 321 322 323 325 327 329 331 332 333 334 335 335 336 337 337 338 339 340 341 342 344 344 345 345 345 346 347 347 349 349 350 350
299 302 302 306 307 302 299 296 300 302 306 304 297 290 289 287 285 286 287 292 291 293 293 301 301 301 304 306 310 315 318 320 320 322 324 326 328 330 332 334 335 336 336 336 337 338 338 339 340 341 342 344 345 345 345 345 346 345 347 348 348 349 349
297 302 301 302 307 308 303 300 305 301 292 293 297 293 287 285 284 282 285 290 292 293 295 296 298 300 302 304 309 312 316 318 320 322 324 326 328 329 331 332 334 335 336 336 337 337 338 339 341 342 343 344 345 345 346 346 345 346 347 348 349 350 350
297 298 298 294 300 305 308 304 304 303 298 297 293 295 289 290 283 285 287 288 290 294 297 297 300 301 303 304 306 310 315 318 320 322 324 325 326 328 330 332 333 335 336 337 337 337 338 338 340 341 342 343 344 345 346 346 347 347 347 348 349 349 349
296 290 295 296 300 298 299 299 298 300 300 298 301 293 293 291 285 283 284 285 288 293 297 299 301 302 303 305 307 310 313 318 321 322 324 325 326 328 329 331 333 334 336 337 338 338 339 339 341 341 342 342 343 345 345 346 346 346 346 347 348 349 350
288 291 297 297 297 296 295 299 298 300 298 293 293 291 295 293 290 283 284 286 288 295 301 301 302 303 303 305 308 310 313 316 320 322 324 326 326 328 329 331 333 334 336 337 338 339 339 339 339 340 341 342 343 343 345 346 346 346 346 347 348 349 350
289 293 297 299 299 299 297 297 297 301 296 293 294 289 289 293 294 293 289 286 291 299 301 302 303 303 303 304 307 310 312 314 318 322 323 325 327 328 329 331 332 334 336 337 338 338 338 338 339 340 341 341 342 343 344 345 345 346 347 347 348 349 349
291 294 296 297 298 297 296 298 298 297 297 296 297 295 290 292 290 292 292 290 295 302 302 302 303 303 303 303 305 309 311 313 316 319 322 324 325 327 329 331 333 334 336 337 338 337 338 338 338 339 340 341 342 343 343 344 345 346 346 347 348 349 349
287 292 294 295 297 296 293 291 293 295 297 297 296 294 293 293 291 294 290 288 295 303 306 303 304 303 305 304 302 306 310 313 315 317 320 323 325 326 328 329 331 333 335 336 337 337 338 338 338 340 340 340 341 342 343 343 344 346 347 348 347 348 348
280 281 283 284 283 287 291 293 293 294 294 292 293 294 292 289 292 294 291 293 299 302 304 304 305 305 306 305 304 303 305 310 314 317 318 321 324 325 327 329 330 332 334 336 337 338 338 338 338 339 340 341 341 342 343 344 344 345 346 347 347 347 347
282 284 285 289 290 289 287 289 291 292 293 295 295 294 291 291 288 292 293 296 299 300 301 302 302 303 303 303 305 305 304 305 308 316 319 320 322 325 326 328 330 333 334 336 337 338 338 338 339 339 340 340 341 342 343 344 344 345 346 346 347 346 346
287 289 289 291 292 288 289 289 289 292 293 294 293 292 292 295 290 290 294 296 296 299 302 303 303 300 301 301 303 305 306 306 306 308 317 327 322 324 326 328 330 331 334 336 336 337 338 338 339 340 340 341 341 342 342 343 344 345 345 346 346 346 346
289 290 290 291 291 291 290 291 291 291 293 293 291 293 295 296 295 293 296 295 296 299 301 305 307 302 301 302 304 305 306 307 308 309 311 318 321 322 324 327 330 332 333 335 336 337 338 339 339 340 340 341 342 342 343 344 344 344 346 345 345 345 345
288 289 290 291 290 290 291 291 292 293 297 299 298 296 297 296 295 299 297 296 297 300 308 310 316 317 316 312 310 311 309 308 308 308 309 316 321 322 324 327 330 332 334 335 336 337 338 338 339 339 340 341 341 342 342 343 344 345 346 345 345 345 344
285 288 291 291 291 290 290 294 298 299 302 305 303 301 300 301 296 296 297 296 298 301 311 317 325 325 325 326 327 327 326 314 312 311 312 317 322 323 326 328 330 332 334 335 336 337 338 338 339 340 341 341 342 342 343 343 344 345 346 345 345 345 345
282 288 289 289 290 292 291 295 297 298 300 304 306 303 307 304 299 299 297 295 295 309 320 322 325 326 325 325 326 328 329 328 317 317 317 320 323 325 327 329 330 332 334 335 336 337 337 338 339 340 341 342 342 342 344 344 345 346 346 345 345 345 346
281 286 289 288 290 295 293 293 295 297 300 305 307 307 307 306 307 298 296 297 313 315 320 323 324 326 326 327 328 328 330 330 325 317 320 322 324 326 328 329 331 332 334 335 336 337 338 339 339 341 342 342 342 344 344 345 347 346 346 346 346 346 347
280 286 287 288 292 286 288 298 300 300 298 299 302 302 304 305 307 307 311 312 317 319 319 323 325 326 326 327 329 331 330 330 330 317 318 322 325 327 329 331 332 334 336 336 338 338 339 340 341 342 344 343 344 345 346 347 347 347 347 347 347 347 347
279 284 287 290 285 288 298 300 301 301 302 302 298 306 305 305 306 307 308 310 312 317 322 322 322 327 330 332 331 331 332 332 333 331 321 321 325 325 327 330 332 334 336 337 338 338 339 340 341 342 343 344 345 346 347 346 347 347 348 348 347 348 348
284 283 281 283 287 298 299 304 300 302 302 301 299 305 303 304 304 306 306 309 311 315 322 324 325 324 327 332 332 331 331 333 334 336 334 326 324 325 328 330 332 333 335 336 337 338 341 342 341 342 342 345 345 345 347 347 347 348 348 348 348 348 348
278 282 280 286 296 297 295 295 296 297 294 296 295 295 302 304 305 306 306 308 309 312 320 323 325 326 328 327 328 331 331 332 335 338 339 339 331 327 329 330 331 334 336 337 339 342 341 341 341 341 343 345 345 345 346 346 348 348 348 348 348 349 349
288 278 280 282 288 285 290 294 298 300 301 301 302 298 302 305 306 307 306 307 306 308 315 319 323 326 323 319 322 328 331 333 334 338 340 342 342 338 333 333 333 335 336 339 342 340 340 340 341 342 343 345 345 345 345 346 347 347 348 348 349 350 350
283 280 279 279 283 286 290 293 296 300 303 304 305 300 296 304 306 306 306 305 305 306 309 313 319 321 316 316 321 326 330 332 334 336 339 340 341 342 342 338 337 338 338 340 341 341 340 339 340 342 344 344 344 345 347 346 347 347 347 348 350 350 351
284 282 280 278 285 283 291 295 299 301 304 305 301 293 292 303 306 307 306 304 304 305 308 311 312 312 312 314 319 327 330 333 334 335 336 338 340 342 344 345 346 346 348 346 343 342 341 342 342 343 343 344 345 345 346 346 346 346 348 349 351 352 353
286 286 284 289 288 295 296 299 301 303 305 305 293 287 295 306 306 307 307 305 305 305 306 307 306 310 316 319 323 328 327 329 331 334 336 338 340 341 342 343 348 345 346 347 346 347 348 350 347 343 343 343 345 346 346 345 346 347 349 351 352 353 354
285 287 284 285 289 294 299 300 303 303 302 292 290 300 308 308 306 308 308 305 306 305 306 307 307 310 315 319 321 320 323 326 327 329 333 335 337 340 342 345 344 342 343 344 346 348 350 353 352 347 345 346 348 348 346 345 348 354 354 352 351 352 353
288 286 286 286 281 291 301 299 300 299 293 292 298 303 303 304 303 305 307 306 306 306 305 309 310 311 311 312 314 315 319 323 325 327 330 331 333 335 337 338 340 340 339 340 341 343 346 350 352 352 351 350 350 351 349 351 354 357 359 358 355 352 352
284 284 282 282 290 295 301 299 290 297 298 301 301 300 298 301 302 302 305 306 308 308 305 308 310 311 310 309 310 312 315 319 324 326 328 330 332 335 337 338 339 340 337 338 339 340 342 344 347 350 350 348 349 349 347 349 352 356 357 356 357 355 352
287 287 289 294 297 299 300 302 300 301 302 302 301 301 300 299 300 304 302 302 306 309 306 307 310 309 309 308 309 310 312 316 321 324 325 327 330 332 334 336 339 337 336 337 338 339 340 342 343 345 349 348 348 346 345 350 351 353 353 355 355 353 352
293 298 299 299 296 296 298 303 305 301 300 300 301 301 299 300 301 303 302 303 304 308 307 307 309 309 310 310 308 309 311 314 318 323 324 325 328 331 334 336 337 336 337 337 338 338 339 341 343 345 346 348 347 345 347 350 349 351 353 355 354 354 352
289 287 298 294 293 295 297 300 305 304 303 301 301 300 301 302 302 303 304 304 304 308 308 308 308 307 308 309 309 308 310 312 315 319 323 324 326 328 330 335 337 334 336 336 336 337 337 338 340 342 342 344 345 347 348 347 349 351 356 356 357 352 350
289 288 292 293 295 297 299 303 301 300 301 301 301 301 302 303 304 303 304 305 305 307 307 308 309 307 307 308 308 307 309 311 314 317 321 323 324 327 331 333 338 334 334 334 335 335 335 336 338 340 340 341 342 343 344 346 348 355 359 358 352 349 349
290 293 294 293 295 301 301 302 302 301 300 300 300 300 300 301 301 302 303 305 305 306 307 309 309 306 306 306 308 308 307 310 312 315 320 323 323 325 328 331 336 335 334 334 334 334 334 335 337 338 338 339 341 342 344 345 347 353 355 355 349 346 347
285 286 289 292 286 287 293 295 297 298 300 300 299 300 300 300 300 302 302 303 305 306 308 310 309 307 306 306 309 309 309 310 310 313 320 322 323 324 327 331 333 335 337 335 333 333 333 335 337 337 338 339 340 342 345 345 347 349 349 347 346 346 347
285 291 293 294 294 293 294 296 298 300 300 300 298 298 299 300 301 302 302 302 303 305 308 311 309 307 307 307 308 310 310 310 311 311 321 321 322 323 326 328 330 333 335 337 335 334 333 335 336 337 337 337 339 341 343 345 345 345 345 345 344 344 346
294 295 295 296 294 292 294 297 298 298 300 300 299 300 301 301 301 303 303 303 302 303 306 310 309 307 308 308 308 309 310 310 310 310 318 322 323 325 326 327 329 330 333 333 333 333 332 334 334 335 336 336 336 338 341 343 345 345 344 344 343 342 344
292 297 297 297 296 296 298 298 299 299 301 302 300 300 301 302 303 304 303 303 304 304 306 308 307 308 308 308 309 308 310 310 311 314 319 322 324 324 324 327 328 329 331 331 331 332 332 333 334 335 335 335 335 336 339 341 343 343 344 344 342 342 344

ECMWFFLT2_sfc_thetae_045.txt.gz
Theta_e
301 302 304 305 308 296 303 304 299 301 309 306 299 300 302 300 298 294 302 299 302 307 308 311 311 311 313 315 316 317 319 323 329 329 331 334 336 338 339 339 339 341 342 343 342 343 344 346 346 346 349 351 351 352 352 353 354 354 354 356 355 356 356
303 305 305 305 306 307 305 299 303 309 311 308 302 294 298 295 292 296 299 296 298 299 296 309 310 309 312 314 315 316 318 321 325 326 330 333 335 337 339 341 341 342 342 342 342 342 344 345 346 348 351 352 353 353 352 352 353 353 354 355 355 355 356
302 304 305 304 307 309 305 303 311 302 297 296 302 299 291 291 290 293 296 298 299 301 300 305 307 308 310 313 315 316 316 319 321 324 328 333 335 336 338 339 341 341 341 342 343 342 343 345 347 348 350 350 351 352 352 351 352 352 353 353 355 356 357
301 302 302 296 302 307 309 310 307 309 305 301 298 299 300 299 293 293 294 297 295 303 304 306 306 310 311 312 314 315 316 318 321 324 326 330 334 336 337 339 340 340 341 342 342 342 342 343 346 347 348 348 349 350 351 351 352 354 354 353 355 355 356
299 296 300 298 302 301 302 302 302 304 303 307 306 305 300 297 295 294 294 292 297 304 309 308 309 311 312 313 316 317 318 319 322 325 327 330 333 335 337 338 339 340 341 341 342 343 343 344 346 347 347 347 348 349 350 351 351 351 352 353 354 356 356
295 298 303 301 300 300 299 300 301 303 301 298 295 294 304 301 297 293 294 293 301 307 312 311 310 312 314 316 317 319 319 320 323 325 328 332 333 336 337 337 339 340 341 342 342 343 344 343 344 344 345 347 347 348 349 350 351 351 351 352 354 356 356
294 299 301 303 302 300 299 300 299 303 304 304 299 292 297 301 301 302 300 296 300 312 315 313 312 314 315 317 318 318 319 321 322 326 328 332 335 335 336 337 338 340 342 342 342 343 343 343 344 344 345 346 346 348 349 350 350 351 351 352 354 356 356
297 299 301 301 301 301 298 298 300 301 299 301 300 301 304 300 300 298 298 295 300 310 318 318 314 315 314 315 316 320 319 321 323 326 328 332 335 337 336 337 338 340 342 344 344 344 343 344 345 344 345 346 347 347 348 349 349 350 351 352 353 356 356
292 295 299 298 300 301 298 297 299 298 299 300 300 301 304 299 301 301 298 293 300 310 319 320 316 314 311 311 312 312 314 321 322 324 329 332 337 338 336 337 338 340 341 343 345 345 346 346 344 345 345 346 346 347 348 348 349 350 351 353 353 354 354
283 284 286 289 293 295 296 297 296 297 297 297 299 297 300 294 302 303 299 299 306 311 316 315 315 315 315 313 313 312 313 317 317 320 323 332 336 338 337 338 339 339 342 344 347 348 348 345 344 346 347 346 346 347 348 349 350 350 351 352 353 353 353
289 291 288 290 294 294 293 295 295 295 297 298 297 298 298 296 302 300 303 304 305 307 308 310 312 314 313 315 319 315 316 317 318 326 329 327 332 336 336 338 339 343 345 346 347 349 345 344 344 345 346 346 346 348 349 350 350 351 352 352 353 353 353
292 293 292 293 294 291 293 293 294 296 296 297 297 296 297 303 299 295 306 309 305 305 309 313 316 318 320 317 317 317 317 319 320 320 322 328 328 332 337 339 340 342 345 347 348 347 345 344 345 345 346 346 346 348 348 349 350 351 352 353 353 353 353
293 294 294 294 293 293 293 294 294 294 297 298 298 299 300 301 299 298 306 311 306 308 314 321 324 328 329 329 329 329 330 332 335 335 330 324 319 327 331 337 342 342 342 345 347 346 345 345 345 345 345 346 348 350 350 350 350 351 353 353 353 353 353
292 293 293 294 293 293 293 294 295 296 298 301 304 304 305 304 302 303 303 308 307 317 322 325 327 331 331 331 333 336 337 336 338 339 336 330 325 321 326 333 337 342 343 344 348 349 348 345 346 345 346 347 347 348 348 349 350 352 353 353 353 353 352
290 293 294 294 294 293 292 294 296 298 303 307 307 307 308 307 304 305 304 305 305 318 325 327 330 332 332 333 332 332 334 335 335 337 338 335 328 324 323 333 336 340 342 344 347 348 348 347 347 345 346 347 347 347 348 348 350 351 353 354 353 352 353
287 292 293 293 294 294 293 293 297 303 304 304 305 304 306 305 306 308 307 304 305 320 323 327 331 330 330 329 331 331 332 334 335 336 337 339 336 329 323 323 332 338 340 344 346 346 345 346 347 346 348 347 346 345 347 348 349 350 352 352 351 353 353
286 292 292 292 291 292 291 292 296 304 304 306 306 305 305 304 307 307 304 304 313 315 319 323 327 329 329 330 330 331 332 333 334 335 337 339 341 336 329 324 331 335 337 342 345 344 345 345 345 346 349 346 347 347 348 348 350 350 349 350 351 353 354
287 290 291 292 291 286 289 303 306 307 303 303 301 299 301 303 304 304 307 308 311 312 313 318 323 326 329 331 332 334 333 332 333 336 338 340 343 339 332 327 326 333 340 342 345 346 347 347 347 348 348 347 348 348 349 351 350 350 351 350 352 353 354
285 290 290 289 285 288 300 303 305 307 306 305 303 302 301 302 303 303 304 305 306 308 310 314 321 328 331 334 332 331 333 333 333 335 337 340 342 343 335 331 329 338 343 345 346 347 346 347 348 348 348 348 350 349 350 349 350 352 352 352 353 354 355
288 286 287 281 286 299 301 302 302 305 305 305 306 302 300 301 302 303 302 304 305 307 310 313 319 325 332 334 333 330 329 330 332 334 337 340 342 342 339 335 336 342 340 344 344 346 347 347 347 348 348 349 348 348 349 349 349 352 353 353 354 354 354
282 286 286 287 293 296 300 298 298 299 298 300 300 296 299 302 303 303 302 303 304 306 308 312 316 324 330 330 330 329 324 324 328 333 338 341 343 344 341 338 341 347 346 346 345 349 347 346 347 347 348 348 348 348 348 348 351 351 351 352 352 354 354
288 285 284 285 287 285 291 296 300 303 303 304 304 302 300 304 304 305 303 302 303 304 307 310 313 323 327 322 321 323 320 320 323 331 338 343 345 346 342 343 346 348 347 347 349 346 347 347 347 348 349 349 349 349 348 349 350 350 351 351 352 354 353
286 285 283 284 285 287 291 295 299 302 304 304 306 302 296 302 303 303 303 302 303 303 305 308 311 317 316 312 314 316 314 317 322 328 336 340 343 346 346 343 342 344 347 347 347 348 348 346 348 350 350 350 350 350 350 350 350 350 351 351 353 353 353
286 286 284 283 286 285 293 297 300 302 305 305 304 295 293 300 302 302 302 301 302 303 304 307 307 304 302 303 307 312 314 317 323 331 334 337 341 344 348 348 347 350 352 351 347 346 345 348 350 352 350 351 352 351 351 350 349 351 351 353 355 356 356
286 286 286 289 290 295 296 297 300 303 305 304 297 290 293 300 301 302 302 301 301 302 303 305 303 306 308 310 312 314 315 318 324 330 334 336 340 343 345 348 353 349 350 347 345 345 348 352 349 350 352 350 352 354 354 352 351 351 354 356 358 358 358
285 286 285 286 291 294 296 298 301 302 300 292 288 294 301 301 299 302 302 301 302 301 303 304 305 309 311 312 312 312 314 317 323 327 330 334 338 343 347 348 350 352 350 351 348 347 354 351 351 352 353 352 355 355 352 351 353 354 357 359 360 361 361
290 289 286 286 282 291 297 298 299 300 293 290 297 299 300 301 300 300 300 302 302 302 301 305 307 309 309 309 310 312 312 313 316 322 327 330 334 338 342 345 347 349 352 352 351 350 348 349 350 351 350 354 354 355 353 355 356 358 360 359 360 360 360
285 285 283 282 289 293 298 297 289 294 297 300 300 299 297 300 300 300 300 301 302 302 302 303 306 308 308 308 309 310 309 310 314 317 323 328 332 336 340 343 346 348 349 352 353 355 351 350 351 351 352 355 356 355 356 361 358 360 361 362 362 360 361
286 286 287 292 296 298 300 300 299 299 300 301 300 300 300 298 299 301 301 300 302 303 303 303 305 307 308 307 309 308 309 309 312 313 317 325 327 332 336 340 344 348 349 350 351 353 355 358 358 357 358 357 357 357 363 366 365 363 362 363 362 361 360
295 296 295 297 296 296 298 301 303 301 301 303 302 300 298 299 301 302 302 302 302 303 304 303 305 306 308 308 308 308 310 308 311 313 315 323 326 329 335 338 341 344 348 350 350 351 353 357 359 362 361 360 359 362 363 366 368 367 366 364 363 362 362
289 285 295 293 293 297 300 301 301 302 302 303 303 301 301 300 301 302 303 304 303 304 304 304 304 305 308 309 308 308 309 309 310 311 313 320 324 326 330 336 340 341 344 345 347 349 349 353 356 359 362 363 362 362 364 366 368 369 368 367 365 365 365
288 287 293 294 296 298 300 299 298 298 300 302 303 302 302 302 303 303 303 303 303 305 304 304 304 305 308 308 306 307 308 310 309 311 313 318 323 326 330 335 339 340 341 342 343 345 346 349 353 355 356 357 360 363 363 365 367 369 369 369 367 367 367
292 294 295 295 296 298 298 298 298 299 300 300 301 302 302 302 301 302 303 305 304 304 304 306 305 305 307 309 307 307 308 310 309 310 313 317 321 323 327 332 337 338 341 342 344 344 345 348 350 353 355 356 358 361 363 367 369 366 364 364 368 368 368
287 286 290 293 288 288 293 295 297 298 300 300 300 301 301 301 302 303 302 303 305 305 305 306 306 305 307 309 308 307 309 311 311 311 314 317 318 321 325 330 334 338 341 342 344 346 347 349 350 351 353 354 355 357 359 363 368 366 365 363 363 364 367
285 292 294 295 295 294 295 296 299 300 300 301 300 300 301 302 303 304 304 303 303 304 305 306 306 305 306 308 308 307 309 311 312 313 315 314 315 320 324 328 330 333 337 341 343 344 346 348 349 349 350 351 353 353 358 359 362 363 364 362 362 363 364
294 296 295 296 295 293 295 298 299 299 301 300 300 302 303 304 303 304 305 304 303 303 304 305 308 306 308 309 308 307 309 312 314 314 313 313 314 317 322 326 328 330 333 336 339 341 344 347 348 349 348 348 350 350 354 356 358 361 363 363 362 362 362
292 296 297 297 297 297 299 299 299 300 301 301 300 302 302 303 305 306 305 305 307 306 305 305 307 309 309 310 308 308 309 310 313 314 313 313 313 314 317 322 326 329 331 334 338 341 344 347 347 348 348 348 348 348 352 354 357 358 359 360 360 360 361

ECMWFFLT2_sfc_thetae_048.txt.gz
Theta_e
307 308 310 310 310 298 305 305 299 302 309 306 302 304 305 305 302 300 307 305 307 312 312 314 315 314 316 317 318 318 319 322 327 327 329 333 336 338 342 344 346 348 350 351 351 353 353 353 354 354 356 357 358 358 359 360 362 362 362 363 361 362 362
307 311 311 311 311 310 308 301 304 309 311 309 304 297 300 299 296 299 303 301 303 303 300 312 312 311 312 314 316 317 319 320 321 324 328 332 334 337 341 345 348 349 349 350 351 351 352 353 354 355 357 358 359 359 359 360 361 361 361 362 361 361 362
306 309 309 307 311 313 307 306 313 303 298 297 303 301 294 295 294 296 300 302 302 304 305 309 309 309 310 313 315 316 316 318 319 321 326 331 334 335 339 343 346 347 348 348 351 350 352 353 355 356 356 356 357 359 359 359 359 360 360 360 361 361 362
305 306 305 298 303 309 311 312 308 311 307 303 300 302 303 303 296 297 298 300 299 307 308 310 311 312 313 313 314 314 316 318 319 321 322 326 331 333 336 341 344 346 347 348 349 349 350 351 353 354 355 355 355 357 358 359 359 361 361 360 361 360 360
303 298 302 300 303 301 303 304 303 306 306 310 307 306 303 300 298 298 299 297 302 309 312 311 312 314 315 315 315 316 317 318 319 321 322 326 330 331 332 337 342 345 347 347 348 350 350 351 354 354 354 354 354 355 356 357 358 358 358 358 359 360 361
297 299 305 305 305 306 305 303 302 305 303 301 298 297 307 303 300 296 298 297 307 311 315 313 313 315 315 316 316 317 318 319 321 321 324 328 329 332 333 332 338 342 347 348 349 350 350 350 351 352 352 353 353 354 355 356 356 356 356 357 359 360 361
297 301 305 308 308 306 304 305 304 307 306 306 301 294 300 304 304 305 304 300 304 315 316 316 315 315 315 316 316 316 317 320 320 322 324 327 330 332 333 334 334 339 347 349 348 349 350 349 350 351 352 351 352 354 354 355 354 355 356 356 358 361 361
301 303 305 306 307 306 303 304 307 306 304 305 303 303 305 302 304 301 301 298 303 314 318 317 316 318 317 320 319 319 318 318 320 322 324 327 331 338 336 335 335 341 347 350 350 349 349 349 351 351 351 352 353 353 353 354 353 354 355 356 357 360 360
295 297 301 301 305 305 303 303 306 307 308 308 307 306 306 301 303 304 301 296 302 312 317 318 316 316 316 317 318 319 319 321 322 323 324 327 335 339 336 336 339 343 345 348 349 349 351 350 349 351 351 351 352 353 353 353 353 354 355 357 357 358 360
285 286 288 290 295 298 302 304 305 308 305 305 303 300 303 297 304 306 302 302 309 316 318 317 317 316 317 318 318 319 320 321 321 325 332 335 336 342 343 342 342 342 345 349 351 352 352 350 349 351 352 352 352 352 353 354 353 354 355 356 357 358 359
291 294 295 298 300 299 297 302 303 303 305 307 306 305 302 299 304 303 306 307 308 311 313 315 315 315 314 317 323 323 324 326 325 329 329 326 333 339 342 344 343 347 350 351 351 353 350 349 349 350 351 351 351 353 353 353 354 355 356 356 358 357 359
295 297 298 299 299 296 297 297 299 302 302 304 304 301 300 307 303 298 307 310 306 309 313 315 318 324 332 332 334 335 336 337 337 337 337 337 326 334 338 340 342 345 348 351 352 352 351 349 350 350 351 351 351 353 353 353 354 355 355 357 357 358 359
295 296 297 298 298 297 298 298 298 298 301 302 301 303 305 307 303 300 308 310 308 310 312 322 327 330 332 332 335 338 339 338 341 342 341 338 332 329 332 340 344 345 345 351 353 353 351 350 350 350 350 351 353 354 355 355 354 355 357 357 357 357 359
293 295 296 297 297 297 298 298 299 300 300 300 302 303 305 306 307 309 309 310 310 313 319 324 329 333 333 335 338 339 340 338 341 341 341 339 340 339 334 336 340 346 347 352 355 355 354 351 351 350 351 352 351 352 352 353 354 355 356 357 357 357 358
292 294 296 297 297 297 296 298 299 299 300 301 303 304 306 307 306 307 307 307 309 317 324 326 329 333 335 334 335 336 338 339 338 339 340 341 343 345 347 351 338 344 347 349 355 356 355 352 351 350 351 352 352 352 352 353 354 355 356 357 357 357 358
288 293 294 295 297 297 296 296 297 298 299 298 301 302 308 306 305 307 307 306 306 313 321 324 326 329 331 331 333 335 335 336 337 338 339 340 343 344 346 349 352 349 341 346 350 353 352 351 351 351 352 352 351 351 353 353 353 354 356 357 357 359 359
287 292 295 295 296 295 293 294 297 300 301 302 308 309 310 310 312 309 303 306 317 315 319 319 324 326 328 332 333 333 334 335 335 334 335 338 340 343 347 348 350 350 347 341 348 351 351 350 349 351 353 352 352 352 354 355 356 354 355 356 358 360 360
286 291 294 295 292 285 288 302 304 303 300 306 305 305 308 310 311 310 311 312 313 314 314 316 318 322 327 333 336 335 331 329 329 329 331 333 337 341 344 347 349 351 351 345 341 350 352 352 349 352 354 352 353 354 355 356 355 356 356 357 360 360 361
285 290 292 289 284 286 301 307 308 306 304 311 307 307 309 308 310 310 311 311 310 310 312 315 319 322 325 331 335 329 325 325 324 325 327 330 333 336 341 346 348 351 353 349 341 344 350 350 352 352 353 353 355 353 355 354 355 358 358 359 360 361 361
289 287 287 280 286 299 306 307 306 311 312 310 308 305 305 307 307 308 308 308 309 310 311 315 320 323 325 332 333 327 324 323 322 323 324 327 329 333 340 345 348 351 351 348 340 339 350 351 350 351 352 353 353 352 354 354 354 356 359 359 359 361 361
283 286 286 287 296 295 301 300 303 303 303 304 303 299 300 306 307 307 307 306 305 306 310 315 319 323 326 329 333 323 321 319 321 321 321 322 326 334 343 347 348 353 353 349 344 342 346 349 348 350 352 353 352 352 352 353 356 355 357 359 360 362 361
290 285 284 286 288 284 294 297 302 303 305 306 306 306 300 305 306 308 307 305 303 304 308 313 317 323 326 323 327 319 317 318 318 319 321 323 327 338 346 349 351 354 351 347 345 344 349 349 349 351 353 352 352 353 352 353 354 354 356 357 359 361 360
288 286 282 282 283 288 295 297 299 301 303 306 307 303 299 302 305 306 306 304 302 303 306 310 315 322 320 320 316 314 313 314 315 316 319 321 327 340 346 348 349 352 354 350 345 347 350 348 349 353 353 352 352 352 353 353 354 354 355 357 359 360 361
287 286 283 282 289 288 296 299 300 300 303 304 303 294 295 300 304 305 305 302 301 302 305 308 310 309 308 306 308 310 310 311 313 315 316 318 326 341 346 348 351 353 356 352 346 348 349 350 352 355 353 352 354 353 353 354 353 355 356 358 360 362 362
287 286 285 288 291 299 300 299 301 302 303 304 294 290 295 302 304 305 304 302 301 302 303 304 303 306 308 309 310 311 311 311 312 315 317 318 328 339 344 347 351 354 355 351 348 347 350 353 351 353 353 352 353 355 355 354 354 355 358 360 362 363 363
285 286 284 285 291 297 299 301 303 303 298 293 292 296 302 304 304 305 305 303 302 302 303 303 304 305 308 309 310 310 311 311 311 313 315 318 328 337 344 349 351 352 352 352 350 347 353 353 355 354 354 354 355 356 354 353 356 357 359 361 362 363 363
289 288 285 284 281 294 300 300 300 301 292 292 296 301 302 304 304 304 304 303 302 302 302 304 304 305 306 307 308 309 311 310 309 312 314 316 321 330 338 346 350 350 355 351 348 349 351 352 351 352 354 355 356 357 354 358 358 360 360 361 363 363 363
284 284 282 283 289 294 301 298 290 296 298 300 301 300 301 304 305 303 303 303 303 303 302 303 304 305 306 307 307 309 310 309 310 313 314 316 320 325 334 344 349 352 353 357 358 352 353 354 354 356 356 357 359 357 358 362 361 360 362 363 365 364 363
287 284 288 293 298 299 301 301 300 301 302 303 303 302 302 303 303 305 302 302 303 304 303 303 304 304 305 305 306 308 308 309 309 312 313 315 319 321 327 337 345 352 351 354 356 356 354 356 357 359 359 360 361 360 363 365 363 362 363 364 364 364 363
295 297 297 298 298 299 300 302 302 300 301 302 302 301 301 303 304 305 303 302 303 304 305 303 304 304 305 305 306 308 310 309 310 313 313 315 318 319 324 332 341 348 352 352 354 356 359 358 357 360 360 362 363 363 365 365 364 365 365 366 366 366 366
290 286 296 296 296 298 301 300 301 302 302 302 303 302 301 303 305 306 306 305 305 306 306 305 304 305 306 306 306 308 309 309 310 311 313 315 315 316 320 328 339 343 352 352 352 354 357 360 361 361 361 363 366 366 369 366 365 369 369 368 365 366 366
289 289 295 296 299 300 301 301 298 298 300 301 303 302 303 304 306 307 307 307 306 307 305 307 306 305 307 306 305 305 307 309 309 310 314 315 313 315 320 327 336 340 344 350 352 353 354 359 362 364 366 368 369 371 369 369 369 370 368 367 366 366 366
293 295 296 296 297 299 299 299 300 301 301 301 301 302 302 304 305 307 308 308 308 307 306 307 307 306 307 307 306 306 307 309 309 309 312 313 313 315 318 324 332 337 342 344 349 351 353 357 359 361 364 366 369 370 369 369 370 369 367 365 366 365 365
287 287 290 294 288 288 294 297 298 299 301 300 300 301 302 303 304 306 306 307 308 308 308 308 308 307 307 308 308 306 308 308 309 309 311 313 312 313 317 322 329 335 340 342 345 349 353 357 358 359 360 362 364 365 367 369 371 368 367 366 365 365 364
285 292 294 296 295 295 297 298 299 300 301 300 300 300 300 302 304 306 306 306 306 306 308 309 309 308 308 308 309 308 308 308 309 309 311 312 312 312 316 319 323 331 337 340 342 346 349 352 353 355 357 359 362 363 367 369 369 369 370 366 364 365 366
295 297 296 297 296 293 297 300 300 300 302 301 299 300 301 302 304 306 306 307 306 306 307 309 310 310 310 310 309 308 308 309 309 310 312 314 314 314 316 318 323 329 334 338 340 344 347 349 350 351 352 355 357 359 362 364 368 369 368 365 363 362 362
293 298 298 298 298 298 300 300 300 301 302 301 300 300 301 302 304 306 306 307 308 308 307 307 309 311 311 310 311 310 309 309 310 311 313 316 314 314 314 317 321 327 331 338 340 343 344 346 347 347 347 349 353 355 359 360 362 364 368 365 362 362 366

ECMWFFLT2_sfc_thetae_051.txt.gz
Theta_e
308 308 310 310 310 298 305 307 301 304 310 307 303 304 306 307 304 301 309 306 308 313 313 315 317 316 316 318 320 323 325 325 328 329 331 335 335 337 338 341 340 343 349 353 354 355 355 356 356 355 357 357 359 359 360 363 365 366 365 366 365 364 365
308 311 311 311 311 310 307 302 306 311 312 310 304 297 302 301 298 301 306 303 306 305 302 314 314 313 315 316 317 321 324 325 325 328 332 334 334 336 340 345 343 348 350 351 354 354 356 357 357 357 358 359 360 360 361 362 364 365 365 365 364 364 364
307 310 309 308 311 312 306 305 314 304 299 297 303 302 295 296 296 299 304 306 306 307 307 311 311 312 313 316 317 318 320 322 325 327 330 334 335 336 338 339 345 348 346 350 355 354 355 358 359 358 358 358 359 360 362 363 363 364 364 363 364 364 364
304 306 305 298 303 310 311 311 306 311 307 303 299 301 303 302 298 299 300 304 302 310 312 313 313 314 315 314 316 317 318 320 323 326 327 329 333 334 336 339 340 349 347 345 353 354 354 356 358 358 358 358 358 359 361 362 364 365 365 363 364 364 363
303 298 302 300 303 301 303 303 303 305 306 310 307 306 302 300 299 300 300 299 304 311 315 315 316 317 317 316 315 317 318 319 321 323 323 326 330 333 336 338 340 343 344 345 351 355 354 356 358 358 357 357 358 359 359 361 363 363 362 362 363 364 363
298 300 305 305 304 305 304 304 302 305 303 302 298 297 306 304 301 297 300 299 308 314 317 315 315 318 317 318 317 317 318 318 322 322 323 324 326 332 336 338 340 341 347 350 349 346 354 354 356 356 356 357 357 358 359 360 361 362 361 361 363 364 364
298 302 305 307 307 307 306 306 304 307 307 306 302 295 299 304 304 306 305 302 306 316 318 318 317 317 318 319 318 317 318 319 320 321 322 324 328 331 333 337 339 340 340 343 345 349 349 353 355 355 357 356 356 358 358 359 360 361 361 361 362 364 363
302 304 305 307 308 306 303 304 307 306 303 305 304 303 306 303 304 301 302 300 305 315 320 318 318 319 319 320 319 319 318 320 321 321 322 325 326 330 333 337 338 340 342 347 350 349 353 353 355 355 355 356 357 357 358 359 359 360 360 360 360 363 362
295 297 301 302 305 305 302 302 304 306 307 306 306 307 308 302 304 304 301 297 303 314 318 319 318 318 317 317 318 320 319 320 320 322 323 324 329 330 330 335 337 341 339 341 349 350 355 354 353 356 356 356 356 356 358 358 358 360 360 360 359 361 361
285 286 288 290 294 299 302 305 305 306 306 305 303 299 302 297 305 306 303 303 309 314 319 317 318 317 318 318 319 320 321 323 322 322 323 325 327 332 332 335 335 335 340 345 352 357 356 352 352 355 357 356 356 356 358 359 358 359 358 359 359 360 360
291 294 299 300 301 301 297 301 302 303 306 307 307 304 301 298 304 304 306 307 308 310 313 315 316 317 317 315 318 323 325 324 326 332 330 329 327 332 332 335 335 342 349 353 356 358 352 352 352 353 355 355 355 357 358 357 358 358 359 358 359 360 360
296 297 298 300 300 297 299 300 300 302 303 304 304 302 300 306 303 299 307 311 306 308 313 315 319 319 320 323 324 326 329 329 329 332 336 333 330 330 333 336 338 340 352 354 355 355 352 352 352 352 354 354 355 357 356 357 358 357 358 357 358 359 360
296 297 297 298 298 297 298 298 299 299 302 302 300 302 305 306 301 299 308 311 309 311 314 321 325 328 326 329 331 331 333 335 335 337 334 329 329 334 336 342 345 348 344 354 356 354 354 353 352 352 353 354 356 357 358 358 357 357 359 358 358 358 360
294 296 296 297 296 296 298 298 300 301 302 302 302 302 305 305 306 307 308 311 310 313 318 321 323 327 327 328 331 334 335 335 337 336 335 337 338 335 335 339 338 345 346 351 356 357 358 354 353 351 353 355 354 355 356 356 357 358 358 358 358 358 359
292 295 296 296 296 296 294 297 300 301 301 301 303 303 305 307 306 307 308 309 309 318 324 326 326 326 326 328 328 332 335 335 334 336 336 339 341 342 344 347 347 350 345 348 354 358 358 357 354 352 353 355 355 354 356 356 357 357 357 359 358 358 360
290 294 294 295 296 296 295 296 297 299 300 299 301 302 305 304 303 306 306 304 307 317 323 323 325 324 324 324 329 331 334 334 334 332 333 334 337 340 342 344 349 352 350 349 350 354 355 355 354 353 355 354 354 353 355 356 356 356 357 358 358 361 361
288 293 295 295 295 294 291 293 296 299 301 302 303 305 306 307 306 302 301 304 315 320 322 322 322 321 324 327 331 331 332 334 334 334 333 334 335 337 339 341 343 347 347 349 352 350 354 355 353 353 354 353 355 355 356 356 357 356 356 357 359 362 362
287 292 293 295 291 284 287 299 302 301 300 301 300 302 305 307 308 308 311 312 316 319 319 318 321 321 322 325 330 331 329 330 331 331 332 333 334 335 337 339 341 345 350 354 356 358 357 356 355 354 356 354 355 355 356 358 357 358 358 359 360 361 364
286 291 292 288 283 285 298 302 304 307 310 307 302 304 306 308 310 311 312 314 316 317 317 319 320 324 326 328 330 328 326 327 327 327 328 329 331 333 335 337 339 343 348 352 355 356 355 354 355 356 353 354 356 355 356 356 357 362 360 361 362 362 364
292 288 287 279 283 296 302 306 309 310 311 308 307 304 304 310 311 314 313 314 317 316 317 318 322 323 325 327 331 326 324 325 324 324 325 326 329 330 333 335 337 341 345 350 352 354 358 357 351 354 351 353 353 354 354 355 356 358 361 363 361 362 363
286 287 286 286 294 294 299 301 303 303 299 300 299 297 308 313 313 312 312 314 315 315 316 318 320 323 324 323 330 322 322 322 323 323 324 325 327 329 332 333 334 341 347 351 354 357 357 355 352 350 354 353 352 353 353 354 358 356 358 360 361 363 363
292 287 285 286 287 283 291 300 306 307 306 304 305 302 302 311 312 313 312 312 314 313 315 317 319 321 319 316 320 319 320 320 320 322 323 324 325 327 329 331 334 340 347 352 355 354 357 355 351 350 354 353 353 355 353 354 355 355 356 357 360 363 362
289 288 284 284 282 286 297 301 303 306 305 307 306 301 298 308 310 310 310 309 311 311 311 314 320 319 312 313 320 315 317 317 319 319 320 321 323 325 327 329 332 338 344 351 353 353 355 355 350 349 354 354 352 355 355 354 356 356 356 358 360 362 363
290 288 286 284 290 287 298 303 304 305 306 307 304 291 292 301 308 308 308 307 307 308 312 314 318 315 313 316 312 315 315 317 318 319 318 319 320 322 325 329 332 336 342 348 353 354 353 355 351 349 353 354 355 354 354 354 354 355 357 359 362 366 366
289 287 288 290 293 300 302 302 304 305 308 303 293 288 293 302 305 307 307 306 306 307 309 312 312 315 313 314 315 314 315 315 317 318 318 318 320 321 323 325 330 333 340 348 352 354 356 356 350 349 353 353 354 358 356 356 355 356 358 362 365 368 368
288 289 286 288 292 297 301 303 305 307 302 293 290 294 300 302 304 305 306 306 306 307 308 309 311 312 314 317 314 313 313 314 315 315 316 317 319 322 324 325 327 329 334 344 353 354 357 353 352 353 356 357 360 360 356 354 357 358 361 364 365 368 367
292 291 287 286 282 296 302 302 302 304 296 293 296 299 301 304 303 305 305 306 306 306 306 308 309 311 312 312 311 312 313 312 312 313 314 314 316 318 320 321 324 326 332 341 350 358 352 352 352 352 352 358 359 359 356 360 359 362 362 363 366 368 368
284 286 284 284 291 296 302 300 293 299 300 301 301 300 299 302 303 304 305 306 306 306 306 306 308 310 311 310 311 312 311 311 311 313 314 314 314 316 318 319 321 325 331 342 352 357 360 355 353 353 356 361 360 358 360 365 362 363 364 366 368 367 367
291 287 291 296 300 300 301 303 301 302 303 303 303 303 302 301 301 305 304 305 306 307 306 307 308 308 309 309 310 309 309 309 310 311 312 313 313 314 316 317 320 323 329 337 350 357 358 357 355 358 359 359 362 360 363 368 369 364 365 366 366 366 365
297 299 300 300 299 300 301 303 303 301 302 304 304 303 302 303 304 304 303 304 305 306 307 306 307 308 309 309 309 308 308 309 310 312 312 313 313 314 316 317 319 322 328 339 353 355 359 358 356 363 360 359 362 363 365 367 368 369 367 368 367 367 367
291 287 297 298 298 300 301 302 302 303 303 303 304 304 304 303 304 304 305 305 306 307 307 307 307 307 309 309 310 310 309 308 309 310 311 312 313 313 315 317 321 321 325 337 352 357 358 358 355 355 360 363 366 368 368 366 366 370 369 368 366 368 367
289 290 296 298 300 301 301 301 299 300 301 303 304 305 305 305 305 305 306 306 306 308 307 308 307 307 309 309 309 309 309 309 309 310 311 312 313 314 316 320 320 321 324 334 350 356 358 358 364 359 361 363 366 367 368 366 365 368 368 367 366 368 366
293 296 297 298 299 301 300 300 301 302 303 302 303 304 304 305 304 304 306 307 306 307 307 309 308 308 309 311 311 310 310 310 310 310 311 312 313 314 316 319 320 319 323 331 349 354 356 358 365 367 367 366 368 368 368 368 370 369 368 367 368 368 365
288 289 292 296 289 290 294 298 301 302 303 303 302 303 303 303 303 304 305 306 307 308 309 310 309 308 310 312 312 312 312 312 312 311 312 312 312 314 316 320 320 321 324 329 345 354 356 359 361 362 365 368 369 365 366 365 369 369 369 367 368 367 366
286 293 296 297 296 295 297 299 301 303 303 303 301 301 302 303 304 305 305 304 305 306 308 311 310 310 310 312 312 313 314 314 314 312 312 312 312 313 315 318 318 319 321 327 346 352 355 358 360 359 359 363 366 363 366 367 368 369 369 365 364 365 365
296 297 297 298 297 294 297 300 302 302 303 302 301 302 303 304 304 304 305 305 304 305 308 310 311 311 311 312 313 312 314 315 314 314 314 314 313 314 315 317 319 318 320 324 342 347 350 351 356 358 358 360 363 363 366 366 367 368 367 364 362 362 363
294 298 299 299 298 299 301 301 302 303 303 303 301 302 303 303 304 305 304 305 306 306 306 308 311 312 312 312 314 314 313 315 317 316 316 315 314 313 314 317 319 318 319 326 341 346 348 348 349 351 351 353 358 360 365 366 366 366 366 363 360 359 362

ECMWFFLT2_sfc_thetae_054.txt.gz
Theta_e
307 307 309 308 309 297 305 305 300 302 308 305 301 302 303 303 300 298 307 305 307 311 311 312 314 314 314 315 317 319 322 323 331 335 335 337 338 338 339 342 344 346 348 351 350 350 351 351 350 349 351 353 355 356 358 360 360 359 357 358 359 356 356
307 309 310 309 310 308 305 300 304 310 311 308 303 295 300 298 295 298 304 302 304 303 300 312 312 312 313 314 315 317 321 323 325 338 335 337 338 339 339 342 345 345 348 349 347 346 347 347 349 352 354 356 356 357 358 359 360 360 358 358 357 357 356
307 310 309 306 309 311 305 303 311 303 299 297 302 300 292 293 293 296 300 304 304 306 306 310 310 310 312 314 316 315 317 322 323 332 336 339 338 337 340 341 342 347 349 348 351 352 353 354 355 354 354 355 354 356 357 359 360 361 360 357 358 358 357
305 305 305 297 302 308 309 310 305 308 303 301 299 300 300 300 294 295 297 301 300 308 309 312 312 312 313 314 314 314 316 322 323 325 329 338 334 341 341 342 346 347 347 349 348 348 349 350 352 353 354 354 353 354 356 360 362 363 362 360 361 359 356
303 296 301 298 301 300 302 302 301 303 304 307 305 305 301 297 296 296 296 296 302 308 314 314 315 314 315 315 315 318 317 320 324 324 325 329 334 339 340 342 342 342 344 343 348 352 351 352 353 354 353 352 352 353 355 359 360 361 361 360 360 360 360
296 297 303 303 303 303 302 302 301 302 301 299 296 295 305 302 297 294 296 295 305 311 315 315 315 317 316 317 317 317 318 318 323 324 325 331 331 342 340 340 341 340 340 343 347 350 350 349 351 355 353 353 355 354 355 358 360 361 361 360 361 361 361
295 299 303 306 306 306 304 303 302 305 304 304 300 293 298 302 302 303 301 298 302 314 317 318 317 317 318 319 318 317 317 319 319 322 323 329 336 336 340 341 340 341 343 344 347 349 349 348 353 351 351 350 350 351 357 357 360 360 361 361 361 363 361
299 301 304 304 305 304 302 303 304 303 302 302 300 300 304 301 302 298 298 296 301 313 320 319 318 323 318 320 319 319 318 318 320 321 323 328 333 336 346 342 340 346 348 349 349 348 347 348 351 351 351 349 349 353 357 358 359 361 362 361 362 362 361
294 296 299 299 303 303 300 300 302 303 304 304 304 303 304 297 300 301 298 293 300 310 318 320 318 317 317 318 319 319 318 320 319 320 322 326 330 332 332 333 342 345 346 345 347 347 348 347 349 351 352 351 351 353 354 354 358 362 362 362 362 362 361
284 285 287 289 292 296 300 302 302 304 303 303 301 297 300 295 302 303 300 299 305 311 320 317 317 317 319 319 319 319 319 322 320 321 321 328 332 328 331 336 343 344 343 344 345 347 349 347 346 351 352 351 349 350 351 355 358 361 362 363 362 361 361
290 292 297 299 301 299 296 300 301 302 304 305 304 303 299 297 301 300 303 305 306 310 312 318 322 321 315 316 319 325 324 322 329 338 336 332 340 330 330 335 340 343 345 344 347 351 349 347 346 347 351 353 352 352 352 353 356 360 362 362 362 360 361
294 296 296 298 298 295 297 298 299 302 302 301 301 298 296 306 297 294 303 311 305 307 313 316 322 323 324 324 332 322 333 331 332 337 339 342 324 332 335 336 340 345 345 346 350 349 348 347 348 350 353 354 353 354 354 356 357 360 362 361 361 362 361
294 296 295 296 296 296 296 296 297 297 299 300 299 299 302 303 297 295 304 306 306 308 316 320 322 323 326 328 330 332 333 334 335 337 337 336 338 327 329 347 356 344 346 347 349 349 349 348 348 349 350 351 355 357 357 358 358 359 362 362 360 360 361
293 294 295 295 295 295 295 296 297 298 298 298 299 301 303 302 302 303 303 305 304 309 317 321 323 325 328 329 332 333 332 331 331 332 332 332 334 335 338 342 344 349 353 352 353 351 350 348 350 349 352 355 356 356 357 357 359 360 362 361 361 360 360
291 293 295 295 295 295 293 296 297 297 298 298 299 299 301 302 302 303 303 304 305 316 321 322 324 325 326 329 328 330 330 331 331 330 330 332 332 333 336 338 340 347 350 349 349 357 356 353 352 351 355 356 356 355 355 356 359 359 360 361 360 360 360
288 293 293 294 295 295 294 293 295 295 296 295 297 297 301 301 300 302 303 302 304 321 322 322 322 324 325 325 329 329 330 329 329 328 329 330 331 333 334 337 339 341 344 348 352 347 346 350 354 355 360 356 354 353 355 356 357 358 358 360 358 360 361
286 292 294 293 293 293 290 291 294 297 297 298 299 301 303 303 304 301 300 302 315 317 321 319 320 322 323 327 326 326 328 329 327 327 328 328 330 332 334 335 337 339 340 343 347 350 350 351 351 350 352 351 352 355 356 357 358 357 357 357 359 361 361
288 291 292 294 290 283 285 297 300 299 297 298 297 298 300 303 305 303 307 308 313 314 317 317 315 318 321 324 328 327 325 325 325 326 327 327 329 331 332 333 334 337 338 341 344 347 352 356 353 351 351 351 354 355 355 359 359 358 358 358 359 361 362
286 291 291 286 281 284 296 300 303 307 305 304 305 305 307 304 305 307 307 308 308 313 317 318 318 320 322 326 327 323 323 323 324 324 324 324 326 328 329 331 332 334 336 338 341 344 348 354 355 355 348 346 352 355 354 353 357 362 361 361 361 361 363
291 288 288 279 282 294 298 299 307 309 307 307 305 302 304 306 306 308 306 308 313 312 313 317 319 320 321 324 321 320 321 321 321 321 322 323 324 325 327 329 331 332 334 336 338 341 347 350 352 352 353 348 347 349 352 352 355 358 362 364 364 361 364
285 286 286 286 293 293 295 296 301 303 301 302 302 297 302 308 307 309 308 309 310 312 315 314 316 318 319 319 318 317 318 318 320 320 321 322 323 324 327 328 329 332 334 335 337 341 342 345 350 352 352 350 344 344 350 350 352 355 359 364 362 362 363
290 286 283 285 285 282 289 297 304 306 307 308 307 302 300 305 306 308 308 306 308 308 310 311 314 316 315 313 314 315 316 317 318 320 321 321 322 323 325 328 329 331 332 334 336 338 341 345 349 353 355 349 347 348 349 348 349 353 351 359 363 363 362
289 287 283 282 281 286 296 299 302 306 307 308 308 301 295 302 304 306 307 306 307 307 306 308 312 314 310 310 312 314 314 316 317 317 319 320 321 322 323 324 326 327 329 332 335 338 340 342 348 355 356 357 345 348 351 349 349 348 351 358 362 362 362
288 287 283 283 288 286 295 301 302 304 307 307 304 290 291 299 304 305 306 305 305 306 307 308 310 309 306 306 309 314 315 315 317 316 316 317 319 321 322 323 324 326 330 331 331 333 336 340 345 351 356 356 355 349 350 351 348 348 352 356 361 364 363
288 287 287 289 290 297 299 301 304 305 307 303 290 287 296 301 303 305 306 305 307 307 306 307 304 308 308 310 313 315 316 315 315 316 316 317 319 319 320 321 324 324 326 327 329 332 335 340 343 349 356 358 355 356 353 351 349 350 356 359 362 365 365
285 287 286 286 291 295 300 303 304 306 300 289 288 298 301 303 304 305 306 305 306 307 306 308 307 308 310 313 314 314 314 314 314 314 315 316 317 319 320 321 321 321 322 325 327 330 334 337 342 346 353 357 358 358 355 353 354 355 358 361 363 366 366
290 288 286 284 281 293 301 301 301 304 294 294 299 301 303 304 304 304 303 304 305 306 304 306 307 308 309 311 312 312 312 313 312 312 313 314 315 315 317 318 319 320 320 322 325 328 331 335 340 345 350 356 355 361 357 356 356 359 362 363 365 367 367
284 284 283 283 291 296 301 300 292 300 301 303 303 302 300 304 304 304 303 304 305 305 304 305 306 307 308 310 312 312 312 313 313 312 313 314 314 315 317 317 318 319 319 321 323 326 329 334 340 347 354 359 358 362 361 361 359 362 365 365 367 368 366
290 286 290 296 300 301 302 302 301 303 305 305 304 304 303 302 303 306 303 303 304 305 305 305 306 306 308 308 310 311 311 312 313 312 312 312 313 314 314 315 317 318 318 320 322 325 329 334 339 347 359 363 364 365 365 365 363 365 365 365 366 367 366
297 299 300 301 301 300 301 304 304 303 303 304 305 303 302 303 304 305 304 304 304 305 307 305 306 307 308 309 310 311 312 312 314 314 313 312 313 313 314 315 316 318 319 320 321 324 327 332 336 346 362 365 364 367 370 367 366 370 367 367 365 367 367
291 287 298 298 298 299 301 301 303 304 304 304 304 303 303 303 304 305 306 305 305 306 307 307 307 307 309 309 310 311 312 312 313 313 312 312 312 313 314 315 318 316 317 318 320 323 325 330 334 344 361 369 372 372 370 368 367 372 369 368 364 367 367
290 289 294 297 299 300 303 301 298 299 301 302 304 303 304 304 305 305 305 306 306 307 306 308 307 307 309 309 309 310 311 312 313 313 313 313 313 314 315 316 316 315 316 317 320 322 324 328 334 344 359 370 376 374 371 368 368 372 368 366 365 367 367
294 296 297 298 298 299 300 300 300 300 301 301 302 303 304 304 303 304 305 306 306 307 307 308 307 307 308 310 311 311 311 312 312 313 313 314 314 315 316 316 316 314 316 318 319 322 324 328 336 350 361 367 375 372 371 369 368 371 367 363 365 366 365
288 289 292 296 289 289 294 297 299 300 302 302 302 303 303 303 302 303 303 304 306 307 308 308 308 307 308 309 311 311 311 312 313 315 314 314 314 316 317 317 316 315 316 317 320 322 324 329 343 357 360 358 356 361 366 368 368 370 369 366 365 365 364
287 293 296 297 297 296 297 299 300 302 303 302 302 301 302 303 304 304 303 303 303 305 307 309 308 307 307 309 311 311 311 312 314 315 315 314 314 315 317 316 314 314 316 319 320 321 324 333 346 352 354 356 359 360 357 351 351 358 364 365 364 364 363
295 297 297 298 296 295 297 300 301 301 303 302 301 302 302 303 303 303 303 303 303 303 306 308 308 308 308 309 310 310 311 312 314 315 315 315 315 316 317 316 314 314 315 317 319 320 325 337 344 347 351 350 348 350 353 353 349 343 340 345 357 361 361
294 298 298 299 298 298 300 302 302 302 303 302 301 301 302 302 303 304 303 303 304 305 305 306 308 309 309 310 311 311 312 312 314 315 316 317 316 316 315 314 314 314 315 317 318 324 332 339 346 345 346 349 349 349 351 352 351 347 343 341 342 350 360

ECMWFFLT2_sfc_thetae_057.txt.gz
Theta_e
301 300 306 305 306 291 300 302 294 298 303 299 297 299 300 298 294 290 301 297 301 306 305 306 307 308 308 310 310 329 330 330 332 333 334 335 337 338 339 339 340 340 340 342 342 342 343 346 346 346 346 347 348 348 349 347 347 347 346 350 350 348 346
303 304 304 305 306 304 299 294 298 306 306 304 300 289 294 292 288 292 298 295 297 298 294 305 305 305 307 307 309 319 329 330 330 332 333 335 336 338 339 340 341 341 341 342 343 344 345 346 347 346 346 347 348 349 350 348 348 347 346 347 349 348 346
300 303 304 301 305 307 300 299 306 296 292 292 297 296 287 287 288 289 293 297 297 300 301 302 303 304 305 306 308 309 328 330 330 331 334 335 337 337 337 339 340 341 342 343 344 345 346 348 348 347 347 348 349 349 350 350 349 349 347 347 348 349 348
298 299 299 291 297 304 306 305 300 303 297 294 292 298 295 292 288 291 290 295 291 304 303 305 304 306 306 308 307 309 326 329 331 332 333 334 334 336 338 340 341 342 344 345 345 346 346 347 348 347 347 348 348 349 351 351 351 351 350 347 348 348 348
297 290 295 293 295 293 295 296 296 299 301 302 299 301 295 292 289 288 288 287 296 301 307 306 309 309 308 309 309 309 312 328 331 332 332 333 334 336 339 340 342 343 344 346 346 347 347 348 349 349 348 347 348 349 351 352 351 351 350 349 348 348 349
290 292 298 299 297 298 295 294 293 295 293 292 291 289 300 297 293 286 288 288 296 304 311 310 312 319 312 311 310 313 312 314 331 332 333 334 335 337 338 339 341 343 344 346 346 347 347 347 348 348 348 348 348 349 350 353 353 353 352 350 349 349 350
291 296 299 301 301 300 299 298 295 298 296 295 292 284 291 297 297 297 296 291 295 306 310 310 320 323 324 313 312 313 313 314 330 332 334 336 337 337 337 338 340 342 344 346 346 346 345 346 346 348 348 348 347 348 351 353 354 354 354 353 352 351 350
296 298 300 301 302 299 296 298 299 297 294 296 294 294 298 292 295 293 293 293 294 305 311 320 324 325 327 319 314 313 313 314 328 332 334 335 336 337 337 339 341 341 343 346 346 345 344 345 345 347 348 348 348 349 350 353 354 355 355 355 354 352 352
288 290 294 295 299 299 294 295 298 300 300 301 300 300 299 293 295 297 291 288 292 304 314 323 325 326 326 328 330 329 324 320 321 318 325 335 336 336 337 338 339 341 343 344 344 345 346 347 348 348 348 348 348 349 350 352 354 357 357 358 356 355 354
279 280 281 285 287 292 295 298 297 298 299 299 296 291 293 287 296 296 294 293 299 307 309 313 323 324 324 327 329 330 330 329 329 332 332 330 335 335 336 337 339 340 342 343 344 345 346 347 348 349 349 349 349 350 350 351 354 357 358 359 358 357 356
283 286 289 294 296 292 290 293 294 294 296 298 297 296 294 291 294 293 296 299 299 301 304 310 320 322 322 324 327 327 326 328 329 330 331 332 331 335 336 337 339 340 340 340 342 345 346 347 349 350 349 349 349 349 349 350 352 356 358 359 359 358 357
290 291 291 293 294 290 292 291 292 294 295 296 295 292 291 297 294 288 300 300 297 299 303 313 318 319 324 324 326 327 326 325 326 327 330 336 333 335 337 339 338 337 338 340 342 344 345 346 348 349 350 349 349 349 348 350 351 353 356 358 358 358 357
292 293 293 293 293 292 292 292 292 291 293 293 292 294 296 296 291 290 297 299 298 300 307 316 317 318 320 324 327 326 326 326 326 326 326 329 331 332 333 335 340 344 338 341 343 344 345 345 346 348 348 349 349 349 349 350 351 352 355 356 358 358 357
291 291 292 293 291 291 292 292 292 293 293 293 293 294 296 296 294 296 296 298 299 305 314 317 319 322 323 326 325 324 323 323 324 324 324 326 327 328 330 331 334 337 342 346 346 345 344 344 345 346 347 348 349 348 349 350 351 352 354 355 357 357 357
289 291 293 293 292 291 290 291 292 293 293 293 294 295 296 298 296 297 297 299 300 314 317 319 320 324 326 324 322 320 320 321 322 322 321 323 324 326 328 328 330 332 334 338 342 346 345 345 347 347 347 348 349 349 349 350 351 352 353 354 356 357 357
286 290 290 291 292 291 290 290 291 291 292 291 293 292 296 295 294 296 296 296 299 314 319 320 318 319 321 319 318 317 317 318 319 319 319 320 321 323 325 327 328 330 331 332 336 340 345 347 348 346 345 351 349 348 350 350 351 352 352 354 355 356 357
284 289 291 290 290 289 286 287 290 292 293 294 294 295 296 297 297 293 291 296 307 310 315 312 314 318 318 317 317 317 317 316 317 317 317 317 319 321 323 325 327 327 330 332 333 337 340 347 346 345 347 350 349 347 347 350 349 350 352 352 355 357 358
284 288 289 291 286 279 281 293 296 300 299 300 298 297 299 302 302 299 303 304 308 310 311 310 310 316 314 314 315 318 316 314 314 315 316 317 317 319 320 323 324 326 328 332 332 333 335 337 342 355 351 350 346 348 351 351 352 352 350 347 346 353 358
284 288 289 284 278 280 292 296 303 304 304 304 301 300 302 304 304 305 305 305 306 308 310 310 311 312 317 314 313 313 316 315 313 313 315 315 316 317 318 320 321 324 325 326 331 333 335 337 339 342 347 347 347 354 353 350 349 350 350 349 347 346 354
288 285 283 274 279 291 295 296 304 306 304 303 302 301 302 303 303 303 302 304 306 306 307 308 310 311 315 314 313 313 314 315 313 312 313 314 315 316 317 318 319 321 322 324 325 328 336 337 340 342 343 346 353 350 352 351 348 347 348 348 347 348 353
281 283 281 282 290 290 292 293 299 299 296 298 298 292 297 301 302 302 302 303 304 305 306 307 308 311 316 314 310 311 312 313 315 314 313 313 314 316 317 318 319 321 321 323 325 328 330 333 334 339 345 346 345 350 348 348 347 347 348 348 348 349 354
287 282 281 279 280 277 285 297 302 303 304 304 303 299 296 301 301 303 302 301 303 304 305 306 307 312 312 310 306 308 310 313 313 315 314 314 314 315 317 318 320 319 320 322 324 326 327 329 332 334 338 341 340 343 349 347 347 347 347 348 349 351 354
285 284 280 278 276 280 291 295 300 302 303 306 303 297 291 299 300 302 302 301 303 303 303 304 307 306 304 304 304 307 310 311 313 313 314 313 313 314 316 316 316 317 319 321 322 324 325 326 329 331 335 339 339 340 346 350 346 345 347 348 350 351 355
286 284 281 279 284 283 294 298 299 301 303 304 299 283 287 297 299 302 302 301 301 302 303 304 304 300 297 299 302 308 310 312 313 313 314 313 312 312 314 316 317 318 320 319 319 319 321 323 327 329 331 334 336 340 343 347 350 348 346 349 351 354 356
287 286 283 285 286 296 297 297 300 301 305 301 287 281 292 297 299 302 302 301 302 303 302 303 299 303 303 305 307 309 311 311 313 316 318 315 312 312 312 314 319 316 316 317 317 319 321 323 325 327 329 331 334 337 341 343 346 350 350 348 349 353 357
285 285 282 283 287 289 296 301 300 303 298 286 283 294 299 299 300 302 302 301 303 303 302 302 303 304 306 308 309 309 309 310 312 314 315 315 314 313 314 316 316 315 316 317 317 318 320 322 324 325 327 329 332 335 338 341 346 351 354 349 348 350 357
287 286 283 281 278 289 299 299 298 302 291 293 298 299 300 302 301 301 301 302 303 303 301 303 303 304 305 306 307 308 310 309 310 312 314 315 314 312 311 311 314 316 315 315 316 317 319 321 323 324 325 327 329 333 335 340 347 353 356 354 348 349 355
282 283 281 281 286 293 298 297 289 296 298 301 302 301 298 301 301 300 300 301 303 303 302 302 303 303 304 305 307 308 308 309 310 313 314 315 314 313 313 313 313 316 315 315 315 317 318 320 322 323 324 325 328 330 333 339 345 353 359 357 350 348 353
288 284 287 293 298 300 300 302 300 301 302 303 303 302 301 300 300 302 300 300 302 303 303 302 303 302 304 304 306 306 307 308 309 311 313 313 314 313 312 312 315 316 315 314 315 316 318 319 321 323 324 325 327 328 333 339 344 353 360 357 350 348 351
296 297 296 299 299 298 298 303 302 300 301 302 302 301 300 301 301 302 300 301 302 303 303 302 302 303 304 304 305 306 307 308 309 312 313 314 315 315 314 313 314 316 316 315 315 315 317 319 320 323 324 325 325 328 333 338 346 356 362 358 351 351 352
287 283 297 297 296 297 298 299 300 301 301 300 301 301 301 301 301 301 302 303 303 303 303 303 302 303 305 305 305 306 307 308 309 310 312 313 314 313 313 313 317 316 316 314 314 315 315 318 320 322 323 325 327 330 334 342 353 359 361 358 353 352 355
287 287 293 295 296 297 300 298 297 297 299 300 301 301 301 302 302 302 302 303 302 303 302 303 302 303 304 304 304 305 306 308 309 310 311 313 313 314 314 314 317 316 315 314 314 315 316 318 320 321 323 324 327 330 339 354 354 353 356 356 354 354 356
291 294 296 295 295 296 300 298 298 299 299 299 300 301 301 302 301 302 303 304 303 303 302 303 303 302 303 305 305 305 306 307 309 309 311 312 313 314 313 314 317 315 314 314 315 316 317 319 320 322 323 326 331 338 350 352 350 349 355 354 354 356 357
286 287 291 294 288 288 293 296 298 298 300 300 299 300 301 301 301 301 300 302 303 303 303 303 303 302 303 304 305 305 306 307 308 309 310 311 313 314 314 315 316 314 314 315 315 316 318 320 321 323 326 333 339 348 350 350 350 347 350 356 355 356 358
286 292 295 297 295 294 296 297 299 300 300 300 299 299 299 300 301 301 301 300 301 302 303 304 303 302 303 303 305 305 305 306 308 310 310 311 312 313 314 315 314 313 313 315 316 317 318 321 324 327 330 333 339 347 350 351 349 347 347 347 353 355 357
294 296 296 298 296 293 296 298 300 300 301 300 299 300 300 300 300 301 300 300 300 301 302 303 304 303 304 304 305 304 306 307 308 309 311 312 313 314 315 314 314 313 313 314 314 316 319 323 324 325 328 333 337 342 349 350 351 347 346 345 344 346 350
293 297 297 299 298 298 299 300 300 300 301 301 299 299 300 300 301 302 301 301 302 301 301 301 303 304 304 305 305 305 305 307 309 311 314 316 316 315 314 313 313 312 312 313 315 317 322 323 322 324 327 331 335 337 342 348 349 348 346 345 345 345 343

ECMWFFLT2_sfc_thetae_060.txt.gz
Theta_e
297 297 299 298 302 290 295 296 293 295 298 297 293 297 297 296 291 288 294 295 296 300 303 305 306 305 305 315 321 324 326 328 332 333 334 335 336 337 337 337 337 337 338 338 339 340 341 342 342 343 343 343 342 342 343 343 344 346 347 348 346 345 345
298 301 299 299 301 299 295 292 293 299 302 299 292 286 289 287 283 286 293 292 291 294 293 303 303 303 304 303 318 322 324 327 329 332 333 335 335 337 338 338 338 338 338 338 339 341 341 342 343 343 344 345 345 344 343 343 344 344 347 348 347 345 344
297 300 300 298 300 301 295 293 301 294 288 290 291 290 285 285 284 285 288 293 294 296 296 306 310 310 312 316 307 319 322 326 329 331 333 334 336 337 337 338 338 338 338 338 338 340 342 342 344 344 346 346 346 345 345 344 344 345 347 349 348 347 345
296 296 296 287 292 298 300 299 296 299 294 294 290 290 289 287 284 287 285 290 290 299 305 315 316 319 320 321 319 310 322 325 329 331 332 333 334 335 337 338 339 339 339 338 339 339 341 342 343 345 345 347 346 346 346 345 346 346 346 348 349 346 345
295 287 292 290 291 289 292 292 292 293 294 296 295 294 291 288 285 284 284 284 291 305 316 318 318 320 322 322 321 315 317 325 329 331 332 333 334 335 336 338 339 339 339 339 339 340 342 343 345 345 345 346 347 347 346 346 345 345 345 347 348 348 346
287 289 296 296 295 294 292 290 291 293 292 290 285 284 294 293 289 283 285 284 292 304 315 319 319 321 323 324 322 322 317 324 328 331 332 333 334 335 337 338 339 340 340 340 341 341 341 343 344 344 345 346 346 347 347 347 346 345 345 345 347 348 347
289 293 296 298 299 298 296 296 293 295 294 293 288 282 286 290 292 296 291 286 292 304 310 318 320 322 324 324 323 321 323 325 326 330 333 334 335 335 337 337 339 340 340 341 341 341 340 341 343 345 345 345 346 347 347 348 347 346 346 346 346 348 348
292 295 297 299 299 298 294 295 296 294 290 292 291 290 293 291 292 288 288 288 290 303 308 317 320 323 324 324 322 321 322 324 328 328 329 332 333 335 337 338 339 340 340 341 341 341 341 341 342 344 345 345 346 346 347 348 347 347 347 346 346 346 347
285 287 290 294 296 295 291 290 293 294 294 294 294 296 294 290 293 293 288 284 289 300 307 318 319 321 322 321 321 322 320 321 324 327 329 330 333 334 335 336 337 339 340 340 340 341 341 342 343 344 344 345 345 346 347 348 348 349 348 348 346 345 345
276 276 278 281 284 288 291 293 292 293 292 291 290 287 289 283 292 292 289 288 294 300 305 316 317 319 319 320 320 320 321 320 320 323 326 329 332 333 333 335 336 337 339 341 341 341 342 343 344 344 344 345 345 346 346 348 349 349 349 349 348 346 345
280 283 286 291 294 289 286 289 290 290 292 292 292 291 289 286 289 288 290 293 292 295 299 313 316 318 319 319 317 317 318 318 319 320 323 325 327 329 330 331 335 338 339 340 342 342 343 343 344 345 345 345 345 345 346 348 350 350 350 350 349 347 346
288 289 289 291 292 288 289 288 289 290 290 291 290 286 284 291 288 282 292 294 291 293 300 311 315 318 319 320 319 318 316 317 317 317 319 324 323 325 326 327 328 330 335 340 341 342 343 343 344 345 346 346 346 345 345 347 349 351 351 350 350 349 347
290 290 290 292 291 290 290 290 289 289 290 290 288 289 290 290 286 285 291 293 292 295 306 313 315 318 318 320 321 317 317 316 316 316 315 316 317 320 321 323 325 327 328 330 335 342 344 344 343 344 345 346 346 346 346 347 349 351 352 351 351 350 349
289 290 290 292 290 290 290 289 290 290 290 289 290 290 291 291 289 292 293 294 296 302 310 313 316 318 317 318 322 320 316 315 315 315 314 314 315 316 317 320 322 323 325 326 328 330 332 335 339 344 346 345 345 346 346 347 348 351 353 352 352 351 351
286 289 291 290 290 289 288 290 291 291 291 291 291 291 291 294 292 293 293 293 295 308 311 313 316 315 314 314 315 317 315 315 314 313 314 313 314 315 316 317 319 320 321 323 325 326 328 330 333 336 340 345 348 347 347 347 348 352 354 353 353 353 352
283 288 289 289 291 291 289 288 289 289 289 288 289 289 292 293 291 292 293 294 298 304 309 312 312 311 310 310 311 313 314 314 315 312 312 313 312 313 314 316 317 317 318 319 321 323 326 330 331 332 336 341 346 348 348 348 349 350 352 353 354 354 355
280 287 290 289 289 287 284 285 288 292 293 293 297 299 302 301 300 294 292 293 302 304 307 305 306 309 309 309 309 309 312 314 314 311 311 312 313 312 314 316 318 316 317 318 320 321 324 328 330 332 335 339 343 346 348 349 349 349 350 351 352 354 355
281 288 288 290 284 276 279 290 301 300 297 297 296 296 299 300 301 299 302 301 302 303 303 303 303 306 307 308 310 312 311 312 312 313 311 311 313 313 313 314 316 318 317 318 320 321 323 326 329 334 336 339 339 347 349 349 349 349 349 349 350 351 353
281 286 287 282 275 278 289 295 303 302 302 300 299 298 299 300 301 301 300 300 301 302 303 303 304 306 311 308 308 308 311 312 312 312 312 311 312 310 311 312 314 315 317 318 319 321 324 326 328 331 332 332 334 337 341 347 348 348 349 348 348 349 349
285 282 280 271 276 288 293 294 302 303 302 300 299 297 298 299 299 299 298 300 301 302 302 304 305 306 308 309 308 307 308 311 311 312 312 313 312 310 310 311 313 314 314 317 318 321 326 325 326 328 328 330 333 333 337 338 346 346 348 347 348 348 348
278 281 279 281 287 287 289 290 295 296 293 294 294 288 293 297 299 299 298 299 300 301 302 303 304 306 308 307 305 307 308 309 311 314 315 315 315 313 312 312 312 314 315 316 317 320 320 322 323 326 327 328 328 330 332 336 340 345 346 346 347 347 348
286 282 278 275 278 275 283 294 299 301 300 300 301 296 292 298 298 300 299 298 299 300 301 301 303 305 304 305 302 305 307 309 309 312 316 316 316 316 316 313 313 313 315 316 318 318 318 319 321 323 325 326 327 328 330 334 337 341 345 345 347 348 348
283 282 279 278 275 279 287 291 296 298 299 300 300 295 289 297 297 299 300 298 299 299 299 300 302 300 297 298 300 304 306 307 309 309 314 316 316 317 316 314 312 313 314 316 318 318 317 318 319 321 323 325 326 326 329 331 334 337 340 345 346 347 349
285 284 281 278 281 278 290 294 297 298 300 302 293 283 286 297 297 298 299 298 299 299 300 301 299 297 294 296 299 305 306 308 309 309 310 312 315 316 317 317 315 314 316 316 316 315 315 316 319 320 322 323 324 326 327 329 330 332 337 342 347 349 348
286 285 283 284 284 293 295 295 297 299 302 297 285 281 291 297 297 298 299 299 300 300 299 299 295 299 301 301 304 305 306 307 308 309 311 311 314 315 315 317 318 315 314 315 314 315 315 317 318 320 321 321 322 324 325 326 328 331 336 339 343 347 350
284 285 282 283 284 286 294 296 297 300 295 282 282 293 296 295 296 299 300 299 299 300 299 299 299 300 303 305 305 304 305 306 307 308 309 310 312 316 318 318 317 315 315 314 315 316 316 317 319 319 320 320 322 323 324 324 327 331 333 335 339 342 346
287 286 283 282 278 290 297 296 295 299 288 287 294 296 297 299 298 298 298 299 299 299 298 300 300 301 302 302 303 304 305 305 306 307 308 309 310 312 315 315 317 317 314 314 315 316 316 317 318 319 319 320 321 323 322 325 328 330 332 334 337 340 345
277 278 277 280 287 292 297 296 288 294 297 298 298 297 295 298 298 297 297 298 299 299 299 299 299 300 300 301 302 303 304 305 306 307 308 309 310 312 314 316 316 316 315 315 315 316 316 317 318 319 319 319 321 322 322 326 328 330 332 334 337 340 345
284 279 282 290 294 297 300 299 298 299 300 299 298 297 297 296 297 299 297 297 298 299 299 299 300 299 300 300 302 302 303 304 304 305 307 308 309 311 312 314 316 316 315 314 315 315 315 316 318 319 320 319 321 321 324 327 328 329 331 333 336 340 346
292 294 294 296 295 297 296 299 300 298 297 298 298 297 296 297 298 298 297 298 299 299 300 299 299 299 300 300 301 302 303 303 304 306 307 308 310 311 312 312 314 316 316 315 315 313 314 316 317 320 320 321 320 322 325 328 330 331 332 334 338 344 351
284 280 291 294 294 295 296 297 299 299 299 298 298 297 297 297 298 299 299 299 299 299 299 299 299 299 301 300 301 302 302 303 303 304 306 307 309 309 310 312 316 315 315 314 314 314 313 314 316 319 320 321 323 325 327 331 334 336 337 339 345 348 348
283 283 288 292 294 294 295 295 295 296 297 297 298 298 298 299 299 300 300 300 299 300 299 299 299 299 300 300 300 300 301 302 303 304 305 307 307 309 310 312 315 315 314 313 313 313 312 314 316 318 321 321 323 325 327 331 336 339 343 347 346 346 347
287 290 292 292 292 293 295 295 296 297 297 297 297 298 298 299 298 299 299 300 300 300 299 300 299 299 300 300 300 300 301 301 302 303 304 305 306 308 308 310 314 313 314 314 313 312 313 314 316 318 321 321 321 323 326 330 334 335 338 344 346 346 347
283 284 287 290 285 285 290 293 295 297 298 298 297 297 297 298 298 298 298 299 300 300 300 300 300 299 299 300 301 300 301 301 301 302 303 305 306 307 308 310 312 313 316 315 313 313 313 314 316 319 320 320 320 323 326 328 330 331 334 340 345 345 346
283 288 291 292 292 291 293 294 296 297 298 298 297 296 296 297 298 298 298 297 298 298 299 301 300 299 300 300 301 301 301 301 303 303 304 304 305 306 308 309 310 313 314 315 313 312 312 315 317 320 320 319 320 322 325 327 328 328 330 336 342 345 345
291 292 293 294 293 291 294 296 297 298 298 298 297 297 298 297 298 298 298 298 298 298 299 300 302 301 301 301 301 300 301 302 302 303 304 305 306 307 309 310 312 313 314 313 312 312 312 315 318 320 319 319 320 321 324 326 327 328 329 334 340 344 344
290 292 294 294 295 295 297 298 299 299 300 300 298 298 298 298 298 299 298 299 299 299 298 299 300 301 301 301 301 301 301 302 304 305 308 310 310 310 311 312 314 314 313 312 311 311 313 316 318 320 318 318 319 321 323 325 327 327 329 334 341 344 344

ECMWFFLT2_sfc_thetae_063.txt.gz
Theta_e
295 295 297 297 297 289 293 294 292 294 296 294 290 295 294 291 286 286 289 293 295 296 301 319 320 321 321 322 322 322 322 322 328 330 332 334 335 335 336 336 336 337 337 338 339 339 339 339 339 336 336 337 338 340 341 341 342 344 345 346 345 345 345
296 298 297 297 298 297 291 287 291 296 298 295 290 285 285 282 282 284 289 293 298 299 294 315 317 317 318 318 319 320 321 321 322 329 332 334 335 336 337 337 338 338 338 338 338 339 340 340 340 338 337 338 338 341 342 341 342 342 344 346 346 345 344
295 298 296 295 297 299 293 290 299 293 289 290 288 287 282 282 283 283 288 293 298 300 302 311 313 314 315 316 317 318 318 320 321 324 331 334 336 336 336 336 337 337 337 337 338 338 340 340 342 340 338 338 338 339 342 342 342 343 344 346 346 346 345
293 294 293 285 289 297 298 298 294 296 292 290 287 288 286 286 281 284 283 288 291 299 301 312 314 316 315 314 315 315 317 318 320 323 326 333 334 335 336 337 337 338 338 338 338 338 339 340 341 341 340 339 338 339 341 342 343 344 344 345 347 345 345
291 286 290 287 289 287 290 291 289 291 290 294 292 291 290 287 283 280 282 284 291 298 303 309 317 318 315 314 314 315 316 317 319 321 324 330 334 335 336 337 337 338 338 338 338 339 340 341 342 342 341 340 339 339 339 342 342 342 343 345 346 346 345
286 287 293 293 293 293 291 289 287 288 287 286 284 286 291 290 286 281 282 284 290 298 305 304 318 319 316 316 315 314 315 316 317 319 322 327 333 335 336 337 338 338 338 338 338 339 340 340 341 341 342 342 341 340 340 341 342 342 343 344 345 345 345
287 290 294 296 296 295 293 292 289 291 289 288 284 279 285 288 289 294 288 287 289 300 303 306 318 319 317 316 315 314 315 315 316 317 320 323 329 334 335 336 337 338 338 338 338 338 338 339 340 341 342 342 342 341 341 341 341 341 343 344 345 346 345
289 293 295 295 296 294 290 292 292 291 288 288 287 285 290 287 288 285 285 287 290 300 301 309 319 320 319 317 315 314 314 314 315 316 316 319 322 326 331 335 338 339 338 338 338 337 338 339 339 340 342 342 343 343 342 342 341 342 343 344 345 346 345
281 285 287 289 292 293 289 288 290 290 291 290 290 291 290 287 288 287 285 283 289 296 302 311 318 320 319 317 315 315 313 314 315 315 316 317 318 320 322 325 329 333 336 338 337 337 337 338 340 341 341 342 343 343 344 343 343 343 343 344 344 345 346
276 276 276 279 282 286 288 290 289 290 290 289 287 283 285 281 288 287 285 284 290 296 300 314 315 316 317 318 315 315 315 314 314 314 315 315 316 316 317 318 321 324 326 328 332 336 337 338 339 340 341 342 343 344 345 345 344 344 344 345 344 345 345
277 282 284 289 292 287 284 287 288 288 289 290 289 287 284 281 284 284 285 290 289 292 304 310 312 312 313 315 315 313 313 313 314 314 314 314 314 315 315 316 317 319 320 322 325 328 332 338 338 340 341 342 343 344 344 346 346 346 345 345 345 344 345
285 287 287 289 291 287 287 286 287 288 288 288 288 285 284 288 284 279 288 292 288 292 304 309 309 310 311 313 313 312 312 312 312 313 313 317 313 314 314 315 315 316 317 319 321 323 328 331 334 339 341 343 343 345 344 345 347 347 347 346 344 344 344
288 288 289 290 290 289 288 287 287 287 288 288 287 287 289 289 284 282 287 289 290 299 303 308 308 308 309 310 311 312 312 312 311 311 311 311 311 312 313 313 314 315 316 317 319 321 323 326 329 331 335 341 343 344 344 345 347 347 348 346 345 344 344
287 287 288 289 288 288 288 288 289 289 288 288 288 288 289 288 287 289 289 289 295 301 303 306 309 309 309 309 311 311 310 310 310 310 310 310 310 310 311 313 314 314 316 317 318 320 321 322 324 328 331 335 340 343 344 345 346 347 348 347 346 345 344
284 287 290 288 288 288 286 288 288 288 288 289 289 288 289 292 289 290 291 290 293 303 304 305 307 310 309 308 307 308 309 309 309 309 309 309 309 310 311 312 313 314 315 316 317 318 320 321 322 324 328 332 336 340 344 345 345 347 348 347 346 346 345
281 285 287 287 289 288 286 286 287 288 288 288 289 287 291 290 288 290 292 292 294 300 303 305 305 306 306 305 306 306 308 310 310 308 308 309 309 309 310 312 313 313 314 315 316 317 319 320 321 323 325 328 330 332 335 343 345 347 348 347 347 347 347
278 284 287 288 286 283 280 281 287 295 294 296 297 298 300 299 298 293 288 288 298 299 304 301 302 303 304 304 304 305 306 310 311 310 309 309 310 310 310 311 313 313 313 315 315 317 319 320 321 323 325 325 326 328 332 336 343 347 347 348 348 347 348
278 284 286 287 281 275 276 285 296 298 295 295 294 294 297 298 299 296 298 298 299 300 300 300 300 301 303 303 304 306 305 307 309 311 312 311 311 311 311 312 312 313 314 316 316 318 319 321 322 323 325 325 325 328 331 333 337 345 347 348 348 348 349
279 282 284 281 274 276 287 292 299 299 299 299 296 296 297 298 298 298 298 298 298 299 300 301 301 303 306 305 305 305 305 306 307 310 312 313 312 312 312 311 311 311 313 315 316 318 320 322 322 322 322 323 324 326 328 330 333 338 345 346 348 350 350
281 280 277 269 275 284 290 291 294 300 299 297 297 293 296 297 297 297 296 297 299 299 299 301 302 303 304 307 305 305 305 305 305 308 310 313 314 313 313 313 312 311 312 313 315 317 323 321 321 323 322 322 323 324 328 330 332 335 338 344 346 347 350
277 278 277 279 285 286 288 288 293 293 290 291 290 285 289 296 296 297 296 297 298 298 299 300 301 302 303 303 302 304 305 305 306 306 310 312 314 316 315 316 315 314 314 314 315 319 319 319 319 321 322 324 323 323 326 328 330 331 333 337 342 345 348
284 278 276 274 276 273 282 293 296 298 298 297 296 293 289 295 295 298 297 295 296 297 299 299 300 301 300 299 301 303 304 305 305 306 308 310 312 315 316 318 316 316 315 315 316 317 317 317 320 320 321 323 323 322 325 327 327 329 330 332 337 342 346
281 281 276 273 271 275 285 290 294 297 297 298 298 292 287 294 295 296 297 296 296 297 298 299 299 297 292 293 299 302 303 304 305 305 306 308 310 312 315 317 317 316 316 317 316 316 315 316 318 320 320 321 321 322 324 325 326 327 328 330 333 335 338
283 282 278 276 280 275 287 292 295 296 297 299 293 281 283 293 295 296 297 296 296 297 298 299 296 294 290 293 297 302 304 304 304 304 305 306 307 309 311 315 318 319 319 316 315 315 314 315 318 320 320 320 320 321 323 324 324 325 327 329 331 333 334
285 286 283 284 284 290 292 292 295 296 298 295 285 280 288 293 295 296 297 297 297 297 296 297 293 296 298 299 301 303 303 303 303 305 306 306 307 308 309 311 317 318 317 316 315 315 316 316 317 318 319 318 318 320 322 322 324 326 327 329 330 331 333
281 283 282 283 286 287 292 294 296 297 293 281 281 290 294 294 294 297 298 297 297 297 296 296 296 297 300 305 303 301 302 302 302 304 304 305 306 308 310 312 314 314 315 316 316 316 316 317 317 316 317 317 319 319 320 321 323 326 327 328 330 331 332
286 285 282 281 277 289 295 295 294 297 287 286 293 294 294 297 296 296 296 297 297 297 296 297 298 298 299 300 300 300 301 301 302 302 303 303 304 305 306 308 311 312 312 313 314 315 316 317 316 316 315 315 317 319 319 321 324 325 327 328 330 331 332
276 279 279 279 285 289 295 294 286 291 296 297 296 294 292 295 296 296 295 295 297 297 297 297 297 297 298 298 299 299 300 301 301 302 303 303 304 305 306 308 310 312 311 312 313 315 317 317 317 316 315 315 316 318 319 322 323 325 327 329 331 332 334
282 278 282 287 289 291 294 295 294 296 298 298 297 296 294 294 294 296 295 295 296 297 297 297 297 297 297 298 299 299 300 300 300 301 301 302 303 304 305 307 310 311 309 310 311 314 316 316 317 315 315 314 316 317 320 322 323 324 327 330 333 335 335
288 290 291 292 292 293 295 297 298 296 296 297 297 296 294 295 296 296 295 296 296 297 298 297 297 297 298 298 298 299 300 300 300 302 302 302 303 303 305 306 307 308 309 309 310 311 314 317 317 317 315 314 314 317 320 322 322 324 327 330 333 336 339
284 279 287 290 291 293 295 293 295 296 297 296 296 295 295 295 296 296 297 297 297 297 298 297 297 297 298 298 298 299 299 299 300 300 300 301 302 302 303 304 307 306 308 308 309 310 311 315 316 316 315 315 316 318 320 321 321 324 327 329 332 333 335
283 284 285 289 291 292 293 292 291 293 294 295 296 297 297 297 297 298 298 298 297 297 297 297 297 297 298 298 297 298 298 299 299 300 300 300 301 302 303 304 307 306 307 307 308 310 311 314 316 316 315 314 316 318 320 321 321 323 325 327 329 330 332
287 289 291 291 291 292 292 293 293 294 294 295 295 296 296 297 297 297 298 298 297 297 297 298 297 297 297 298 298 298 298 299 299 299 300 300 301 301 302 303 306 305 306 308 308 310 312 314 315 315 314 314 317 319 320 321 321 321 323 326 329 329 330
282 284 287 288 284 284 286 290 294 295 295 295 295 296 296 296 296 296 296 297 298 298 298 297 297 296 297 298 298 298 298 299 299 299 300 300 300 301 302 304 304 305 307 308 308 310 312 315 315 314 314 314 317 320 321 321 321 321 323 325 327 328 330
283 289 291 290 291 289 291 292 293 294 295 295 295 295 295 296 297 297 296 296 296 296 297 298 298 297 297 298 299 298 299 299 300 300 300 299 300 300 302 302 303 304 305 309 310 311 313 315 315 314 313 314 317 319 320 320 320 321 323 324 327 328 330
292 291 290 291 290 290 291 293 294 295 296 296 295 296 296 296 297 297 297 297 296 296 297 298 299 299 298 299 299 298 299 299 299 299 300 300 300 302 303 303 304 305 307 309 311 313 314 315 313 312 313 315 318 319 319 319 321 322 323 325 326 327 329
291 292 292 292 293 293 294 294 295 296 297 298 296 295 295 296 297 298 297 297 298 298 297 297 298 299 298 298 298 298 298 299 300 301 304 305 305 305 306 306 306 307 308 309 310 311 312 312 312 312 312 315 318 318 318 319 321 322 324 326 327 329 331

ECMWFFLT2_sfc_thetae_066.txt.gz
Theta_e
294 293 296 295 296 287 292 294 289 291 295 293 290 295 290 288 286 287 288 293 300 304 300 310 317 315 314 315 316 316 316 317 318 319 320 325 332 334 334 334 335 336 338 339 340 339 338 338 337 336 337 338 339 340 342 342 344 344 344 346 345 346 346
294 296 295 294 295 295 290 289 289 295 296 293 289 285 283 281 281 284 291 294 293 294 292 303 314 312 312 313 313 315 315 316 316 316 318 320 322 331 335 336 336 337 338 339 340 340 339 339 338 337 337 338 339 340 342 342 343 343 344 345 345 345 345
292 295 293 292 296 297 291 292 297 291 288 289 288 287 282 282 282 285 290 292 294 293 293 299 310 310 310 311 312 312 313 314 314 315 317 319 322 327 334 335 336 336 337 338 339 339 340 340 340 338 338 338 338 340 342 342 342 343 344 345 346 346 346
291 292 292 284 288 294 295 294 290 293 291 289 286 289 285 287 281 283 286 289 289 296 296 299 312 311 310 311 311 311 312 313 314 315 315 317 318 321 330 335 336 336 337 338 339 339 339 339 339 339 338 338 337 339 341 342 343 344 344 345 346 345 346
290 286 289 286 287 285 288 289 286 288 288 292 290 289 288 287 282 281 284 283 289 294 301 303 313 312 312 311 310 311 312 313 314 315 315 316 317 318 321 334 336 336 337 338 339 340 340 341 341 341 338 337 337 338 340 342 342 342 343 344 345 346 346
285 287 291 291 291 290 288 287 285 286 284 285 284 285 289 288 283 279 283 283 291 296 305 311 317 315 314 313 311 311 311 312 312 313 314 316 316 317 318 322 332 339 337 338 339 340 340 340 340 340 339 338 337 338 339 341 342 342 342 344 345 346 346
285 289 292 294 293 292 291 290 287 289 288 286 282 281 286 286 288 291 288 285 288 299 308 316 318 318 316 314 312 311 312 312 312 313 314 315 316 317 317 319 321 324 334 342 338 338 339 339 340 340 340 338 338 338 338 340 341 341 343 344 345 346 346
287 290 292 294 294 291 288 290 291 289 286 286 286 284 288 285 285 284 283 284 287 299 311 314 316 318 316 315 313 311 311 312 313 312 313 313 314 315 317 319 319 321 323 325 329 336 342 339 339 340 340 340 339 338 338 339 340 342 342 344 345 346 346
282 283 286 288 290 291 287 286 289 289 289 289 289 288 289 284 286 286 281 281 287 296 310 312 312 313 312 311 312 311 309 311 312 313 313 313 314 314 315 316 318 320 320 321 323 326 330 336 341 340 341 341 341 340 339 339 340 342 343 344 344 345 345
276 278 278 278 281 285 287 288 288 289 288 287 286 283 284 280 288 286 282 284 289 295 308 308 308 308 308 309 310 311 310 310 310 311 312 312 313 313 314 314 316 317 318 320 322 322 324 326 331 338 342 341 342 344 342 341 340 341 342 344 344 344 345
276 279 282 287 292 285 283 286 286 287 288 288 287 285 282 281 283 284 286 287 288 299 305 304 305 306 305 306 308 308 308 309 311 311 312 312 312 312 313 314 315 316 317 318 320 321 322 323 326 330 333 338 342 343 342 342 341 341 342 343 344 344 344
284 285 287 287 291 285 286 285 286 286 287 287 287 284 283 286 282 281 289 289 289 297 302 304 304 305 305 306 306 307 308 309 309 310 311 314 312 312 312 312 312 313 315 317 318 320 321 322 324 325 328 331 334 341 343 343 343 342 342 343 343 343 344
286 286 287 288 289 287 287 286 285 286 287 287 286 286 288 286 283 282 287 288 291 297 300 303 304 305 305 305 307 308 309 310 310 310 309 309 310 310 311 311 312 312 313 315 316 318 320 321 322 323 325 326 328 331 334 340 345 344 344 343 343 342 343
285 286 287 288 286 287 287 287 287 287 287 286 287 287 288 287 286 287 288 289 295 298 300 303 305 307 306 307 308 309 308 308 309 309 309 309 309 310 310 311 311 313 313 314 315 317 318 320 320 321 323 324 325 326 328 332 336 346 346 344 343 343 342
283 285 289 286 287 287 285 285 286 287 287 287 287 287 288 292 289 288 288 289 295 301 302 304 305 307 306 305 304 305 307 308 308 308 308 309 309 310 311 311 311 312 313 314 314 315 317 318 319 320 321 323 324 325 327 328 331 333 341 346 344 344 343
280 283 285 286 287 287 284 284 286 287 286 286 288 286 290 288 287 291 291 289 292 298 301 304 303 304 302 301 302 302 304 306 307 307 307 309 310 310 310 312 312 312 312 313 314 315 316 318 319 318 320 322 322 323 325 327 329 333 337 343 346 345 345
278 282 285 286 284 281 283 286 290 293 293 294 295 296 299 298 296 291 288 286 296 298 302 299 300 301 302 301 301 301 302 304 305 305 306 307 309 310 310 311 312 312 312 313 313 314 316 318 318 318 320 320 321 322 325 327 330 333 334 338 345 347 346
277 282 284 285 277 274 276 286 293 296 292 294 291 291 294 296 297 295 295 295 299 299 299 298 298 299 301 302 303 303 302 301 302 304 306 306 307 309 310 311 312 313 314 314 315 315 316 318 318 319 320 320 320 323 325 327 330 331 332 334 340 347 348
278 280 281 279 273 275 285 290 293 295 294 296 293 294 295 296 297 297 297 297 297 299 299 300 300 301 303 305 303 303 303 303 302 303 304 306 306 307 308 308 311 313 314 315 315 315 316 318 318 319 318 319 320 321 323 325 328 329 330 332 336 345 349
279 278 275 269 274 283 289 290 293 298 296 294 294 292 293 296 296 296 295 297 298 298 299 300 302 301 302 304 304 303 303 304 303 302 303 305 306 306 308 308 309 310 313 315 315 316 320 318 318 318 318 319 319 319 322 325 328 328 329 331 333 337 344
277 278 274 277 283 284 285 288 291 292 288 290 289 284 288 294 296 296 295 296 296 297 298 299 300 300 301 300 301 303 303 303 303 303 304 305 306 308 309 309 310 311 312 315 317 319 318 317 317 318 319 320 319 319 320 323 326 328 328 330 331 333 336
280 279 275 271 275 270 278 289 294 296 297 296 295 290 288 293 295 297 296 295 295 296 298 298 299 299 298 297 300 302 302 303 303 304 304 305 306 307 309 310 310 310 311 314 317 317 317 316 318 318 319 319 318 318 320 321 322 325 327 327 330 331 331
279 279 274 270 269 274 282 288 293 295 296 297 296 290 286 293 294 296 297 295 296 296 297 298 297 295 291 292 298 300 302 302 303 303 303 304 305 306 308 308 308 308 310 313 314 316 315 315 317 318 319 319 317 318 319 320 321 322 324 326 327 328 329
281 279 275 273 279 275 285 289 292 295 296 297 291 280 283 294 296 296 296 295 296 296 297 299 295 294 290 292 296 301 302 303 303 303 303 303 304 305 306 307 308 310 312 311 311 312 312 314 317 318 319 318 318 318 318 319 320 321 323 325 327 327 329
283 284 279 281 283 289 292 291 294 294 297 293 282 278 290 295 295 296 296 296 297 297 296 296 293 295 297 298 300 302 302 302 302 303 304 304 305 304 305 306 311 308 308 309 309 310 312 314 314 317 318 317 317 317 318 317 318 321 324 325 325 328 328
278 280 280 281 283 286 290 292 294 296 291 280 279 288 293 293 293 296 297 296 296 297 296 295 295 297 299 302 301 301 301 301 301 302 303 303 304 305 307 308 308 306 306 308 309 309 311 312 313 315 317 316 317 317 316 316 319 321 323 324 326 326 327
285 284 281 280 273 284 294 294 293 296 286 285 291 292 293 295 295 296 295 296 296 296 295 296 297 297 298 299 299 300 300 300 300 301 302 302 302 302 303 304 305 306 305 306 306 307 309 311 312 313 314 316 316 317 316 317 319 321 322 323 324 325 327
277 280 278 279 285 289 293 291 284 290 294 293 294 292 291 295 295 295 294 295 296 296 295 295 296 297 297 298 298 299 300 300 300 301 302 302 302 302 303 304 304 307 305 306 306 307 307 309 311 312 314 315 316 316 316 319 319 321 322 323 323 323 325
281 279 283 288 290 292 293 292 290 292 294 297 295 294 293 293 293 295 295 295 295 296 296 296 296 296 297 297 298 298 299 299 300 300 300 301 301 302 302 302 305 306 305 305 305 305 307 308 311 312 314 315 316 316 317 319 319 320 321 322 322 322 324
286 289 290 291 290 291 292 295 296 295 296 296 296 295 293 294 295 295 294 295 295 296 297 295 296 296 297 297 297 298 298 299 299 301 301 301 302 302 302 302 303 305 305 305 304 304 306 308 310 313 313 314 314 316 318 319 319 320 321 322 322 322 324
284 280 286 289 290 292 293 294 296 297 296 295 296 295 294 295 296 296 296 296 296 296 297 296 296 296 297 296 297 298 298 298 298 299 299 300 301 301 301 302 306 304 304 303 304 304 304 307 309 310 312 314 316 318 318 318 318 319 321 322 323 322 323
283 285 286 288 290 291 292 293 293 293 294 294 296 297 296 296 297 297 297 297 296 297 296 297 296 296 297 296 296 296 297 297 298 298 299 300 300 301 302 302 304 303 303 302 303 304 304 306 308 310 311 313 315 317 318 318 318 319 320 321 321 321 322
287 289 291 291 291 292 292 293 293 294 294 294 295 295 296 296 296 296 297 298 297 297 297 297 296 296 296 297 296 296 297 297 298 298 299 300 300 301 301 302 304 302 303 304 304 304 305 306 307 309 310 313 315 317 318 318 318 318 319 321 321 321 322
283 285 288 289 285 285 287 289 292 293 295 294 295 295 294 295 295 296 296 296 297 298 297 297 297 295 296 297 297 296 297 297 298 298 299 300 300 301 302 303 302 302 304 304 304 305 305 307 308 309 311 313 316 317 317 317 318 318 319 319 319 320 322
284 289 291 291 291 289 291 291 292 293 295 294 294 294 294 295 296 296 296 295 296 296 297 298 297 296 296 296 297 297 297 298 299 299 299 299 299 300 301 301 301 301 302 304 305 305 306 309 309 311 312 314 315 316 317 317 317 318 319 319 319 320 322
292 293 291 291 291 291 292 292 293 294 294 294 294 294 295 295 296 296 296 296 295 296 297 297 298 297 297 298 298 297 297 298 298 298 299 299 300 301 302 301 301 302 303 304 305 305 307 309 310 310 311 313 314 315 316 317 318 318 318 318 318 320 321
292 295 294 292 292 293 294 293 294 294 296 297 294 294 295 296 296 297 296 296 297 297 296 296 297 298 298 298 298 297 297 298 299 300 302 304 303 303 303 304 303 304 305 306 306 307 307 308 309 310 311 313 314 315 316 317 318 318 318 319 319 320 322

ECMWFFLT2_sfc_thetae_069.txt.gz
Theta_e
299 299 300 299 300 295 299 301 297 300 303 302 298 298 297 298 298 295 304 305 308 312 312 316 319 318 317 318 318 319 320 321 323 322 323 325 326 328 331 335 341 345 345 346 345 345 345 346 345 345 347 349 349 350 351 353 354 355 355 356 356 357 358
300 301 300 300 300 300 301 297 300 302 304 303 301 294 296 295 292 296 303 300 301 303 300 314 317 315 315 316 316 317 318 320 319 320 322 323 325 327 329 334 338 343 345 345 345 345 345 345 346 346 348 349 350 350 350 351 353 353 354 354 354 356 357
298 301 299 299 302 302 299 299 302 299 295 295 299 299 290 291 291 296 299 299 298 301 303 310 312 313 313 314 315 315 315 315 317 319 321 322 324 326 327 329 336 340 343 344 346 346 345 346 347 347 347 347 347 348 350 350 351 352 352 352 354 355 356
296 299 299 293 294 301 300 300 300 298 299 303 297 298 299 299 294 295 294 299 294 302 306 309 313 315 314 314 314 313 314 314 314 316 318 320 321 323 325 328 333 340 341 343 345 345 345 345 345 345 346 346 345 346 348 349 351 353 353 352 354 354 354
297 293 294 291 293 293 296 298 296 298 297 297 300 299 297 296 296 296 296 294 296 304 313 315 315 315 314 314 313 313 313 314 314 314 316 318 320 322 324 326 329 334 341 342 343 345 346 347 346 346 345 344 344 345 346 348 349 350 350 351 352 354 354
292 291 295 295 295 295 294 294 292 293 294 296 294 293 298 296 298 293 296 294 297 306 316 315 316 315 314 314 313 313 314 314 314 314 315 316 317 320 323 325 327 330 333 334 338 344 347 346 345 344 344 344 343 344 345 347 348 349 349 350 352 354 354
292 294 296 298 297 297 296 296 293 295 294 295 298 292 293 297 296 299 300 296 296 309 313 314 315 314 314 314 313 313 314 314 314 315 315 315 316 317 320 323 325 327 329 332 333 335 338 345 346 345 344 344 347 348 350 347 346 347 349 349 351 354 354
294 296 298 298 298 297 295 296 296 295 292 293 293 296 299 297 296 297 297 296 297 308 312 313 314 314 314 314 313 313 313 314 314 314 315 314 315 316 318 320 322 324 327 329 330 330 333 335 340 345 345 345 345 349 349 348 346 351 348 349 350 353 353
291 293 295 294 297 297 293 292 295 295 296 295 294 297 299 296 292 294 297 292 293 307 312 313 313 313 312 312 313 314 312 313 314 314 315 314 315 315 316 318 319 321 323 324 326 328 330 331 334 337 345 350 348 347 347 344 344 349 345 346 347 350 351
284 284 286 288 290 292 293 294 294 294 294 293 295 295 297 292 293 295 296 294 301 308 311 310 311 311 311 312 313 314 314 314 313 314 314 314 314 314 315 316 317 318 320 321 323 326 327 328 329 331 334 341 345 346 345 345 348 349 347 346 347 348 349
290 291 290 291 294 292 290 291 292 292 294 295 295 296 295 292 293 293 294 297 300 303 306 307 309 309 309 310 311 311 312 313 314 315 315 314 314 314 314 315 316 317 318 318 321 323 323 324 325 328 330 332 335 344 345 343 345 346 347 346 347 347 349
291 292 291 292 293 290 290 290 290 292 293 294 295 294 291 296 295 289 294 302 300 301 304 306 308 309 310 310 310 311 312 312 313 314 315 316 314 314 315 314 314 315 316 317 318 319 321 321 323 325 328 329 332 334 336 341 344 345 345 346 346 347 349
291 292 292 293 293 291 291 290 290 290 292 292 292 292 293 294 293 291 294 299 300 302 304 306 308 309 308 308 310 311 312 312 313 314 313 313 313 313 312 314 314 314 315 317 317 317 319 320 320 322 324 326 329 332 334 336 338 341 345 345 346 348 348
291 291 292 293 292 291 291 291 291 292 291 291 292 292 293 293 293 294 295 299 301 303 305 307 308 310 309 309 311 311 310 310 311 311 311 310 311 311 311 312 314 315 315 316 317 318 319 319 318 319 321 322 324 327 330 333 335 339 341 347 347 347 347
289 291 292 293 292 291 290 292 292 291 291 292 293 292 293 294 293 294 297 301 299 304 308 308 309 309 309 309 307 308 308 308 308 308 308 309 309 310 311 311 312 314 315 316 316 316 317 319 319 319 319 320 322 324 327 330 333 337 339 343 347 348 348
287 290 291 291 292 291 293 295 297 297 297 296 296 298 299 294 294 295 295 297 298 303 307 309 308 308 308 306 306 306 306 307 306 305 306 307 308 309 310 311 311 311 312 314 315 316 317 318 318 319 320 320 321 321 324 327 331 336 338 340 342 349 351
287 290 291 290 290 292 289 293 294 294 295 296 299 301 301 301 302 297 294 296 304 305 308 305 306 306 306 306 306 306 307 307 306 305 305 306 307 308 309 310 311 310 310 311 314 316 318 319 318 319 319 320 320 321 323 325 330 334 337 338 343 348 352
288 289 290 291 287 281 283 296 296 296 293 294 293 294 296 301 303 302 304 304 305 305 305 305 304 304 305 306 306 307 306 306 306 306 306 306 307 307 308 310 310 311 312 312 313 315 318 320 319 320 321 320 321 322 323 325 328 331 334 338 342 344 348
287 290 290 286 280 283 294 296 298 300 298 297 296 297 299 301 303 304 303 302 303 303 304 304 304 305 306 308 307 306 306 307 306 306 306 306 307 307 308 308 309 310 311 311 313 314 317 319 319 319 319 320 321 321 322 323 325 327 330 334 340 341 343
290 287 286 278 281 290 293 295 300 302 301 300 299 296 300 302 303 304 302 301 303 303 303 304 305 305 305 307 308 307 307 307 306 306 305 307 307 307 308 308 309 310 310 310 311 313 318 318 318 319 318 320 320 320 322 322 323 326 329 332 335 337 339
284 287 286 286 291 289 293 294 297 298 295 297 295 290 296 300 302 303 302 302 302 302 303 303 304 305 305 305 306 307 307 306 307 306 307 307 308 308 309 309 309 311 311 311 312 313 314 315 317 318 318 320 320 320 321 321 323 325 327 330 332 332 333
291 286 285 284 284 280 289 296 301 301 302 302 302 297 295 300 301 302 302 301 301 302 302 303 304 305 304 302 305 307 306 307 306 307 307 308 309 309 310 310 310 311 311 312 312 312 312 313 315 317 317 318 319 320 321 321 321 323 325 327 328 329 330
288 287 283 282 280 284 295 297 299 302 301 302 303 294 290 298 301 301 302 301 301 301 301 302 303 302 299 300 304 306 306 306 306 305 307 307 308 309 309 309 309 309 311 311 312 312 312 311 313 314 315 316 317 319 321 321 321 321 323 324 325 326 328
289 287 284 282 288 286 293 298 299 301 301 301 298 284 285 296 300 302 302 301 301 301 302 302 302 300 297 300 303 305 305 305 306 306 306 306 307 308 308 309 309 310 312 311 310 310 309 311 313 313 313 315 316 318 319 320 320 321 322 323 324 326 328
289 287 287 288 290 296 298 298 301 302 303 299 288 283 294 300 301 302 302 302 301 302 301 302 299 302 303 303 304 305 305 304 305 306 307 307 307 307 308 308 311 309 309 309 309 309 311 312 312 312 313 313 314 316 319 319 320 321 323 324 325 327 329
287 289 286 286 290 295 300 302 302 303 298 286 286 298 303 302 302 303 303 302 302 302 301 301 301 302 303 304 304 304 304 304 305 305 306 306 307 308 309 310 310 309 308 309 309 309 311 311 311 311 312 312 314 316 317 318 320 322 324 324 325 327 328
288 287 284 284 280 293 301 300 300 302 292 295 301 301 302 304 302 302 302 302 302 301 300 301 301 301 301 302 302 302 303 304 304 304 305 305 305 305 306 307 308 308 307 307 308 309 310 310 311 311 311 311 313 315 315 318 321 323 323 324 325 326 328
284 284 282 283 291 299 303 300 293 300 301 303 303 302 299 302 302 302 302 302 302 302 301 300 300 301 301 302 302 303 303 303 303 304 304 305 305 305 306 306 307 308 307 308 308 309 310 311 311 312 311 311 313 314 315 319 321 323 324 324 325 324 326
290 287 292 296 298 301 303 303 302 305 305 304 304 302 301 301 302 304 302 302 303 302 301 301 301 301 302 301 302 302 302 302 302 303 304 304 304 305 305 305 307 308 307 307 308 309 309 311 311 312 312 311 312 313 315 318 319 321 322 323 324 324 325
296 297 297 299 299 299 300 302 304 303 303 304 304 303 302 303 303 304 302 302 302 302 303 300 301 301 302 302 302 302 302 302 303 304 304 305 305 305 306 306 306 307 307 307 307 308 309 311 311 313 312 312 311 313 315 317 319 320 322 322 323 324 325
291 288 299 296 297 300 301 302 304 305 305 304 304 304 303 303 304 304 304 303 303 303 303 302 301 301 302 302 303 303 303 303 303 303 303 304 305 305 305 306 307 306 307 306 307 308 308 310 311 311 312 312 313 314 315 316 317 319 321 321 322 323 324
291 292 298 299 300 301 302 301 301 301 303 305 305 305 305 305 305 304 304 305 303 304 302 303 302 302 303 302 302 302 302 302 303 303 303 304 304 305 306 306 307 307 307 306 307 308 308 310 311 311 312 312 313 314 315 316 317 318 320 321 321 322 323
295 298 299 299 299 299 299 300 302 304 304 304 305 305 304 304 303 304 305 305 304 304 303 303 303 302 302 302 302 302 302 302 302 303 303 304 304 305 305 306 307 305 306 306 307 307 307 309 310 311 311 312 313 314 315 317 318 319 319 321 321 322 322
291 292 296 300 293 293 298 301 302 303 305 304 304 304 303 303 303 304 303 304 305 305 304 304 303 302 302 303 303 302 302 302 303 303 304 304 304 304 305 305 306 305 306 307 307 307 308 309 310 310 311 312 314 315 316 317 318 318 319 319 320 321 323
292 299 302 302 301 300 301 302 304 305 306 305 303 303 303 304 304 305 304 302 303 303 304 305 304 303 303 303 303 302 302 302 303 303 303 303 303 303 304 304 304 305 305 307 307 307 308 310 310 311 311 312 314 315 317 317 317 317 318 318 319 319 321
300 302 303 303 301 299 302 304 304 304 306 304 303 304 305 304 304 304 304 304 302 302 304 305 305 303 303 303 302 301 302 302 302 302 303 303 303 304 304 304 304 304 305 306 307 307 308 309 310 311 311 312 313 314 315 316 317 317 318 317 317 318 319
299 303 304 304 302 303 304 303 304 305 306 305 303 304 304 304 304 305 304 304 305 304 303 303 304 304 303 303 302 302 301 301 302 303 304 305 304 303 303 304 304 305 305 306 307 308 308 309 310 311 310 311 313 313 315 315 316 316 317 318 318 318 319

ECMWFFLT2_sfc_thetae_075.txt.gz
Theta_e
310 310 312 312 312 300 307 309 304 307 314 310 306 307 307 306 303 300 308 310 315 319 322 323 324 324 324 326 326 327 327 329 331 331 333 335 338 342 341 341 343 348 349 351 352 351 352 352 353 353 355 356 358 356 359 360 362 365 366 367 364 367 365
307 310 311 311 312 311 308 303 308 314 316 313 307 300 304 301 297 300 305 306 309 310 308 322 322 322 322 323 324 326 327 328 328 330 331 333 334 337 340 344 347 347 348 349 350 351 353 352 354 355 359 359 359 358 360 361 362 365 366 366 365 364 366
307 309 309 307 310 313 308 307 313 306 302 301 306 303 297 297 296 299 303 307 308 311 312 318 318 319 319 322 323 324 325 326 327 328 330 333 335 338 339 342 345 345 346 351 351 355 350 352 355 354 357 355 355 356 358 357 361 360 362 363 363 365 368
306 306 305 298 303 309 311 312 308 312 309 305 303 304 306 304 298 299 300 305 304 313 315 319 317 319 319 321 322 323 324 326 326 327 328 328 330 334 338 342 342 343 345 348 354 353 354 354 350 350 356 355 353 354 354 356 358 358 357 358 363 361 363
305 300 303 301 303 301 304 305 305 307 307 311 309 308 306 302 300 300 300 299 306 316 321 319 319 319 320 321 320 322 324 325 326 326 326 327 329 332 334 337 339 340 343 345 351 352 352 356 353 352 352 353 353 355 358 357 355 356 358 359 362 364 363
299 302 307 306 305 306 305 304 304 306 304 303 300 299 308 305 302 298 299 299 310 316 323 321 320 321 321 323 323 322 324 324 325 324 324 325 326 330 332 333 335 336 339 342 346 351 352 351 352 353 354 357 353 352 352 354 355 357 357 360 361 364 365
301 304 306 308 308 308 307 307 305 308 307 306 303 296 301 304 305 308 308 304 305 318 322 321 320 322 322 323 323 322 323 324 326 326 325 326 327 327 329 332 333 336 338 339 339 340 341 341 344 354 354 350 350 354 355 353 354 355 356 355 356 358 360
304 306 307 308 308 307 305 307 308 307 304 306 305 304 307 303 304 302 303 303 305 317 322 321 321 322 322 323 323 323 323 324 324 323 323 325 325 326 327 329 332 335 335 336 337 337 337 338 340 339 350 351 355 354 354 356 356 357 355 353 356 358 359
299 300 303 303 306 306 304 303 307 307 308 308 308 307 309 303 304 304 302 298 305 315 320 321 320 320 320 321 323 324 323 323 322 322 322 323 324 325 326 326 328 331 332 332 334 334 335 336 337 339 343 350 350 354 354 351 352 354 353 355 354 354 356
290 290 292 294 297 300 303 306 305 306 306 306 305 302 305 298 306 308 302 306 311 315 318 318 319 319 319 321 322 323 323 322 322 322 322 322 323 323 324 324 324 325 328 330 332 333 333 333 333 335 336 339 342 350 349 353 354 351 353 353 354 354 354
296 300 302 305 306 303 300 302 303 304 305 306 306 306 303 300 305 304 310 309 308 310 313 315 317 318 318 318 320 320 320 320 321 323 322 322 322 323 323 324 324 324 325 328 329 330 330 331 332 334 335 336 338 341 348 352 352 350 353 353 354 352 355
301 300 301 303 305 302 303 301 301 302 303 305 305 302 301 311 304 298 310 313 309 310 313 315 316 317 318 318 319 319 321 322 321 320 321 323 321 322 322 323 323 322 323 325 327 328 328 328 330 331 332 333 335 337 337 342 347 350 350 352 351 352 353
300 301 301 302 303 302 301 301 300 301 303 304 303 304 306 308 304 303 311 313 311 312 315 315 316 318 318 317 319 319 321 320 320 321 320 319 319 319 319 321 322 322 321 322 323 324 325 326 327 328 329 330 333 335 336 338 339 342 347 350 350 350 352
299 299 300 301 300 300 300 300 300 301 302 303 305 304 306 307 308 312 312 314 313 315 314 316 317 319 318 318 320 320 319 317 319 318 317 317 317 318 318 319 320 321 321 321 322 323 324 324 325 325 326 327 329 330 332 334 336 337 341 347 350 350 350
298 298 298 299 299 299 299 299 300 300 300 302 303 304 306 310 311 312 311 313 311 316 318 318 318 318 318 318 317 318 318 317 317 316 316 316 316 317 318 319 319 320 320 320 321 322 323 323 324 325 325 325 326 328 330 332 335 337 339 344 347 348 349
296 298 298 298 298 298 298 299 299 299 299 299 301 303 305 306 307 311 311 309 309 314 318 318 317 317 317 316 317 317 317 316 316 316 315 316 316 316 317 317 318 319 319 320 320 320 320 320 322 323 324 323 324 325 327 329 332 335 339 342 346 351 351
294 298 298 298 298 297 295 297 299 300 301 302 305 306 306 307 311 309 305 306 313 315 317 314 314 315 315 316 316 316 316 318 317 315 315 315 316 316 317 317 318 318 318 319 319 319 320 321 320 320 321 321 324 325 327 329 332 333 336 339 344 347 350
294 296 297 298 295 288 292 304 306 304 303 304 303 304 306 309 310 309 313 314 314 314 313 313 313 314 314 315 317 318 318 317 316 316 316 315 316 316 317 317 318 319 319 319 320 320 322 321 321 321 321 320 322 323 325 331 332 333 334 337 343 342 343
294 297 297 291 287 290 304 307 308 309 309 307 305 307 308 311 313 313 312 313 313 314 314 314 315 317 317 317 315 315 316 317 316 316 316 315 316 316 316 317 317 318 320 320 320 320 321 321 323 322 320 321 320 322 324 326 328 331 332 335 337 337 339
298 296 293 283 287 301 305 305 307 308 307 308 307 305 307 311 312 314 311 312 313 314 313 314 315 316 316 316 317 316 314 315 315 315 315 316 315 315 315 316 317 318 317 318 318 320 323 322 322 322 321 322 320 319 322 323 326 328 331 334 334 335 336
293 295 293 291 301 300 301 300 304 302 302 303 304 299 303 310 313 313 312 311 313 312 313 313 314 315 314 313 314 316 314 313 314 314 314 316 316 316 316 316 316 319 319 318 318 320 320 321 322 322 323 323 321 320 320 320 324 327 328 331 333 337 335
298 294 292 291 292 287 296 303 306 308 310 308 307 308 303 311 311 313 312 311 312 311 311 312 313 313 311 308 311 314 314 314 313 315 314 315 317 316 316 317 316 318 318 318 318 318 319 319 321 322 323 323 322 322 321 319 319 322 324 327 330 332 334
296 294 291 289 288 291 303 305 307 309 310 309 310 305 300 307 310 312 312 310 311 311 311 311 312 308 305 306 311 313 314 313 314 313 314 314 314 315 315 315 315 315 317 318 318 319 319 317 320 320 321 322 321 320 322 321 319 319 320 323 326 327 330
296 295 291 289 296 295 304 306 306 305 308 304 303 290 293 307 309 310 311 310 310 311 312 312 310 307 304 307 310 315 315 313 314 314 313 313 313 314 314 315 315 316 317 317 316 315 315 317 319 320 319 320 321 321 322 321 319 319 320 322 324 326 329
295 293 293 295 299 306 308 306 307 306 307 304 295 288 301 309 309 310 311 311 310 311 310 310 307 310 311 313 313 313 313 312 312 313 313 313 313 312 312 313 315 314 314 314 314 314 316 318 317 318 319 318 319 321 322 322 321 321 322 323 324 326 327
293 296 292 293 297 306 308 308 307 307 303 292 292 305 312 311 310 311 312 310 310 311 310 310 311 311 312 312 311 311 310 310 310 311 311 312 312 312 314 315 314 313 312 313 314 314 316 316 317 318 319 319 320 321 321 321 322 323 324 325 324 324 326
296 295 292 290 286 302 309 308 306 306 299 302 308 309 311 312 311 310 311 311 310 310 309 310 310 310 309 309 310 310 310 309 310 311 312 312 311 312 312 313 313 312 312 312 312 314 314 315 316 317 317 318 320 321 321 323 324 325 325 325 325 325 325
291 291 288 289 299 306 311 307 300 304 306 311 312 310 307 311 310 309 309 308 311 310 309 308 309 309 309 310 310 310 310 310 311 311 312 313 313 312 312 312 312 312 312 313 313 314 314 316 316 317 318 318 319 320 321 325 325 326 326 326 326 325 325
297 291 297 304 307 309 310 309 309 310 313 313 312 310 309 307 308 311 309 310 310 310 309 309 308 309 309 309 309 308 309 309 310 311 312 312 312 312 313 312 314 313 313 312 312 313 314 316 317 318 319 318 319 320 322 325 325 325 325 325 325 324 325
305 306 307 310 308 307 308 311 312 312 311 311 310 307 308 309 311 309 309 310 311 311 311 308 308 308 309 309 309 310 310 310 311 313 313 313 314 314 314 314 314 314 313 313 313 313 314 316 316 318 318 319 319 321 323 323 324 325 325 325 325 325 325
298 293 306 305 306 307 308 309 311 313 311 310 309 309 308 310 311 311 311 311 311 311 311 310 309 308 310 309 310 311 311 311 312 311 312 313 313 313 313 314 314 314 314 313 314 314 314 316 317 317 319 320 321 322 323 323 323 324 323 324 324 324 323
298 298 304 306 308 308 309 309 309 309 310 311 312 311 311 311 313 312 312 311 310 310 309 310 309 309 309 309 310 310 311 311 312 312 311 312 312 313 314 314 314 314 314 314 314 314 315 316 317 318 318 319 320 322 322 323 323 323 322 322 322 323 323
301 304 305 307 308 307 308 309 310 311 311 311 311 311 311 311 311 311 311 312 311 311 310 310 310 309 310 310 310 310 309 310 310 311 311 312 312 312 312 313 313 312 313 313 314 314 314 315 317 317 318 319 320 320 321 322 323 322 322 322 323 322 323
298 299 303 307 300 301 305 307 308 309 311 311 310 311 311 310 310 311 310 310 311 311 311 311 310 309 310 310 311 310 309 310 310 310 310 311 311 311 312 312 313 313 313 313 313 314 314 316 316 317 317 318 319 319 320 321 321 321 322 321 321 321 322
298 304 307 310 307 306 307 310 311 311 311 311 310 310 310 311 311 311 311 310 311 311 311 312 310 311 310 310 310 310 310 310 310 310 310 309 309 309 311 311 311 311 312 313 313 313 314 315 315 315 316 317 318 318 320 321 321 322 322 321 321 321 323
307 308 308 309 307 305 310 311 311 311 312 311 310 311 311 311 311 311 311 312 311 311 312 312 312 310 310 310 310 309 310 310 310 309 309 309 309 309 309 310 310 310 311 311 312 312 313 314 314 315 314 315 317 317 318 319 319 320 320 320 319 320 320
305 310 311 312 312 312 313 313 312 312 312 311 310 310 310 310 311 311 311 311 312 311 310 310 311 311 310 310 310 309 309 309 309 309 309 309 308 308 308 308 309 310 310 311 311 312 312 313 313 314 313 314 315 315 318 318 318 318 318 318 317 319 320

ECMWFFLT2_sfc_thetae_078.txt.gz
Theta_e
312 311 314 314 315 301 308 308 303 307 312 309 304 305 306 305 302 300 312 309 314 319 321 322 324 324 324 326 327 329 331 334 336 335 337 338 340 341 343 346 344 347 349 350 350 352 351 352 351 350 354 352 354 359 361 362 363 360 362 364 363 363 363
309 314 314 314 315 314 308 303 307 314 315 312 306 298 302 300 296 299 310 307 307 310 305 321 320 320 322 322 323 326 328 331 331 331 333 338 337 341 343 344 347 346 348 350 350 351 351 351 352 353 350 349 351 355 355 356 355 357 359 361 360 361 363
308 312 312 310 314 315 308 307 314 305 300 300 306 302 295 295 295 297 308 309 309 312 310 316 316 318 319 321 324 324 324 326 328 330 330 333 341 338 339 343 344 346 348 351 354 353 354 354 354 351 350 352 351 354 356 350 347 357 359 362 361 363 363
307 308 306 299 304 311 313 313 307 310 306 304 301 303 305 302 296 298 302 309 305 315 315 318 317 319 319 320 322 322 324 325 326 328 329 331 336 339 342 343 342 346 347 349 353 354 352 354 354 353 350 350 350 355 355 353 354 362 364 364 361 357 361
306 299 303 301 304 302 304 304 303 306 306 310 308 307 304 301 300 298 300 300 306 314 321 320 318 320 321 322 321 322 323 324 325 326 328 330 334 336 337 339 341 344 347 350 348 353 356 355 352 350 350 352 352 354 356 356 356 360 359 361 363 362 363
300 301 306 305 305 307 305 304 303 305 303 301 298 298 307 305 301 296 300 300 309 316 323 321 320 321 322 322 322 322 323 324 325 326 328 329 332 335 335 336 335 336 340 347 349 350 352 354 352 349 353 356 354 352 352 352 355 354 354 354 353 361 365
301 304 307 308 309 309 307 306 304 308 307 306 302 295 300 304 304 305 309 304 307 320 323 322 322 322 322 323 323 322 323 324 325 326 328 330 331 332 333 334 334 335 336 339 343 342 344 348 350 351 353 355 354 356 356 356 356 357 358 355 354 361 361
304 307 308 309 309 308 306 306 307 307 304 306 304 304 305 302 303 303 304 303 307 318 323 323 322 323 323 324 323 322 323 323 325 325 326 328 328 329 331 333 334 335 335 337 338 338 339 341 348 350 353 354 354 355 355 354 355 358 358 358 357 356 354
299 301 303 303 307 306 303 303 306 307 307 308 306 306 307 301 303 303 303 300 306 317 322 322 322 321 321 321 323 324 322 323 324 324 324 324 327 328 329 330 331 332 332 333 334 336 337 338 339 344 348 350 350 355 355 353 355 355 354 355 356 356 353
290 290 291 294 297 299 303 305 305 307 306 306 304 301 305 296 304 308 304 305 312 317 320 319 320 320 320 322 322 324 324 323 324 324 323 323 323 325 327 328 328 328 329 330 332 334 337 336 337 340 342 346 348 352 353 353 353 355 355 353 355 354 353
296 297 301 305 305 302 299 302 303 304 306 306 305 304 301 299 304 304 309 310 309 312 314 316 318 319 318 319 320 320 321 322 324 324 324 324 323 323 324 324 325 327 327 327 328 331 331 333 335 336 337 338 340 343 345 351 354 351 356 354 355 353 353
302 302 302 304 304 302 302 301 302 304 304 305 304 301 300 310 303 302 313 313 310 311 314 316 317 317 319 319 320 319 320 321 321 321 322 326 324 323 322 322 323 324 325 325 326 328 329 330 333 332 334 336 338 340 342 341 340 341 343 348 352 354 353
303 303 301 303 304 303 302 303 302 302 303 303 302 303 304 306 302 302 312 314 311 313 315 317 318 318 318 318 319 319 320 321 322 321 320 319 320 321 321 321 321 322 322 323 324 325 326 327 327 332 334 332 336 339 339 342 340 340 343 344 348 350 352
302 302 302 304 302 302 302 302 302 302 303 303 303 303 305 305 307 313 314 313 314 315 317 318 319 320 319 319 320 318 318 318 320 319 318 318 318 318 319 319 319 320 321 322 322 324 325 324 324 324 326 329 330 332 333 335 337 341 343 344 346 350 351
298 301 302 302 302 301 300 302 302 302 302 302 304 304 305 306 313 311 313 313 312 318 320 319 320 320 319 318 317 318 318 317 317 317 316 317 317 317 318 319 319 319 320 320 321 322 322 322 322 323 324 326 327 329 331 333 334 337 341 349 349 348 350
296 300 299 300 301 300 300 300 302 300 300 299 302 302 305 305 306 309 312 309 309 318 320 319 317 317 317 316 317 317 318 317 317 316 316 316 316 317 317 318 318 318 318 319 320 319 319 319 319 321 325 323 324 326 329 330 332 336 339 342 345 343 344
294 299 301 299 299 298 295 297 300 301 302 303 303 305 307 307 307 309 307 307 315 317 319 316 315 316 316 315 315 315 316 318 317 316 315 315 316 316 317 318 318 317 317 318 320 320 320 323 320 320 321 321 326 327 330 330 332 334 337 340 340 339 342
295 297 299 300 296 289 291 304 308 305 302 302 301 302 305 308 310 311 315 315 317 317 316 315 314 315 315 317 318 318 317 317 317 316 316 316 316 316 317 318 318 319 318 318 319 320 321 322 320 321 324 320 322 324 328 333 334 335 336 338 337 335 337
294 297 299 294 288 290 305 307 309 310 308 306 305 306 309 309 313 314 315 315 315 316 317 317 317 317 317 318 318 318 318 319 317 316 316 316 316 316 316 316 317 318 319 320 321 322 321 322 322 321 321 321 321 323 324 322 325 334 335 338 336 332 332
298 295 294 285 289 303 305 306 308 309 310 309 308 306 308 310 312 315 314 315 317 317 316 317 318 317 318 318 317 317 318 317 317 316 315 316 315 314 315 316 317 318 316 317 318 321 324 326 322 321 321 321 321 321 321 320 323 326 332 336 334 333 331
292 294 293 293 300 299 303 302 306 304 303 305 304 299 304 310 312 314 314 315 316 315 316 317 317 318 316 314 315 317 315 314 315 315 315 316 316 315 316 316 316 318 318 317 318 320 320 322 322 322 324 324 321 322 321 320 330 329 327 329 330 333 334
298 293 292 292 293 288 296 305 308 309 310 309 308 306 303 311 312 315 314 313 313 314 315 315 316 315 311 308 310 314 315 314 314 315 315 316 316 315 315 316 316 317 316 317 318 318 318 318 319 322 324 325 322 323 322 321 320 324 322 322 323 327 331
296 294 290 289 288 292 303 304 308 310 311 311 310 302 298 309 313 315 315 314 313 313 313 313 315 311 306 306 311 314 314 314 315 314 314 314 314 314 314 314 313 313 315 317 317 317 316 316 317 319 319 322 322 321 323 321 321 320 320 322 322 323 323
294 294 291 289 295 295 304 307 307 307 309 309 304 291 292 308 312 312 314 313 312 312 313 313 311 309 305 307 311 314 314 314 315 314 313 313 312 313 313 314 313 314 317 316 315 313 314 315 317 318 318 319 322 321 321 321 321 320 322 323 325 324 324
293 293 292 294 299 306 308 306 306 306 307 303 293 287 300 310 312 313 314 313 312 313 311 312 308 311 312 311 314 314 314 313 312 313 313 313 313 312 312 313 316 314 314 314 313 313 315 317 316 317 318 317 319 321 321 321 322 322 324 325 326 327 328
292 293 291 291 300 306 308 307 307 307 302 291 290 306 313 313 312 312 312 311 312 312 312 311 311 312 314 315 315 313 311 311 311 312 312 313 312 313 315 315 315 313 313 313 313 313 315 315 316 316 317 319 320 321 320 320 321 323 325 326 327 327 327
296 295 292 290 286 303 309 307 305 305 297 302 310 311 312 313 311 312 312 312 311 311 311 312 312 311 310 311 311 310 310 310 311 311 312 312 311 312 312 313 314 313 312 312 313 313 313 315 315 316 316 318 319 320 319 322 323 325 325 326 327 327 327
291 291 289 289 302 306 310 307 300 302 309 312 313 311 308 311 311 311 310 310 312 311 311 310 311 311 310 311 311 310 310 310 311 312 313 314 313 313 313 313 314 314 314 314 313 314 314 316 317 317 318 317 319 319 321 324 324 324 324 324 326 325 326
297 295 298 302 308 309 310 310 309 311 313 314 313 312 310 309 309 313 311 310 311 312 311 310 310 309 310 309 309 309 309 309 311 312 312 312 313 313 313 313 315 315 313 313 313 314 316 317 318 319 319 318 318 319 321 324 324 324 323 324 324 324 325
305 306 307 310 309 310 309 311 314 312 313 313 312 311 309 310 311 310 310 310 309 310 311 308 308 308 310 309 308 310 310 311 312 313 313 314 314 314 314 314 314 314 314 314 314 314 315 317 317 319 319 318 318 319 321 322 323 323 323 323 323 323 323
297 293 306 306 307 308 310 310 313 314 313 311 310 310 310 311 310 309 312 312 312 311 310 308 309 309 310 309 310 310 311 310 311 311 312 313 313 313 313 314 314 313 314 312 313 313 314 316 316 316 317 318 320 321 321 321 321 324 323 323 323 324 325
298 298 304 306 309 309 310 309 309 309 309 310 310 311 310 312 313 312 311 312 311 311 309 310 308 308 308 308 309 309 311 312 312 312 312 312 312 313 313 313 314 313 313 312 312 313 313 315 316 316 317 317 319 320 320 320 320 321 321 321 321 321 321
303 304 305 306 307 308 308 310 311 311 310 310 310 310 310 311 311 312 312 311 310 309 309 310 310 308 309 310 310 309 309 310 310 311 311 312 312 312 312 312 313 312 312 312 312 312 312 314 315 316 317 317 318 319 319 320 321 320 319 321 321 321 321
299 299 303 307 299 300 305 307 310 311 312 312 312 311 310 310 311 311 311 310 311 311 311 311 310 309 310 310 311 310 310 310 310 311 311 311 311 311 312 312 312 312 312 312 312 312 313 314 314 315 316 316 317 317 317 318 318 318 318 318 318 318 319
298 307 307 309 308 307 309 310 310 311 312 311 310 310 310 310 311 311 311 310 310 310 311 311 310 310 309 310 310 310 310 310 311 311 311 310 310 310 311 310 310 311 311 311 311 312 312 314 313 314 314 315 316 316 318 318 317 318 319 317 316 316 318
307 309 309 309 308 306 311 311 312 312 313 311 310 311 312 312 311 311 311 311 310 310 311 311 311 310 311 310 309 309 310 310 310 310 310 310 309 309 309 310 311 310 310 310 310 311 312 312 312 313 312 313 315 314 316 316 316 317 317 316 315 315 315
305 310 310 310 310 309 311 313 313 313 314 313 310 310 311 311 311 312 311 312 311 311 310 310 311 311 310 310 310 309 309 309 310 309 310 311 309 308 308 308 310 310 310 310 311 311 311 312 312 312 311 312 313 313 315 315 315 316 317 315 314 314 315

ECMWFFLT2_sfc_thetae_084.txt.gz
Theta_e
305 305 307 308 304 294 298 301 296 297 302 301 296 300 299 299 300 299 307 306 310 315 316 320 326 325 325 328 330 330 330 332 333 333 335 336 339 341 340 340 341 341 338 341 342 344 343 340 340 342 344 346 346 345 346 347 346 350 352 350 350 352 352
305 308 306 306 306 303 301 297 297 302 306 303 295 290 292 289 290 298 304 302 304 305 301 316 321 324 326 327 328 330 330 332 333 334 335 337 339 340 342 340 342 342 342 343 345 345 345 346 341 341 344 346 348 347 347 348 347 348 352 351 351 352 352
305 309 305 304 306 308 301 299 305 303 294 295 295 294 289 288 293 296 300 303 304 304 304 314 318 321 323 325 326 325 325 328 332 334 334 336 336 336 338 341 342 343 343 342 342 343 346 346 348 344 345 347 349 349 349 350 349 349 352 353 352 353 353
303 301 300 293 298 303 307 306 299 302 297 294 294 293 293 295 292 296 298 301 299 308 309 315 317 318 320 320 319 320 324 329 331 331 332 331 332 333 336 340 341 344 344 344 344 344 345 346 347 347 347 347 349 351 351 351 352 351 353 354 354 353 354
303 296 295 293 296 296 299 297 296 299 299 299 296 299 295 293 295 296 296 293 298 308 315 315 316 319 320 321 318 320 323 325 326 328 330 332 333 334 337 340 341 343 345 346 345 346 346 347 350 349 348 349 351 354 353 353 352 351 353 355 356 354 355
293 295 298 299 300 298 298 297 295 294 296 294 291 289 297 301 298 293 296 291 301 313 321 318 318 320 321 320 320 320 321 322 324 325 325 326 327 331 340 341 342 341 344 345 346 347 348 349 349 348 350 349 349 351 353 353 352 353 353 354 354 351 347
295 297 301 303 303 301 300 300 298 301 295 294 290 287 291 304 304 307 302 298 300 315 320 321 320 321 321 321 321 320 321 322 323 325 325 325 325 326 329 334 339 341 342 342 344 346 346 347 347 348 350 348 349 349 349 350 349 349 350 346 347 347 349
299 299 302 304 303 300 297 296 298 297 295 297 293 292 295 300 304 301 298 298 303 315 321 322 321 321 321 322 321 320 320 321 322 322 323 323 323 324 326 329 332 336 341 341 342 343 343 344 345 346 350 350 350 350 347 348 348 348 350 349 349 347 348
291 292 296 299 302 299 296 296 296 299 299 299 299 301 302 301 302 303 298 295 302 313 319 320 320 320 320 320 320 320 318 320 321 321 321 322 323 323 323 324 326 329 333 336 337 340 340 342 347 346 346 348 348 349 349 348 347 350 349 348 349 347 347
283 284 284 288 293 294 298 299 297 298 298 298 297 295 298 291 301 304 301 301 309 316 318 317 318 318 318 320 319 320 320 320 320 320 320 321 322 321 321 322 323 325 326 327 328 332 336 339 339 339 339 341 342 345 347 348 349 349 347 350 350 348 348
287 288 290 296 305 295 292 295 296 296 298 302 301 298 296 293 299 300 302 306 307 310 314 314 315 316 316 316 317 317 318 319 320 320 320 320 320 320 319 319 321 323 324 325 327 328 329 332 338 339 340 340 340 340 343 345 348 348 348 348 349 349 346
298 297 297 299 300 295 295 295 295 297 297 299 302 298 298 304 302 292 302 309 307 309 313 314 314 315 316 317 317 317 318 318 318 319 320 321 319 318 318 318 318 319 321 323 325 326 328 329 329 330 333 336 338 339 341 343 345 347 351 350 349 350 348
297 297 297 297 299 296 295 295 297 298 297 297 299 305 308 306 300 298 306 309 308 310 313 314 315 316 316 317 317 318 319 318 318 317 317 317 316 317 316 316 317 318 319 320 321 324 326 327 327 328 329 329 332 336 339 343 347 348 350 348 347 348 349
296 297 297 297 296 295 296 298 299 300 299 297 300 302 309 305 302 308 309 309 309 312 313 315 317 318 319 318 319 319 318 317 317 316 315 315 315 315 315 315 316 317 318 319 321 322 324 325 325 327 327 328 331 334 339 344 345 347 348 346 345 346 346
295 297 299 297 295 295 294 298 299 300 299 299 310 311 310 310 309 310 309 307 306 311 317 315 318 318 318 317 317 317 317 317 316 314 314 314 314 314 314 315 314 315 316 317 318 320 322 324 326 327 329 330 333 335 337 339 340 342 344 343 344 345 345
292 296 296 296 296 296 296 296 298 298 298 295 297 307 310 308 305 307 307 304 304 311 315 317 316 315 314 314 314 314 313 313 313 313 313 313 314 314 314 314 314 314 315 316 316 316 318 321 324 326 326 328 330 332 333 334 336 337 339 338 338 338 340
290 294 296 296 295 291 290 293 297 299 302 302 300 308 314 312 311 306 304 305 311 312 315 313 313 314 312 310 310 310 310 311 311 311 311 311 312 313 314 315 316 316 315 316 315 315 317 319 321 324 325 325 326 331 332 331 331 331 331 332 333 333 336
289 294 294 296 289 283 287 299 302 304 304 304 307 307 310 311 312 309 311 311 313 314 312 310 310 310 309 309 310 312 311 310 310 311 311 312 313 314 315 315 316 316 316 315 316 317 317 318 320 323 323 321 323 329 334 331 328 328 327 327 327 328 331
287 290 292 289 283 286 300 303 304 305 307 310 309 309 311 311 311 311 310 311 311 310 309 309 309 309 310 311 311 311 312 312 311 310 310 310 312 313 313 314 316 318 319 317 317 317 319 321 319 319 320 322 324 325 329 330 330 328 327 326 326 326 327
288 285 283 278 284 297 303 303 305 309 305 304 309 307 309 311 311 310 308 309 309 310 310 310 311 310 310 311 311 311 312 313 312 311 310 311 312 312 312 312 313 315 317 317 318 320 325 320 320 320 319 319 319 323 330 331 330 331 331 330 330 330 329
284 286 283 284 292 294 297 299 301 301 299 300 302 299 303 310 311 311 309 309 310 311 312 313 313 312 311 307 307 310 311 311 312 312 311 311 311 311 312 312 312 314 317 318 319 316 315 317 321 321 321 320 319 319 319 320 321 321 321 323 325 326 325
289 284 280 280 282 281 289 298 303 304 307 307 306 303 301 308 312 314 310 309 310 311 312 313 315 313 307 303 303 308 310 311 311 312 312 311 311 311 311 310 311 311 312 312 315 313 314 316 318 321 321 320 319 319 319 319 320 320 319 318 319 321 320
286 285 281 280 281 284 291 297 302 301 300 308 307 300 296 305 311 313 313 311 311 311 311 311 312 309 304 304 304 308 309 309 310 309 308 308 308 308 308 309 309 310 312 313 313 313 313 314 317 319 321 320 319 319 319 318 319 319 320 322 322 321 321
289 286 282 280 288 289 297 300 300 300 301 307 299 288 289 300 308 312 312 311 311 311 312 312 310 306 302 303 304 309 309 308 307 306 305 306 307 309 309 310 310 311 312 311 310 310 311 312 316 317 317 318 322 318 317 318 318 318 319 321 322 323 322
287 290 283 285 290 299 303 300 301 298 305 298 288 283 291 303 306 310 313 314 314 313 311 310 306 308 308 307 307 307 307 306 306 306 307 308 309 309 311 313 317 309 309 310 310 311 311 312 313 316 318 318 317 319 317 316 317 318 318 320 322 321 321
283 282 282 282 285 295 302 301 303 301 299 287 282 292 304 305 304 309 312 312 313 312 310 308 306 308 308 308 307 306 306 305 305 307 309 311 312 314 318 318 314 310 310 310 311 312 313 314 316 316 318 318 317 315 315 315 317 318 320 319 319 319 321
286 285 284 282 279 294 304 301 299 299 290 287 295 303 303 306 304 310 312 313 312 310 306 307 306 306 306 306 305 306 306 306 306 307 307 307 308 308 309 311 315 312 310 310 311 311 313 314 314 315 318 317 316 314 313 314 317 318 320 318 318 318 320
281 281 281 281 288 298 303 300 291 298 302 302 305 301 300 302 303 306 308 309 309 307 305 304 304 304 304 304 305 306 306 307 307 307 308 308 308 309 310 312 312 315 310 310 310 311 312 313 313 313 314 316 316 314 311 315 316 318 317 318 318 319 321
289 286 287 292 296 299 304 304 302 304 307 307 306 304 302 301 302 303 304 304 305 305 305 304 304 303 304 305 306 306 306 307 307 307 307 308 308 308 309 310 313 311 309 309 309 309 310 311 312 313 312 314 314 311 311 316 316 314 316 318 318 319 318
296 296 299 301 301 302 304 307 307 304 304 307 305 304 302 303 303 304 303 304 305 305 305 304 303 303 304 305 306 306 306 307 307 308 307 307 307 308 308 308 310 309 309 309 309 309 309 310 311 314 312 312 312 311 313 316 315 313 316 317 318 317 315
290 285 296 299 299 302 304 304 304 304 304 305 306 304 304 304 304 304 305 306 305 304 304 304 302 302 304 305 305 307 307 306 306 306 306 305 306 306 307 309 311 308 308 308 309 310 309 309 309 312 310 312 313 313 315 314 315 314 316 318 317 314 312
291 291 297 301 303 304 305 303 302 301 302 304 306 306 307 306 305 304 305 306 306 306 305 305 305 304 305 305 305 305 306 306 306 306 305 305 305 306 307 309 308 307 306 306 307 309 308 308 309 311 311 310 311 311 311 313 312 313 316 317 314 311 311
294 297 300 301 301 302 303 305 305 305 305 302 304 305 306 305 305 304 305 305 305 305 305 306 305 304 304 305 305 306 306 306 305 305 305 305 304 305 306 307 308 305 306 307 307 309 309 308 308 308 308 309 310 309 310 311 310 311 313 314 314 311 311
290 293 293 300 294 292 299 302 305 305 306 306 303 304 304 305 304 304 304 304 305 305 305 305 305 303 303 304 306 305 305 304 304 304 305 304 304 304 306 308 306 307 308 306 307 308 306 306 307 308 307 307 308 309 309 310 310 311 313 314 312 310 311
289 295 300 299 298 298 300 304 305 306 307 306 305 303 302 304 305 304 303 302 303 303 304 306 305 304 304 304 305 304 303 303 304 305 304 303 304 305 306 304 304 304 305 310 309 307 306 308 308 308 308 307 307 309 309 309 310 309 309 312 312 310 312
298 302 302 302 300 299 301 305 307 307 308 307 306 306 307 306 306 304 304 303 303 303 303 305 306 305 304 304 305 303 303 303 304 304 304 304 304 305 304 303 305 305 306 306 306 306 305 306 306 306 308 307 306 308 309 309 310 308 308 310 308 308 309
298 304 305 304 303 303 304 306 307 308 310 310 307 306 307 306 308 309 306 303 304 305 304 305 305 306 305 304 304 303 303 304 305 304 306 307 306 304 305 305 305 305 305 304 303 303 304 305 305 309 306 306 307 308 308 309 309 309 309 310 308 307 308

ECMWFFLT2_sfc_thetae_087.txt.gz
Theta_e
301 303 304 304 302 292 296 298 293 296 303 304 296 300 301 304 301 299 304 303 306 312 315 319 322 324 325 328 330 331 332 333 334 333 334 336 334 338 338 338 339 340 339 338 335 334 334 335 335 335 338 341 341 341 343 343 344 344 346 347 347 348 348
302 303 304 304 303 300 298 294 296 300 304 301 294 289 292 291 292 296 301 300 301 301 301 316 321 321 323 325 327 329 331 332 332 332 332 335 337 338 340 340 341 342 342 341 341 338 336 336 336 336 338 342 342 342 343 343 344 344 345 346 347 348 348
300 303 303 301 305 303 298 297 302 298 294 295 295 294 289 290 292 294 298 301 301 300 303 312 316 317 318 320 324 326 328 330 329 330 332 335 337 338 339 340 340 342 342 341 342 341 342 341 339 338 339 342 343 343 344 344 344 346 347 347 347 349 349
299 298 296 292 295 302 303 301 299 301 298 294 293 292 290 299 294 296 296 299 296 304 306 316 315 318 318 322 324 325 327 328 329 329 332 334 334 336 338 339 340 342 344 345 344 343 342 343 343 342 343 343 343 344 345 345 346 347 348 348 348 348 350
298 295 293 292 294 294 298 294 293 298 298 299 298 296 296 297 296 296 296 295 298 304 312 315 317 317 320 322 321 321 322 326 329 330 331 332 334 336 337 338 340 343 345 346 346 347 347 346 348 346 345 348 351 350 348 349 346 348 349 350 350 350 352
289 292 295 298 297 297 295 292 295 292 294 294 290 289 296 302 298 294 296 291 296 307 320 318 318 320 321 322 320 320 320 322 324 327 330 331 332 335 338 340 342 345 346 346 347 347 347 347 346 346 348 348 348 347 347 347 348 349 350 350 350 350 349
294 296 299 301 299 299 297 295 296 295 293 291 286 285 291 301 302 305 299 297 297 312 318 319 319 320 321 321 321 320 320 321 322 324 326 328 330 333 339 341 341 342 342 344 345 346 345 346 346 347 345 345 347 347 347 346 347 348 350 350 350 350 348
296 297 297 301 301 296 295 294 294 294 293 296 292 289 293 298 300 298 295 296 301 313 318 318 318 319 320 320 320 319 320 321 322 322 323 324 324 327 330 334 338 340 339 340 340 341 342 343 345 346 343 345 345 346 347 346 347 348 349 349 350 350 349
289 290 294 295 299 299 294 293 294 294 295 298 296 299 300 299 300 299 298 294 301 310 319 318 318 319 318 318 320 321 319 320 320 321 321 322 323 324 325 326 330 334 336 336 337 338 339 343 344 344 343 343 344 345 346 346 347 348 349 349 348 349 350
283 282 281 286 291 293 295 296 294 296 294 297 297 299 296 290 299 300 298 299 307 313 316 316 317 317 316 318 319 320 320 319 319 319 320 320 321 321 323 325 326 327 329 330 331 332 334 337 339 341 344 344 344 344 345 346 346 347 348 349 349 348 349
288 288 289 293 304 293 291 293 295 296 295 299 298 296 294 293 297 298 299 304 307 310 313 313 315 315 314 315 317 317 318 318 318 318 318 318 319 320 322 323 324 325 325 326 328 330 331 334 338 339 340 343 345 344 345 345 346 347 348 348 348 347 348
297 297 296 296 301 294 295 295 295 297 296 296 298 294 292 301 301 293 299 308 306 308 312 313 313 314 314 315 316 316 317 317 317 317 317 319 316 317 319 320 320 321 322 324 325 327 328 329 332 334 338 341 342 343 343 345 345 346 347 348 346 346 346
296 296 295 294 297 296 298 296 297 296 297 298 302 301 302 304 298 297 303 308 307 309 313 314 314 314 314 315 316 317 317 317 316 315 314 314 314 315 316 317 319 320 321 322 323 325 327 330 330 331 333 336 339 342 344 345 346 347 347 346 345 345 344
295 296 296 295 294 296 297 297 298 298 300 306 304 305 306 303 299 304 308 308 306 310 313 314 315 317 316 316 316 316 316 315 315 313 313 312 313 314 315 316 317 318 319 321 322 324 326 328 330 332 333 335 340 342 343 344 345 346 346 346 347 347 346
293 295 297 296 296 297 296 297 298 298 298 306 307 307 308 310 308 309 309 306 306 308 314 316 318 317 317 316 314 314 314 314 314 312 311 311 311 312 313 314 315 316 317 319 321 323 325 327 329 331 332 334 336 339 341 343 343 345 346 345 345 346 345
290 293 294 294 295 296 297 296 297 297 297 295 300 303 307 305 304 306 306 304 303 309 315 316 316 315 315 313 313 313 313 313 312 311 310 311 311 312 312 313 313 314 316 317 319 321 323 325 327 329 330 333 333 332 333 335 340 344 343 343 341 343 344
288 292 293 293 292 291 292 293 295 297 298 300 304 309 311 310 310 306 303 304 310 312 316 313 313 314 314 313 313 312 311 311 311 310 311 311 312 312 313 314 313 312 314 316 318 319 321 322 322 325 330 331 329 329 328 329 332 333 335 337 338 339 340
288 293 293 293 287 284 287 296 300 301 302 305 305 304 307 309 309 306 308 310 312 314 314 312 312 313 313 314 312 313 312 310 310 310 311 312 313 313 313 313 313 313 314 315 317 318 319 320 323 325 329 330 329 328 327 327 327 327 328 329 330 331 334
290 293 292 289 282 287 297 302 303 303 306 309 307 306 306 307 310 311 310 311 312 313 313 313 311 309 310 310 310 311 311 311 310 309 310 311 313 313 313 313 314 314 314 315 316 317 319 322 322 322 322 325 328 328 327 326 327 327 327 327 327 328 328
289 290 287 281 283 296 300 300 303 306 302 301 306 305 307 307 307 310 310 310 307 307 307 308 309 309 309 310 310 310 311 311 310 309 309 310 311 311 313 314 315 315 315 314 316 319 324 321 320 319 319 323 325 324 326 327 327 325 323 322 321 321 321
282 286 287 288 295 294 295 297 299 299 294 295 298 296 301 306 308 308 307 305 306 306 306 308 308 309 309 306 306 310 310 310 311 310 309 309 309 310 312 314 313 314 314 315 318 319 318 318 318 319 320 320 319 319 319 319 319 319 319 319 320 320 320
284 282 282 284 285 284 290 297 301 305 304 302 301 301 299 305 308 310 306 305 305 305 306 307 308 309 305 301 302 307 310 311 309 309 309 309 309 309 310 311 312 313 314 316 318 317 317 318 318 319 319 320 319 318 318 319 319 319 320 319 320 321 320
283 281 278 280 282 287 293 298 302 302 299 299 304 299 294 302 308 311 309 308 308 306 305 306 308 306 300 299 302 305 309 309 308 307 306 307 307 308 309 310 311 313 314 315 315 316 316 316 317 319 319 318 317 317 317 316 317 316 317 319 319 319 320
285 281 279 280 284 290 298 301 301 301 300 303 299 289 289 299 308 311 311 310 310 310 311 310 306 302 300 300 303 307 309 308 306 305 306 306 307 308 309 310 311 312 314 314 313 313 313 314 318 318 319 319 320 316 316 316 315 316 316 317 317 318 320
288 289 280 282 285 296 301 301 301 301 303 298 288 281 289 300 307 310 310 311 312 311 310 309 305 306 305 305 306 308 306 304 305 306 307 307 308 309 310 312 317 311 312 312 312 313 314 316 318 318 317 315 315 317 315 313 314 315 316 317 317 318 319
282 280 281 281 282 290 298 301 302 301 297 285 282 290 297 300 305 309 311 311 311 312 311 310 311 313 314 313 309 309 306 305 305 307 308 310 311 313 316 317 314 310 310 310 311 311 313 316 317 315 314 314 313 313 312 312 313 315 316 316 317 318 319
283 281 281 279 277 292 302 301 297 299 290 286 289 296 300 303 303 309 310 311 311 312 311 311 312 313 311 307 306 304 304 306 307 308 307 307 308 309 309 311 314 311 309 309 310 310 311 313 314 316 315 314 313 311 310 311 314 314 316 316 317 318 319
279 281 279 282 287 291 299 299 292 296 299 299 299 298 298 300 303 309 310 310 311 312 310 307 306 307 306 305 304 304 305 306 306 306 306 307 308 308 310 310 311 312 308 308 309 309 311 312 312 313 314 313 314 313 308 312 314 315 315 316 316 316 317
288 286 285 289 293 295 298 302 299 299 303 305 304 300 299 300 302 303 309 308 305 305 307 305 304 303 304 304 305 305 305 305 306 306 306 307 307 308 308 309 312 309 307 307 307 308 308 310 311 311 312 313 313 310 309 314 314 312 315 317 315 313 312
294 294 295 298 298 298 302 301 302 301 302 304 302 301 300 301 301 304 305 305 307 308 309 307 307 305 304 304 304 305 306 306 306 308 307 308 308 308 308 308 309 308 308 307 307 307 307 309 310 312 310 310 310 309 311 313 312 313 316 316 315 312 311
288 285 291 297 298 299 301 301 302 302 302 302 303 301 300 301 302 304 307 308 308 309 311 309 308 308 310 305 305 305 305 306 305 305 305 306 306 307 306 308 309 306 307 307 307 308 307 307 309 309 308 308 309 309 311 310 311 313 314 315 314 311 309
289 290 294 298 299 301 302 301 301 301 302 302 303 303 303 302 303 303 303 305 305 307 306 308 308 308 310 309 305 304 305 304 304 304 304 304 304 306 307 307 307 305 305 305 307 307 306 305 307 307 307 306 306 307 308 309 309 312 314 315 311 308 309
292 294 295 296 298 300 299 301 302 302 303 301 301 302 302 302 302 302 303 303 303 304 304 306 307 307 307 306 305 304 304 304 303 303 303 304 304 305 305 305 306 303 304 306 307 308 306 304 305 305 305 306 307 306 307 308 309 311 313 313 311 308 309
288 291 293 297 293 291 297 299 302 303 304 302 302 302 301 302 301 302 302 302 303 304 305 305 306 305 305 306 306 305 305 304 304 303 304 304 304 304 305 306 303 305 306 305 307 306 303 303 304 304 304 305 306 307 307 308 309 311 311 311 307 307 308
288 293 293 295 294 292 296 299 303 304 305 303 304 303 302 303 302 303 301 301 301 302 303 305 305 304 305 304 305 305 304 304 304 304 304 303 303 304 304 303 302 304 305 308 307 306 304 306 306 306 305 305 304 306 307 307 308 308 308 309 308 306 309
295 297 297 298 298 300 301 302 303 305 305 304 303 304 304 304 304 303 301 301 302 301 302 303 304 304 304 304 305 304 303 303 303 303 303 304 304 305 303 303 305 306 305 305 304 305 303 305 304 304 306 305 304 306 307 306 306 305 307 308 306 306 307
299 301 300 300 300 300 300 300 303 305 307 307 305 303 304 304 306 304 302 301 302 302 301 303 303 304 305 304 304 304 303 303 304 304 305 307 305 303 303 304 304 304 304 303 302 302 303 302 302 306 303 304 305 306 306 307 306 306 306 307 305 304 305

ECMWFFLT2_sfc_thetae_090.txt.gz
Theta_e
299 300 300 299 299 290 293 300 296 300 308 304 295 300 300 301 298 299 304 302 305 310 314 319 323 324 325 327 329 330 331 333 332 332 334 335 336 337 339 339 337 331 331 332 333 333 334 336 336 337 339 341 342 343 344 344 344 345 346 347 346 347 347
299 299 300 300 301 298 295 291 297 299 302 302 298 291 290 291 290 294 303 301 300 300 300 314 320 321 324 325 327 329 330 331 331 331 332 334 336 337 339 341 340 338 334 332 333 334 334 335 336 337 339 342 342 343 344 344 344 343 345 346 346 347 347
299 300 301 299 302 302 298 296 301 298 293 295 293 295 288 289 289 291 297 302 302 299 301 309 315 317 321 324 326 328 328 330 330 330 332 334 336 337 338 340 340 341 338 336 333 334 335 336 338 337 339 342 343 344 346 346 344 345 345 346 347 348 348
298 297 297 291 294 301 300 300 298 298 295 292 293 294 294 296 289 292 293 297 296 304 303 315 317 319 322 325 326 327 329 330 331 331 332 333 335 336 338 339 338 342 343 342 340 337 336 337 338 338 339 341 342 344 345 346 349 349 347 347 348 347 348
296 294 293 293 294 293 296 294 295 297 295 298 296 294 297 294 292 290 291 291 296 301 310 315 317 319 324 327 327 328 329 330 331 332 333 334 335 336 338 339 341 343 345 346 345 344 342 344 345 343 342 343 345 346 345 347 346 348 348 348 348 348 349
289 290 294 295 294 297 296 293 293 292 290 292 291 289 297 300 295 291 292 289 295 303 319 318 319 322 324 327 327 327 329 330 331 332 333 334 335 337 339 341 342 344 345 345 345 345 346 344 344 345 347 347 345 345 345 345 344 349 350 349 349 349 350
292 297 298 298 298 296 294 293 293 292 292 292 288 285 291 299 300 302 296 294 298 311 317 320 322 324 324 325 326 327 328 328 329 332 333 332 334 337 339 342 344 344 344 345 345 344 344 344 343 344 347 346 346 346 346 346 345 346 351 351 351 351 351
294 295 295 298 296 294 294 293 291 292 293 293 290 288 295 298 299 296 294 293 297 311 319 320 320 322 322 323 326 324 324 325 327 326 327 329 332 336 340 341 341 340 341 342 342 342 343 343 343 344 346 347 346 346 346 346 346 347 350 351 351 351 351
288 289 291 295 297 296 292 292 292 294 294 297 295 299 299 299 299 298 296 291 296 308 317 319 320 321 320 320 322 323 322 323 324 325 326 327 329 333 336 337 337 337 337 337 339 341 341 343 344 344 344 344 345 344 345 346 346 348 349 350 349 350 351
282 282 281 285 288 290 293 295 293 295 300 301 301 299 296 291 298 298 294 293 301 314 317 317 319 319 318 320 321 322 323 322 322 323 325 326 328 328 330 330 330 329 331 333 336 338 341 344 343 342 342 344 345 345 346 347 348 348 349 350 349 349 350
286 287 288 292 302 289 290 293 293 294 293 300 297 295 293 293 296 298 296 300 306 310 313 314 316 318 317 318 319 319 319 319 320 321 323 324 325 326 326 325 326 327 329 331 334 337 339 341 343 343 342 343 344 345 346 348 349 348 348 348 349 348 348
294 294 294 294 301 293 294 293 294 297 297 297 297 295 292 297 301 293 296 305 306 309 313 314 315 317 318 318 318 318 317 317 318 319 321 323 322 323 324 324 324 325 327 328 329 330 333 336 340 343 344 344 344 345 345 346 347 349 349 349 348 347 347
294 295 294 294 295 295 295 295 295 296 300 299 298 298 299 300 296 295 299 306 306 310 314 315 316 318 318 318 316 317 316 316 316 317 319 319 319 320 321 322 323 325 325 325 327 328 330 334 336 339 342 343 344 345 345 345 347 348 349 348 347 346 344
294 295 295 294 295 296 296 296 296 296 301 305 304 304 305 304 299 298 303 307 306 311 315 316 317 319 319 317 317 315 314 315 315 314 315 317 317 318 319 320 323 324 325 325 326 328 329 331 333 336 338 340 341 342 343 345 346 348 347 345 344 343 342
291 294 297 295 293 295 296 296 297 297 298 300 304 305 307 307 305 306 307 306 305 310 317 317 318 319 317 316 315 313 313 313 313 312 313 313 314 315 317 318 319 320 322 324 327 327 329 330 332 334 336 338 341 343 342 343 344 345 345 344 345 345 344
291 293 294 294 295 295 297 295 296 296 297 298 297 300 305 302 301 303 305 303 303 310 316 317 317 316 315 313 312 312 312 312 312 311 311 311 312 314 315 317 318 320 321 324 325 325 326 329 331 332 332 335 337 338 340 341 342 344 343 342 342 342 344
290 293 294 293 293 293 292 292 295 296 298 301 300 305 307 306 307 304 302 301 307 313 316 313 313 314 313 312 312 311 311 311 310 310 310 311 312 313 314 316 317 319 320 320 320 319 321 324 326 330 330 329 329 331 332 334 336 335 336 338 338 339 340
289 293 293 293 289 286 287 298 300 300 301 303 302 301 303 305 306 305 306 307 311 314 314 312 311 312 312 313 313 314 311 309 309 310 310 311 312 313 313 314 315 317 318 318 319 321 323 326 328 329 332 329 330 331 330 330 329 329 328 329 330 331 332
289 292 292 289 282 285 297 300 302 302 303 302 305 304 305 305 306 309 309 311 312 312 314 314 313 313 313 314 312 312 312 311 310 310 311 311 312 312 313 314 315 316 317 319 321 322 322 323 324 326 327 328 329 326 325 323 323 323 322 323 323 323 325
289 288 286 281 283 294 299 301 302 305 298 296 304 305 305 306 306 307 304 304 307 310 311 312 312 311 311 311 312 311 312 312 311 311 310 311 312 312 314 314 315 316 317 319 320 320 324 322 321 321 321 321 321 321 323 322 322 322 323 323 323 324 323
284 287 288 288 293 294 295 296 299 299 293 293 294 296 301 307 308 306 304 304 306 307 308 309 309 310 310 307 306 309 310 311 312 312 311 312 313 314 315 314 314 317 319 319 320 321 320 320 320 320 321 321 320 320 320 320 320 321 321 321 322 323 323
285 284 283 285 287 283 288 297 301 303 303 301 299 302 299 306 309 309 306 305 305 306 307 308 309 310 306 302 304 308 309 309 308 308 309 310 311 311 313 315 316 317 318 319 321 319 319 319 320 321 321 320 318 318 317 318 318 318 318 319 321 322 322
282 283 281 282 284 288 294 296 300 302 300 298 300 298 293 302 308 308 307 306 306 307 307 307 309 307 302 301 303 307 308 307 308 308 308 309 310 311 313 314 314 315 316 318 319 320 319 318 319 320 319 318 317 317 317 317 317 317 317 319 319 320 321
285 280 280 281 285 290 298 300 301 302 301 301 294 286 288 300 306 309 307 306 306 307 308 308 306 305 301 301 304 308 307 306 307 307 307 308 309 310 312 314 316 318 320 318 317 317 317 318 319 319 319 318 319 316 316 316 316 316 317 318 319 320 321
286 288 280 283 286 296 300 301 302 303 305 296 285 280 290 299 304 310 309 308 309 309 308 309 306 304 306 308 307 306 305 305 305 307 308 309 310 310 312 315 318 314 314 315 314 315 316 317 318 318 317 316 316 316 315 315 315 316 317 319 320 319 320
282 281 281 281 283 289 296 301 303 303 299 289 284 291 297 300 304 308 310 308 309 310 309 310 308 306 307 308 306 305 305 305 305 307 308 309 311 313 317 318 315 313 313 313 313 313 315 316 316 316 316 316 315 314 314 314 314 316 318 318 318 317 317
282 279 279 278 278 292 300 301 299 302 293 291 294 298 300 303 302 307 310 310 311 311 309 309 307 307 308 307 306 305 305 305 306 307 309 310 310 310 310 312 315 313 312 311 311 312 313 314 315 315 315 314 314 314 313 314 315 317 318 316 316 316 317
279 280 279 281 285 290 296 299 294 300 301 302 300 301 300 301 302 305 309 310 311 311 310 308 308 308 309 309 308 306 305 306 308 309 309 309 309 309 311 311 312 313 311 311 311 312 313 314 314 315 315 314 315 313 312 315 317 319 316 314 314 315 317
286 285 283 287 289 294 296 299 299 298 302 303 304 301 301 302 303 307 310 309 305 308 309 308 307 306 309 306 305 305 306 307 307 308 309 309 309 309 309 310 313 311 309 309 309 310 311 313 313 313 314 314 313 311 312 317 317 316 316 316 314 313 313
293 293 294 296 297 297 300 300 301 300 301 302 302 302 301 301 302 305 310 306 306 306 306 304 304 304 303 304 304 305 305 306 307 309 308 309 310 310 310 309 310 309 308 308 309 308 309 310 311 312 310 311 311 311 313 315 315 316 316 315 314 313 314
288 286 291 295 298 298 299 300 301 302 302 301 302 302 301 301 303 307 307 307 307 307 308 306 305 305 305 304 305 306 306 306 306 307 308 308 309 308 308 309 310 307 308 308 308 309 307 308 308 308 309 311 312 313 313 313 315 316 315 314 314 312 311
289 291 294 297 298 298 300 299 300 300 301 301 301 301 302 303 303 306 307 309 308 309 307 306 306 306 306 305 305 305 306 306 307 307 307 307 307 308 309 309 309 308 307 307 308 308 307 306 307 308 308 308 309 310 311 313 314 315 316 313 310 310 310
291 293 294 294 297 299 298 299 301 301 301 301 302 301 301 301 301 302 303 305 308 308 307 306 306 305 305 305 305 305 305 306 306 306 307 308 308 308 307 308 308 307 308 308 308 308 306 306 306 307 307 308 308 309 310 312 314 315 314 313 312 310 310
288 292 293 294 293 291 297 300 301 303 303 302 302 303 303 302 301 300 302 303 305 305 307 307 307 305 306 307 306 305 306 306 306 306 306 307 307 307 307 308 307 309 310 308 308 307 305 305 306 307 306 307 308 309 310 311 314 315 314 312 310 310 312
286 291 293 294 294 291 293 298 303 301 303 302 303 303 303 303 302 301 302 302 302 304 305 307 307 306 305 305 306 305 305 306 306 307 306 306 306 306 306 305 306 307 308 310 308 307 305 307 308 308 307 306 307 309 310 310 311 312 313 312 311 309 312
293 295 295 296 298 300 302 301 301 303 303 303 303 303 303 303 304 302 301 302 303 302 303 305 307 306 305 305 306 305 305 305 305 305 306 307 307 306 306 305 306 307 308 308 306 307 306 307 307 308 307 306 307 308 309 309 309 310 311 311 309 309 309
300 299 298 298 298 300 300 301 301 302 306 305 304 304 304 304 305 303 302 302 302 302 302 304 305 306 306 305 306 305 305 305 306 306 308 308 307 306 304 305 307 307 307 306 306 305 306 305 305 306 305 306 307 308 308 309 309 309 309 310 308 307 309

ECMWFFLT2_sfc_thetae_093.txt.gz
Theta_e
305 306 306 305 306 296 300 306 302 306 318 313 307 307 307 308 305 303 314 311 314 320 320 326 329 325 326 328 331 333 333 335 335 334 335 337 339 342 341 338 337 340 341 342 343 344 344 345 346 348 350 352 353 354 354 355 357 358 358 359 358 359 361
305 307 308 307 306 308 303 300 306 311 312 312 308 299 303 303 298 302 309 306 309 308 306 325 326 325 325 328 330 332 334 334 333 333 335 340 341 343 344 342 340 340 341 342 343 344 345 345 346 348 351 353 354 355 355 355 356 356 356 357 357 358 359
304 305 306 303 305 308 304 303 315 305 301 300 304 305 296 297 296 299 306 309 309 311 311 320 322 323 324 327 330 331 332 332 332 334 336 338 342 343 343 343 340 338 339 341 342 343 345 347 348 349 351 352 353 354 354 356 355 356 355 355 357 358 358
303 305 304 298 301 305 305 309 308 307 307 305 301 302 306 303 299 298 301 306 305 315 315 319 324 326 327 328 329 330 332 333 333 334 336 336 337 340 343 345 344 342 340 341 342 343 344 345 347 348 350 349 349 351 352 354 356 357 355 355 357 356 356
302 299 302 301 302 300 301 303 303 303 304 306 308 308 306 302 302 300 299 300 306 315 317 322 325 326 328 330 329 331 333 334 334 335 336 336 336 335 337 340 343 344 346 344 343 345 345 345 346 346 347 347 349 350 351 354 354 353 353 353 356 357 356
299 301 303 303 305 305 303 303 302 303 302 301 297 297 308 308 303 298 300 298 311 312 319 321 325 328 330 331 332 332 333 335 335 335 336 338 335 337 340 341 340 342 344 347 348 345 344 344 345 346 346 349 350 349 350 352 350 353 353 354 357 358 358
299 301 304 304 303 304 305 305 303 306 305 306 300 294 301 308 309 309 309 302 309 317 320 323 325 328 330 332 333 332 333 334 335 337 337 338 339 339 342 343 344 347 349 350 348 346 345 345 346 346 347 348 350 351 352 352 352 355 356 357 358 360 360
302 303 303 303 302 303 303 302 302 303 303 305 303 302 308 304 307 305 305 301 310 318 324 324 327 329 330 333 333 332 333 334 335 336 337 338 338 341 344 344 346 347 348 349 348 347 348 348 348 347 348 351 352 353 354 354 353 357 358 359 359 359 359
297 298 301 302 305 305 302 300 302 301 301 304 308 312 314 306 308 309 303 297 309 318 322 324 325 327 328 329 331 332 330 331 333 334 336 338 340 340 341 341 343 345 345 344 345 346 347 348 347 349 350 353 353 353 354 353 354 357 358 361 359 357 356
288 289 291 293 297 299 301 302 304 303 306 309 308 304 308 300 309 309 305 305 313 317 321 322 324 326 327 328 328 330 331 330 330 332 335 337 338 338 339 339 340 340 341 342 342 344 346 348 349 351 352 351 350 351 352 355 355 355 356 359 359 357 355
293 294 297 299 302 302 300 302 305 305 304 305 309 314 307 300 310 307 311 312 312 311 317 319 320 322 322 322 325 325 326 328 329 330 331 332 332 333 334 335 336 337 340 341 342 343 345 346 348 350 351 351 350 351 354 356 357 357 357 355 354 353 351
298 298 298 300 303 301 302 303 304 308 309 306 309 306 302 316 309 304 315 314 313 313 316 319 319 321 321 322 323 324 325 325 326 327 328 330 330 331 332 334 335 335 337 339 340 341 344 346 348 347 347 349 350 351 353 354 356 355 353 352 353 354 352
299 300 300 302 303 303 304 306 306 305 309 308 306 307 307 313 306 303 314 316 314 316 317 320 321 321 321 321 323 324 325 325 326 327 328 329 329 330 332 333 334 334 335 332 333 335 338 342 344 345 346 347 349 350 352 353 353 353 354 353 352 352 352
300 300 300 301 302 303 305 305 307 308 308 310 311 310 312 312 313 312 312 317 316 318 318 321 322 323 324 324 325 324 325 325 326 327 327 327 328 329 330 331 332 333 332 332 333 335 337 338 339 340 343 346 347 346 347 350 351 351 352 350 350 350 348
299 300 302 302 302 303 302 303 306 308 309 310 310 312 312 314 314 312 314 315 314 320 323 323 324 325 323 322 322 323 324 325 326 326 326 326 327 327 328 330 329 332 333 333 335 336 336 337 339 340 342 343 344 344 345 346 348 348 347 345 345 345 345
297 300 300 301 301 302 302 300 302 304 307 306 308 309 311 311 311 313 314 313 312 318 323 323 322 320 320 320 321 321 323 326 327 326 325 324 325 325 326 328 331 332 332 332 332 334 334 335 336 337 338 339 340 341 343 345 347 348 348 347 346 346 347
296 299 300 301 302 302 299 297 298 302 305 310 310 312 313 312 313 313 312 312 317 319 321 319 319 319 319 320 321 321 323 325 326 326 326 325 326 325 327 328 329 330 330 330 330 330 331 332 332 334 335 334 334 336 338 341 343 345 346 347 346 347 348
297 299 300 303 300 292 292 300 302 304 300 306 309 309 310 313 314 314 315 316 320 320 320 319 317 318 317 319 321 322 323 322 322 324 324 325 326 327 327 327 326 326 330 331 330 328 328 329 330 331 332 331 329 329 329 331 333 334 335 336 337 338 340
296 301 301 295 288 291 301 303 305 305 303 301 310 310 311 313 315 316 316 316 318 320 322 321 320 319 318 317 317 318 321 323 322 321 321 323 324 325 325 325 324 327 328 328 328 328 328 327 325 324 324 325 325 325 326 327 328 329 330 330 331 331 332
298 298 297 286 289 300 303 303 305 307 303 302 307 309 311 312 313 314 315 317 319 319 320 320 320 317 315 316 316 317 318 321 322 321 320 321 323 325 325 323 324 326 326 327 328 327 327 325 324 324 323 323 323 322 325 326 327 327 327 328 328 328 327
294 296 296 294 301 298 301 300 302 303 301 300 302 304 307 311 313 314 316 317 318 318 317 316 315 315 315 313 313 315 317 318 320 321 320 321 322 322 323 323 324 326 327 326 326 326 325 323 323 323 324 322 321 321 322 322 325 325 324 324 324 326 327
298 295 293 293 293 290 296 302 306 307 307 305 303 304 306 313 313 314 318 317 317 316 315 314 315 317 314 310 311 314 316 318 317 318 319 320 321 321 322 324 324 325 325 325 325 323 322 321 322 322 323 322 322 322 321 321 321 322 322 322 323 324 325
295 296 293 291 290 294 300 302 305 307 307 306 304 305 300 310 314 314 316 317 318 317 315 315 317 315 311 311 312 314 315 316 317 316 317 318 320 321 322 323 323 325 326 326 324 324 322 320 321 322 322 322 321 320 321 322 323 322 323 323 322 322 324
295 295 293 290 295 295 302 305 306 307 308 303 303 294 294 306 312 313 315 317 317 317 317 318 319 317 313 313 313 314 314 316 316 317 316 318 319 320 321 324 325 326 327 325 323 322 322 322 322 323 322 322 321 320 320 320 320 321 322 325 325 323 323
293 294 292 295 297 302 305 305 307 308 308 302 296 289 298 305 311 314 314 316 318 319 316 318 317 319 324 322 319 315 318 317 316 318 319 320 320 320 321 322 325 324 324 323 321 321 321 322 321 322 321 320 320 321 321 320 320 321 323 323 324 326 324
292 292 291 290 294 301 304 308 309 310 303 296 293 303 309 308 310 316 314 315 316 318 318 319 317 319 322 320 315 315 316 317 314 316 316 318 320 321 323 324 323 322 321 322 321 321 322 321 321 321 320 319 319 319 318 317 318 321 322 323 324 323 322
293 294 291 289 286 300 304 306 308 311 302 301 307 309 311 311 310 315 315 316 316 317 316 316 317 317 317 317 314 315 315 315 314 315 316 319 318 319 320 321 321 320 319 319 319 320 320 321 321 321 321 321 320 319 317 317 319 320 321 322 322 321 322
291 290 288 289 299 304 307 307 302 306 308 309 310 309 309 313 310 313 317 316 317 317 317 314 314 316 316 314 313 313 313 313 314 316 317 318 319 318 319 319 320 320 318 318 317 318 319 321 322 323 322 321 320 318 319 321 320 320 320 321 321 320 321
297 295 298 303 305 306 307 307 309 308 309 310 310 310 309 309 311 313 316 318 318 318 316 315 315 314 315 312 313 312 311 313 313 315 316 316 317 317 318 317 319 319 317 316 316 316 317 319 321 323 322 320 319 318 320 322 321 320 320 320 319 319 319
303 304 305 305 307 308 309 309 309 309 310 309 310 309 310 311 310 312 316 318 318 318 317 315 314 314 313 311 311 312 312 313 315 316 316 316 318 318 317 317 318 318 317 316 315 314 315 316 317 320 320 320 318 319 321 321 321 321 320 319 320 319 320
298 294 304 306 307 308 309 309 310 310 311 310 310 311 310 310 311 315 317 318 319 318 317 316 314 312 313 312 312 313 313 313 314 315 315 316 316 316 316 318 318 317 317 316 315 314 314 315 315 316 318 318 320 321 321 320 320 320 319 318 318 319 319
299 300 305 306 307 308 309 309 310 309 310 310 311 311 310 311 313 315 316 317 318 318 316 316 314 313 314 314 314 313 314 314 314 315 316 316 316 317 318 317 319 319 318 317 316 315 314 316 316 316 317 317 319 319 319 318 318 319 318 317 316 316 316
303 304 305 305 307 307 308 309 310 311 311 312 312 312 311 311 312 313 313 314 316 317 318 317 316 313 313 314 314 313 314 315 315 316 316 317 317 316 315 316 318 318 317 316 316 314 314 315 316 316 316 317 318 318 318 319 319 318 316 315 315 314 314
299 300 303 306 300 301 306 308 310 311 312 312 314 314 312 311 311 312 312 312 314 315 316 316 316 314 314 315 315 314 314 315 316 316 317 317 316 317 317 317 317 317 318 317 316 315 315 316 316 316 316 316 317 315 317 317 317 316 316 315 314 314 314
298 304 308 311 310 309 310 310 310 312 313 313 313 312 313 312 311 312 312 311 312 314 314 315 315 316 314 314 315 315 314 315 316 317 317 316 316 316 316 315 315 317 316 316 316 315 315 316 315 316 316 316 316 316 317 317 316 316 315 314 313 313 314
306 309 311 310 310 307 309 311 312 313 314 312 312 314 314 314 312 312 313 312 312 312 313 314 314 315 315 315 314 314 315 315 316 316 317 317 317 316 316 316 316 315 314 314 315 315 315 315 314 315 313 315 317 315 317 317 316 316 314 313 312 312 313
306 312 312 311 312 312 312 313 313 314 315 314 314 313 313 313 314 314 312 312 314 313 313 313 313 314 315 314 314 315 314 314 315 316 317 317 315 314 314 315 316 315 315 314 316 315 315 316 315 314 314 315 316 315 317 316 315 315 314 313 312 312 313

ECMWFFLT2_sfc_thetae_096.txt.gz
Theta_e
310 309 311 311 311 299 306 307 305 309 315 313 308 307 309 311 309 305 316 312 315 325 323 328 329 329 330 331 333 335 338 339 339 338 341 339 342 345 346 345 345 346 347 347 347 349 349 350 350 353 355 359 361 362 362 362 363 363 361 363 361 362 363
309 312 311 311 311 311 308 302 307 315 318 316 310 301 307 302 300 303 310 308 309 311 307 328 329 327 328 329 331 334 338 337 337 337 339 342 341 342 347 348 347 348 348 348 348 349 351 350 350 355 358 361 362 363 363 362 362 362 359 359 358 360 362
308 311 310 308 311 312 308 306 313 307 303 302 309 306 299 299 298 301 307 309 308 311 313 320 325 326 326 329 332 334 336 336 336 337 339 340 341 342 344 347 346 346 347 348 350 350 352 353 354 356 359 360 362 362 362 363 362 361 358 354 355 358 360
307 308 306 299 303 309 311 312 308 312 311 306 303 305 307 307 300 300 302 306 304 314 313 320 325 328 330 330 332 332 337 337 337 338 339 340 339 342 345 346 346 346 346 348 350 351 352 354 354 355 359 358 358 360 361 362 363 363 360 354 355 355 356
307 300 304 302 304 302 303 304 305 308 308 311 310 309 306 304 302 301 301 300 306 317 328 332 331 332 333 333 332 333 335 338 338 339 339 343 345 345 344 347 347 347 347 347 350 352 353 354 355 355 357 357 358 359 359 362 361 359 358 355 356 357 355
301 302 307 307 307 307 305 304 303 306 303 302 301 301 309 307 304 299 301 299 309 320 329 332 332 333 334 334 334 333 335 337 338 337 340 341 344 345 347 348 347 346 347 346 349 351 351 352 354 356 356 356 357 354 354 358 357 360 360 360 361 363 360
302 305 308 310 311 310 308 307 305 308 307 306 303 296 303 307 307 308 308 303 310 324 327 332 332 333 333 334 334 334 335 337 337 339 340 342 343 344 345 344 343 344 349 348 346 347 349 349 352 353 353 352 354 355 356 357 357 360 361 362 364 367 364
307 308 310 310 311 310 307 307 308 308 305 306 305 305 307 306 306 304 305 302 308 325 330 331 334 334 334 336 335 335 336 336 337 339 340 342 343 343 344 343 341 341 343 343 345 345 345 348 350 351 350 352 352 355 356 358 358 359 361 363 365 366 366
301 302 306 305 309 309 306 305 307 309 309 308 308 308 310 304 305 306 302 298 306 325 328 330 331 331 331 332 334 335 334 336 337 338 339 340 343 343 344 343 345 347 347 345 345 347 351 351 348 348 348 350 353 354 357 357 358 360 361 363 364 365 365
291 291 293 296 299 302 306 308 308 308 307 307 307 303 306 299 306 308 303 304 319 324 327 327 329 329 331 333 333 336 336 336 336 337 338 340 341 342 343 343 343 343 344 346 347 348 348 347 346 347 352 353 355 356 356 358 358 359 361 362 361 361 362
298 301 305 305 309 305 303 305 307 307 308 309 309 307 303 301 306 307 308 308 318 320 321 324 326 329 329 329 331 332 333 335 337 339 340 340 341 342 341 343 343 345 344 344 346 348 349 349 348 348 350 351 353 352 352 356 358 359 360 360 361 362 360
305 307 306 309 309 305 306 306 306 308 308 309 308 304 302 311 305 301 309 313 309 319 323 324 327 328 329 329 329 330 331 332 335 337 338 340 340 341 342 342 343 343 343 345 344 345 345 348 350 350 351 352 350 349 348 351 356 357 358 358 358 359 359
306 308 309 311 311 310 310 309 308 308 310 310 307 307 313 314 305 301 314 319 312 319 324 326 327 329 327 328 329 330 332 333 334 335 335 335 336 337 337 338 339 338 338 341 343 345 346 347 347 347 348 350 352 352 351 351 354 354 354 355 355 355 357
305 307 308 310 310 309 310 311 312 312 312 312 312 314 316 316 318 316 318 324 322 324 326 327 327 329 331 330 330 330 330 331 333 334 335 335 336 335 334 336 336 338 340 339 342 343 344 346 345 345 346 346 348 349 351 353 353 354 354 354 354 354 353
303 306 308 309 309 308 307 309 312 313 314 314 315 316 317 319 319 317 320 323 321 326 329 328 329 331 332 330 328 328 330 331 332 333 333 334 334 333 334 336 337 338 338 338 339 340 342 343 341 342 345 346 347 349 351 352 352 353 354 353 355 354 352
300 304 304 306 308 308 306 306 307 310 313 312 314 315 317 317 317 318 319 317 318 323 328 327 329 328 328 328 328 328 329 331 331 332 333 334 333 334 335 336 337 336 337 337 338 339 339 338 340 342 344 344 345 345 346 349 352 354 354 353 352 352 353
301 303 304 303 304 305 302 302 304 308 314 316 317 317 318 318 319 317 313 314 322 325 326 323 324 325 326 328 329 329 330 331 332 331 332 332 335 336 335 336 336 336 336 336 337 336 336 337 338 340 342 342 341 344 346 348 350 351 351 352 352 352 352
300 303 304 304 302 295 296 305 308 309 311 315 313 312 316 319 320 318 320 322 325 325 324 324 323 325 327 329 331 333 332 331 332 332 333 334 334 335 336 336 335 335 334 334 334 334 335 336 335 334 336 337 337 339 340 341 341 341 342 342 343 345 347
298 302 302 298 294 295 304 309 310 311 312 316 314 315 317 319 320 320 321 322 324 324 324 325 325 328 329 330 330 331 332 333 332 332 333 334 333 333 334 335 335 334 333 333 332 332 332 331 331 330 329 330 332 334 335 334 334 334 335 334 335 335 336
301 298 298 289 295 304 306 308 310 312 310 313 316 310 315 318 318 320 320 322 324 325 325 325 325 326 325 324 326 329 330 331 331 331 331 332 332 332 333 335 335 335 334 333 330 328 329 329 329 329 328 329 329 329 329 329 329 329 330 330 331 331 331
296 296 295 297 306 305 305 305 308 308 307 308 309 305 308 319 319 321 320 321 323 324 325 324 324 325 323 318 321 324 325 328 330 330 331 332 330 331 334 335 334 335 334 333 330 328 327 327 326 327 329 328 328 327 327 326 326 326 325 326 327 329 330
305 297 294 294 295 292 302 306 309 311 312 310 311 311 306 315 320 322 323 321 322 322 323 324 325 327 322 315 315 319 323 324 324 326 328 330 332 331 332 334 334 333 330 330 330 328 326 325 326 326 327 327 326 324 324 326 326 325 326 323 325 328 329
301 299 294 292 290 295 304 307 309 310 312 312 311 311 303 310 319 321 323 322 323 324 324 324 325 322 318 316 316 318 321 322 324 322 323 324 326 328 330 331 331 331 330 329 327 326 324 323 324 325 324 325 323 322 321 321 323 324 325 324 324 325 326
300 300 297 294 300 299 304 308 309 310 311 307 306 297 298 308 316 320 322 322 323 325 326 326 325 320 317 320 317 319 320 322 323 323 322 322 324 327 329 330 331 331 330 328 325 323 322 323 325 326 324 323 323 322 323 324 322 321 324 325 325 326 327
301 300 299 300 301 306 309 309 311 313 313 307 298 292 301 311 314 319 322 322 324 326 325 325 320 321 325 324 323 324 325 324 322 322 324 323 325 326 327 327 329 327 326 326 324 324 325 325 323 323 324 324 324 325 324 323 320 321 324 326 329 329 329
298 299 297 296 301 305 310 313 314 316 309 300 297 306 314 315 314 318 320 322 324 325 325 325 324 325 325 324 323 323 323 323 322 321 321 324 326 329 329 329 327 325 324 324 324 324 326 326 325 325 326 326 325 323 322 322 324 324 323 324 326 328 328
300 300 296 294 290 306 312 314 314 315 308 305 311 316 317 318 316 317 318 320 322 324 325 325 324 323 323 322 322 323 323 323 322 323 323 323 324 326 328 327 327 325 324 323 323 324 323 323 323 323 324 324 323 323 322 323 325 327 326 326 324 325 327
295 295 293 293 302 308 314 314 306 310 312 314 316 316 313 318 319 320 322 320 322 322 324 324 324 323 322 321 322 322 323 323 322 323 324 325 325 324 326 327 327 326 327 325 324 325 324 325 325 325 324 322 322 321 321 324 325 326 327 327 327 325 325
303 299 303 308 312 312 313 315 314 315 316 316 316 317 315 315 317 321 322 323 323 324 323 323 324 323 324 322 322 321 320 321 322 323 324 324 324 324 324 324 326 326 324 323 322 322 323 325 326 327 326 324 324 322 323 325 325 324 324 325 325 324 324
309 311 312 313 314 315 313 314 316 316 316 315 317 317 316 318 321 321 322 324 323 323 324 323 323 323 325 324 322 322 321 321 322 324 325 325 325 325 325 325 324 324 323 322 321 320 321 323 324 325 324 324 323 323 324 325 325 325 325 324 324 323 324
304 299 312 313 312 314 315 314 315 318 318 317 317 317 317 319 322 324 325 326 325 324 324 323 324 324 325 324 323 322 321 321 322 323 324 326 326 325 324 325 324 323 322 320 320 319 319 320 322 323 324 324 324 324 324 324 324 325 325 324 323 323 323
304 306 310 313 314 315 316 316 316 315 316 317 318 318 319 320 323 324 324 325 325 325 324 324 324 323 323 323 323 322 323 323 323 322 324 326 325 326 326 325 325 324 322 321 320 320 320 321 322 322 323 323 324 324 324 325 324 324 324 323 323 323 322
308 309 311 312 314 314 315 315 316 317 317 318 317 317 317 317 318 321 322 323 324 325 324 324 323 321 321 322 323 323 323 324 324 324 325 326 327 327 326 326 325 324 323 322 322 320 319 320 321 321 322 322 323 323 323 324 324 322 320 319 320 319 319
302 304 308 310 304 305 311 314 316 317 318 319 318 318 317 316 317 318 319 320 322 323 324 324 323 321 322 322 324 324 324 325 325 325 325 325 326 325 325 325 326 324 324 323 322 321 321 322 321 321 321 322 322 321 322 322 322 322 321 320 320 320 321
304 310 313 313 312 311 314 315 316 318 318 318 317 317 317 317 318 318 318 318 319 321 322 323 323 323 323 322 322 322 323 324 326 326 325 324 323 323 324 324 324 323 322 321 321 320 321 322 320 320 320 320 320 319 321 322 321 321 321 319 318 319 320
311 312 314 314 311 310 314 316 317 318 319 318 317 318 319 318 317 318 319 318 318 319 320 321 322 322 324 324 322 322 323 324 326 325 325 324 323 322 323 323 323 322 321 320 319 319 320 320 320 320 318 319 320 319 321 321 321 320 319 318 317 317 318
310 314 315 315 315 315 317 318 318 318 320 319 317 318 318 319 318 319 319 318 319 319 319 320 320 321 322 323 322 322 323 324 325 325 324 323 321 321 321 321 323 323 322 323 322 321 320 319 318 318 318 319 320 319 321 320 319 319 319 318 317 317 318

ECMWFFLT2_sfc_thetae_099.txt.gz
Theta_e
311 311 313 313 314 302 309 310 305 311 317 311 306 307 309 309 307 304 313 312 319 324 326 326 329 328 330 330 333 336 338 340 339 339 339 341 343 342 341 342 342 347 347 348 348 349 349 349 349 350 352 352 354 354 354 355 357 359 358 361 360 363 365
311 314 313 313 314 313 309 304 309 316 319 314 307 300 305 304 299 305 309 307 311 310 309 324 322 325 327 329 332 334 338 338 339 337 341 345 346 347 347 343 346 347 348 349 349 350 351 350 352 350 353 355 355 356 357 354 355 355 354 356 357 358 362
311 313 312 310 313 314 308 309 316 307 305 303 309 307 300 301 300 303 308 309 311 312 313 321 323 324 324 327 331 335 333 335 336 336 342 344 346 346 346 345 344 345 346 347 350 350 352 352 353 352 354 355 357 356 356 356 353 352 352 351 352 355 357
310 311 309 301 305 312 313 313 310 313 310 307 306 306 308 309 303 301 304 308 306 316 318 321 321 323 328 324 330 331 334 336 336 340 342 343 345 346 349 346 346 343 345 347 349 350 351 352 351 354 355 353 352 356 357 357 356 355 353 350 351 352 355
309 302 306 304 306 304 306 306 306 310 309 313 312 312 306 304 303 301 301 301 309 320 326 325 324 328 328 327 328 332 334 336 338 340 341 344 346 346 347 348 346 345 345 347 348 350 351 352 352 354 354 355 356 357 358 360 358 354 352 351 352 352 353
303 304 309 308 308 309 307 305 305 307 305 304 302 301 310 308 304 299 302 301 312 326 331 330 331 330 330 334 332 332 336 337 338 338 341 343 344 344 345 349 349 349 349 348 349 350 351 351 350 351 355 357 355 356 357 358 356 357 355 353 355 356 355
305 307 310 311 310 311 310 309 306 308 309 309 304 297 303 307 307 309 308 304 310 325 331 330 330 330 332 333 335 335 337 339 338 340 341 342 343 345 346 348 348 349 351 352 352 350 351 351 350 351 351 351 356 358 359 361 361 360 360 357 357 357 355
308 310 311 311 310 310 308 309 309 308 305 309 307 307 308 305 307 304 305 304 311 324 332 335 334 335 334 336 336 334 336 338 338 339 341 342 346 348 348 348 348 349 348 350 348 347 350 352 354 354 355 354 356 360 361 362 361 363 363 362 359 359 357
301 304 307 306 309 308 306 306 308 309 308 309 310 310 310 304 305 305 303 299 312 326 330 333 334 334 332 335 335 336 335 336 337 337 340 341 346 345 346 345 345 345 345 343 346 351 350 351 352 353 351 352 353 356 359 360 361 363 363 366 367 367 366
292 292 295 297 300 303 307 308 308 308 307 307 306 302 305 299 306 308 304 304 319 327 331 331 333 333 333 333 335 336 336 336 336 338 338 340 341 343 342 345 344 342 342 339 344 344 345 352 353 352 352 353 355 357 359 361 361 362 364 365 370 370 368
298 300 306 310 309 306 302 305 307 307 307 309 310 309 305 301 307 306 308 310 317 320 322 327 328 332 331 333 336 335 335 337 338 340 339 339 340 341 341 343 343 346 346 346 345 343 345 349 351 355 356 358 358 358 359 359 360 361 364 365 367 365 365
308 306 308 309 309 305 305 304 304 307 308 308 307 306 304 314 306 300 310 313 311 317 322 324 329 330 333 333 335 334 336 337 338 339 341 341 340 342 342 344 343 344 346 347 348 350 349 350 351 351 349 355 358 358 357 357 359 361 362 362 363 363 363
306 307 307 308 308 307 306 305 306 306 308 308 306 306 308 310 305 303 312 316 311 318 319 326 328 332 332 332 333 334 336 337 339 341 340 339 339 340 340 342 345 346 346 347 346 347 348 349 350 352 353 354 355 356 356 354 354 357 361 361 360 359 362
306 306 308 309 307 307 307 306 308 309 308 308 308 307 309 309 311 312 315 322 321 322 326 326 332 334 333 333 334 335 335 336 337 338 339 339 340 339 340 343 341 344 345 346 346 346 347 347 348 349 350 349 350 352 354 355 355 357 358 359 359 358 357
305 307 308 308 308 308 306 309 309 309 309 308 308 308 312 312 313 313 318 318 319 327 331 330 333 334 334 334 331 332 334 335 336 337 339 339 338 338 340 341 341 342 343 344 345 346 346 347 348 348 349 350 351 352 352 352 352 353 354 355 357 356 357
303 308 308 309 309 308 309 309 311 312 309 306 310 313 317 314 314 313 318 317 319 326 330 330 331 331 331 330 331 332 333 335 336 336 337 337 335 334 333 337 340 340 340 341 342 343 343 344 344 346 349 351 350 349 351 352 354 357 357 357 356 356 355
304 307 307 307 308 307 304 304 309 312 312 317 317 317 318 319 316 315 313 313 323 327 328 327 328 329 330 331 332 333 334 335 336 336 334 334 335 334 335 337 338 339 339 339 339 340 341 343 344 346 348 347 348 350 350 352 355 355 355 355 354 353 352
302 305 306 307 304 297 296 308 314 316 312 315 314 316 318 319 320 319 322 324 327 326 326 325 327 328 331 332 336 336 335 334 333 333 334 334 337 337 337 337 336 336 337 337 339 340 340 340 340 341 341 340 341 343 345 349 351 350 349 348 347 346 347
301 304 306 300 295 297 308 313 315 318 316 316 314 317 318 319 322 323 321 325 326 326 328 328 330 332 331 333 333 333 332 331 330 331 329 333 338 337 336 335 335 335 336 337 338 336 335 335 337 338 337 337 336 335 337 340 343 343 341 339 339 341 341
303 301 299 291 294 306 309 311 314 316 318 317 316 312 318 320 321 323 323 325 327 327 327 328 330 329 329 331 331 331 334 335 334 333 331 334 336 335 336 336 335 334 334 335 334 334 335 335 334 333 332 331 330 329 331 332 334 336 336 335 335 338 339
298 301 299 299 305 305 307 308 310 310 312 311 312 308 312 320 321 324 323 325 326 327 326 326 326 329 328 326 326 329 332 333 335 336 336 336 334 336 337 336 334 335 335 332 331 332 333 332 331 330 330 329 329 329 329 329 329 329 330 331 332 334 336
303 300 298 298 298 292 301 310 312 314 314 315 317 315 309 320 323 326 325 324 325 325 325 325 326 327 323 318 319 323 325 328 330 332 331 335 335 334 334 334 335 336 335 333 332 330 329 329 329 331 331 330 329 328 327 327 327 327 327 326 329 330 332
302 300 297 295 293 298 309 310 312 313 314 314 316 313 303 314 321 324 326 326 326 325 324 325 326 324 316 313 317 322 324 326 328 328 333 334 336 334 333 333 332 332 333 332 330 330 329 326 328 329 329 328 325 323 324 324 325 324 324 325 326 327 330
305 301 296 295 300 302 308 311 312 313 314 315 312 299 301 312 318 323 325 325 327 328 329 329 327 321 315 315 319 325 326 327 327 327 329 331 334 335 335 335 334 332 333 332 330 328 327 327 328 327 326 325 326 325 325 325 324 324 327 327 329 328 329
300 300 301 302 302 307 310 311 314 316 317 311 300 294 305 315 319 322 325 322 326 330 328 326 321 324 326 324 325 326 328 328 329 330 331 331 332 331 331 330 333 330 328 327 325 324 326 325 323 325 327 326 325 325 323 322 322 324 325 324 324 329 333
300 301 298 299 302 308 312 315 315 318 314 304 299 309 318 319 319 324 324 324 327 325 327 328 326 328 328 326 327 326 327 326 326 327 329 330 328 329 332 331 331 330 327 328 326 325 325 324 325 325 325 325 325 324 322 319 319 322 328 329 327 326 328
304 304 298 295 291 308 316 315 315 317 308 307 315 318 318 320 320 322 323 325 326 328 325 327 328 327 326 327 327 326 325 325 326 327 329 329 328 328 329 330 328 326 325 325 326 326 326 324 325 325 324 324 324 324 324 326 327 327 324 322 326 328 329
295 298 295 294 305 312 317 316 308 311 314 318 320 319 316 319 321 323 322 324 326 327 327 327 327 328 327 327 326 326 326 326 326 327 328 329 330 329 329 328 327 327 327 326 325 325 324 326 325 324 324 324 325 324 324 327 327 328 328 327 326 323 324
306 302 305 311 313 315 317 316 314 315 317 319 320 318 317 318 319 325 323 322 325 326 327 328 328 327 328 327 327 326 325 326 326 327 327 327 329 328 327 326 328 327 326 325 325 326 327 327 327 325 324 324 323 322 324 327 327 326 326 327 327 326 326
313 313 313 315 314 314 314 318 319 317 317 317 318 318 318 320 321 323 324 325 325 326 327 325 325 327 328 328 326 325 325 325 327 328 328 328 329 328 327 328 328 326 325 325 325 324 325 325 325 327 325 325 324 325 326 326 327 327 325 324 325 324 325
304 299 314 312 312 316 316 315 317 319 319 318 318 319 319 320 321 322 325 327 325 325 326 326 328 328 329 328 327 325 325 326 327 327 327 328 328 327 327 328 327 325 324 321 322 322 323 325 325 325 326 325 326 327 327 327 327 327 327 325 324 325 324
305 308 313 314 316 317 318 317 317 316 317 319 319 319 320 322 323 322 324 326 326 327 326 327 327 327 328 328 328 326 326 326 327 328 328 328 328 329 329 327 326 326 324 322 322 322 323 325 326 325 326 325 327 328 327 326 325 327 327 327 326 326 324
309 313 313 313 316 313 313 317 320 320 319 319 318 319 319 319 320 322 322 322 323 324 325 327 326 325 326 328 329 328 326 327 327 328 329 329 328 329 328 327 327 326 324 323 324 323 322 323 324 325 325 326 326 326 326 326 326 324 321 321 324 321 321
304 305 309 311 305 307 313 315 316 317 319 320 319 319 318 318 319 320 320 321 322 324 324 325 325 324 326 327 328 329 328 328 328 327 328 329 330 329 329 328 328 327 326 326 325 324 324 325 324 324 323 323 324 323 324 324 324 324 323 323 323 322 323
303 311 314 315 314 316 317 317 318 318 319 320 319 319 319 319 319 319 320 320 321 321 323 324 324 325 325 325 326 327 328 327 329 330 329 328 329 328 329 327 327 327 326 326 325 325 325 325 323 323 324 324 325 323 325 325 324 324 325 323 322 322 321
314 316 316 315 312 312 316 319 319 319 320 320 319 319 320 319 319 320 321 320 320 321 322 322 324 324 325 326 324 324 325 327 330 330 330 329 329 327 327 328 327 326 325 325 325 324 325 325 323 323 320 321 323 322 323 325 324 324 324 321 320 321 322
313 316 317 317 316 318 320 320 320 320 320 320 319 320 321 320 320 320 320 321 321 321 321 322 322 323 324 324 324 324 325 326 328 328 329 327 326 326 325 326 327 326 325 325 326 326 325 324 322 322 322 321 322 321 322 322 323 323 323 323 320 319 320

ECMWFFLT2_sfc_thetae_102.txt.gz
Theta_e
311 311 313 313 314 302 308 310 305 308 315 311 307 308 309 309 306 302 313 310 317 322 324 325 326 327 328 331 333 333 334 335 338 337 338 339 339 340 341 342 342 343 345 343 344 345 345 344 344 346 351 354 357 357 357 359 360 359 358 361 360 361 363
312 314 313 313 315 314 309 304 309 315 317 314 308 301 304 302 300 305 309 307 309 310 307 324 325 324 327 328 330 333 334 337 336 336 338 340 341 342 344 345 346 345 345 346 346 346 347 345 344 349 355 354 358 357 357 355 358 359 356 357 356 359 362
311 314 312 309 314 315 309 308 316 307 302 302 309 305 297 299 298 302 305 306 310 312 311 318 319 321 325 328 331 332 333 334 335 336 338 341 341 342 346 351 348 345 345 346 348 349 349 350 350 351 355 354 356 355 354 356 356 356 354 354 356 358 359
310 310 308 301 304 311 313 314 309 314 310 306 305 306 307 307 300 300 302 306 304 314 314 320 322 323 324 326 327 329 332 334 336 337 338 340 344 343 345 342 342 343 344 346 347 348 350 351 351 351 353 348 349 352 353 355 357 359 355 353 356 354 356
309 302 306 303 305 303 306 306 306 308 308 313 311 310 307 305 304 301 301 300 307 315 323 322 322 325 328 327 328 332 334 335 337 338 339 342 344 340 345 352 346 348 344 343 348 351 356 352 352 352 352 350 351 352 352 356 356 351 350 350 354 355 356
301 304 309 308 308 308 307 306 305 307 306 304 301 300 310 308 304 298 300 300 311 321 331 329 325 326 326 330 332 334 335 336 338 338 339 343 344 346 348 347 348 344 347 344 347 349 347 349 350 353 351 353 353 351 350 351 348 351 350 353 355 357 357
303 306 310 312 311 311 310 309 307 309 308 308 304 296 303 307 307 309 307 302 307 323 330 329 329 331 331 334 334 333 335 336 336 338 342 345 345 345 346 347 347 349 344 349 346 344 350 348 351 352 352 355 355 358 366 360 356 357 356 358 361 361 361
308 309 311 311 311 310 308 309 310 308 304 307 306 305 308 305 306 304 303 301 309 321 328 332 330 334 332 334 332 332 334 336 337 339 340 340 342 341 342 343 346 346 347 349 348 349 352 350 348 347 347 353 359 360 363 359 358 361 361 364 364 363 360
301 304 307 306 309 308 305 305 308 309 309 310 309 308 313 305 304 305 300 295 304 322 329 330 329 332 330 330 333 336 335 335 337 339 337 338 340 339 341 344 346 347 350 349 346 348 348 348 349 350 347 343 351 357 356 357 354 352 361 363 363 364 360
292 292 294 297 300 302 305 306 307 308 307 307 305 301 306 298 309 307 302 301 315 325 329 328 326 328 329 331 333 335 336 337 337 337 336 336 338 339 342 341 341 341 342 346 347 348 349 349 351 353 354 352 354 357 357 358 356 357 357 366 365 363 361
298 301 304 308 307 305 300 303 304 306 308 308 307 306 304 301 305 304 310 312 315 319 324 324 324 324 324 326 331 332 335 336 338 339 340 338 336 338 338 337 340 340 341 342 346 348 347 349 350 354 356 356 356 357 359 361 362 358 359 364 368 367 365
306 307 307 307 308 304 304 303 303 306 307 307 305 302 301 314 305 299 314 318 316 315 322 323 324 325 324 325 327 329 333 336 336 338 337 338 338 339 340 339 338 338 339 341 342 346 350 353 353 352 355 354 356 357 359 361 363 359 359 357 364 368 365
306 307 307 308 307 307 306 306 305 304 306 307 304 304 306 308 304 305 315 315 314 317 322 323 325 328 328 326 328 333 335 336 337 336 339 338 337 338 338 340 340 339 341 343 343 343 347 351 350 353 353 356 357 357 358 359 356 358 362 361 361 360 363
305 306 306 307 306 306 306 306 306 306 305 305 306 306 306 306 311 322 320 320 318 321 322 327 329 331 332 333 335 335 332 332 336 336 337 337 338 338 339 341 342 343 343 345 346 346 349 349 348 350 352 354 353 356 355 355 356 359 363 363 362 362 362
303 306 308 307 306 306 304 306 307 312 313 311 305 307 307 308 308 318 319 320 320 327 330 330 333 333 333 333 333 332 332 329 333 334 335 335 336 338 340 342 340 342 343 345 345 346 347 347 349 349 350 350 351 350 353 355 356 360 360 359 360 360 361
301 305 306 307 306 306 304 307 310 312 312 311 313 312 310 310 310 314 317 317 317 325 331 332 332 332 332 331 332 332 331 332 328 332 332 332 335 338 340 340 341 341 343 343 344 345 345 346 347 348 348 350 350 350 351 352 354 357 356 353 354 355 356
300 305 307 304 306 305 303 305 308 311 314 315 316 316 317 317 317 313 309 314 324 325 329 328 329 329 329 330 331 332 333 330 329 331 329 330 333 336 338 339 340 340 341 342 343 343 344 343 344 345 343 340 340 343 348 351 353 353 352 354 354 354 353
300 305 305 305 302 296 297 311 315 315 313 314 313 313 316 319 320 318 321 323 327 326 327 326 325 326 328 329 332 335 333 332 331 329 330 330 334 337 336 336 337 338 338 338 338 339 340 340 340 339 338 336 336 338 341 343 345 345 346 347 347 347 348
299 304 304 300 293 295 307 314 315 317 316 316 315 316 317 319 322 322 320 322 324 325 328 326 326 328 331 332 330 330 332 332 330 329 331 334 337 334 335 335 335 336 335 335 335 335 336 337 336 334 334 335 335 335 337 338 339 339 340 340 340 342 343
305 301 301 291 293 306 309 311 314 317 317 316 314 313 316 319 318 320 319 322 324 327 326 329 330 328 329 330 331 332 334 335 333 334 335 336 334 333 334 334 334 334 334 334 334 333 335 334 334 333 332 333 332 332 333 334 334 334 334 334 336 340 341
297 299 298 299 306 306 308 308 310 312 313 312 311 307 312 319 320 319 317 319 324 324 325 328 325 325 326 324 326 332 333 334 335 335 335 337 336 335 334 334 333 333 334 334 334 334 333 333 332 332 333 333 332 331 330 330 331 332 332 332 332 334 337
305 298 298 299 297 294 300 309 313 314 315 316 316 313 308 318 321 320 319 318 320 323 324 324 325 324 319 315 319 327 330 332 333 334 333 333 334 335 335 335 333 333 332 332 332 331 332 331 331 331 331 330 328 326 325 327 328 329 329 329 331 332 332
301 299 295 294 293 298 309 311 312 313 314 315 317 309 302 314 321 322 319 318 320 319 322 324 326 320 312 312 316 322 327 330 333 333 333 333 334 335 336 335 334 335 334 332 330 329 329 330 329 329 328 327 325 324 325 325 325 325 326 327 329 329 331
302 300 297 294 300 298 309 312 313 314 317 317 310 299 300 313 318 323 323 322 322 321 321 320 318 318 313 313 318 325 327 330 331 331 331 332 333 333 333 333 333 333 335 333 328 326 326 326 325 326 327 327 327 326 326 325 325 325 326 327 329 330 331
300 300 299 300 302 309 311 314 314 318 318 313 299 294 305 316 320 322 323 324 325 326 325 323 318 320 324 325 326 327 329 329 330 332 332 331 331 330 331 331 334 332 331 328 323 322 323 326 327 327 326 323 322 323 323 322 320 321 325 328 330 330 329
299 302 298 298 300 309 311 316 317 319 315 301 299 309 319 319 320 321 323 324 326 327 327 325 324 327 325 326 327 326 327 328 329 330 330 330 329 329 331 332 329 326 323 323 322 322 324 324 324 324 326 325 325 321 320 322 325 326 326 326 326 325 325
301 301 297 294 289 308 314 315 315 319 308 308 316 317 319 322 321 322 322 323 324 324 326 326 325 324 324 325 325 325 325 326 327 328 329 328 328 327 327 326 326 325 324 323 322 323 324 324 324 325 326 326 326 326 324 323 322 323 325 327 329 329 327
295 296 294 294 306 311 317 316 309 314 316 319 320 318 316 321 321 321 322 324 325 325 327 325 325 325 325 325 325 325 326 326 327 328 329 329 329 328 327 326 326 326 324 324 323 323 323 324 325 327 327 325 325 325 324 329 327 326 325 324 326 324 327
303 300 305 310 314 313 315 316 316 317 319 320 319 319 319 319 321 324 322 323 326 328 326 325 325 324 326 324 325 325 324 325 325 326 328 328 328 327 326 325 327 326 325 324 323 324 324 324 325 326 326 324 324 323 326 329 329 329 329 328 328 325 324
312 312 313 315 314 315 315 317 318 317 317 318 320 319 318 319 322 324 323 323 324 326 330 326 326 326 325 325 324 325 325 325 326 328 328 329 330 328 327 326 326 325 324 325 325 323 323 324 324 326 325 325 323 324 325 327 327 327 327 327 328 328 327
305 298 312 311 312 313 314 314 316 318 319 318 319 319 319 320 322 323 324 324 325 325 328 328 327 326 328 326 325 325 326 325 326 325 326 328 330 328 326 327 326 324 324 322 321 322 322 325 325 325 325 326 327 327 326 325 327 328 327 326 326 327 326
304 305 311 312 314 315 316 315 314 314 316 318 319 321 320 320 321 321 322 324 323 325 324 326 326 327 327 326 326 325 326 326 327 327 327 329 328 329 330 329 330 326 324 323 323 324 324 325 325 324 324 325 327 328 326 325 326 328 328 327 325 325 323
309 312 312 312 314 313 316 317 318 318 318 317 319 319 319 319 320 320 320 321 321 322 323 325 325 324 327 327 326 325 324 326 327 328 328 328 329 328 326 326 328 326 324 323 324 323 324 325 326 326 327 328 329 328 325 326 326 323 322 323 325 321 321
303 304 307 311 305 305 311 315 316 317 319 319 318 318 318 317 317 321 321 320 321 322 322 324 325 325 326 328 328 326 325 325 328 328 329 328 329 327 326 327 327 326 326 325 324 324 324 326 326 326 325 324 325 322 323 324 325 323 324 324 323 323 322
304 310 313 317 316 316 315 316 316 318 320 320 318 317 318 318 319 318 320 320 320 319 320 323 324 325 325 325 327 326 328 327 328 328 328 328 327 328 327 326 326 326 326 326 326 325 325 325 323 323 323 324 325 324 325 325 324 325 326 325 323 319 320
313 315 314 315 315 314 316 318 318 318 321 319 317 319 318 319 319 320 320 319 319 320 321 320 321 323 325 325 325 327 326 327 330 330 328 329 329 328 328 328 329 327 326 326 325 326 326 325 323 324 323 325 326 322 324 325 324 325 325 324 327 323 321
311 317 317 318 320 319 320 320 319 318 318 321 320 319 319 319 318 319 319 320 320 320 321 321 321 321 323 323 324 324 324 327 328 329 329 330 329 328 327 327 328 328 327 327 327 327 326 326 324 323 322 322 323 322 325 323 323 324 324 324 320 319 320

ECMWFFLT2_sfc_thetae_105.txt.gz
Theta_e
306 306 309 308 311 297 303 305 299 303 313 311 307 308 308 308 305 302 311 309 317 327 322 325 327 327 327 328 330 331 332 333 334 334 336 337 337 336 336 335 334 334 336 337 339 339 340 340 341 345 348 350 351 352 354 354 355 356 356 356 354 355 355
307 309 308 309 311 310 306 299 303 310 314 312 306 299 304 302 296 302 309 306 310 312 305 325 326 324 325 326 327 330 332 333 332 333 335 336 337 338 338 337 336 335 337 337 340 341 340 341 341 345 349 350 352 354 355 354 355 354 356 356 356 355 355
308 310 309 306 309 311 306 304 312 303 298 299 309 303 295 295 296 298 303 307 310 311 310 316 319 320 322 325 328 329 330 331 332 332 334 337 339 338 337 339 337 336 337 338 340 340 340 341 343 347 348 351 353 354 356 355 355 355 356 356 356 357 357
307 308 303 295 299 306 310 311 306 309 305 304 302 306 307 304 299 298 299 305 302 313 313 317 318 321 323 326 326 327 331 332 332 333 335 337 338 338 337 342 344 340 339 340 340 340 340 341 343 348 348 352 352 354 355 355 355 355 354 354 354 355 357
307 299 300 297 298 297 300 301 300 304 306 309 309 308 304 303 300 298 297 298 304 312 320 319 320 323 325 325 326 329 331 333 334 335 336 337 339 339 338 340 341 340 339 343 344 343 344 346 348 348 349 351 352 353 354 354 353 354 353 352 353 354 356
299 301 305 305 304 303 301 299 298 300 300 300 296 296 307 306 302 295 299 296 305 316 332 326 324 326 327 330 330 329 330 334 335 336 337 336 336 338 338 342 340 340 344 347 344 343 344 344 346 347 347 349 350 351 352 352 354 353 351 350 353 353 354
300 304 307 309 309 307 305 304 301 304 303 305 299 289 298 305 305 309 308 301 305 325 326 327 327 328 328 330 333 329 330 332 334 337 336 336 338 339 340 340 339 341 341 342 345 345 346 345 345 346 346 351 354 349 350 350 352 351 350 350 352 352 353
305 307 309 309 309 307 303 304 305 304 301 305 303 300 304 301 305 302 301 300 307 323 328 327 327 327 330 332 332 334 332 333 336 335 335 337 338 339 341 341 341 344 343 343 343 343 344 344 344 346 348 349 353 354 351 353 351 350 350 351 351 351 353
295 299 302 303 307 305 301 299 302 304 304 305 305 306 311 301 302 302 298 294 301 321 329 327 328 328 328 330 330 331 330 333 335 335 337 338 338 339 339 338 340 342 342 342 342 342 341 344 344 345 346 347 349 355 354 352 353 354 356 355 350 351 353
287 289 291 293 296 299 303 305 302 303 304 303 301 297 303 293 304 304 299 305 316 322 325 325 327 328 327 330 329 331 333 333 334 335 334 337 338 338 339 340 340 341 341 342 343 343 343 345 344 344 344 345 350 353 353 352 351 352 353 358 356 352 352
293 296 300 306 307 304 299 302 302 301 303 304 303 305 299 294 303 305 308 314 314 316 319 321 322 324 324 328 328 329 330 332 335 335 335 335 337 338 340 340 340 340 340 341 343 343 346 348 348 347 344 344 350 354 354 354 354 352 355 361 362 353 351
302 303 303 304 307 302 303 302 303 304 302 302 301 298 295 307 304 299 310 316 314 315 320 321 321 323 323 326 326 326 330 333 334 333 334 335 337 336 337 339 340 339 340 342 342 342 341 342 345 348 348 348 351 354 354 356 357 354 357 356 355 360 353
303 304 304 305 304 304 303 303 310 310 311 311 305 301 302 307 303 303 312 315 314 316 320 322 323 323 324 326 327 328 331 333 335 334 333 333 334 334 335 337 337 338 339 341 341 340 339 341 346 351 352 353 354 354 356 357 355 355 354 352 353 354 355
302 302 304 305 305 307 306 311 312 312 312 313 315 314 316 311 311 314 315 315 315 318 320 323 326 328 329 329 329 329 329 330 332 333 332 332 333 335 336 336 337 338 339 337 339 343 344 346 348 349 349 349 349 351 347 348 347 350 358 354 354 354 350
300 303 305 306 306 307 306 309 311 312 313 314 315 315 315 319 319 318 317 315 315 322 325 326 329 331 331 328 325 326 328 331 332 332 333 333 332 334 335 336 337 339 340 341 341 341 341 342 343 344 346 345 345 346 347 348 350 353 353 347 349 349 346
297 302 303 306 307 307 305 306 309 311 312 310 313 312 315 314 315 317 317 314 314 323 328 328 328 329 329 325 324 326 327 330 330 330 331 333 334 335 335 336 337 338 339 339 339 339 340 341 342 342 341 342 343 345 348 348 348 350 351 349 347 347 347
296 302 304 304 305 304 300 302 308 312 312 313 314 315 317 316 315 311 310 311 320 323 327 325 325 327 328 327 327 326 327 328 328 328 329 331 332 334 335 335 336 337 337 337 338 338 338 337 336 337 337 337 338 341 343 345 346 346 346 347 346 344 347
295 302 303 304 299 292 293 308 314 314 311 312 311 311 313 315 316 314 319 319 323 324 325 325 324 324 326 328 330 330 328 325 323 325 328 333 334 335 336 336 335 336 337 338 338 337 335 336 336 336 336 335 335 337 338 339 340 339 340 341 342 343 345
294 300 302 296 288 292 307 312 318 316 315 316 313 313 315 315 316 318 319 321 322 323 324 324 324 325 327 329 327 327 328 326 325 326 329 333 333 335 333 332 333 332 331 331 331 331 331 332 333 333 332 333 334 335 336 335 336 336 337 338 339 340 341
300 297 294 287 289 304 311 310 314 318 315 314 314 310 314 316 317 317 316 319 321 321 322 324 326 327 328 330 330 329 329 328 328 330 333 333 333 332 333 332 332 331 331 331 330 330 333 332 331 331 330 331 331 332 333 333 333 333 334 334 336 337 338
294 297 294 295 304 305 305 309 309 308 307 311 308 302 308 316 318 318 316 318 319 321 322 323 324 324 323 321 323 332 333 334 335 335 334 334 333 333 332 333 332 333 332 331 331 331 331 331 330 330 330 330 329 329 329 330 330 330 330 329 329 331 333
300 294 292 293 294 290 298 309 312 314 314 316 315 311 306 317 318 320 319 317 318 318 319 320 323 322 316 312 315 325 329 331 332 335 334 334 334 333 333 333 332 332 331 331 332 331 330 329 329 329 327 327 326 326 326 326 326 326 327 327 329 330 330
298 295 291 289 289 294 304 306 310 314 315 314 310 306 301 313 318 321 320 318 319 320 319 319 321 316 310 311 316 325 330 330 332 332 332 333 333 333 331 330 329 329 329 330 329 329 328 328 328 328 327 326 325 324 325 324 324 324 325 326 326 326 327
297 295 292 290 298 297 306 310 312 313 315 314 307 295 296 311 318 321 323 319 318 318 319 320 317 313 309 311 315 327 330 332 333 332 331 330 331 330 330 329 329 329 331 329 327 326 326 326 327 325 326 325 325 324 325 324 323 324 325 326 325 324 325
298 298 296 298 299 308 311 311 313 319 318 313 298 290 301 315 319 324 324 322 321 320 318 318 313 317 320 320 321 327 329 328 328 330 332 331 330 328 329 329 330 322 321 322 322 323 323 324 326 327 326 325 323 322 321 321 322 324 326 326 324 323 323
296 298 294 295 299 308 311 312 314 318 313 298 296 306 316 318 319 322 324 323 324 324 322 320 318 321 323 325 325 326 328 327 328 327 327 327 328 329 331 332 325 320 321 321 321 320 321 323 322 320 320 321 322 321 319 319 320 324 326 325 324 322 321
299 299 295 290 286 305 313 315 314 315 304 304 311 316 318 320 320 321 322 323 324 324 321 323 323 322 323 323 324 325 327 326 325 324 324 324 325 324 323 321 322 321 319 319 319 319 321 323 324 325 324 322 322 322 318 319 322 325 326 326 323 323 325
291 294 291 291 302 309 318 315 306 312 312 315 318 316 314 319 318 319 321 323 323 324 322 321 321 321 321 322 323 323 325 326 326 325 325 324 323 323 322 322 322 324 320 319 319 320 323 324 324 325 324 323 324 322 321 321 321 323 320 321 325 327 327
300 297 302 307 311 313 314 315 314 315 318 319 319 319 318 317 318 322 320 322 324 325 324 322 322 321 321 321 322 322 323 325 324 325 325 324 323 322 321 321 324 322 320 318 318 319 321 322 323 323 323 322 322 320 322 327 326 326 327 328 326 324 321
310 311 312 313 312 312 312 314 316 314 315 317 318 318 317 319 320 321 320 322 323 323 325 324 323 322 323 321 322 321 323 325 325 327 326 325 323 323 322 322 322 321 322 321 319 318 319 321 323 324 322 321 320 319 324 326 323 325 326 326 325 324 323
299 295 311 310 310 312 312 311 313 315 316 316 316 315 317 318 319 321 323 323 324 325 325 324 323 322 323 325 324 324 322 323 325 325 327 326 322 322 321 321 323 320 319 318 319 320 319 320 320 323 323 323 323 324 324 326 327 325 325 325 323 322 321
302 302 308 310 312 312 312 312 311 312 314 315 315 316 316 316 317 319 322 323 324 326 325 326 325 324 325 322 320 322 323 324 325 324 325 325 324 322 322 323 323 320 319 319 321 321 321 320 320 321 322 321 324 324 323 322 323 326 325 323 322 321 322
306 309 309 311 312 314 314 314 314 315 316 317 317 318 318 317 316 317 318 319 321 322 324 326 325 324 324 324 323 322 324 324 324 325 325 324 323 324 323 322 322 320 321 321 321 321 320 321 321 322 323 324 323 321 322 324 323 323 321 321 324 323 322
301 301 304 310 304 304 309 312 313 315 317 317 315 315 315 317 317 316 315 316 318 320 324 324 324 323 324 325 325 322 324 325 325 325 323 323 323 323 323 322 321 322 322 321 321 322 321 322 323 322 323 323 323 321 322 323 323 322 323 325 321 314 314
300 309 313 316 313 310 311 312 316 317 317 316 316 315 314 315 316 317 317 315 317 316 318 323 324 323 323 323 325 324 325 324 325 327 326 325 324 323 323 321 321 321 321 322 321 321 320 322 322 322 321 321 322 322 322 322 323 322 321 325 323 315 315
310 314 315 315 311 308 312 315 316 317 318 316 315 315 316 316 316 316 316 317 316 316 316 317 320 322 324 323 324 323 324 326 326 325 325 326 325 324 325 323 322 321 321 321 321 321 320 321 320 320 320 321 322 321 323 323 323 321 322 321 325 316 316
309 316 317 316 315 315 316 315 315 318 320 318 315 314 314 313 316 318 317 316 317 318 317 316 318 320 320 323 325 324 324 325 327 327 329 330 328 325 324 325 323 322 322 322 322 321 320 321 319 321 320 321 320 319 321 322 322 321 321 319 318 317 319

ECMWFFLT2_sfc_thetae_108.txt.gz
Theta_e
303 304 306 305 308 296 300 305 300 306 312 311 304 307 309 307 304 301 311 309 315 325 326 322 321 324 326 327 328 329 330 333 333 332 332 332 333 334 333 329 330 330 330 334 335 336 337 339 343 347 348 349 349 350 349 351 352 352 353 354 353 355 357
304 304 305 305 306 305 302 297 301 309 315 314 304 297 302 299 294 300 307 306 308 309 304 325 322 321 324 325 327 328 329 332 331 332 332 333 333 334 335 332 332 332 333 334 335 336 338 339 344 346 348 349 350 351 350 351 352 351 352 353 352 354 356
304 307 305 303 305 308 305 302 307 303 298 299 302 301 293 293 293 296 302 308 307 309 308 319 318 320 320 323 327 327 328 330 331 332 332 333 335 335 334 333 331 332 333 334 335 336 338 339 346 347 349 350 351 352 351 352 353 352 352 354 353 354 356
304 302 299 293 294 301 307 308 301 309 303 298 298 299 301 300 295 295 297 303 298 311 313 321 318 320 321 322 325 327 329 330 331 332 332 333 334 335 335 336 336 334 334 335 336 336 337 339 344 347 349 351 351 352 352 351 355 354 353 353 354 353 355
302 293 297 294 294 296 295 299 300 303 303 307 305 306 302 299 296 295 295 295 301 308 317 320 318 320 322 324 324 327 329 331 332 333 333 333 334 334 335 337 337 337 338 339 338 338 338 342 346 348 349 350 351 352 352 352 353 353 353 354 353 353 354
294 298 304 304 303 299 296 295 295 296 299 299 296 293 305 307 300 293 295 294 303 312 325 321 319 321 324 326 326 325 327 329 329 332 337 333 335 333 335 337 340 340 340 339 340 342 341 342 345 346 348 350 350 352 352 352 354 353 353 353 353 352 354
296 301 305 306 306 305 301 300 298 299 300 300 294 289 296 304 306 307 303 298 302 316 327 327 325 326 327 329 329 327 326 329 330 333 335 335 336 335 335 336 338 340 340 339 341 341 341 343 344 346 348 349 350 352 352 352 353 352 353 352 353 353 353
300 303 305 306 308 307 301 299 302 301 297 300 299 297 301 302 305 299 299 298 303 317 327 326 326 328 330 330 329 328 328 330 332 333 333 335 335 337 338 336 338 339 339 341 342 341 342 342 344 346 347 348 350 351 352 352 352 352 352 352 352 353 353
291 295 300 301 305 305 300 300 301 309 310 304 303 305 306 302 303 302 298 293 299 311 328 326 326 327 326 328 330 331 329 330 333 333 334 335 336 337 336 336 337 337 338 339 340 341 341 342 344 346 347 348 349 350 351 351 351 352 352 351 352 352 352
285 287 288 291 294 297 301 302 306 312 311 310 298 296 298 293 302 302 298 298 307 319 323 324 325 325 324 326 328 331 331 332 332 333 334 335 336 335 336 336 336 336 337 338 339 340 341 343 344 345 347 348 349 349 350 351 351 351 351 350 351 351 351
291 292 296 301 306 300 298 304 310 312 315 314 300 297 297 293 300 300 304 307 309 314 319 320 321 322 322 323 325 328 330 333 334 333 334 335 335 335 336 336 337 337 337 338 339 340 342 343 344 344 345 348 349 348 349 350 351 351 351 350 350 350 350
300 301 302 303 305 301 308 309 309 312 313 313 311 298 293 300 302 295 307 312 310 312 317 319 320 321 321 322 325 328 330 331 332 333 335 336 336 336 337 337 336 336 337 338 339 339 340 342 342 344 345 347 348 349 348 349 349 348 345 346 345 349 349
303 303 304 303 307 309 309 310 310 310 312 312 310 309 313 308 299 298 306 312 312 315 318 319 320 321 322 322 324 327 331 332 333 333 333 334 335 336 336 336 336 336 337 338 338 340 341 341 341 340 340 340 341 343 344 346 346 345 347 348 348 347 346
301 303 305 306 307 310 310 310 311 312 312 312 312 312 313 312 307 311 314 315 315 318 321 323 324 326 325 325 326 328 330 331 332 332 331 332 333 335 335 335 336 337 338 338 339 340 339 339 339 340 341 342 342 342 343 345 345 346 346 347 346 344 342
298 303 304 307 307 309 307 310 311 312 312 312 312 312 312 315 315 317 317 315 313 320 324 325 326 325 326 326 326 326 329 331 331 332 331 332 332 333 334 335 336 337 338 339 339 338 338 338 338 339 340 341 342 342 343 344 345 346 346 344 343 342 343
295 301 302 303 304 306 304 305 309 310 310 308 310 308 311 310 309 314 315 313 313 320 326 326 327 325 324 324 326 327 328 330 330 330 330 331 332 332 335 336 337 337 337 337 337 338 339 339 339 339 340 340 342 342 344 344 345 346 343 342 342 343 343
293 301 303 303 304 301 299 300 304 310 310 311 312 311 313 313 315 312 310 311 318 323 327 324 324 324 324 325 325 325 326 327 328 329 331 333 333 334 335 336 335 336 336 336 336 336 337 337 338 339 339 339 340 342 343 344 345 344 343 343 342 342 344
292 298 301 302 295 290 292 308 312 313 310 310 308 309 311 313 316 315 320 320 323 323 323 322 321 322 323 325 326 327 324 324 327 330 332 333 334 334 335 335 335 335 334 334 335 335 334 336 337 337 338 337 338 340 341 342 341 341 341 342 343 344 345
291 296 297 293 288 290 306 311 315 316 314 313 311 312 313 315 317 317 317 319 319 320 321 322 322 324 325 327 325 324 326 327 329 330 331 331 332 331 331 331 331 330 330 331 331 331 333 334 334 334 334 335 336 337 338 338 339 339 339 339 340 341 341
293 291 290 285 287 300 309 312 311 314 315 313 311 309 313 314 315 317 315 317 319 321 322 324 325 323 324 326 327 328 329 332 332 329 328 329 329 329 330 329 329 330 330 330 330 330 332 331 331 332 332 334 333 333 335 335 335 336 337 336 336 338 338
289 291 288 291 300 301 302 306 306 307 305 307 306 302 308 315 315 315 314 316 319 320 321 322 322 322 323 321 322 329 330 330 330 329 329 329 329 330 331 332 331 332 332 331 331 330 327 327 326 327 329 330 330 329 329 329 330 330 330 330 330 332 333
294 288 285 286 287 286 294 304 310 313 314 312 311 307 303 313 317 320 318 315 316 319 320 320 319 319 317 313 316 325 329 330 329 330 330 330 330 331 330 330 331 331 330 330 329 327 325 325 325 326 326 326 326 325 325 326 326 326 326 326 327 328 329
291 289 284 283 285 289 297 303 307 311 313 313 312 303 298 309 317 319 318 317 318 317 319 318 318 313 310 311 316 324 328 329 330 328 329 329 329 329 329 329 328 328 328 327 327 326 324 323 324 326 326 325 324 324 324 324 324 323 323 323 325 326 327
292 288 285 285 293 292 300 305 308 310 313 313 305 292 294 310 318 320 319 317 317 318 318 318 314 312 309 312 318 327 329 330 330 329 327 327 327 328 329 330 329 329 329 327 324 323 323 323 326 327 326 325 324 322 323 324 323 323 323 323 324 325 326
295 297 290 292 293 302 308 308 311 311 316 308 294 288 298 312 318 320 320 319 320 319 317 316 312 314 318 321 324 328 328 327 328 329 330 328 328 326 325 324 327 323 323 323 323 323 323 325 324 323 323 322 322 323 322 322 322 323 323 323 323 324 325
291 291 288 289 291 299 307 310 311 313 307 293 292 303 310 316 316 320 322 320 319 320 319 317 317 319 322 324 325 325 325 325 326 326 327 327 326 325 325 327 325 320 320 320 320 320 320 320 321 321 321 320 319 319 319 320 322 324 324 323 322 322 323
293 292 288 286 284 299 311 310 310 312 300 299 306 314 317 320 317 318 320 321 322 322 319 320 320 321 322 323 324 324 325 324 323 324 325 325 324 321 319 319 323 320 318 318 318 319 319 319 319 320 322 322 322 321 319 320 323 322 322 321 322 324 326
286 289 286 285 292 301 311 310 301 306 309 312 316 316 314 318 320 320 319 320 321 322 320 319 319 320 321 323 324 323 322 322 323 324 324 324 324 320 319 320 320 322 318 319 320 322 323 323 322 323 322 319 318 316 315 318 321 325 323 322 322 324 325
295 291 295 303 305 308 310 311 310 313 317 318 317 317 317 317 318 323 320 320 321 321 321 320 319 318 319 322 324 322 321 321 322 321 321 321 319 318 318 319 321 319 318 318 319 320 320 321 321 321 321 322 321 319 321 325 324 322 322 325 323 322 322
306 306 307 310 308 309 311 313 314 315 316 318 318 317 316 317 319 321 320 321 322 322 321 319 319 318 317 319 322 322 322 321 321 322 320 319 318 318 318 318 318 318 318 318 318 318 318 320 321 321 319 319 319 317 321 324 320 321 322 323 322 320 321
295 293 307 307 307 309 310 311 312 313 314 314 316 316 317 318 320 321 321 321 322 323 321 319 318 318 319 319 320 321 321 321 321 320 319 319 318 318 317 319 320 317 316 316 317 318 317 318 318 319 318 318 318 320 321 321 322 323 324 324 325 322 318
295 300 305 309 310 309 310 309 310 310 311 313 313 313 315 316 317 320 322 324 324 324 322 321 320 318 319 319 319 319 320 320 321 320 318 317 317 318 319 319 318 316 316 315 317 317 317 316 318 319 319 319 319 319 319 320 320 323 322 321 321 318 317
302 304 306 308 309 309 310 311 312 313 313 313 314 315 314 314 314 315 316 320 323 323 323 322 321 320 319 320 320 320 320 320 320 319 318 317 317 318 317 317 318 317 318 318 318 318 316 316 316 317 318 319 318 317 319 319 319 322 323 325 324 314 314
297 298 302 306 301 300 306 309 311 311 312 313 313 313 313 313 313 314 314 315 318 321 322 322 321 320 319 320 320 320 320 319 319 319 319 319 318 317 317 318 318 319 319 318 317 317 315 316 317 318 318 317 318 320 319 319 319 322 323 318 312 312 313
298 301 307 307 307 306 307 310 312 313 314 313 312 311 312 313 314 314 313 313 313 314 316 321 321 320 320 321 322 321 321 320 319 319 318 317 317 317 318 318 317 317 317 319 319 318 317 318 319 319 317 317 317 319 318 318 319 317 319 321 315 313 317
306 308 310 310 308 306 309 312 312 313 314 314 312 312 313 313 314 314 313 312 313 313 315 317 321 321 320 320 321 321 321 322 321 321 320 319 318 318 318 318 317 318 318 318 318 318 315 317 317 317 318 317 315 318 318 318 317 315 316 318 318 313 314
308 312 311 310 310 311 312 313 313 313 314 313 311 311 312 313 313 314 314 314 314 314 314 314 315 317 320 320 321 321 321 322 325 326 328 326 322 319 319 319 318 318 318 317 317 316 316 315 314 317 315 317 317 318 317 317 317 316 314 315 316 313 315

ECMWFFLT2_sfc_thetae_111.txt.gz
Theta_e
300 307 318 316 319 303 305 307 301 302 309 309 302 304 307 306 302 299 309 308 312 322 325 325 327 325 325 327 329 329 328 328 328 328 329 330 331 329 325 326 329 331 334 336 337 338 338 340 340 341 343 345 346 347 348 348 348 351 352 354 354 354 353
303 304 313 317 317 308 304 301 303 307 311 310 303 294 296 296 292 298 306 305 307 306 302 324 322 319 322 325 326 327 328 328 328 329 329 330 330 331 328 326 328 330 333 336 337 339 339 339 340 341 343 345 346 348 348 348 348 349 352 353 354 354 353
303 305 307 310 317 307 310 308 307 304 297 298 302 301 292 293 292 295 301 307 306 307 307 317 319 317 317 322 325 325 325 327 328 329 330 330 331 331 330 327 327 328 331 335 336 338 339 340 341 343 344 346 347 348 349 349 349 350 352 353 354 355 355
301 299 298 294 294 301 300 304 304 306 302 298 299 299 300 298 293 294 296 303 298 309 310 317 319 320 318 320 323 324 326 326 328 330 330 330 330 330 331 328 328 328 329 333 336 337 338 339 340 343 345 346 346 348 349 349 351 351 352 352 353 353 355
299 295 297 296 295 294 292 298 296 301 301 305 305 306 299 294 293 293 294 294 300 306 317 319 321 322 321 321 323 325 326 327 329 330 330 330 330 330 332 330 329 329 328 331 335 336 338 339 342 344 345 346 347 348 348 350 350 350 350 352 352 352 355
293 295 299 301 300 297 296 293 296 296 301 298 295 292 301 302 295 291 294 294 301 310 324 321 323 325 323 324 325 325 327 330 330 331 333 332 331 332 333 333 331 330 329 330 333 335 337 338 341 343 346 346 347 347 348 349 351 350 350 351 351 351 354
296 298 301 302 304 301 300 302 301 301 299 298 292 289 294 302 304 305 301 297 299 315 326 322 322 325 326 327 328 327 328 329 331 333 334 334 334 334 335 336 335 336 337 338 334 333 335 336 340 343 345 346 347 348 348 349 350 350 351 351 352 351 352
298 301 304 303 306 305 302 301 301 306 304 304 296 294 297 300 302 298 298 296 300 315 325 325 325 325 327 328 328 328 328 329 330 332 333 335 335 334 335 335 337 337 339 339 338 337 337 336 339 342 345 346 347 348 348 349 350 350 351 351 352 351 351
292 296 300 300 304 303 298 298 300 308 311 310 303 301 301 299 301 299 296 292 298 314 326 325 327 327 327 327 330 329 328 328 329 331 334 335 335 334 334 335 336 337 337 338 337 337 337 338 339 340 344 346 346 348 349 348 350 351 352 352 352 351 351
284 285 286 289 294 297 299 302 308 312 312 310 301 296 297 292 299 301 296 296 305 319 323 323 324 324 325 329 330 332 330 330 330 332 333 334 334 333 333 334 335 335 336 337 338 338 339 340 339 338 340 343 346 348 349 350 349 350 351 352 352 351 350
288 291 296 301 303 298 301 307 309 310 313 313 298 294 295 292 294 299 299 301 309 313 318 320 321 322 323 325 328 329 330 331 331 331 333 334 334 334 333 334 335 336 336 336 338 339 340 339 340 340 340 339 339 341 342 344 345 347 347 349 350 350 350
296 297 299 303 309 305 305 307 308 310 311 311 308 297 293 301 297 293 301 308 308 311 317 319 320 322 324 326 328 329 330 329 330 332 333 336 334 334 334 334 333 334 335 336 337 339 340 339 340 342 342 343 343 345 345 346 347 347 346 346 345 346 347
302 302 304 307 308 308 308 308 308 308 310 310 308 306 308 307 295 295 303 311 311 314 317 320 321 322 324 326 328 330 332 333 333 332 332 331 332 333 334 333 333 334 335 336 337 339 339 339 340 341 343 344 345 346 346 346 347 347 346 346 345 343 342
302 303 305 307 307 306 306 305 306 308 309 309 310 311 313 309 307 311 314 315 315 319 320 322 323 326 326 328 331 331 331 332 333 333 332 332 333 334 334 333 333 333 335 336 337 339 339 338 339 340 341 343 344 344 344 346 346 347 346 345 343 341 342
299 302 304 306 306 304 302 304 305 307 309 309 310 312 313 316 315 317 316 316 315 321 324 323 326 328 329 330 329 329 330 332 332 332 333 333 334 335 335 335 335 335 336 337 338 338 338 338 339 339 341 342 343 343 343 343 344 345 346 344 343 342 342
294 299 301 302 304 304 302 301 303 305 307 306 308 308 313 313 311 315 316 313 314 321 325 325 326 326 326 326 327 328 329 331 331 331 331 331 333 334 335 336 337 336 337 337 337 337 336 337 338 339 339 341 342 342 343 342 344 345 345 344 343 343 343
290 296 301 302 302 299 295 296 301 306 307 309 311 313 314 313 315 313 310 311 319 323 325 322 323 324 324 323 324 325 327 329 330 330 331 332 333 334 335 336 337 337 336 335 335 336 337 337 338 339 339 339 340 341 341 343 344 343 343 343 342 341 341
288 294 297 299 293 287 288 303 311 311 308 308 308 309 311 313 315 312 315 316 319 322 322 321 320 320 321 322 324 327 327 328 330 332 333 333 332 331 331 332 332 333 332 332 333 334 334 336 339 340 341 340 341 342 342 342 341 340 341 341 342 342 343
290 292 293 291 285 287 301 309 313 314 313 313 311 312 314 315 315 314 312 314 316 317 319 319 321 323 325 327 327 329 331 331 329 329 329 329 329 328 328 328 329 329 329 329 330 331 332 335 336 337 338 340 340 340 341 340 340 339 339 340 340 341 340
289 289 286 283 283 294 303 309 310 311 313 312 309 308 312 314 315 315 312 314 316 318 319 320 323 324 326 327 328 328 330 331 329 328 328 329 329 327 327 327 328 328 329 328 328 329 331 331 333 335 335 337 336 335 337 337 337 338 338 337 337 338 338
288 287 284 289 295 298 300 302 304 305 302 303 302 297 303 313 316 316 314 315 318 319 319 321 323 323 324 322 322 328 328 328 329 329 328 329 328 328 329 329 328 328 328 328 328 329 328 329 329 330 332 332 331 331 330 330 331 331 331 330 331 333 334
290 285 286 286 287 286 292 299 306 311 311 311 309 302 299 307 315 318 317 316 317 318 319 320 320 320 318 314 317 325 327 328 327 328 329 329 329 328 327 327 327 327 327 328 329 327 326 326 327 328 330 330 329 328 327 328 327 327 327 327 329 330 330
289 287 282 282 284 287 296 300 305 309 311 311 307 299 294 303 312 317 319 318 319 319 318 316 316 313 310 311 317 324 327 327 328 325 326 328 328 327 327 326 325 326 326 327 327 327 326 325 325 327 328 327 326 325 325 324 325 325 325 326 327 327 328
290 285 285 285 288 292 300 302 305 308 311 312 302 290 290 303 315 317 317 317 317 316 314 315 314 313 310 312 318 327 328 329 328 326 325 325 325 326 327 327 326 326 327 325 324 324 324 324 325 325 326 326 326 324 324 324 323 322 323 323 325 326 327
293 294 286 287 290 298 303 304 307 309 313 305 293 288 296 309 315 317 316 316 316 316 315 314 310 313 317 320 324 328 327 326 325 326 328 327 327 325 325 325 327 323 324 324 323 322 322 323 323 324 324 324 323 324 322 321 321 321 322 323 324 324 325
288 287 288 287 287 294 302 306 309 310 305 293 290 299 306 314 315 317 318 317 316 316 316 314 314 319 324 326 326 325 324 324 324 326 326 325 325 327 326 326 323 321 320 319 319 320 320 321 322 321 321 321 320 319 319 319 320 321 322 322 323 323 323
290 286 285 285 284 297 308 308 306 309 299 297 301 310 314 316 316 317 318 317 316 317 315 318 320 322 323 324 324 324 323 323 323 322 321 319 321 321 320 320 322 319 317 317 317 318 319 320 321 321 321 320 320 319 317 319 321 321 321 322 324 325 324
285 286 286 285 291 297 305 305 299 303 305 307 312 315 312 315 315 316 315 316 318 319 318 319 320 322 322 321 322 322 321 322 322 322 321 319 317 317 318 319 320 322 319 320 320 320 321 321 320 319 320 320 321 318 316 319 323 324 321 321 324 325 327
292 289 289 295 300 304 306 307 305 308 313 316 316 317 315 316 315 317 316 317 319 319 319 319 320 319 321 322 322 320 320 321 320 320 319 316 315 316 317 318 321 321 319 318 318 319 319 320 320 320 320 320 320 318 318 323 322 322 323 326 324 320 319
302 301 303 305 305 306 309 311 313 315 316 317 319 319 316 317 317 318 318 319 319 319 320 319 318 320 320 321 320 319 320 320 320 320 316 315 315 315 316 317 319 319 318 318 318 318 318 319 320 320 319 319 319 317 321 324 319 321 323 323 323 321 321
292 293 303 304 305 307 309 310 311 313 314 314 317 317 317 318 319 319 320 320 319 319 319 318 318 318 320 320 319 319 319 318 318 317 315 315 315 314 315 317 319 317 317 317 317 317 316 316 317 318 317 318 319 321 321 320 321 322 325 325 324 318 315
293 295 304 306 308 310 312 311 311 311 312 313 314 315 317 318 320 321 321 321 320 320 319 319 318 318 320 320 318 318 318 317 317 316 315 314 314 315 315 316 316 315 315 315 316 316 315 315 317 318 317 317 317 317 318 319 319 323 326 322 317 314 315
300 304 305 307 310 310 311 313 313 313 312 312 312 314 316 318 319 319 319 321 320 320 319 319 319 319 320 320 319 318 318 317 316 315 315 314 315 315 314 314 316 314 314 315 314 316 314 313 314 316 316 316 316 316 317 317 319 323 324 325 321 313 315
295 297 300 306 303 301 306 310 313 314 314 314 314 315 315 317 316 317 317 317 319 320 320 320 320 318 318 319 319 319 319 318 316 315 315 315 315 314 315 316 315 316 316 315 314 314 312 312 314 315 314 315 316 318 317 317 320 323 322 318 313 313 314
297 300 304 306 306 306 307 309 312 313 316 314 314 313 313 314 315 317 317 316 317 318 319 321 320 319 318 318 318 317 316 316 316 316 316 315 314 315 316 315 314 314 314 315 314 314 313 315 316 316 314 314 314 316 315 316 318 317 317 317 315 313 317
303 305 307 307 307 306 308 310 311 312 312 312 311 312 313 313 313 315 315 316 316 315 317 318 320 320 319 319 319 317 317 317 316 315 315 316 316 316 316 315 315 316 315 314 314 315 312 314 314 314 315 314 313 316 315 314 315 315 316 317 312 313 313
304 307 308 307 308 309 310 311 311 312 314 314 312 311 312 313 313 314 313 313 314 316 315 316 317 319 320 319 320 321 320 320 321 319 321 320 318 316 316 316 316 316 316 315 314 313 313 312 311 314 312 315 315 317 314 313 313 313 313 315 313 311 313

ECMWFFLT2_sfc_thetae_114.txt.gz
Theta_e
300 300 318 317 318 302 307 306 301 302 306 307 299 301 303 301 297 295 304 304 308 318 320 323 326 325 324 328 329 329 327 326 326 327 328 328 324 323 325 329 331 332 333 335 336 337 337 339 340 341 343 345 345 346 346 347 348 351 351 352 351 352 352
301 301 316 318 314 313 307 302 304 307 312 309 299 292 293 291 289 292 302 300 302 303 301 322 321 322 324 325 325 327 326 325 325 327 328 329 327 323 325 328 331 333 334 335 336 337 338 339 340 341 343 345 346 346 347 347 347 349 351 352 352 352 352
300 301 317 314 318 311 311 308 313 304 293 296 297 297 289 290 289 289 295 302 302 304 305 315 317 319 321 324 326 325 325 325 325 326 328 329 330 325 323 325 329 332 333 334 336 337 338 339 341 341 343 345 346 346 347 347 347 349 351 353 353 354 354
300 298 305 302 298 300 304 308 309 309 305 297 297 297 297 296 289 291 290 299 294 307 308 316 316 320 322 322 324 325 326 326 326 327 328 328 329 327 324 324 328 331 333 335 336 337 337 338 340 341 342 344 345 347 348 348 349 349 351 353 354 353 354
299 293 296 295 296 294 293 296 300 303 300 308 304 303 297 293 290 288 288 290 295 304 313 318 319 322 323 323 323 325 326 328 328 328 328 328 329 329 326 325 326 329 332 334 336 337 338 339 341 342 342 343 345 346 347 349 348 348 349 352 353 353 354
291 293 297 298 299 296 295 292 297 298 296 296 293 291 299 299 293 288 290 290 297 309 324 322 320 324 325 324 323 324 326 327 328 329 329 330 329 330 329 326 326 328 331 334 336 338 339 339 339 340 342 343 344 345 346 348 348 349 349 351 352 353 355
295 298 301 303 302 301 296 304 305 303 296 297 291 288 291 299 300 302 295 294 296 316 324 324 324 328 327 325 323 324 326 327 328 330 331 331 331 331 331 328 327 327 329 331 334 336 337 338 338 340 342 343 344 345 346 348 349 349 350 351 353 353 354
298 301 302 302 304 302 300 298 303 308 306 307 298 293 294 297 299 297 295 294 296 311 325 325 325 327 331 329 325 324 327 328 329 331 332 331 331 331 333 331 330 329 329 331 333 335 335 336 337 339 342 344 345 345 346 347 348 349 350 351 352 353 353
292 294 297 298 303 302 297 296 304 309 310 309 306 300 299 299 298 297 294 290 295 311 324 325 326 326 329 330 331 330 328 329 331 332 333 333 332 333 333 332 331 331 332 332 333 334 335 336 337 340 342 343 344 345 347 347 348 350 351 352 352 352 352
284 285 283 288 295 299 299 303 309 310 310 308 304 294 296 291 296 298 294 292 300 317 322 322 323 325 325 328 330 328 328 328 328 332 333 333 333 332 333 332 332 331 332 333 334 335 336 337 338 340 342 344 345 346 348 348 349 350 351 352 352 352 352
288 289 291 297 302 299 301 305 306 307 310 311 299 295 293 291 291 297 295 299 310 315 318 319 321 323 323 325 328 326 329 330 330 330 333 334 333 333 333 333 333 334 333 333 335 336 337 338 339 341 342 343 344 346 347 348 350 351 351 351 352 351 351
295 295 297 300 307 302 304 303 304 307 309 311 309 299 295 301 295 287 296 306 311 313 317 319 320 322 324 326 328 328 328 328 329 331 333 336 334 333 334 334 334 333 334 335 336 337 338 338 339 341 342 343 344 345 346 348 349 350 351 351 351 351 350
298 298 299 301 306 305 304 304 304 305 308 310 309 310 312 307 294 290 303 310 311 314 318 320 321 322 324 326 328 331 332 330 330 330 331 331 333 333 333 333 333 334 334 334 336 338 338 339 339 340 341 343 345 346 347 348 350 350 351 351 350 350 350
298 300 301 302 304 304 303 303 304 305 308 309 311 311 314 310 310 311 313 314 314 319 320 322 323 327 328 329 331 332 331 331 331 330 329 331 332 333 333 333 333 334 335 335 337 337 337 338 339 340 341 342 344 345 346 348 349 350 351 350 350 350 349
296 298 302 301 302 301 300 301 304 306 306 308 311 312 313 315 315 315 315 315 314 320 324 324 328 329 330 330 329 330 331 332 333 330 329 331 332 334 334 333 334 335 336 337 337 337 337 338 339 340 341 342 344 346 347 348 348 349 349 348 348 348 349
291 296 298 300 301 301 299 297 301 304 304 304 308 308 312 311 310 314 316 313 313 320 325 325 327 326 325 324 326 327 329 331 332 331 331 332 334 335 335 335 335 335 336 336 337 337 338 339 340 340 341 342 344 344 346 346 348 348 348 347 346 345 345
287 293 297 300 298 293 293 294 300 303 303 304 308 313 315 313 312 310 308 309 315 322 325 322 322 323 323 324 325 327 329 330 331 331 332 333 334 335 335 336 336 336 336 337 337 337 338 338 339 340 342 342 341 343 344 344 344 344 345 345 342 340 342
286 291 294 296 292 286 286 297 305 308 305 305 307 309 311 314 314 312 314 314 316 319 319 319 319 320 322 324 327 330 329 330 331 331 331 330 331 332 334 334 333 333 334 335 336 337 338 339 341 341 342 341 341 342 343 343 342 341 341 341 341 341 342
288 289 290 290 284 286 298 305 309 313 311 312 311 312 313 314 315 314 313 314 314 316 318 318 319 321 325 327 328 329 330 331 330 329 329 328 327 327 328 328 329 330 331 332 333 335 337 339 339 340 340 341 340 341 341 340 340 339 339 339 339 340 341
287 287 285 281 281 292 301 303 309 312 311 308 307 305 309 313 314 314 312 314 315 316 318 320 323 322 323 325 326 327 328 329 329 328 327 326 326 326 327 327 328 329 330 330 331 332 336 338 339 340 339 340 339 338 340 338 338 338 338 337 337 337 338
287 284 281 286 291 296 299 302 303 306 302 302 302 297 299 307 313 313 313 315 318 319 320 321 322 324 325 321 322 326 327 327 328 328 327 327 327 327 327 328 327 329 329 329 330 331 331 331 333 334 336 337 336 336 335 335 335 334 334 333 334 335 335
288 286 286 284 284 285 290 298 305 310 308 308 306 303 299 304 312 315 315 315 318 318 319 320 320 321 318 315 316 324 327 328 327 327 327 327 327 327 327 327 328 329 329 331 331 330 330 330 331 332 333 332 332 331 331 331 332 331 332 331 331 332 332
288 286 282 282 284 287 294 299 303 309 310 309 304 298 294 300 311 317 317 317 319 318 318 317 317 315 312 311 317 323 326 326 327 325 325 325 325 325 325 324 324 325 327 328 328 328 328 327 328 331 331 330 329 328 328 329 329 329 328 328 329 330 330
289 285 284 284 287 291 300 300 303 307 308 306 300 291 289 299 312 316 318 318 318 318 316 316 314 313 311 313 318 326 326 327 326 325 324 324 324 325 325 326 326 326 327 325 324 325 325 325 327 328 329 328 327 325 325 327 326 326 326 327 328 329 330
292 293 284 285 289 297 300 302 304 306 309 303 292 286 294 303 313 316 318 318 318 317 316 314 310 312 317 322 324 325 325 324 324 324 325 324 325 324 323 324 325 323 323 322 321 321 322 324 325 327 327 325 324 325 324 322 322 323 324 326 325 324 325
288 287 288 287 286 293 299 302 306 308 303 293 290 298 302 310 313 315 318 318 319 319 316 314 313 320 325 326 325 324 324 322 321 321 322 323 323 324 326 325 322 319 319 319 319 320 321 321 322 322 322 322 321 321 320 319 321 324 325 324 323 322 321
289 284 285 285 283 296 304 305 305 308 298 296 298 306 312 315 315 316 316 317 317 317 315 319 323 324 324 324 323 323 322 320 319 319 319 319 319 320 320 320 322 320 318 319 319 320 321 321 321 321 320 319 319 319 318 320 323 325 325 324 322 321 320
284 285 285 284 290 297 302 303 298 302 305 306 306 311 311 313 315 316 315 315 316 317 319 322 322 323 322 322 322 321 321 320 319 318 317 317 317 318 319 320 321 322 320 320 319 320 320 321 321 322 322 321 321 321 319 322 324 326 324 323 321 321 322
290 287 289 292 296 301 304 304 303 304 309 312 313 315 313 314 314 316 316 316 317 320 322 322 323 321 321 320 321 320 319 319 317 315 315 316 317 318 319 320 322 320 318 318 318 319 319 320 321 321 321 321 321 320 321 325 324 323 323 323 321 320 320
299 299 300 303 304 305 307 310 310 310 313 315 317 317 315 315 317 318 317 318 319 320 322 321 320 320 319 319 319 320 319 318 316 316 315 316 317 318 319 319 320 319 319 318 318 318 318 319 319 321 319 320 320 320 322 325 323 324 323 322 321 319 319
294 293 300 303 304 306 307 309 311 311 313 312 313 314 316 317 319 319 320 320 320 320 320 320 319 319 319 318 318 319 318 317 315 314 314 314 316 317 317 319 320 318 318 317 317 317 317 318 319 320 320 320 320 321 322 322 324 325 324 322 323 319 320
294 295 301 304 306 307 310 309 310 310 312 314 314 314 317 318 320 320 320 320 320 321 320 320 320 319 319 318 317 317 317 316 315 314 314 314 315 315 316 318 318 317 316 316 316 317 317 317 318 319 319 318 318 319 320 322 324 327 327 324 318 318 320
299 300 303 304 306 307 309 311 312 313 314 314 314 314 316 317 318 319 320 321 320 320 320 320 321 320 319 319 318 317 316 315 315 314 314 314 314 314 315 316 317 315 316 316 317 317 316 316 317 317 317 317 318 318 320 321 322 323 325 325 321 317 317
295 298 300 304 300 299 305 309 311 313 315 316 314 315 316 317 316 317 318 318 320 319 319 321 322 321 319 319 319 318 317 316 314 314 314 314 314 314 315 316 316 317 317 316 316 316 315 316 317 317 316 317 317 319 319 319 320 322 323 321 318 318 318
296 300 303 306 303 305 306 310 313 314 315 315 314 315 315 315 317 318 317 317 317 318 319 321 322 320 319 319 319 318 316 315 314 315 315 315 315 315 316 316 315 316 317 318 317 317 316 318 317 318 317 316 316 317 317 318 318 318 319 319 318 317 321
300 303 307 307 308 307 308 312 314 314 315 315 314 315 317 317 318 318 318 318 317 317 318 319 320 319 318 318 319 316 315 316 316 315 315 315 316 317 317 316 316 317 316 316 316 317 316 317 316 316 316 316 315 317 316 317 317 318 318 318 316 317 316
303 305 308 307 309 311 312 312 313 314 316 315 313 313 314 315 316 318 317 317 318 318 318 318 319 320 319 318 318 317 316 316 318 318 322 320 319 317 316 316 317 317 317 316 314 314 314 315 316 317 315 317 316 317 316 315 317 319 318 318 314 314 320

ECMWFFLT2_sfc_thetae_117.txt.gz
Theta_e
305 311 322 321 322 305 314 313 307 309 313 312 310 309 309 309 306 303 314 311 315 321 321 325 327 325 324 327 328 330 331 332 332 333 332 329 328 330 333 336 338 340 342 343 343 345 345 346 347 348 350 353 353 354 354 355 356 358 358 360 360 361 362
311 307 313 321 319 320 314 308 311 315 317 313 309 300 306 303 298 301 310 306 309 309 306 326 324 323 324 325 326 329 331 334 330 331 334 332 329 331 335 338 340 341 342 343 344 345 346 346 347 349 352 354 355 355 355 355 356 357 357 358 358 360 361
310 319 320 317 318 316 314 313 316 308 305 303 309 305 296 296 296 299 305 308 309 311 310 320 320 321 323 325 326 328 329 330 330 331 334 335 332 331 333 336 339 340 341 342 344 345 346 348 349 350 352 353 354 354 354 355 355 356 356 357 358 360 360
305 309 317 307 314 312 315 317 312 314 313 308 302 304 305 303 297 297 298 306 302 316 315 320 321 324 325 325 326 327 328 330 330 331 333 335 334 332 333 336 339 340 340 342 344 345 346 347 349 350 352 351 351 353 353 355 356 358 357 357 359 359 359
306 302 305 302 304 307 307 307 306 307 308 313 308 308 303 301 299 299 298 297 304 315 322 323 323 324 327 326 325 327 329 330 330 330 332 336 337 334 334 336 338 339 340 341 344 346 347 348 349 349 351 350 351 352 353 355 355 354 355 356 359 359 359
301 302 305 305 304 305 304 307 307 309 304 302 298 299 307 305 301 296 298 297 306 318 328 326 326 327 327 329 328 327 329 330 330 330 332 335 337 338 334 334 337 339 342 342 344 346 346 346 347 349 349 350 352 352 352 353 353 354 354 357 360 361 361
302 305 307 308 307 309 316 316 312 313 307 306 302 292 299 305 306 308 307 302 305 322 328 329 327 330 330 330 330 329 329 328 329 331 333 336 339 339 337 335 336 339 342 343 344 345 345 346 346 348 349 350 351 353 354 355 354 355 356 358 362 363 363
305 308 308 309 309 309 309 313 317 316 310 312 305 302 304 301 307 304 305 301 306 323 330 329 329 332 332 332 329 328 328 330 331 335 335 338 339 342 340 338 338 340 342 344 345 345 346 347 348 348 349 351 352 354 356 357 356 358 359 360 362 363 362
299 301 305 307 311 311 309 309 314 315 316 315 314 313 309 303 304 305 301 296 303 322 329 329 330 330 330 331 332 331 329 333 334 335 338 339 339 340 341 339 337 338 340 343 345 346 347 347 347 348 350 351 352 353 355 355 357 359 359 360 361 362 362
289 290 292 295 301 307 309 312 313 315 314 313 308 302 306 299 306 306 303 303 314 323 327 327 327 328 328 330 330 332 332 331 333 336 337 338 339 340 341 341 339 337 339 342 344 346 347 348 348 349 350 350 352 354 355 356 357 359 360 360 361 361 361
296 299 305 308 311 309 305 307 311 312 315 314 308 306 304 301 305 303 308 307 312 318 321 322 324 326 326 328 328 328 330 331 333 336 337 338 338 339 341 342 342 341 339 339 342 346 347 348 349 350 350 352 353 354 354 356 357 359 360 360 360 360 361
302 302 305 307 310 307 308 307 308 314 313 314 313 308 305 311 305 300 311 313 312 317 321 321 323 325 327 329 329 329 330 332 333 334 336 336 337 338 340 340 340 339 340 341 341 344 346 348 350 350 351 351 353 354 353 355 358 358 358 359 360 360 359
304 305 307 308 311 310 310 310 311 311 314 313 311 311 312 311 304 302 312 314 313 317 321 322 323 325 327 328 330 332 331 331 333 334 334 334 334 336 337 340 341 341 341 341 342 344 345 348 348 349 351 353 355 356 357 358 358 358 360 360 360 359 360
303 305 305 308 309 309 308 311 312 313 314 313 314 313 315 314 313 314 315 316 316 320 321 324 326 329 330 330 333 334 333 331 331 332 331 333 334 335 336 337 338 340 342 343 344 345 346 346 348 349 350 352 354 354 355 357 358 359 361 360 360 360 360
301 304 305 308 308 308 306 308 310 312 314 314 314 314 314 316 317 316 316 316 316 323 326 327 329 330 331 332 331 332 332 332 331 330 330 331 333 334 335 337 338 340 342 344 345 345 346 347 348 349 351 352 353 354 356 358 358 360 359 359 359 360 360
299 302 304 304 306 306 305 304 307 310 312 309 313 312 315 314 313 314 315 314 315 322 327 327 328 328 327 326 328 330 332 332 331 329 330 332 334 336 336 337 338 339 340 341 343 345 347 347 348 349 349 350 351 352 354 354 357 359 359 359 358 358 359
297 302 303 305 304 303 299 301 306 310 311 313 315 316 317 317 317 314 311 313 318 323 326 324 324 325 325 326 325 327 330 333 334 333 334 335 337 338 339 338 338 339 340 340 342 344 345 345 346 348 349 349 349 352 353 356 357 356 356 356 356 353 351
297 300 302 305 299 292 294 312 312 313 312 313 313 314 315 317 319 318 320 319 319 321 323 323 322 321 321 323 326 328 328 330 333 334 333 332 333 335 337 338 338 338 340 341 343 343 343 344 346 347 349 350 352 353 352 352 355 354 352 351 350 349 350
296 301 301 296 289 292 309 312 314 318 316 316 314 315 316 318 320 321 319 319 318 319 321 322 322 324 325 326 325 326 328 329 330 328 328 329 331 332 332 333 334 335 337 339 340 341 343 345 345 346 347 348 348 348 347 347 350 350 350 349 346 348 347
300 297 296 287 290 304 308 310 311 317 317 315 313 312 316 319 320 322 320 320 321 321 322 323 324 323 325 326 326 327 328 328 327 326 326 327 328 327 328 328 329 330 331 332 333 334 338 342 343 344 344 346 347 346 348 346 346 346 346 346 345 344 341
295 296 296 294 304 302 304 306 309 311 310 312 310 307 312 318 321 322 321 320 321 322 323 324 325 325 326 323 322 327 326 327 327 327 326 327 327 327 328 329 329 331 332 332 333 334 333 334 335 336 341 344 343 343 343 344 345 345 342 341 341 342 341
300 299 297 295 295 291 298 310 312 316 316 315 315 311 310 318 321 323 322 320 320 321 323 323 324 323 321 317 318 324 326 327 325 326 326 327 326 327 327 328 329 330 331 332 333 333 331 331 332 334 336 337 336 335 336 337 337 336 336 338 339 337 337
298 298 294 294 291 294 306 309 311 315 315 315 317 309 304 317 322 322 322 320 322 322 322 323 323 322 317 315 319 324 325 325 326 325 325 326 326 327 327 327 327 328 329 331 332 331 330 329 331 333 334 334 333 331 331 331 331 330 329 330 332 333 334
300 298 295 292 299 295 308 311 312 313 316 315 311 299 300 314 321 323 322 321 322 324 323 323 323 321 316 316 319 325 325 326 325 325 325 325 326 326 327 327 327 326 328 329 328 328 328 329 331 332 333 332 329 328 327 328 326 325 326 327 329 331 332
300 297 298 298 300 307 310 310 313 315 316 311 301 296 306 317 322 324 323 323 323 324 323 323 322 321 325 323 325 326 325 323 323 325 325 325 326 326 325 325 326 324 325 325 325 326 327 329 330 330 330 328 325 325 324 323 322 323 324 325 325 325 326
298 300 296 296 301 306 310 312 313 316 310 300 300 312 315 319 323 324 324 324 324 325 323 322 323 325 326 326 325 323 322 321 322 323 323 323 324 325 327 327 326 324 324 323 324 325 325 325 327 327 327 326 325 325 323 322 323 324 324 323 324 324 324
299 299 296 293 288 306 310 314 312 313 306 307 313 317 322 323 325 324 325 325 324 324 323 325 325 325 325 324 322 320 320 321 320 321 321 321 322 324 325 325 326 324 323 322 322 323 326 327 327 327 326 325 324 323 322 323 325 326 326 324 323 323 324
296 297 294 293 302 311 312 313 308 313 315 317 318 321 321 323 325 325 325 325 325 325 325 325 325 325 324 323 321 320 321 321 320 320 321 321 322 323 324 324 324 324 323 322 322 323 325 326 328 328 326 325 325 323 323 325 324 325 325 325 325 325 326
302 300 304 309 311 312 315 314 315 314 319 321 322 323 324 323 324 328 326 326 326 327 326 326 324 323 325 322 321 320 320 320 320 320 320 322 322 322 322 322 324 324 322 322 322 322 323 324 326 327 326 324 323 323 325 327 326 326 327 327 326 325 324
308 310 311 312 313 314 316 317 318 319 320 320 322 322 323 324 325 326 326 326 325 326 328 325 324 324 324 323 321 321 320 320 321 322 322 322 323 323 322 323 324 323 323 323 322 322 323 324 325 327 327 326 326 327 329 329 328 327 327 327 326 326 325
303 299 312 312 313 315 315 316 317 319 321 321 323 322 321 322 323 324 326 327 328 328 328 326 324 324 325 322 321 321 321 321 321 322 323 323 324 324 323 325 325 324 323 322 322 322 322 324 324 325 326 327 329 330 330 329 329 330 330 330 329 328 327
305 307 311 313 314 315 317 317 318 318 319 322 323 322 322 321 322 322 321 323 327 328 326 327 325 324 324 323 322 321 322 321 323 323 324 324 324 324 324 326 326 325 323 322 322 322 323 324 325 325 326 327 330 331 332 331 330 330 329 328 327 328 327
308 310 312 313 314 315 316 318 320 321 321 321 323 324 322 321 322 322 323 322 321 324 327 328 326 323 323 322 322 321 321 322 323 324 325 325 325 324 324 324 325 324 324 323 323 322 323 324 325 326 326 327 328 329 330 331 332 330 328 327 325 322 323
305 306 310 313 308 308 313 316 319 320 322 323 322 323 323 323 322 322 322 322 324 323 323 325 324 324 324 323 323 321 321 323 324 324 323 323 324 324 324 325 325 325 326 325 325 325 325 326 326 325 325 326 326 325 326 327 329 328 328 326 324 323 322
303 314 316 317 319 317 318 319 320 322 323 324 323 322 322 322 322 321 321 321 321 322 322 322 324 326 326 325 324 323 323 323 324 324 323 322 322 323 324 323 324 325 326 326 326 325 326 326 325 325 325 325 325 325 328 329 328 329 328 326 324 324 326
311 314 318 318 318 314 316 320 321 323 325 324 321 322 323 323 322 321 319 320 319 319 321 322 322 323 326 326 324 323 323 323 324 323 323 323 323 323 324 325 325 325 325 325 325 325 326 326 325 325 323 324 326 323 327 329 329 329 327 325 324 323 323
312 316 319 318 321 319 320 320 321 323 325 325 322 323 324 323 321 322 320 319 320 320 319 320 322 324 324 325 325 324 324 324 325 325 326 326 325 324 323 324 325 325 325 326 326 325 326 326 326 325 324 325 326 325 328 327 326 326 326 324 321 322 324

ECMWFFLT2_sfc_thetae_120.txt.gz
Theta_e
311 316 319 318 317 302 314 313 305 305 313 311 309 311 310 309 305 300 311 313 317 323 326 326 326 327 330 333 332 333 333 332 334 336 337 337 335 334 336 337 339 342 342 344 344 346 346 347 348 350 353 354 356 356 356 357 358 359 359 361 360 361 362
317 317 318 321 318 318 315 307 310 318 320 317 310 299 305 304 299 301 311 305 308 312 305 325 325 323 324 329 331 332 333 333 331 334 337 337 334 335 338 340 342 343 344 345 345 346 348 346 347 351 354 356 358 358 358 357 357 358 357 358 358 360 361
316 315 315 318 320 319 314 312 320 307 303 301 309 307 296 297 298 300 304 308 308 310 311 322 322 323 323 325 329 331 330 332 330 331 335 337 336 336 338 340 342 343 344 345 347 348 350 351 350 352 355 356 359 358 356 356 356 356 356 356 356 358 359
313 316 313 308 312 318 318 320 313 318 313 310 307 308 306 306 299 300 299 305 301 314 318 323 323 325 326 326 326 327 330 332 333 331 333 336 336 336 339 341 342 341 342 346 348 349 351 352 352 352 356 355 355 357 355 355 357 357 357 355 356 356 357
309 304 308 308 311 308 310 310 310 312 311 315 312 312 306 304 302 300 300 298 304 316 325 327 327 328 327 328 328 329 329 332 334 335 332 338 340 339 340 340 340 341 342 343 348 351 352 353 354 353 355 354 354 355 355 357 356 354 354 354 356 358 358
303 306 311 311 311 311 309 308 308 310 310 306 301 300 309 306 302 297 299 298 306 321 331 327 327 330 329 331 330 330 331 331 334 336 337 335 337 338 339 338 339 341 343 344 347 351 350 351 352 354 354 355 355 354 353 356 353 354 354 355 358 360 361
304 307 312 316 316 314 314 314 312 315 313 310 304 295 301 305 305 307 306 302 306 323 331 331 330 331 333 333 331 330 331 332 332 335 338 339 339 340 339 337 340 343 345 346 347 350 350 351 352 353 354 354 355 356 357 358 357 357 356 358 360 362 362
309 311 313 316 318 316 316 315 316 314 311 311 308 305 308 304 306 303 303 300 306 325 333 333 332 332 334 334 332 331 331 333 334 337 336 339 341 341 340 341 341 345 346 348 349 350 351 352 353 354 355 357 357 358 359 361 360 361 361 361 362 365 364
301 305 309 308 312 313 313 312 314 315 315 314 313 312 315 303 304 305 302 297 304 323 331 331 332 331 331 331 332 334 334 335 335 336 336 337 340 340 341 341 343 345 346 348 349 351 353 353 353 354 354 357 358 358 361 360 362 363 362 364 364 366 365
291 292 295 298 302 305 311 313 312 313 312 313 312 306 308 299 305 306 304 302 316 324 327 328 330 331 331 335 336 337 337 335 335 334 335 337 338 340 343 344 345 345 347 349 351 353 354 355 354 355 356 357 359 361 362 363 363 364 364 365 366 367 366
297 300 305 310 309 309 306 309 310 311 313 313 312 310 307 302 305 307 309 308 311 315 323 324 327 329 329 331 333 332 333 336 337 339 339 339 338 341 344 345 346 347 348 349 351 353 354 356 356 357 357 357 359 361 362 363 363 364 366 366 367 368 367
305 306 309 311 311 307 307 305 307 311 311 311 310 307 305 313 308 302 312 316 311 316 322 324 326 328 330 332 332 332 334 336 335 336 338 338 341 344 346 346 346 345 345 348 350 351 353 354 357 357 358 358 360 361 360 362 364 364 363 364 366 366 366
305 307 309 311 311 312 311 309 308 309 311 311 308 309 312 313 308 305 314 319 315 319 323 325 327 328 330 332 336 335 336 335 335 335 336 337 339 341 342 345 347 347 346 347 347 349 350 353 354 356 357 358 360 361 362 363 363 364 365 365 366 365 366
304 305 307 309 308 310 309 309 308 311 310 311 311 312 313 315 314 316 316 318 318 322 324 327 330 332 332 334 337 337 335 333 335 335 335 335 337 339 343 346 347 348 349 349 348 349 349 351 353 354 356 357 357 358 360 361 362 364 365 365 365 366 366
302 304 306 307 307 307 306 307 309 309 310 311 312 311 312 314 316 316 316 318 319 327 329 329 331 333 334 333 329 327 330 335 334 333 332 333 336 338 340 343 348 350 350 350 350 350 350 350 351 353 355 357 358 359 359 360 362 364 364 364 365 365 365
300 303 303 304 306 306 305 305 306 307 307 306 309 311 315 313 310 314 316 316 318 326 329 329 332 331 332 331 331 328 329 333 334 333 334 334 335 337 339 342 343 345 346 348 349 350 351 352 352 354 355 357 357 357 359 360 362 363 362 362 361 363 364
299 303 304 303 304 303 300 302 306 309 310 312 312 313 316 316 319 313 311 315 324 328 329 326 327 328 329 327 327 329 330 333 334 336 335 336 336 336 339 341 342 342 344 347 349 348 350 351 352 354 356 355 355 357 358 361 362 361 360 362 362 362 363
299 302 303 304 300 293 294 309 314 314 310 314 311 310 314 320 322 318 323 323 328 328 328 326 326 327 326 327 330 333 332 330 330 331 331 333 334 335 337 339 341 342 345 345 346 348 348 350 351 353 354 354 355 358 359 361 361 361 359 361 360 361 362
298 302 302 297 291 295 309 317 316 320 319 318 316 317 318 320 323 325 324 324 327 327 327 326 327 327 328 330 329 329 331 329 327 328 329 329 330 331 332 334 336 337 339 341 343 345 347 348 350 351 351 353 354 354 354 355 356 357 357 356 356 357 359
302 299 298 289 292 304 307 312 315 320 319 317 316 314 316 318 321 324 323 326 329 328 327 327 328 328 329 331 331 330 330 333 330 329 328 327 328 327 329 330 331 332 335 336 337 338 343 347 348 349 349 352 351 352 354 353 353 355 357 357 357 358 357
296 298 297 297 304 303 306 307 312 312 310 313 314 307 312 320 325 325 325 326 328 328 327 327 327 329 330 330 327 329 329 330 331 330 329 328 328 328 329 330 330 333 335 336 336 337 338 339 340 343 348 348 348 349 349 350 351 353 355 356 353 354 351
303 297 295 296 296 293 301 308 314 316 317 318 318 314 309 317 319 325 326 325 326 325 327 327 328 330 327 324 323 327 329 330 329 330 330 332 331 330 329 330 332 333 334 335 336 336 336 337 339 342 344 343 340 339 339 341 342 341 340 342 348 350 351
301 299 295 294 293 297 306 309 313 318 319 319 320 312 304 317 323 326 327 326 325 325 326 327 329 326 321 321 325 329 329 329 330 329 328 329 330 329 329 328 329 331 332 333 334 335 336 335 336 337 337 336 335 333 333 334 334 333 334 335 335 339 346
301 298 296 294 299 298 311 316 315 317 320 318 315 298 302 315 325 326 328 328 328 327 328 330 329 326 321 322 325 329 327 327 329 330 328 327 328 329 330 329 329 329 331 331 331 332 332 332 333 332 332 331 330 329 329 329 328 328 329 331 333 334 338
299 300 298 300 301 310 315 316 318 319 321 315 302 295 311 320 324 327 327 329 329 331 329 328 324 329 330 330 330 329 329 327 327 330 331 330 329 328 329 328 330 328 329 328 329 332 333 333 332 333 333 331 329 328 328 327 327 327 330 332 332 332 334
298 299 297 298 302 313 316 319 319 321 314 300 299 316 321 326 326 326 327 328 329 331 330 329 329 330 329 331 330 328 326 326 326 327 329 329 329 330 330 331 330 329 329 329 328 330 331 331 331 332 332 330 329 329 328 326 327 329 331 332 333 332 331
302 302 298 295 290 311 316 319 318 319 307 310 318 323 327 327 328 326 328 329 329 330 328 329 331 329 328 329 326 323 322 323 326 326 327 327 328 329 330 330 330 330 328 328 327 328 330 331 330 331 331 329 328 328 326 327 330 331 333 333 332 330 330
297 298 296 295 306 315 321 317 308 316 318 324 326 322 321 328 328 329 329 330 331 330 330 330 329 327 326 325 324 322 321 323 327 327 327 328 328 328 328 328 328 327 326 326 326 327 328 330 332 332 330 327 326 326 326 328 327 329 330 330 331 332 333
303 302 306 317 320 320 321 322 323 323 325 325 326 326 324 326 328 331 329 329 330 329 330 329 328 325 324 323 323 319 318 321 323 323 324 325 325 324 324 324 325 324 322 322 322 324 325 327 327 328 328 327 326 326 327 329 329 327 328 327 326 327 328
314 316 317 319 319 319 322 321 325 324 326 326 327 326 326 330 330 331 330 331 331 327 328 327 328 326 323 321 319 319 319 321 324 325 324 324 325 324 324 324 323 322 321 320 320 320 322 324 325 327 326 327 327 327 329 331 330 330 329 328 328 327 327
304 299 319 316 318 322 322 323 325 328 326 327 327 328 328 327 328 331 332 333 332 330 328 327 325 324 324 319 319 319 320 320 321 322 322 324 324 323 323 324 323 323 323 321 321 321 322 324 324 324 325 326 327 328 329 330 331 331 330 329 330 330 328
306 306 319 321 322 323 325 324 324 325 325 327 328 328 329 329 330 331 332 333 332 333 330 329 326 326 324 322 321 320 321 322 322 323 325 327 327 328 328 327 325 324 324 323 323 324 324 325 326 327 329 329 329 328 327 328 330 332 330 328 325 324 323
311 318 317 320 322 323 324 325 327 327 327 328 327 328 329 330 330 330 330 332 331 331 327 326 326 324 324 322 322 323 322 322 323 323 323 326 327 327 326 326 326 324 324 323 324 324 324 327 329 328 327 327 328 329 329 330 331 329 327 328 326 323 321
306 306 313 319 311 314 319 322 324 325 328 330 329 328 329 329 329 328 326 327 329 329 327 327 327 322 319 320 320 321 320 321 322 324 322 322 324 327 328 328 327 326 325 325 324 324 326 327 327 328 328 328 328 327 329 330 331 330 328 326 326 324 323
303 313 320 323 322 320 320 322 324 327 328 327 326 328 328 329 330 328 327 325 325 326 325 321 317 319 319 319 317 318 319 320 321 322 322 321 320 323 327 327 327 326 326 326 325 325 325 325 324 324 324 325 327 328 330 330 331 332 330 326 323 322 325
314 318 322 323 320 318 320 322 325 325 328 328 327 328 328 328 329 329 327 326 325 325 326 324 322 322 321 321 320 320 322 321 320 320 322 324 326 325 324 325 327 327 328 328 327 327 328 327 326 327 326 326 327 325 328 329 330 331 330 327 325 324 325
316 323 324 323 321 320 322 323 322 327 332 325 323 325 328 328 328 326 325 326 326 326 326 327 328 329 323 321 321 321 324 324 324 324 323 323 323 324 324 325 326 327 328 329 329 329 328 328 328 327 327 328 328 328 329 329 329 330 329 328 326 326 327

ECMWFFLT2_sfc_thetae_123.txt.gz
Theta_e
312 312 314 314 314 302 311 309 304 306 312 309 305 306 307 306 305 300 310 309 313 320 322 325 324 324 329 331 333 331 330 332 337 335 334 336 338 335 335 335 336 338 340 342 344 344 346 348 349 350 352 352 353 356 355 356 359 359 359 360 359 361 362
313 316 315 315 319 316 311 305 310 314 315 313 308 301 306 305 299 301 308 307 306 307 304 322 324 322 327 328 330 331 330 330 332 333 335 338 339 337 336 337 338 338 341 343 344 345 347 347 347 350 353 354 355 355 356 356 357 357 356 357 356 358 361
313 316 313 311 319 320 312 310 316 307 305 301 309 306 297 296 296 299 303 306 308 309 310 319 318 319 322 325 329 330 329 328 328 332 336 338 339 337 336 336 337 338 340 342 345 345 347 349 350 349 351 353 355 355 355 355 355 356 354 354 355 357 358
312 313 311 304 310 315 318 319 313 315 311 308 304 305 307 303 298 299 300 306 304 315 315 317 318 322 321 321 327 330 331 330 329 331 334 338 337 339 337 336 337 337 339 342 344 345 346 347 347 348 351 350 351 354 354 355 354 356 355 353 354 355 355
309 304 308 305 308 305 309 310 308 311 311 315 311 312 306 302 300 300 298 297 304 318 321 323 324 326 325 323 324 330 333 333 332 331 332 338 339 338 338 339 338 338 339 341 344 346 346 346 347 348 349 350 350 351 352 354 354 352 352 352 353 355 355
304 305 311 311 310 312 311 308 309 310 308 306 302 299 308 307 302 298 298 297 306 318 329 325 326 326 327 328 326 325 333 333 335 337 336 339 338 339 340 337 338 339 341 342 345 346 346 347 348 348 347 349 350 352 350 351 350 351 351 353 357 357 357
305 307 312 315 314 314 313 312 309 311 313 311 306 294 301 306 306 307 305 301 307 322 327 331 328 326 329 330 330 328 329 335 337 338 338 340 341 343 340 337 340 342 343 344 345 345 345 347 348 347 349 350 352 355 356 353 353 354 354 355 357 359 358
309 310 312 313 315 311 309 312 313 313 309 310 307 307 309 304 306 303 304 301 308 322 331 331 330 330 332 331 331 332 332 334 339 341 337 340 343 336 339 344 343 345 346 345 347 346 348 349 349 349 351 354 354 356 358 358 355 356 356 360 357 359 359
302 304 309 310 313 314 310 309 312 312 312 312 310 311 312 303 304 305 302 297 305 320 329 331 331 333 332 331 330 333 334 336 337 340 340 339 343 342 341 343 343 344 346 347 348 350 352 350 347 349 350 351 353 355 356 356 359 361 358 359 360 359 360
293 294 294 298 302 307 309 313 311 311 313 314 307 306 308 300 306 307 305 303 313 321 326 326 328 330 334 334 334 335 336 337 338 339 340 340 340 344 344 343 343 344 345 346 347 348 350 353 351 354 357 353 355 358 357 358 359 361 361 360 360 361 361
300 302 305 308 309 307 305 308 309 310 311 312 313 311 305 301 307 306 309 310 311 313 321 322 324 328 330 332 332 332 332 336 339 341 342 342 342 343 346 346 344 344 345 344 346 349 350 354 355 356 356 358 360 359 359 359 360 361 362 361 362 363 364
306 306 306 307 309 306 307 306 307 309 310 312 310 306 306 312 307 301 315 316 309 313 317 321 323 326 330 330 329 331 333 334 336 339 343 341 342 341 343 345 343 345 344 348 350 352 353 356 355 353 358 357 359 362 362 362 363 362 361 361 363 363 365
306 307 307 307 310 310 309 309 309 309 310 310 308 307 308 311 306 303 311 318 314 316 319 323 327 330 325 327 333 335 335 336 337 338 337 338 340 342 341 343 343 338 344 350 351 352 354 357 357 357 356 358 360 363 364 365 364 364 365 364 364 364 366
304 305 306 307 306 311 308 307 308 309 310 310 309 308 310 312 310 315 313 314 314 318 320 324 331 331 328 332 337 336 336 335 337 337 339 338 341 337 338 340 341 343 341 349 352 353 355 356 357 357 358 359 360 361 363 364 364 365 366 365 364 364 363
303 305 307 307 306 306 306 307 308 309 310 310 310 310 310 310 310 311 313 314 313 326 330 331 335 332 331 334 334 333 335 337 337 337 337 339 340 339 337 337 340 339 340 344 347 351 354 355 356 358 358 360 362 362 363 365 364 366 365 365 365 366 364
300 304 304 306 306 306 305 305 306 308 308 307 308 308 311 310 310 311 311 309 310 319 326 331 334 333 327 328 333 333 335 336 337 337 337 338 339 340 339 337 337 340 340 340 346 351 353 355 356 357 358 359 360 360 362 363 365 365 365 364 363 366 366
300 304 305 304 305 304 301 302 304 306 307 309 310 312 315 312 315 311 308 309 320 324 326 324 330 325 327 330 332 333 334 336 336 336 336 335 337 338 337 338 337 338 340 341 349 352 354 354 354 356 359 359 359 361 362 362 364 364 363 363 363 363 366
300 304 304 305 302 294 296 311 313 311 308 311 309 311 313 315 321 316 319 319 321 324 323 324 326 328 327 330 332 334 334 334 335 336 336 338 335 334 335 336 336 336 337 338 342 345 350 355 357 357 358 359 360 362 363 364 363 362 361 361 361 360 363
300 304 303 299 293 296 310 314 313 314 313 313 311 311 313 315 317 318 319 319 323 323 326 329 331 331 331 332 332 333 334 335 334 334 334 335 333 333 332 334 335 334 336 339 342 345 347 352 353 354 355 356 357 357 357 358 358 358 360 359 359 360 361
304 301 299 291 294 307 309 310 312 314 311 310 310 309 311 313 315 318 316 320 322 324 327 330 332 331 331 332 334 333 334 335 333 332 333 334 334 332 333 333 334 335 336 337 338 340 346 349 350 352 353 354 355 355 356 356 357 357 357 357 357 357 357
297 300 299 299 306 305 306 307 309 310 308 310 309 305 310 318 318 322 323 321 321 325 330 331 332 333 331 330 329 333 334 333 333 333 332 333 333 333 334 338 336 336 338 338 339 343 345 347 348 350 352 353 352 353 353 353 354 357 356 357 357 359 359
304 299 297 299 298 295 300 308 312 314 313 314 314 312 308 315 317 322 324 322 321 327 330 331 331 331 322 318 324 330 332 333 331 332 332 334 335 334 334 334 338 338 338 339 341 342 342 342 343 345 347 347 347 347 347 347 347 347 347 347 349 353 355
303 300 296 296 295 299 307 311 313 315 316 315 315 308 303 317 321 321 322 322 326 328 328 327 330 327 320 318 324 328 331 331 331 329 330 332 334 334 334 333 332 334 336 338 339 339 340 338 338 340 342 342 342 340 340 341 341 340 340 342 345 348 350
301 300 297 296 301 300 308 311 312 315 317 314 311 297 298 314 320 320 325 324 325 325 328 327 326 325 319 318 321 329 331 332 332 331 330 331 331 333 334 333 333 335 336 335 334 334 335 335 337 337 337 336 335 334 335 336 336 336 337 338 341 344 348
301 299 299 300 303 309 313 314 316 316 318 312 300 294 309 320 321 325 324 324 323 325 328 329 326 326 328 329 329 330 332 331 331 331 331 332 332 332 332 331 333 333 334 333 333 334 335 335 335 335 335 332 331 332 333 333 332 334 336 337 337 340 345
299 301 298 299 302 315 317 317 315 320 312 299 299 314 322 327 324 324 326 327 328 330 325 328 328 329 330 332 332 331 331 331 330 330 330 331 333 335 334 333 332 332 333 333 334 336 337 335 336 335 333 331 331 331 332 331 332 334 335 335 336 338 340
303 302 299 296 291 312 316 317 314 318 305 312 316 322 326 325 324 325 328 329 329 330 326 326 328 330 330 331 331 330 330 330 330 330 330 329 330 331 331 331 332 332 331 330 330 332 335 336 335 335 333 331 330 330 329 330 332 332 333 336 337 338 338
299 298 297 295 310 314 320 315 308 319 322 324 325 322 321 326 325 327 329 330 331 331 329 324 324 329 329 329 329 331 331 330 330 330 330 331 330 330 330 330 331 332 330 330 330 331 332 332 333 331 329 326 326 325 327 330 331 332 332 333 334 334 335
304 302 305 314 317 319 321 319 319 321 327 328 326 323 320 320 324 330 326 329 332 334 332 330 328 330 328 327 327 328 329 329 328 329 329 329 328 330 330 328 329 329 328 327 328 328 328 328 327 327 326 325 324 324 327 330 330 329 328 328 328 329 330
312 314 314 318 316 316 319 320 323 323 326 324 324 324 322 329 331 331 329 331 333 334 335 332 329 326 325 324 322 325 329 331 329 329 328 327 327 327 327 327 327 326 326 325 325 324 325 326 326 328 327 327 325 326 328 331 331 331 330 329 328 327 326
305 299 315 314 315 318 321 320 325 329 329 325 326 326 327 328 329 332 333 334 334 335 334 329 324 323 322 321 321 324 326 326 327 327 325 324 324 323 322 324 325 324 322 321 322 322 321 323 325 326 327 327 327 328 329 329 331 331 330 329 328 328 327
306 306 317 319 321 322 323 320 320 324 327 329 331 330 330 331 332 333 333 333 333 333 331 328 324 322 322 322 323 323 325 326 326 325 324 324 325 325 326 325 325 324 322 321 321 322 323 325 326 326 327 327 327 328 328 327 327 327 326 325 323 323 322
309 312 314 316 319 319 323 325 324 327 328 328 330 330 331 331 331 333 331 332 332 331 330 329 326 324 323 324 323 322 323 326 326 325 325 325 326 324 324 325 326 326 326 325 326 325 326 328 328 328 328 329 330 331 331 330 329 326 324 325 324 321 321
305 307 314 318 309 312 321 325 326 327 329 328 329 330 331 331 331 332 329 327 329 331 331 329 327 325 324 323 323 322 321 322 324 325 325 325 324 324 324 324 325 327 328 328 327 326 326 328 327 328 328 328 329 328 329 329 329 328 328 325 323 322 321
304 311 316 320 319 321 322 325 324 327 327 327 327 327 329 329 330 331 328 323 325 326 328 327 325 323 323 323 324 322 321 323 326 327 326 327 325 323 324 324 326 327 328 328 328 327 328 329 328 328 329 329 330 330 331 329 327 328 329 327 325 324 325
315 317 321 321 320 319 321 323 324 326 330 328 327 329 328 326 327 330 326 326 323 324 325 325 323 322 321 320 319 318 319 321 322 325 327 326 327 325 324 324 325 325 325 325 325 325 326 325 325 326 326 328 330 330 332 332 332 332 331 328 326 325 326
317 321 323 324 324 322 324 326 327 329 328 328 326 327 325 325 325 331 325 325 326 325 322 321 322 321 316 314 314 314 316 322 326 327 328 325 324 327 327 328 328 328 328 328 329 329 330 329 328 328 328 329 330 331 332 332 332 332 332 329 327 326 327

ECMWFFLT2_sfc_thetae_126.txt.gz
Theta_e
312 311 313 312 314 300 308 308 303 306 312 308 303 304 304 304 302 299 309 306 312 320 321 322 323 324 324 327 329 330 331 333 336 335 336 336 337 338 336 336 337 340 342 342 343 344 345 346 344 344 348 350 352 355 354 356 358 357 357 360 357 359 360
312 315 314 314 314 314 311 304 307 313 314 311 305 297 301 299 296 300 306 303 305 307 304 321 321 322 324 325 326 328 330 332 332 335 337 338 338 338 341 343 340 340 342 343 344 345 347 346 346 347 352 351 356 355 355 354 356 355 355 356 356 357 358
312 315 314 310 312 318 310 309 317 305 302 301 309 303 294 295 295 298 302 305 306 308 307 315 316 320 320 324 326 327 327 329 331 335 340 342 341 341 340 341 339 339 341 342 345 346 346 349 350 348 350 350 353 353 353 353 354 353 354 354 355 356 356
311 311 310 302 307 314 316 316 311 315 309 305 302 303 305 303 296 296 299 303 299 312 314 316 319 321 322 322 324 326 329 330 331 334 336 339 341 343 345 345 340 338 337 339 342 344 347 348 349 347 349 346 347 349 352 353 356 356 354 352 353 354 354
309 304 307 303 307 306 307 308 307 309 308 312 310 311 305 301 299 299 297 298 305 312 319 320 321 324 326 327 326 326 329 329 330 330 334 339 342 343 346 346 343 338 338 338 342 346 347 347 349 348 348 347 347 349 350 352 352 352 352 351 352 354 355
303 304 310 310 310 311 308 307 306 307 307 305 300 299 309 305 301 295 298 296 309 317 325 325 322 324 325 327 329 331 328 330 332 333 334 341 341 344 344 344 344 338 339 339 341 345 344 345 346 349 347 349 349 348 349 350 350 351 349 351 355 354 356
303 306 310 313 313 312 312 310 307 311 308 308 305 295 301 305 305 306 304 299 305 318 326 328 326 329 330 331 329 328 331 331 334 335 334 341 343 340 344 345 345 341 340 342 343 345 343 344 346 346 346 346 349 352 352 352 353 353 351 351 358 357 358
307 310 311 313 314 312 309 310 312 310 307 308 306 305 306 303 303 301 301 298 308 320 327 328 326 332 332 330 328 331 332 336 336 336 337 338 342 342 344 345 346 346 342 344 344 344 345 346 347 347 348 350 352 353 355 354 355 356 356 357 360 360 357
301 302 306 307 310 310 309 308 311 312 311 310 309 310 312 303 304 304 300 296 307 316 327 328 329 328 327 328 328 331 331 336 336 337 337 339 344 343 344 343 344 346 344 344 346 346 346 348 348 347 348 351 355 355 356 354 355 358 355 357 359 360 357
293 293 295 296 301 306 308 310 310 311 309 309 307 303 306 298 305 306 301 301 310 318 324 323 327 326 326 327 328 330 335 334 335 335 335 338 342 344 344 344 346 344 344 345 348 349 349 351 349 350 350 352 354 359 357 357 357 359 358 357 360 360 357
298 301 304 306 308 306 302 306 309 309 310 310 310 311 306 302 304 302 306 308 309 313 318 321 325 326 325 327 327 329 331 335 336 337 339 340 341 343 344 344 346 345 341 341 348 350 349 350 351 352 352 354 355 359 358 359 360 360 359 358 362 361 360
303 305 305 306 307 304 306 305 305 308 308 309 310 306 304 310 305 299 311 312 308 310 313 317 320 324 328 328 331 333 333 333 334 336 335 337 339 341 346 341 342 344 346 343 347 352 351 353 354 353 354 356 357 357 356 357 360 359 355 356 363 362 360
305 306 306 306 306 305 305 306 306 306 307 308 307 307 309 310 304 300 308 311 311 313 315 321 323 327 323 325 332 333 335 336 336 337 337 336 338 341 342 344 346 346 346 346 343 347 350 352 353 353 351 356 361 361 360 359 358 361 361 360 361 360 362
304 305 306 306 304 305 306 306 307 307 306 307 308 308 310 309 309 310 310 313 311 314 318 323 325 328 326 326 331 333 334 334 336 335 335 335 337 338 340 342 344 345 343 345 345 344 348 347 353 352 354 352 359 362 364 370 370 367 363 363 362 361 363
301 303 305 305 305 305 303 304 306 306 306 306 308 309 309 310 309 310 310 311 312 321 327 325 328 329 328 326 324 331 332 336 335 335 335 336 337 339 341 344 343 343 343 344 343 341 342 342 347 353 357 359 361 365 365 363 363 360 365 367 365 363 364
299 303 303 303 304 304 304 303 304 305 305 304 307 306 309 308 307 308 310 308 309 322 329 326 328 328 326 324 322 322 330 334 335 335 336 336 337 339 341 342 342 341 339 337 338 341 339 341 344 346 348 357 361 362 364 363 358 356 354 360 364 367 368
299 304 304 303 304 302 300 302 305 308 307 307 307 309 311 311 312 308 306 307 319 325 326 325 324 324 324 326 327 328 329 330 332 336 337 337 338 340 341 340 340 340 338 338 338 341 345 344 347 349 349 347 348 351 355 359 364 356 352 359 357 360 366
299 302 303 304 301 294 296 309 311 310 306 308 306 307 310 317 314 311 314 315 320 325 326 325 324 324 324 326 329 330 328 327 327 328 333 336 337 337 338 340 339 337 338 339 342 343 343 344 349 349 348 347 348 350 350 350 356 356 351 352 353 356 359
299 302 302 298 293 295 309 311 313 312 310 310 309 310 310 311 314 315 314 317 317 327 327 327 327 327 327 328 328 329 329 331 330 331 334 334 333 334 336 336 337 337 339 339 340 341 344 346 351 349 347 347 347 348 349 352 354 352 351 357 356 353 352
303 300 298 290 293 307 308 309 311 313 311 310 308 307 309 311 313 316 314 316 324 327 328 328 329 327 327 328 330 331 332 332 331 332 331 332 333 333 335 336 336 337 336 336 340 343 347 349 350 352 351 350 349 350 349 350 353 354 357 358 355 353 348
297 299 298 297 307 304 306 307 309 309 308 309 307 302 307 315 317 321 320 321 325 328 328 328 327 327 326 323 324 331 331 331 332 332 332 333 333 334 336 337 337 339 339 340 341 343 346 348 349 351 353 353 350 351 351 353 354 354 354 353 354 354 353
302 298 296 297 297 294 301 308 312 314 313 313 313 309 305 319 320 322 321 321 324 325 325 323 323 325 324 319 322 329 330 331 329 333 334 335 334 335 335 338 337 337 339 341 342 341 341 342 346 347 348 349 347 346 347 348 348 349 348 348 350 352 348
300 299 296 295 294 298 308 309 311 314 315 314 315 307 301 318 321 322 321 321 324 324 324 320 322 320 314 316 323 328 331 331 333 332 332 333 334 335 336 336 336 338 338 340 339 339 339 339 341 345 346 345 343 341 342 342 342 341 342 343 345 348 348
300 298 296 295 300 300 308 312 312 314 315 315 311 297 299 312 319 321 322 323 324 325 325 322 321 319 313 314 323 331 331 332 332 332 331 332 333 333 334 335 336 337 338 338 336 335 335 336 339 339 339 338 337 337 338 337 337 337 338 340 343 346 347
300 299 297 298 300 310 312 313 315 315 317 312 298 293 307 319 320 321 321 323 326 326 325 325 321 323 326 328 330 331 333 331 332 333 334 333 333 332 332 333 335 334 335 335 334 333 334 335 336 337 337 335 334 335 335 334 334 337 341 343 345 346 347
299 300 297 297 302 312 315 315 316 318 311 299 299 311 321 323 321 322 323 324 327 328 327 327 327 328 330 331 331 331 331 331 331 332 332 333 333 333 334 334 334 333 333 334 333 334 335 335 335 335 335 332 332 332 332 332 336 339 341 341 342 341 341
302 301 297 295 291 309 315 316 314 317 306 312 316 320 323 322 319 321 326 327 326 329 325 326 328 327 328 328 329 330 331 330 330 330 331 331 330 331 332 333 333 333 332 332 333 333 334 335 334 333 333 331 331 331 331 333 337 339 340 340 339 339 339
299 299 296 295 307 313 319 315 307 317 320 322 321 319 316 321 322 324 324 326 328 328 328 328 328 326 326 327 329 329 329 329 330 332 331 331 332 332 332 332 333 333 332 330 328 329 330 330 330 331 331 329 329 328 328 333 335 338 339 339 339 338 338
305 301 304 311 316 318 318 319 317 318 322 323 321 320 319 318 322 328 327 323 324 328 329 329 329 327 327 325 326 325 328 330 330 329 329 330 331 331 330 331 333 333 330 327 326 326 327 329 329 329 329 327 328 327 330 333 331 332 334 335 334 335 336
313 313 312 315 315 315 316 318 321 320 322 322 320 320 319 321 324 329 328 326 327 328 330 326 327 325 326 325 326 326 328 330 330 328 328 329 329 327 328 329 329 330 330 326 325 325 326 328 329 329 329 329 327 328 331 331 331 330 329 328 327 328 330
304 299 313 312 314 316 318 318 319 323 323 323 323 324 323 323 324 331 331 329 327 328 329 327 325 324 325 325 326 328 328 328 326 326 326 327 328 327 327 326 326 325 325 325 325 326 325 325 325 326 328 328 328 329 328 328 329 328 327 326 326 325 324
305 305 312 314 318 320 321 319 317 318 323 328 330 330 327 327 331 333 333 333 331 331 329 328 323 323 326 325 326 326 326 326 326 325 323 324 325 326 325 326 324 321 321 321 322 323 323 323 324 325 325 325 326 325 326 326 329 330 327 325 322 321 321
309 311 312 315 318 318 321 327 325 324 324 325 325 327 327 327 331 333 333 334 332 331 329 329 326 324 325 326 326 325 323 323 324 324 324 324 325 326 328 330 329 328 327 325 323 325 326 327 329 330 330 329 329 329 328 329 328 326 326 329 323 318 318
304 305 314 317 308 311 316 322 323 325 326 325 324 325 327 328 331 332 331 332 332 331 329 327 325 324 324 325 326 325 324 324 325 326 325 324 324 327 328 329 329 328 329 330 328 327 328 329 330 330 330 328 327 325 326 328 331 332 332 327 325 323 323
308 312 318 324 319 317 322 324 325 325 325 324 323 325 329 330 331 332 331 330 330 330 330 329 325 324 324 324 325 325 324 325 326 328 327 325 325 327 328 328 329 329 329 330 330 329 329 331 330 330 329 328 328 328 330 330 330 331 329 327 324 323 325
314 318 316 319 318 318 323 324 326 327 328 326 329 330 330 330 330 330 332 331 329 328 328 327 327 325 323 323 325 324 325 326 328 329 329 325 325 327 328 327 328 328 327 329 329 329 330 329 328 329 328 330 332 328 333 332 333 331 330 328 326 324 322
317 319 324 322 324 323 324 326 325 327 328 327 328 328 329 328 328 330 330 330 331 329 326 325 326 326 324 323 323 323 324 325 326 326 327 325 326 326 325 325 327 328 327 328 329 330 330 330 329 328 328 330 331 330 332 331 332 334 335 329 323 324 326

ECMWFFLT2_sfc_thetae_129.txt.gz
Theta_e
307 307 310 310 308 296 302 303 298 303 308 304 300 303 304 303 299 297 307 305 309 315 318 319 324 325 325 327 328 329 329 332 334 334 335 333 333 335 335 333 335 336 339 340 341 340 341 340 338 338 341 345 347 348 348 351 350 353 354 354 352 353 352
309 312 311 311 311 309 305 299 304 309 312 308 303 294 296 295 291 295 303 299 304 305 301 321 320 321 323 325 326 331 330 331 332 333 333 334 334 335 336 336 334 337 340 340 341 342 342 341 340 338 343 346 349 349 349 351 351 351 354 355 354 354 353
309 312 311 307 312 313 305 306 315 302 298 297 307 301 291 290 290 292 297 303 303 305 306 314 314 317 319 322 324 326 327 328 329 332 332 333 334 335 338 338 338 335 339 340 340 341 342 341 343 340 345 347 350 350 350 352 352 353 354 356 356 355 355
307 309 304 298 306 310 312 311 306 310 304 303 300 301 299 298 291 293 292 299 297 312 312 317 317 320 322 322 322 325 327 327 329 331 334 334 335 337 340 343 344 341 338 339 340 340 341 341 342 342 345 348 350 351 352 352 354 354 354 354 355 353 354
305 297 302 300 301 300 304 302 302 307 309 310 305 308 302 297 293 292 292 291 302 310 320 320 320 324 324 324 324 326 327 329 330 331 334 337 338 337 336 338 342 345 338 339 340 341 343 344 345 344 345 347 349 351 351 353 352 353 353 353 353 353 353
297 300 308 308 308 306 303 302 302 301 301 302 294 294 307 303 298 291 291 291 305 317 327 324 321 323 326 324 323 324 327 329 330 331 333 335 336 336 336 337 340 343 341 337 340 342 343 343 345 343 344 346 348 349 351 351 352 352 351 352 352 352 352
298 302 306 310 311 310 308 306 304 307 307 306 299 288 298 306 306 304 301 296 300 315 322 325 325 328 328 327 326 326 328 329 329 332 334 334 339 337 337 337 338 339 342 340 337 341 341 342 344 343 343 342 346 347 349 350 351 351 351 350 350 352 351
304 306 308 311 312 310 306 308 308 306 303 307 303 301 304 301 303 299 298 296 302 314 323 323 323 325 329 328 328 327 327 328 331 335 336 336 339 338 338 337 338 340 342 344 341 339 341 341 342 343 343 344 344 346 348 349 349 351 351 350 351 350 351
294 298 303 304 309 309 306 305 308 310 311 310 310 309 307 299 303 303 297 291 299 314 323 323 325 323 325 327 328 329 327 328 332 335 336 337 339 338 336 336 337 338 341 343 343 340 339 341 342 343 343 344 345 346 348 348 349 350 350 350 351 350 349
287 289 291 293 295 300 304 310 311 309 307 309 305 300 301 291 302 304 298 298 305 313 319 318 318 318 321 326 327 329 329 330 331 334 336 335 336 340 339 336 335 336 339 339 340 342 342 340 342 343 343 343 346 346 348 349 349 349 349 351 352 349 349
291 294 299 305 306 303 297 303 304 306 308 308 310 306 299 293 299 300 303 304 303 308 313 317 322 318 319 323 325 326 326 328 330 333 334 337 338 339 341 341 338 339 339 339 339 343 345 343 341 343 343 343 345 347 348 349 350 349 349 352 353 350 349
299 300 299 302 305 300 302 300 303 304 305 309 306 300 299 305 299 292 307 309 307 308 313 315 317 320 324 323 323 323 324 325 326 328 331 333 335 339 341 340 337 336 338 341 341 341 342 343 342 343 343 344 344 349 349 349 350 350 350 352 353 351 349
301 301 301 303 303 303 303 306 303 306 307 308 305 305 308 307 299 295 307 310 308 310 312 315 317 323 324 324 325 326 328 328 327 326 326 327 329 333 338 338 337 336 339 342 342 340 341 343 344 345 344 344 347 352 350 352 352 351 350 352 353 352 349
301 301 301 303 301 301 300 303 303 303 303 302 302 305 309 308 306 308 309 311 311 317 315 317 324 327 326 325 327 327 326 326 327 327 325 326 327 329 331 336 339 340 342 341 342 342 341 342 343 344 344 343 341 340 344 350 352 354 352 353 353 352 350
299 301 302 302 301 300 299 300 300 303 303 304 305 304 303 311 310 311 309 309 310 319 322 323 327 327 327 324 323 324 325 328 326 325 325 325 327 329 331 334 335 337 339 340 340 340 340 340 342 342 344 346 345 344 343 340 343 349 352 353 353 353 352
296 300 299 300 301 300 299 299 303 303 304 303 304 303 308 307 306 308 309 307 309 317 324 326 326 325 324 323 323 323 324 326 326 327 327 326 327 332 335 334 335 335 336 338 338 339 340 341 344 344 344 345 344 344 343 343 344 343 340 345 352 354 355
296 300 301 300 301 298 295 301 303 307 304 305 306 306 311 310 311 306 303 305 316 320 324 321 321 322 323 323 322 321 324 322 324 326 325 326 332 335 335 336 337 338 338 337 336 341 342 342 344 343 346 344 343 344 343 343 346 345 344 342 340 342 344
295 299 300 300 295 289 290 305 314 308 306 307 303 304 305 316 313 309 312 314 319 322 322 321 320 320 319 322 324 326 323 322 324 327 328 331 333 333 333 335 335 335 335 337 340 342 342 342 347 347 347 344 345 348 345 344 345 346 344 343 342 343 342
295 298 298 293 287 291 306 309 310 310 308 308 306 307 307 313 317 320 320 319 320 323 322 322 322 322 323 325 326 328 329 329 326 327 331 331 331 331 331 333 334 335 335 335 336 338 340 342 344 346 343 344 345 345 346 344 346 346 345 343 344 343 342
299 295 294 287 289 305 310 309 312 313 308 306 308 307 314 317 317 320 318 321 323 323 323 323 323 324 325 325 326 329 331 330 329 328 328 329 330 330 332 333 333 334 334 332 333 336 341 343 343 345 344 346 345 346 348 347 346 346 345 346 345 344 344
291 293 292 292 301 300 306 310 311 307 305 305 301 298 308 316 317 318 320 321 322 323 323 323 322 324 324 320 321 329 328 328 330 330 330 330 330 330 332 335 335 335 336 336 338 339 338 339 343 344 344 345 346 345 346 347 348 346 346 345 344 344 343
298 295 290 291 291 289 298 308 310 311 311 310 308 307 306 316 317 321 322 321 320 321 321 321 322 324 319 314 316 325 329 330 329 330 332 333 332 333 333 335 336 335 336 338 340 338 336 336 342 345 345 346 346 346 346 346 345 345 346 345 344 343 342
297 295 290 289 289 294 305 309 313 313 313 312 311 303 302 312 318 321 322 320 321 321 320 318 320 316 310 311 320 326 329 330 332 330 331 332 332 332 332 333 333 334 336 338 338 337 335 334 338 341 342 343 341 339 339 339 340 339 339 340 341 340 340
296 294 291 289 297 298 307 313 310 311 313 314 305 292 296 311 317 321 323 321 321 321 320 318 318 315 311 314 320 327 329 329 329 331 331 332 331 331 332 333 335 335 336 334 333 333 332 333 336 338 338 337 336 335 335 337 336 336 338 340 342 342 342
298 298 293 294 297 312 316 312 314 312 316 309 294 289 302 315 318 318 322 322 322 323 320 319 315 319 322 325 328 331 331 330 329 332 332 331 331 330 331 332 335 333 333 333 331 331 332 334 335 335 335 334 333 334 335 336 336 338 341 342 342 341 340
296 296 292 293 300 308 314 314 316 316 311 295 296 307 315 320 320 322 324 323 325 324 323 322 320 322 327 328 330 330 331 331 331 331 330 330 330 331 334 335 334 331 331 331 331 331 332 333 334 333 334 333 333 334 334 334 336 339 340 341 341 341 341
301 299 294 291 287 307 318 318 315 317 306 304 312 315 317 321 321 322 323 324 324 326 323 325 325 325 325 326 326 328 329 330 329 328 328 328 328 328 329 330 331 330 326 326 326 328 331 332 332 333 333 331 332 333 333 335 338 339 339 339 338 338 338
294 296 295 294 302 312 321 315 306 315 316 316 319 317 314 321 322 322 321 324 325 325 324 324 323 325 325 325 326 326 326 327 327 327 328 329 329 329 330 329 327 327 325 326 325 327 329 330 330 329 329 329 330 331 331 336 337 337 337 337 337 336 336
302 300 303 306 311 312 316 320 316 320 323 325 324 320 317 318 321 324 322 323 324 327 327 325 324 323 324 324 325 324 324 326 327 326 327 329 330 328 327 326 327 327 326 326 326 327 328 328 328 328 328 326 327 327 330 334 335 336 336 337 336 335 335
313 313 311 315 315 316 317 318 319 319 319 317 321 320 318 322 323 324 323 326 325 327 327 325 323 323 323 322 323 325 326 326 326 327 326 326 326 326 325 326 326 326 327 326 325 325 327 327 327 328 328 327 325 326 329 329 330 332 333 333 332 331 332
300 295 315 313 314 315 316 317 322 325 325 324 324 323 321 324 325 325 325 326 326 327 326 325 323 323 323 323 324 326 327 324 325 325 324 323 322 320 319 321 322 321 323 323 323 324 323 326 326 325 325 325 325 326 326 327 326 326 327 328 329 328 327
301 302 312 314 318 319 320 318 317 319 324 327 327 327 326 328 326 325 325 327 327 327 325 324 323 323 324 324 324 325 325 324 324 323 321 318 318 318 319 319 320 319 320 319 320 321 320 321 322 323 322 322 323 325 327 327 324 324 323 322 321 321 322
310 314 313 315 318 319 320 321 322 322 320 322 324 324 325 329 328 327 327 328 328 327 324 324 323 322 323 324 323 321 321 322 322 321 320 319 319 319 318 318 318 318 319 320 321 323 321 319 319 321 321 320 323 325 325 329 326 321 321 323 320 318 319
302 306 312 314 306 309 313 318 321 323 325 323 322 324 325 329 328 327 327 328 329 328 325 323 324 323 323 322 321 321 322 322 322 323 323 323 323 323 324 325 324 324 323 323 323 325 326 327 325 324 324 322 319 319 321 323 327 326 325 321 319 319 320
305 313 317 320 316 315 319 319 323 324 324 327 327 326 326 327 329 329 327 326 325 325 324 325 324 323 323 322 322 321 321 321 322 323 323 323 323 323 325 323 322 323 324 324 324 324 327 327 325 324 325 325 325 327 330 330 324 322 323 323 323 323 322
315 319 319 319 318 316 320 323 323 323 324 326 327 327 327 327 327 329 328 327 324 323 323 324 324 324 323 322 322 321 322 322 322 323 324 324 325 326 326 324 323 322 323 325 326 325 326 326 326 326 326 327 328 330 330 327 325 323 321 321 322 323 325
315 322 322 322 321 321 322 323 324 324 326 325 324 323 325 325 326 329 327 327 328 325 322 322 324 324 323 323 324 323 322 322 322 323 324 324 324 323 323 323 322 321 322 325 326 326 325 325 326 327 325 324 327 328 328 328 328 326 324 323 323 324 325

ECMWFFLT2_sfc_thetae_132.txt.gz
Theta_e
302 302 307 307 304 293 299 300 297 299 303 302 296 300 302 299 291 292 301 303 306 311 313 320 319 322 323 325 326 328 329 331 330 331 332 333 333 330 334 335 335 336 337 338 338 337 337 337 337 339 343 345 345 346 346 345 345 349 348 350 350 351 350
305 307 308 308 307 304 300 297 299 306 308 305 298 291 291 290 288 290 301 298 299 299 297 316 317 317 320 321 325 328 327 330 329 330 331 332 333 334 333 335 337 338 340 338 338 338 338 337 337 339 343 345 346 347 347 346 346 347 349 349 350 350 350
307 310 307 306 309 309 303 301 310 300 295 292 297 295 288 288 286 288 294 301 300 300 302 313 313 316 318 320 322 324 326 328 329 330 332 333 334 334 338 333 334 335 336 338 339 338 340 338 338 340 344 346 346 347 348 348 346 348 350 350 350 351 351
302 302 301 295 301 307 308 308 304 306 301 297 294 297 295 292 288 289 289 296 294 306 309 315 314 317 319 321 321 322 324 325 327 330 332 332 332 333 336 335 333 335 336 338 340 339 339 339 337 339 343 345 346 346 348 348 348 349 351 351 351 350 351
300 294 298 298 300 299 300 300 299 302 303 306 302 302 297 292 289 288 288 287 295 304 316 317 318 319 321 322 321 322 325 327 327 328 330 332 332 332 336 337 337 336 336 338 340 341 340 340 340 341 343 344 346 346 347 349 347 348 350 352 351 351 351
292 295 301 303 305 303 301 299 297 298 297 297 293 291 303 301 291 287 288 287 295 308 323 321 319 322 324 324 322 322 325 327 327 329 331 332 332 334 335 337 339 338 337 338 339 339 341 340 340 340 343 344 345 346 347 349 349 348 350 352 352 352 352
296 299 306 309 309 306 304 303 302 304 303 299 292 287 292 302 302 302 295 291 294 310 319 321 322 324 325 326 326 325 326 326 327 329 332 334 333 334 336 335 337 341 340 338 337 339 338 340 340 341 342 344 345 346 347 348 349 348 350 352 353 353 352
300 302 304 307 308 308 306 306 305 304 301 302 298 293 298 296 300 295 296 292 296 308 319 321 321 323 325 327 327 325 325 326 327 329 333 333 333 336 337 335 338 338 338 339 336 337 337 339 339 341 341 344 346 347 347 348 349 350 350 351 352 352 351
289 293 297 298 302 304 302 302 305 304 305 307 306 304 300 296 298 299 292 288 294 305 320 321 322 322 322 324 327 326 323 324 326 329 332 333 333 332 332 334 336 337 336 338 339 336 336 339 340 340 341 343 346 347 348 348 350 351 351 352 351 351 351
284 286 286 288 291 295 301 308 308 306 307 306 302 298 296 288 297 300 294 293 299 306 313 315 316 316 316 319 324 326 325 325 326 328 330 329 329 329 329 332 334 335 336 336 337 339 337 338 339 341 340 343 345 346 348 349 349 350 351 351 350 350 350
286 288 292 297 305 297 295 300 304 304 307 308 305 299 294 291 295 297 297 298 298 303 307 309 314 317 315 315 321 321 321 323 324 324 327 329 328 328 330 331 334 336 336 335 336 339 339 338 339 340 341 342 344 345 347 349 350 350 350 350 349 349 349
295 296 297 299 304 296 297 296 301 303 305 306 303 299 294 298 297 290 298 302 302 302 307 309 312 315 316 320 321 322 320 322 323 323 326 333 329 330 331 332 333 334 334 335 336 337 337 340 340 340 340 340 342 344 345 347 349 350 350 349 348 348 348
297 297 297 298 300 300 299 298 299 301 305 304 302 300 303 302 295 293 298 304 302 304 309 312 313 314 317 321 323 324 324 323 323 322 322 323 325 328 330 329 332 335 334 335 336 338 339 339 339 340 340 341 343 343 344 343 344 348 349 349 348 347 346
297 297 298 298 297 299 297 297 299 303 304 304 304 303 305 304 301 301 305 306 305 309 311 314 320 322 322 321 323 324 322 322 322 322 321 322 325 326 327 331 333 335 337 337 338 338 338 337 338 340 340 340 342 342 342 343 344 344 345 346 348 347 346
296 298 300 298 297 297 296 297 296 300 304 304 304 305 307 307 305 308 309 307 306 314 318 320 322 321 322 320 320 322 322 323 323 320 322 323 325 328 328 330 332 333 335 337 337 337 336 336 337 339 340 341 342 343 343 344 344 344 344 343 343 345 345
292 296 297 297 299 297 297 299 300 299 298 299 302 300 304 303 302 305 306 303 306 312 320 321 320 319 319 319 319 320 322 324 322 321 323 325 327 329 330 331 332 331 334 335 336 336 337 337 337 339 340 342 343 343 343 343 344 344 343 341 341 342 343
292 296 298 300 298 294 292 295 301 304 302 302 304 306 310 307 306 301 299 299 308 317 322 318 317 319 320 319 320 318 320 320 320 320 322 325 327 328 329 330 333 333 334 334 334 335 338 338 338 341 343 342 341 343 343 344 345 345 342 341 341 341 342
289 296 298 297 290 285 287 298 304 305 301 304 305 306 310 312 308 303 304 307 316 320 318 317 316 318 317 318 318 321 320 318 319 322 325 328 330 328 328 330 330 330 331 332 335 337 338 339 342 343 345 343 343 345 345 345 345 344 342 341 341 341 342
290 294 294 290 285 286 296 306 310 308 313 313 311 311 313 315 316 318 318 318 319 320 320 319 319 318 318 321 322 324 325 324 322 323 326 328 328 327 327 328 330 330 330 330 330 333 336 340 342 344 343 344 344 344 343 343 344 344 343 341 340 340 342
291 290 289 283 285 295 302 304 309 310 312 312 310 308 311 313 316 316 316 317 318 319 318 318 318 318 321 320 324 326 327 326 324 323 322 323 325 325 327 328 329 329 329 329 330 330 336 337 339 341 341 342 343 343 343 344 343 343 342 341 340 341 342
288 287 287 288 295 296 298 301 305 303 301 303 303 299 305 312 316 317 317 317 318 318 318 318 319 320 320 316 315 323 325 325 325 324 323 326 326 326 327 331 332 331 333 333 335 336 336 336 336 337 340 342 342 341 341 343 343 342 342 341 340 341 342
291 288 287 286 286 285 291 300 306 307 308 310 311 306 303 311 318 321 319 317 317 316 318 317 318 319 314 310 310 319 325 326 326 327 328 329 328 328 327 329 330 332 335 336 336 332 331 332 334 335 338 341 342 341 341 340 340 340 340 340 341 342 341
290 288 284 284 285 288 296 303 308 309 312 313 310 304 298 306 314 321 320 318 318 318 317 314 315 312 306 306 310 319 324 326 327 325 327 330 329 328 327 328 329 332 333 334 334 333 330 330 332 333 334 339 340 340 341 341 340 340 340 340 341 341 341
292 288 286 285 291 293 303 307 308 309 309 306 297 289 291 304 312 319 319 316 317 316 315 315 312 310 305 308 313 319 324 324 324 324 325 327 327 328 329 330 332 332 332 331 330 329 329 329 331 332 334 338 339 339 339 340 339 340 340 340 339 339 341
295 295 288 289 292 305 309 310 311 311 313 302 291 284 293 306 312 319 319 317 318 317 316 315 313 315 316 316 320 325 326 325 325 327 328 327 329 329 330 330 331 329 329 328 327 328 328 329 331 333 336 339 338 338 338 338 338 339 340 340 339 339 339
290 290 288 288 292 301 308 310 313 313 307 294 291 299 307 311 313 315 319 319 319 318 317 315 316 317 321 325 326 326 327 327 328 328 328 328 329 329 330 330 328 326 326 325 326 327 327 328 330 332 334 336 336 337 336 335 337 339 339 339 339 338 337
293 293 290 287 285 301 311 311 310 312 300 297 302 309 314 317 316 319 320 321 322 321 318 320 320 320 321 323 324 325 327 328 327 327 327 327 327 326 325 325 327 325 323 324 326 326 327 327 329 330 333 334 334 335 334 335 338 339 339 339 338 336 336
289 291 291 290 293 299 313 309 301 307 309 310 312 313 313 318 318 319 319 319 322 323 322 321 319 319 320 320 323 324 326 327 327 327 327 327 326 326 326 326 325 325 323 324 325 326 326 326 327 327 329 331 332 332 332 336 336 337 336 336 336 335 334
297 296 298 301 304 307 309 312 310 313 317 319 316 314 316 317 318 318 319 321 321 322 323 321 319 318 318 320 321 322 324 324 324 326 325 324 324 324 324 323 325 324 322 322 323 323 324 324 324 324 325 328 330 330 333 335 335 335 335 335 334 333 332
308 310 309 313 311 312 314 316 316 316 316 318 317 318 316 318 317 319 319 321 321 322 322 320 317 318 319 320 321 322 323 323 323 324 323 322 323 323 323 323 323 322 322 322 321 321 322 323 322 323 323 323 324 326 332 334 334 334 333 332 331 331 331
300 294 310 310 311 314 317 318 320 320 319 319 318 317 317 319 321 321 321 322 322 323 322 320 318 318 319 319 320 322 323 322 320 318 317 317 318 319 318 319 319 318 319 319 318 319 318 320 320 321 321 322 323 325 327 330 331 331 330 328 327 324 323
296 298 308 314 316 315 316 317 318 318 319 320 320 319 321 322 322 321 322 323 322 322 320 319 319 319 319 320 320 320 320 318 316 315 315 315 316 317 317 317 317 316 316 316 317 317 317 318 319 320 320 321 322 323 324 326 327 326 325 324 322 321 321
304 312 315 315 315 315 315 316 315 316 317 318 320 322 323 323 321 321 323 323 323 322 321 321 321 320 319 321 321 320 318 316 315 314 314 314 315 315 315 316 317 315 315 316 316 316 315 315 316 317 318 320 322 323 324 323 323 323 323 325 322 320 320
301 303 307 309 305 304 310 316 319 321 321 321 322 322 323 322 321 321 322 322 322 321 321 322 322 320 319 319 319 318 317 315 315 315 316 315 315 316 318 320 319 320 317 314 313 314 314 316 317 317 319 322 324 326 327 326 323 321 320 318 317 316 317
299 305 310 309 309 310 311 317 320 322 324 324 323 322 322 323 321 322 323 321 318 319 319 322 322 319 319 319 320 318 316 316 317 318 318 317 317 318 322 323 321 320 320 320 319 318 319 321 320 320 319 320 321 324 325 327 325 322 319 318 317 317 317
311 312 313 315 316 315 316 318 319 321 322 324 322 320 321 321 321 321 321 321 320 317 319 321 321 320 319 319 319 317 318 320 320 320 319 319 320 322 323 323 322 320 320 321 320 321 320 321 320 320 319 321 323 326 326 326 323 321 320 318 316 317 318
309 316 318 320 319 319 319 320 321 321 321 322 320 320 321 319 321 322 322 320 321 320 320 320 319 320 320 320 320 319 319 321 322 322 322 322 323 322 322 323 323 323 322 322 321 321 322 322 322 323 323 323 325 327 326 324 323 321 320 320 318 318 319